<?xml version="1.0" encoding="UTF-8" standalone="no" ?>
<gpx xmlns="http://www.topografix.com/GPX/1/1" xmlns:xsi="http://www.w3.org/2001/XMLSchema-instance" xsi:schemaLocation="http://www.topografix.com/GPX/1/1 http://www.topografix.com/GPX/1/1/gpx.xsd" version="1.1" creator="VisuGPX - https://www.visugpx.com">
  <metadata>
    <name>Étang Baudet (autre chemin)</name>
    <desc><![CDATA[Supère balade avec Manon (sa jument et sa mule) et moi (Ténébra)
même si nous tombons sur quelques chemins  un peu marécageux... (choisir la bonne période !)]]></desc>
  </metadata>
  <trk>
    <name><![CDATA[Saint-Léger-en-Yvelines Autre]]></name>
    <trkseg>
      <trkpt lat="48.70334" lon="1.76744">
        <ele>173.8</ele>
        <time>2015-05-24T08:15:05.000Z</time>
      </trkpt>
      <trkpt lat="48.70334" lon="1.76745">
        <ele>173.8</ele>
        <time>2015-05-24T08:15:06.000Z</time>
      </trkpt>
      <trkpt lat="48.70334" lon="1.76766">
        <ele>174</ele>
        <time>2015-05-24T08:15:16.000Z</time>
      </trkpt>
      <trkpt lat="48.70333" lon="1.76786">
        <ele>174.3</ele>
        <time>2015-05-24T08:15:27.000Z</time>
      </trkpt>
      <trkpt lat="48.70332" lon="1.76787">
        <ele>174.3</ele>
        <time>2015-05-24T08:15:28.000Z</time>
      </trkpt>
      <trkpt lat="48.70334" lon="1.76813">
        <ele>175</ele>
        <time>2015-05-24T08:15:40.000Z</time>
      </trkpt>
      <trkpt lat="48.70336" lon="1.76826">
        <ele>175.1</ele>
        <time>2015-05-24T08:15:46.000Z</time>
      </trkpt>
      <trkpt lat="48.70336" lon="1.76844">
        <ele>175.5</ele>
        <time>2015-05-24T08:15:54.000Z</time>
      </trkpt>
      <trkpt lat="48.70337" lon="1.76872">
        <ele>176</ele>
        <time>2015-05-24T08:16:06.000Z</time>
      </trkpt>
      <trkpt lat="48.70337" lon="1.76888">
        <ele>176</ele>
        <time>2015-05-24T08:16:13.000Z</time>
      </trkpt>
      <trkpt lat="48.70338" lon="1.76895">
        <ele>176</ele>
        <time>2015-05-24T08:16:17.000Z</time>
      </trkpt>
      <trkpt lat="48.70339" lon="1.76911">
        <ele>176</ele>
        <time>2015-05-24T08:16:27.000Z</time>
      </trkpt>
      <trkpt lat="48.7034" lon="1.76916">
        <ele>176</ele>
        <time>2015-05-24T08:16:30.000Z</time>
      </trkpt>
      <trkpt lat="48.70339" lon="1.76925">
        <ele>176.3</ele>
        <time>2015-05-24T08:16:36.000Z</time>
      </trkpt>
      <trkpt lat="48.70339" lon="1.76929">
        <ele>176.4</ele>
        <time>2015-05-24T08:16:38.000Z</time>
      </trkpt>
      <trkpt lat="48.70339" lon="1.76941">
        <ele>176.9</ele>
        <time>2015-05-24T08:16:44.000Z</time>
      </trkpt>
      <trkpt lat="48.70338" lon="1.76946">
        <ele>177</ele>
        <time>2015-05-24T08:16:47.000Z</time>
      </trkpt>
      <trkpt lat="48.70342" lon="1.76958">
        <ele>177</ele>
        <time>2015-05-24T08:16:52.000Z</time>
      </trkpt>
      <trkpt lat="48.70341" lon="1.76971">
        <ele>177</ele>
        <time>2015-05-24T08:16:59.000Z</time>
      </trkpt>
      <trkpt lat="48.70341" lon="1.76973">
        <ele>177</ele>
        <time>2015-05-24T08:17:00.000Z</time>
      </trkpt>
      <trkpt lat="48.70342" lon="1.76987">
        <ele>176.8</ele>
        <time>2015-05-24T08:17:05.000Z</time>
      </trkpt>
      <trkpt lat="48.70343" lon="1.77005">
        <ele>176.5</ele>
        <time>2015-05-24T08:17:13.000Z</time>
      </trkpt>
      <trkpt lat="48.70345" lon="1.77011">
        <ele>176.3</ele>
        <time>2015-05-24T08:17:16.000Z</time>
      </trkpt>
      <trkpt lat="48.70347" lon="1.7702">
        <ele>176.2</ele>
        <time>2015-05-24T08:17:20.000Z</time>
      </trkpt>
      <trkpt lat="48.7035" lon="1.77034">
        <ele>176.1</ele>
        <time>2015-05-24T08:17:27.000Z</time>
      </trkpt>
      <trkpt lat="48.7035" lon="1.7704">
        <ele>176.2</ele>
        <time>2015-05-24T08:17:30.000Z</time>
      </trkpt>
      <trkpt lat="48.70351" lon="1.77046">
        <ele>176.2</ele>
        <time>2015-05-24T08:17:34.000Z</time>
      </trkpt>
      <trkpt lat="48.70354" lon="1.77061">
        <ele>176.4</ele>
        <time>2015-05-24T08:17:40.000Z</time>
      </trkpt>
      <trkpt lat="48.70355" lon="1.77065">
        <ele>176.5</ele>
        <time>2015-05-24T08:17:42.000Z</time>
      </trkpt>
      <trkpt lat="48.70358" lon="1.77081">
        <ele>176.9</ele>
        <time>2015-05-24T08:17:49.000Z</time>
      </trkpt>
      <trkpt lat="48.7036" lon="1.77099">
        <ele>177</ele>
        <time>2015-05-24T08:17:58.000Z</time>
      </trkpt>
      <trkpt lat="48.70358" lon="1.77105">
        <ele>177</ele>
        <time>2015-05-24T08:18:01.000Z</time>
      </trkpt>
      <trkpt lat="48.70358" lon="1.77111">
        <ele>177</ele>
        <time>2015-05-24T08:18:04.000Z</time>
      </trkpt>
      <trkpt lat="48.70356" lon="1.77127">
        <ele>177</ele>
        <time>2015-05-24T08:18:11.000Z</time>
      </trkpt>
      <trkpt lat="48.70358" lon="1.7714">
        <ele>177</ele>
        <time>2015-05-24T08:18:18.000Z</time>
      </trkpt>
      <trkpt lat="48.70359" lon="1.77155">
        <ele>177</ele>
        <time>2015-05-24T08:18:26.000Z</time>
      </trkpt>
      <trkpt lat="48.70361" lon="1.77171">
        <ele>177</ele>
        <time>2015-05-24T08:18:34.000Z</time>
      </trkpt>
      <trkpt lat="48.70362" lon="1.77184">
        <ele>177</ele>
        <time>2015-05-24T08:18:40.000Z</time>
      </trkpt>
      <trkpt lat="48.70361" lon="1.77194">
        <ele>177</ele>
        <time>2015-05-24T08:18:46.000Z</time>
      </trkpt>
      <trkpt lat="48.70362" lon="1.772">
        <ele>177</ele>
        <time>2015-05-24T08:18:49.000Z</time>
      </trkpt>
      <trkpt lat="48.70362" lon="1.77212">
        <ele>177</ele>
        <time>2015-05-24T08:18:55.000Z</time>
      </trkpt>
      <trkpt lat="48.70365" lon="1.7723">
        <ele>177</ele>
        <time>2015-05-24T08:19:04.000Z</time>
      </trkpt>
      <trkpt lat="48.70369" lon="1.77247">
        <ele>177</ele>
        <time>2015-05-24T08:19:11.000Z</time>
      </trkpt>
      <trkpt lat="48.7037" lon="1.77261">
        <ele>177</ele>
        <time>2015-05-24T08:19:18.000Z</time>
      </trkpt>
      <trkpt lat="48.70372" lon="1.7727">
        <ele>177</ele>
        <time>2015-05-24T08:19:22.000Z</time>
      </trkpt>
      <trkpt lat="48.70376" lon="1.77279">
        <ele>177</ele>
        <time>2015-05-24T08:19:26.000Z</time>
      </trkpt>
      <trkpt lat="48.70379" lon="1.77284">
        <ele>177</ele>
        <time>2015-05-24T08:19:28.000Z</time>
      </trkpt>
      <trkpt lat="48.7038" lon="1.77297">
        <ele>177</ele>
        <time>2015-05-24T08:19:35.000Z</time>
      </trkpt>
      <trkpt lat="48.70382" lon="1.77306">
        <ele>177</ele>
        <time>2015-05-24T08:19:38.000Z</time>
      </trkpt>
      <trkpt lat="48.70381" lon="1.77311">
        <ele>177</ele>
        <time>2015-05-24T08:19:40.000Z</time>
      </trkpt>
      <trkpt lat="48.70389" lon="1.77322">
        <ele>177</ele>
        <time>2015-05-24T08:19:46.000Z</time>
      </trkpt>
      <trkpt lat="48.70397" lon="1.77343">
        <ele>177</ele>
        <time>2015-05-24T08:19:52.000Z</time>
      </trkpt>
      <trkpt lat="48.70403" lon="1.77363">
        <ele>177</ele>
        <time>2015-05-24T08:19:57.000Z</time>
      </trkpt>
      <trkpt lat="48.7041" lon="1.7739">
        <ele>177</ele>
        <time>2015-05-24T08:20:03.000Z</time>
      </trkpt>
      <trkpt lat="48.70418" lon="1.77415">
        <ele>176.9</ele>
        <time>2015-05-24T08:20:09.000Z</time>
      </trkpt>
      <trkpt lat="48.70423" lon="1.77435">
        <ele>176.9</ele>
        <time>2015-05-24T08:20:14.000Z</time>
      </trkpt>
      <trkpt lat="48.70435" lon="1.77463">
        <ele>177</ele>
        <time>2015-05-24T08:20:21.000Z</time>
      </trkpt>
      <trkpt lat="48.70442" lon="1.77484">
        <ele>177</ele>
        <time>2015-05-24T08:20:26.000Z</time>
      </trkpt>
      <trkpt lat="48.70453" lon="1.77508">
        <ele>176.7</ele>
        <time>2015-05-24T08:20:32.000Z</time>
      </trkpt>
      <trkpt lat="48.70462" lon="1.77536">
        <ele>176.4</ele>
        <time>2015-05-24T08:20:39.000Z</time>
      </trkpt>
      <trkpt lat="48.7047" lon="1.77559">
        <ele>176.2</ele>
        <time>2015-05-24T08:20:44.000Z</time>
      </trkpt>
      <trkpt lat="48.70478" lon="1.7758">
        <ele>176.9</ele>
        <time>2015-05-24T08:20:49.000Z</time>
      </trkpt>
      <trkpt lat="48.70482" lon="1.77604">
        <ele>177</ele>
        <time>2015-05-24T08:20:54.000Z</time>
      </trkpt>
      <trkpt lat="48.70494" lon="1.77632">
        <ele>177</ele>
        <time>2015-05-24T08:21:00.000Z</time>
      </trkpt>
      <trkpt lat="48.70498" lon="1.77652">
        <ele>177</ele>
        <time>2015-05-24T08:21:05.000Z</time>
      </trkpt>
      <trkpt lat="48.70507" lon="1.77684">
        <ele>177</ele>
        <time>2015-05-24T08:21:12.000Z</time>
      </trkpt>
      <trkpt lat="48.70521" lon="1.77712">
        <ele>177</ele>
        <time>2015-05-24T08:21:18.000Z</time>
      </trkpt>
      <trkpt lat="48.7053" lon="1.77736">
        <ele>176.9</ele>
        <time>2015-05-24T08:21:23.000Z</time>
      </trkpt>
      <trkpt lat="48.70533" lon="1.77753">
        <ele>176.7</ele>
        <time>2015-05-24T08:21:27.000Z</time>
      </trkpt>
      <trkpt lat="48.70544" lon="1.77775">
        <ele>176</ele>
        <time>2015-05-24T08:21:32.000Z</time>
      </trkpt>
      <trkpt lat="48.70556" lon="1.77801">
        <ele>175.2</ele>
        <time>2015-05-24T08:21:38.000Z</time>
      </trkpt>
      <trkpt lat="48.70562" lon="1.77828">
        <ele>174.8</ele>
        <time>2015-05-24T08:21:44.000Z</time>
      </trkpt>
      <trkpt lat="48.70568" lon="1.7785">
        <ele>174.5</ele>
        <time>2015-05-24T08:21:49.000Z</time>
      </trkpt>
      <trkpt lat="48.70573" lon="1.77874">
        <ele>174.4</ele>
        <time>2015-05-24T08:21:54.000Z</time>
      </trkpt>
      <trkpt lat="48.70582" lon="1.77896">
        <ele>174</ele>
        <time>2015-05-24T08:21:59.000Z</time>
      </trkpt>
      <trkpt lat="48.70589" lon="1.77914">
        <ele>173.8</ele>
        <time>2015-05-24T08:22:03.000Z</time>
      </trkpt>
      <trkpt lat="48.706" lon="1.77935">
        <ele>173.8</ele>
        <time>2015-05-24T08:22:08.000Z</time>
      </trkpt>
      <trkpt lat="48.70605" lon="1.77956">
        <ele>174.1</ele>
        <time>2015-05-24T08:22:13.000Z</time>
      </trkpt>
      <trkpt lat="48.70606" lon="1.77966">
        <ele>174.1</ele>
        <time>2015-05-24T08:22:16.000Z</time>
      </trkpt>
      <trkpt lat="48.70608" lon="1.77985">
        <ele>174.1</ele>
        <time>2015-05-24T08:22:21.000Z</time>
      </trkpt>
      <trkpt lat="48.70619" lon="1.78004">
        <ele>173.7</ele>
        <time>2015-05-24T08:22:26.000Z</time>
      </trkpt>
      <trkpt lat="48.70624" lon="1.78014">
        <ele>173.5</ele>
        <time>2015-05-24T08:22:28.000Z</time>
      </trkpt>
      <trkpt lat="48.70638" lon="1.78038">
        <ele>173</ele>
        <time>2015-05-24T08:22:33.000Z</time>
      </trkpt>
      <trkpt lat="48.70641" lon="1.78042">
        <ele>172.9</ele>
        <time>2015-05-24T08:22:34.000Z</time>
      </trkpt>
      <trkpt lat="48.70646" lon="1.78065">
        <ele>173</ele>
        <time>2015-05-24T08:22:40.000Z</time>
      </trkpt>
      <trkpt lat="48.70652" lon="1.78077">
        <ele>173</ele>
        <time>2015-05-24T08:22:44.000Z</time>
      </trkpt>
      <trkpt lat="48.70657" lon="1.78099">
        <ele>173.1</ele>
        <time>2015-05-24T08:22:49.000Z</time>
      </trkpt>
      <trkpt lat="48.70662" lon="1.78108">
        <ele>173.1</ele>
        <time>2015-05-24T08:22:51.000Z</time>
      </trkpt>
      <trkpt lat="48.70667" lon="1.7813">
        <ele>173</ele>
        <time>2015-05-24T08:22:56.000Z</time>
      </trkpt>
      <trkpt lat="48.70669" lon="1.78157">
        <ele>172.9</ele>
        <time>2015-05-24T08:23:01.000Z</time>
      </trkpt>
      <trkpt lat="48.70677" lon="1.7818">
        <ele>172.6</ele>
        <time>2015-05-24T08:23:06.000Z</time>
      </trkpt>
      <trkpt lat="48.70685" lon="1.78205">
        <ele>172.1</ele>
        <time>2015-05-24T08:23:12.000Z</time>
      </trkpt>
      <trkpt lat="48.70695" lon="1.7822">
        <ele>171.1</ele>
        <time>2015-05-24T08:23:16.000Z</time>
      </trkpt>
      <trkpt lat="48.707" lon="1.7824">
        <ele>170.8</ele>
        <time>2015-05-24T08:23:21.000Z</time>
      </trkpt>
      <trkpt lat="48.70705" lon="1.78261">
        <ele>170.9</ele>
        <time>2015-05-24T08:23:26.000Z</time>
      </trkpt>
      <trkpt lat="48.70713" lon="1.78283">
        <ele>170.8</ele>
        <time>2015-05-24T08:23:31.000Z</time>
      </trkpt>
      <trkpt lat="48.7072" lon="1.78306">
        <ele>171.1</ele>
        <time>2015-05-24T08:23:36.000Z</time>
      </trkpt>
      <trkpt lat="48.70727" lon="1.78337">
        <ele>171.7</ele>
        <time>2015-05-24T08:23:44.000Z</time>
      </trkpt>
      <trkpt lat="48.70737" lon="1.7836">
        <ele>171.5</ele>
        <time>2015-05-24T08:23:49.000Z</time>
      </trkpt>
      <trkpt lat="48.70749" lon="1.78384">
        <ele>171.9</ele>
        <time>2015-05-24T08:23:54.000Z</time>
      </trkpt>
      <trkpt lat="48.70756" lon="1.78411">
        <ele>172.6</ele>
        <time>2015-05-24T08:23:59.000Z</time>
      </trkpt>
      <trkpt lat="48.70764" lon="1.78436">
        <ele>172.8</ele>
        <time>2015-05-24T08:24:04.000Z</time>
      </trkpt>
      <trkpt lat="48.70766" lon="1.78454">
        <ele>173.1</ele>
        <time>2015-05-24T08:24:08.000Z</time>
      </trkpt>
      <trkpt lat="48.70779" lon="1.78473">
        <ele>173</ele>
        <time>2015-05-24T08:24:12.000Z</time>
      </trkpt>
      <trkpt lat="48.7078" lon="1.785">
        <ele>173.8</ele>
        <time>2015-05-24T08:24:18.000Z</time>
      </trkpt>
      <trkpt lat="48.70785" lon="1.78517">
        <ele>173.6</ele>
        <time>2015-05-24T08:24:22.000Z</time>
      </trkpt>
      <trkpt lat="48.70793" lon="1.78537">
        <ele>173.6</ele>
        <time>2015-05-24T08:24:27.000Z</time>
      </trkpt>
      <trkpt lat="48.70795" lon="1.78543">
        <ele>173.7</ele>
        <time>2015-05-24T08:24:29.000Z</time>
      </trkpt>
      <trkpt lat="48.70798" lon="1.78555">
        <ele>174</ele>
        <time>2015-05-24T08:24:36.000Z</time>
      </trkpt>
      <trkpt lat="48.70803" lon="1.78569">
        <ele>174.5</ele>
        <time>2015-05-24T08:24:43.000Z</time>
      </trkpt>
      <trkpt lat="48.70801" lon="1.78573">
        <ele>174.6</ele>
        <time>2015-05-24T08:24:49.000Z</time>
      </trkpt>
      <trkpt lat="48.708" lon="1.78577">
        <ele>174.8</ele>
        <time>2015-05-24T08:24:52.000Z</time>
      </trkpt>
      <trkpt lat="48.70806" lon="1.78597">
        <ele>175.5</ele>
        <time>2015-05-24T08:25:02.000Z</time>
      </trkpt>
      <trkpt lat="48.70806" lon="1.78605">
        <ele>175.8</ele>
        <time>2015-05-24T08:25:07.000Z</time>
      </trkpt>
      <trkpt lat="48.70808" lon="1.78608">
        <ele>175.8</ele>
        <time>2015-05-24T08:25:09.000Z</time>
      </trkpt>
      <trkpt lat="48.70809" lon="1.78612">
        <ele>175.9</ele>
        <time>2015-05-24T08:25:16.000Z</time>
      </trkpt>
      <trkpt lat="48.70807" lon="1.78611">
        <ele>175.9</ele>
        <time>2015-05-24T08:25:20.000Z</time>
      </trkpt>
      <trkpt lat="48.70807" lon="1.7862">
        <ele>176</ele>
        <time>2015-05-24T08:27:42.000Z</time>
      </trkpt>
      <trkpt lat="48.70808" lon="1.7862">
        <ele>175.9</ele>
        <time>2015-05-24T08:27:43.000Z</time>
      </trkpt>
      <trkpt lat="48.70807" lon="1.78615">
        <ele>175.9</ele>
        <time>2015-05-24T08:27:51.000Z</time>
      </trkpt>
      <trkpt lat="48.70808" lon="1.78616">
        <ele>175.9</ele>
        <time>2015-05-24T08:27:52.000Z</time>
      </trkpt>
      <trkpt lat="48.70809" lon="1.78616">
        <ele>175.9</ele>
        <time>2015-05-24T08:27:55.000Z</time>
      </trkpt>
      <trkpt lat="48.70815" lon="1.78617">
        <ele>175.7</ele>
        <time>2015-05-24T08:27:59.000Z</time>
      </trkpt>
      <trkpt lat="48.70812" lon="1.78616">
        <ele>175.8</ele>
        <time>2015-05-24T08:28:04.000Z</time>
      </trkpt>
      <trkpt lat="48.71533" lon="1.77445">
        <ele>153.1</ele>
        <time>2015-05-24T08:59:33.000Z</time>
      </trkpt>
      <trkpt lat="48.71534" lon="1.77446">
        <ele>153.2</ele>
        <time>2015-05-24T08:59:34.000Z</time>
      </trkpt>
      <trkpt lat="48.71542" lon="1.77443">
        <ele>153</ele>
        <time>2015-05-24T08:59:38.000Z</time>
      </trkpt>
      <trkpt lat="48.71549" lon="1.77442">
        <ele>152.9</ele>
        <time>2015-05-24T08:59:44.000Z</time>
      </trkpt>
      <trkpt lat="48.7155" lon="1.77441">
        <ele>152.9</ele>
        <time>2015-05-24T08:59:45.000Z</time>
      </trkpt>
      <trkpt lat="48.71558" lon="1.77443">
        <ele>152.9</ele>
        <time>2015-05-24T08:59:51.000Z</time>
      </trkpt>
      <trkpt lat="48.71566" lon="1.77445">
        <ele>152.8</ele>
        <time>2015-05-24T09:00:02.000Z</time>
      </trkpt>
      <trkpt lat="48.7157" lon="1.77441">
        <ele>152.3</ele>
        <time>2015-05-24T09:00:07.000Z</time>
      </trkpt>
      <trkpt lat="48.71573" lon="1.77436">
        <ele>152</ele>
        <time>2015-05-24T09:00:10.000Z</time>
      </trkpt>
      <trkpt lat="48.71582" lon="1.77436">
        <ele>151.8</ele>
        <time>2015-05-24T09:00:15.000Z</time>
      </trkpt>
      <trkpt lat="48.71588" lon="1.77431">
        <ele>151.4</ele>
        <time>2015-05-24T09:00:20.000Z</time>
      </trkpt>
      <trkpt lat="48.71607" lon="1.77439">
        <ele>151.1</ele>
        <time>2015-05-24T09:00:27.000Z</time>
      </trkpt>
      <trkpt lat="48.71618" lon="1.77446">
        <ele>151</ele>
        <time>2015-05-24T09:00:34.000Z</time>
      </trkpt>
      <trkpt lat="48.71621" lon="1.77448">
        <ele>151.2</ele>
        <time>2015-05-24T09:00:37.000Z</time>
      </trkpt>
      <trkpt lat="48.71622" lon="1.77448">
        <ele>151.2</ele>
        <time>2015-05-24T09:00:38.000Z</time>
      </trkpt>
      <trkpt lat="48.71625" lon="1.77449">
        <ele>151.3</ele>
        <time>2015-05-24T09:00:40.000Z</time>
      </trkpt>
      <trkpt lat="48.71629" lon="1.77448">
        <ele>150.9</ele>
        <time>2015-05-24T09:00:45.000Z</time>
      </trkpt>
      <trkpt lat="48.71637" lon="1.77453">
        <ele>151</ele>
        <time>2015-05-24T09:00:51.000Z</time>
      </trkpt>
      <trkpt lat="48.71643" lon="1.77453">
        <ele>150.8</ele>
        <time>2015-05-24T09:00:55.000Z</time>
      </trkpt>
      <trkpt lat="48.71651" lon="1.77458">
        <ele>150.8</ele>
        <time>2015-05-24T09:01:01.000Z</time>
      </trkpt>
      <trkpt lat="48.71653" lon="1.77459">
        <ele>150.8</ele>
        <time>2015-05-24T09:01:03.000Z</time>
      </trkpt>
      <trkpt lat="48.71664" lon="1.77462">
        <ele>150.2</ele>
        <time>2015-05-24T09:01:10.000Z</time>
      </trkpt>
      <trkpt lat="48.71668" lon="1.77467">
        <ele>149.9</ele>
        <time>2015-05-24T09:01:13.000Z</time>
      </trkpt>
      <trkpt lat="48.71673" lon="1.77473">
        <ele>149.8</ele>
        <time>2015-05-24T09:01:19.000Z</time>
      </trkpt>
      <trkpt lat="48.71683" lon="1.77477">
        <ele>149.9</ele>
        <time>2015-05-24T09:01:25.000Z</time>
      </trkpt>
      <trkpt lat="48.7169" lon="1.7748">
        <ele>149.8</ele>
        <time>2015-05-24T09:01:29.000Z</time>
      </trkpt>
      <trkpt lat="48.71699" lon="1.77479">
        <ele>149.4</ele>
        <time>2015-05-24T09:01:35.000Z</time>
      </trkpt>
      <trkpt lat="48.71704" lon="1.77478">
        <ele>149.3</ele>
        <time>2015-05-24T09:01:39.000Z</time>
      </trkpt>
      <trkpt lat="48.71708" lon="1.77478">
        <ele>149.2</ele>
        <time>2015-05-24T09:01:41.000Z</time>
      </trkpt>
      <trkpt lat="48.71716" lon="1.77483">
        <ele>149.2</ele>
        <time>2015-05-24T09:01:46.000Z</time>
      </trkpt>
      <trkpt lat="48.71719" lon="1.77481">
        <ele>149.1</ele>
        <time>2015-05-24T09:01:48.000Z</time>
      </trkpt>
      <trkpt lat="48.71721" lon="1.77476">
        <ele>149</ele>
        <time>2015-05-24T09:01:53.000Z</time>
      </trkpt>
      <trkpt lat="48.71725" lon="1.77472">
        <ele>148.9</ele>
        <time>2015-05-24T09:01:57.000Z</time>
      </trkpt>
      <trkpt lat="48.71737" lon="1.77477">
        <ele>148.6</ele>
        <time>2015-05-24T09:02:04.000Z</time>
      </trkpt>
      <trkpt lat="48.71743" lon="1.77483">
        <ele>148.5</ele>
        <time>2015-05-24T09:02:08.000Z</time>
      </trkpt>
      <trkpt lat="48.71755" lon="1.77487">
        <ele>148.9</ele>
        <time>2015-05-24T09:02:14.000Z</time>
      </trkpt>
      <trkpt lat="48.71759" lon="1.77483">
        <ele>149</ele>
        <time>2015-05-24T09:02:20.000Z</time>
      </trkpt>
      <trkpt lat="48.71768" lon="1.77462">
        <ele>148.2</ele>
        <time>2015-05-24T09:02:28.000Z</time>
      </trkpt>
      <trkpt lat="48.71773" lon="1.77456">
        <ele>147.8</ele>
        <time>2015-05-24T09:02:33.000Z</time>
      </trkpt>
      <trkpt lat="48.71782" lon="1.7745">
        <ele>147.6</ele>
        <time>2015-05-24T09:02:39.000Z</time>
      </trkpt>
      <trkpt lat="48.71783" lon="1.7745">
        <ele>147.7</ele>
        <time>2015-05-24T09:02:40.000Z</time>
      </trkpt>
      <trkpt lat="48.71798" lon="1.77435">
        <ele>147.3</ele>
        <time>2015-05-24T09:02:51.000Z</time>
      </trkpt>
      <trkpt lat="48.718" lon="1.77434">
        <ele>147.3</ele>
        <time>2015-05-24T09:02:52.000Z</time>
      </trkpt>
      <trkpt lat="48.71809" lon="1.77428">
        <ele>147</ele>
        <time>2015-05-24T09:02:58.000Z</time>
      </trkpt>
      <trkpt lat="48.71811" lon="1.77428">
        <ele>147</ele>
        <time>2015-05-24T09:02:59.000Z</time>
      </trkpt>
      <trkpt lat="48.7182" lon="1.77424">
        <ele>147.2</ele>
        <time>2015-05-24T09:03:05.000Z</time>
      </trkpt>
      <trkpt lat="48.71829" lon="1.77417">
        <ele>146.9</ele>
        <time>2015-05-24T09:03:11.000Z</time>
      </trkpt>
      <trkpt lat="48.71836" lon="1.77413">
        <ele>147.1</ele>
        <time>2015-05-24T09:03:17.000Z</time>
      </trkpt>
      <trkpt lat="48.71844" lon="1.77406">
        <ele>147.1</ele>
        <time>2015-05-24T09:03:23.000Z</time>
      </trkpt>
      <trkpt lat="48.71852" lon="1.77402">
        <ele>146.9</ele>
        <time>2015-05-24T09:03:29.000Z</time>
      </trkpt>
      <trkpt lat="48.71857" lon="1.77401">
        <ele>146.9</ele>
        <time>2015-05-24T09:03:32.000Z</time>
      </trkpt>
      <trkpt lat="48.71862" lon="1.774">
        <ele>146.8</ele>
        <time>2015-05-24T09:03:35.000Z</time>
      </trkpt>
      <trkpt lat="48.71869" lon="1.774">
        <ele>146.6</ele>
        <time>2015-05-24T09:03:39.000Z</time>
      </trkpt>
      <trkpt lat="48.71878" lon="1.77401">
        <ele>146.5</ele>
        <time>2015-05-24T09:03:45.000Z</time>
      </trkpt>
      <trkpt lat="48.71887" lon="1.77403">
        <ele>146.6</ele>
        <time>2015-05-24T09:03:50.000Z</time>
      </trkpt>
      <trkpt lat="48.71888" lon="1.77403">
        <ele>146.6</ele>
        <time>2015-05-24T09:03:51.000Z</time>
      </trkpt>
      <trkpt lat="48.71896" lon="1.77403">
        <ele>146.4</ele>
        <time>2015-05-24T09:03:57.000Z</time>
      </trkpt>
      <trkpt lat="48.71897" lon="1.77403">
        <ele>146.4</ele>
        <time>2015-05-24T09:03:59.000Z</time>
      </trkpt>
      <trkpt lat="48.71903" lon="1.77406">
        <ele>146.5</ele>
        <time>2015-05-24T09:04:04.000Z</time>
      </trkpt>
      <trkpt lat="48.71913" lon="1.7741">
        <ele>146.7</ele>
        <time>2015-05-24T09:04:10.000Z</time>
      </trkpt>
      <trkpt lat="48.71919" lon="1.77414">
        <ele>146.7</ele>
        <time>2015-05-24T09:04:13.000Z</time>
      </trkpt>
      <trkpt lat="48.71925" lon="1.77412">
        <ele>146.4</ele>
        <time>2015-05-24T09:04:18.000Z</time>
      </trkpt>
      <trkpt lat="48.71934" lon="1.77423">
        <ele>146.6</ele>
        <time>2015-05-24T09:04:26.000Z</time>
      </trkpt>
      <trkpt lat="48.71937" lon="1.77424">
        <ele>146.6</ele>
        <time>2015-05-24T09:04:27.000Z</time>
      </trkpt>
      <trkpt lat="48.71944" lon="1.77432">
        <ele>146.6</ele>
        <time>2015-05-24T09:04:34.000Z</time>
      </trkpt>
      <trkpt lat="48.71953" lon="1.77443">
        <ele>146.3</ele>
        <time>2015-05-24T09:04:42.000Z</time>
      </trkpt>
      <trkpt lat="48.7196" lon="1.77453">
        <ele>146.2</ele>
        <time>2015-05-24T09:04:48.000Z</time>
      </trkpt>
      <trkpt lat="48.71972" lon="1.77464">
        <ele>145.7</ele>
        <time>2015-05-24T09:04:55.000Z</time>
      </trkpt>
      <trkpt lat="48.71982" lon="1.77473">
        <ele>147.4</ele>
        <time>2015-05-24T09:05:01.000Z</time>
      </trkpt>
      <trkpt lat="48.7199" lon="1.77485">
        <ele>148</ele>
        <time>2015-05-24T09:05:09.000Z</time>
      </trkpt>
      <trkpt lat="48.71994" lon="1.77487">
        <ele>148.1</ele>
        <time>2015-05-24T09:05:12.000Z</time>
      </trkpt>
      <trkpt lat="48.71997" lon="1.77493">
        <ele>147.7</ele>
        <time>2015-05-24T09:05:16.000Z</time>
      </trkpt>
      <trkpt lat="48.72002" lon="1.77505">
        <ele>147.4</ele>
        <time>2015-05-24T09:05:24.000Z</time>
      </trkpt>
      <trkpt lat="48.72004" lon="1.77511">
        <ele>147.9</ele>
        <time>2015-05-24T09:05:27.000Z</time>
      </trkpt>
      <trkpt lat="48.72011" lon="1.77519">
        <ele>148.8</ele>
        <time>2015-05-24T09:05:33.000Z</time>
      </trkpt>
      <trkpt lat="48.72013" lon="1.77521">
        <ele>148.9</ele>
        <time>2015-05-24T09:05:35.000Z</time>
      </trkpt>
      <trkpt lat="48.72021" lon="1.77531">
        <ele>149.1</ele>
        <time>2015-05-24T09:05:42.000Z</time>
      </trkpt>
      <trkpt lat="48.72029" lon="1.77537">
        <ele>149.4</ele>
        <time>2015-05-24T09:05:48.000Z</time>
      </trkpt>
      <trkpt lat="48.72035" lon="1.77541">
        <ele>149.4</ele>
        <time>2015-05-24T09:05:52.000Z</time>
      </trkpt>
      <trkpt lat="48.72042" lon="1.77543">
        <ele>149.5</ele>
        <time>2015-05-24T09:06:00.000Z</time>
      </trkpt>
      <trkpt lat="48.72051" lon="1.77544">
        <ele>149.9</ele>
        <time>2015-05-24T09:06:07.000Z</time>
      </trkpt>
      <trkpt lat="48.72061" lon="1.77544">
        <ele>150.2</ele>
        <time>2015-05-24T09:06:14.000Z</time>
      </trkpt>
      <trkpt lat="48.72066" lon="1.77544">
        <ele>150.4</ele>
        <time>2015-05-24T09:06:18.000Z</time>
      </trkpt>
      <trkpt lat="48.72068" lon="1.77545">
        <ele>150.2</ele>
        <time>2015-05-24T09:06:20.000Z</time>
      </trkpt>
      <trkpt lat="48.72079" lon="1.77549">
        <ele>149.8</ele>
        <time>2015-05-24T09:06:26.000Z</time>
      </trkpt>
      <trkpt lat="48.72087" lon="1.77553">
        <ele>149.6</ele>
        <time>2015-05-24T09:06:30.000Z</time>
      </trkpt>
      <trkpt lat="48.72095" lon="1.77557">
        <ele>149.4</ele>
        <time>2015-05-24T09:06:35.000Z</time>
      </trkpt>
      <trkpt lat="48.72096" lon="1.77559">
        <ele>149.4</ele>
        <time>2015-05-24T09:06:36.000Z</time>
      </trkpt>
      <trkpt lat="48.72103" lon="1.77559">
        <ele>149.6</ele>
        <time>2015-05-24T09:06:43.000Z</time>
      </trkpt>
      <trkpt lat="48.72109" lon="1.77561">
        <ele>149.7</ele>
        <time>2015-05-24T09:06:46.000Z</time>
      </trkpt>
      <trkpt lat="48.72117" lon="1.77563">
        <ele>150.3</ele>
        <time>2015-05-24T09:06:51.000Z</time>
      </trkpt>
      <trkpt lat="48.72127" lon="1.77571">
        <ele>150.9</ele>
        <time>2015-05-24T09:06:58.000Z</time>
      </trkpt>
      <trkpt lat="48.72135" lon="1.77578">
        <ele>151.1</ele>
        <time>2015-05-24T09:07:03.000Z</time>
      </trkpt>
      <trkpt lat="48.72144" lon="1.77584">
        <ele>151.4</ele>
        <time>2015-05-24T09:07:07.000Z</time>
      </trkpt>
      <trkpt lat="48.72153" lon="1.77591">
        <ele>151.7</ele>
        <time>2015-05-24T09:07:13.000Z</time>
      </trkpt>
      <trkpt lat="48.72156" lon="1.77597">
        <ele>151.7</ele>
        <time>2015-05-24T09:07:16.000Z</time>
      </trkpt>
      <trkpt lat="48.7216" lon="1.77602">
        <ele>151.8</ele>
        <time>2015-05-24T09:07:20.000Z</time>
      </trkpt>
      <trkpt lat="48.72168" lon="1.77609">
        <ele>152.3</ele>
        <time>2015-05-24T09:07:26.000Z</time>
      </trkpt>
      <trkpt lat="48.72177" lon="1.77621">
        <ele>152.8</ele>
        <time>2015-05-24T09:07:34.000Z</time>
      </trkpt>
      <trkpt lat="48.72188" lon="1.77636">
        <ele>152.8</ele>
        <time>2015-05-24T09:07:43.000Z</time>
      </trkpt>
      <trkpt lat="48.72196" lon="1.7765">
        <ele>152.8</ele>
        <time>2015-05-24T09:07:50.000Z</time>
      </trkpt>
      <trkpt lat="48.722" lon="1.77657">
        <ele>152.9</ele>
        <time>2015-05-24T09:07:55.000Z</time>
      </trkpt>
      <trkpt lat="48.722" lon="1.77659">
        <ele>152.8</ele>
        <time>2015-05-24T09:07:56.000Z</time>
      </trkpt>
      <trkpt lat="48.72208" lon="1.77673">
        <ele>152.6</ele>
        <time>2015-05-24T09:08:03.000Z</time>
      </trkpt>
      <trkpt lat="48.72219" lon="1.77687">
        <ele>152.4</ele>
        <time>2015-05-24T09:08:09.000Z</time>
      </trkpt>
      <trkpt lat="48.72228" lon="1.77696">
        <ele>152.2</ele>
        <time>2015-05-24T09:08:13.000Z</time>
      </trkpt>
      <trkpt lat="48.72231" lon="1.77703">
        <ele>152.4</ele>
        <time>2015-05-24T09:08:17.000Z</time>
      </trkpt>
      <trkpt lat="48.72237" lon="1.77719">
        <ele>153</ele>
        <time>2015-05-24T09:08:24.000Z</time>
      </trkpt>
      <trkpt lat="48.7224" lon="1.77733">
        <ele>153.1</ele>
        <time>2015-05-24T09:08:31.000Z</time>
      </trkpt>
      <trkpt lat="48.72245" lon="1.77741">
        <ele>153.6</ele>
        <time>2015-05-24T09:08:36.000Z</time>
      </trkpt>
      <trkpt lat="48.72248" lon="1.77753">
        <ele>153.6</ele>
        <time>2015-05-24T09:08:40.000Z</time>
      </trkpt>
      <trkpt lat="48.72255" lon="1.77764">
        <ele>153.8</ele>
        <time>2015-05-24T09:08:46.000Z</time>
      </trkpt>
      <trkpt lat="48.72259" lon="1.77769">
        <ele>154.1</ele>
        <time>2015-05-24T09:08:50.000Z</time>
      </trkpt>
      <trkpt lat="48.72263" lon="1.77772">
        <ele>154.3</ele>
        <time>2015-05-24T09:08:53.000Z</time>
      </trkpt>
      <trkpt lat="48.72268" lon="1.77775">
        <ele>154.8</ele>
        <time>2015-05-24T09:08:58.000Z</time>
      </trkpt>
      <trkpt lat="48.72279" lon="1.77781">
        <ele>155.6</ele>
        <time>2015-05-24T09:09:07.000Z</time>
      </trkpt>
      <trkpt lat="48.7229" lon="1.77789">
        <ele>155.2</ele>
        <time>2015-05-24T09:09:12.000Z</time>
      </trkpt>
      <trkpt lat="48.72291" lon="1.7779">
        <ele>155.2</ele>
        <time>2015-05-24T09:09:13.000Z</time>
      </trkpt>
      <trkpt lat="48.72301" lon="1.778">
        <ele>154.5</ele>
        <time>2015-05-24T09:09:20.000Z</time>
      </trkpt>
      <trkpt lat="48.72309" lon="1.7781">
        <ele>154.1</ele>
        <time>2015-05-24T09:09:25.000Z</time>
      </trkpt>
      <trkpt lat="48.72315" lon="1.77819">
        <ele>154</ele>
        <time>2015-05-24T09:09:30.000Z</time>
      </trkpt>
      <trkpt lat="48.72318" lon="1.77822">
        <ele>154.1</ele>
        <time>2015-05-24T09:09:32.000Z</time>
      </trkpt>
      <trkpt lat="48.72321" lon="1.77827">
        <ele>154.1</ele>
        <time>2015-05-24T09:09:35.000Z</time>
      </trkpt>
      <trkpt lat="48.72325" lon="1.77829">
        <ele>154.3</ele>
        <time>2015-05-24T09:09:38.000Z</time>
      </trkpt>
      <trkpt lat="48.72329" lon="1.77842">
        <ele>154</ele>
        <time>2015-05-24T09:09:44.000Z</time>
      </trkpt>
      <trkpt lat="48.72338" lon="1.77853">
        <ele>154.3</ele>
        <time>2015-05-24T09:09:48.000Z</time>
      </trkpt>
      <trkpt lat="48.72347" lon="1.77863">
        <ele>154.9</ele>
        <time>2015-05-24T09:09:52.000Z</time>
      </trkpt>
      <trkpt lat="48.7235" lon="1.77867">
        <ele>155</ele>
        <time>2015-05-24T09:09:53.000Z</time>
      </trkpt>
      <trkpt lat="48.7236" lon="1.7788">
        <ele>154.9</ele>
        <time>2015-05-24T09:09:59.000Z</time>
      </trkpt>
      <trkpt lat="48.72362" lon="1.77891">
        <ele>154</ele>
        <time>2015-05-24T09:10:06.000Z</time>
      </trkpt>
      <trkpt lat="48.72361" lon="1.77893">
        <ele>154</ele>
        <time>2015-05-24T09:10:07.000Z</time>
      </trkpt>
      <trkpt lat="48.72363" lon="1.77898">
        <ele>154.1</ele>
        <time>2015-05-24T09:10:12.000Z</time>
      </trkpt>
      <trkpt lat="48.7237" lon="1.77904">
        <ele>154.5</ele>
        <time>2015-05-24T09:10:17.000Z</time>
      </trkpt>
      <trkpt lat="48.72376" lon="1.77903">
        <ele>154.8</ele>
        <time>2015-05-24T09:10:24.000Z</time>
      </trkpt>
      <trkpt lat="48.72385" lon="1.77898">
        <ele>155.5</ele>
        <time>2015-05-24T09:10:29.000Z</time>
      </trkpt>
      <trkpt lat="48.72389" lon="1.77891">
        <ele>155.9</ele>
        <time>2015-05-24T09:10:33.000Z</time>
      </trkpt>
      <trkpt lat="48.72398" lon="1.7788">
        <ele>157.5</ele>
        <time>2015-05-24T09:10:39.000Z</time>
      </trkpt>
      <trkpt lat="48.72412" lon="1.77879">
        <ele>157.7</ele>
        <time>2015-05-24T09:10:45.000Z</time>
      </trkpt>
      <trkpt lat="48.72427" lon="1.77877">
        <ele>158.6</ele>
        <time>2015-05-24T09:10:52.000Z</time>
      </trkpt>
      <trkpt lat="48.72439" lon="1.77887">
        <ele>157.9</ele>
        <time>2015-05-24T09:10:57.000Z</time>
      </trkpt>
      <trkpt lat="48.72445" lon="1.77895">
        <ele>158.1</ele>
        <time>2015-05-24T09:11:01.000Z</time>
      </trkpt>
      <trkpt lat="48.72453" lon="1.77901">
        <ele>158.7</ele>
        <time>2015-05-24T09:11:06.000Z</time>
      </trkpt>
      <trkpt lat="48.72462" lon="1.77909">
        <ele>159</ele>
        <time>2015-05-24T09:11:12.000Z</time>
      </trkpt>
      <trkpt lat="48.72469" lon="1.7792">
        <ele>158.8</ele>
        <time>2015-05-24T09:11:20.000Z</time>
      </trkpt>
      <trkpt lat="48.72478" lon="1.77935">
        <ele>158.6</ele>
        <time>2015-05-24T09:11:27.000Z</time>
      </trkpt>
      <trkpt lat="48.7249" lon="1.77943">
        <ele>158.7</ele>
        <time>2015-05-24T09:11:33.000Z</time>
      </trkpt>
      <trkpt lat="48.72497" lon="1.77947">
        <ele>158.9</ele>
        <time>2015-05-24T09:11:36.000Z</time>
      </trkpt>
      <trkpt lat="48.72509" lon="1.77957">
        <ele>159.8</ele>
        <time>2015-05-24T09:11:42.000Z</time>
      </trkpt>
      <trkpt lat="48.72518" lon="1.77964">
        <ele>160.5</ele>
        <time>2015-05-24T09:11:48.000Z</time>
      </trkpt>
      <trkpt lat="48.7253" lon="1.7797">
        <ele>161.2</ele>
        <time>2015-05-24T09:11:53.000Z</time>
      </trkpt>
      <trkpt lat="48.72538" lon="1.77974">
        <ele>161.7</ele>
        <time>2015-05-24T09:12:00.000Z</time>
      </trkpt>
      <trkpt lat="48.72551" lon="1.77976">
        <ele>162.6</ele>
        <time>2015-05-24T09:12:08.000Z</time>
      </trkpt>
      <trkpt lat="48.72562" lon="1.77975">
        <ele>163.7</ele>
        <time>2015-05-24T09:12:14.000Z</time>
      </trkpt>
      <trkpt lat="48.72569" lon="1.77976">
        <ele>164.7</ele>
        <time>2015-05-24T09:12:20.000Z</time>
      </trkpt>
      <trkpt lat="48.72578" lon="1.77977">
        <ele>165.9</ele>
        <time>2015-05-24T09:12:27.000Z</time>
      </trkpt>
      <trkpt lat="48.72588" lon="1.77974">
        <ele>167.2</ele>
        <time>2015-05-24T09:12:34.000Z</time>
      </trkpt>
      <trkpt lat="48.72594" lon="1.77973">
        <ele>167.7</ele>
        <time>2015-05-24T09:12:38.000Z</time>
      </trkpt>
      <trkpt lat="48.72604" lon="1.77967">
        <ele>169.1</ele>
        <time>2015-05-24T09:12:45.000Z</time>
      </trkpt>
      <trkpt lat="48.72605" lon="1.77967">
        <ele>169.3</ele>
        <time>2015-05-24T09:12:46.000Z</time>
      </trkpt>
      <trkpt lat="48.72615" lon="1.77964">
        <ele>170.5</ele>
        <time>2015-05-24T09:12:53.000Z</time>
      </trkpt>
      <trkpt lat="48.7262" lon="1.77961">
        <ele>171.4</ele>
        <time>2015-05-24T09:12:57.000Z</time>
      </trkpt>
      <trkpt lat="48.72627" lon="1.77947">
        <ele>173.3</ele>
        <time>2015-05-24T09:13:04.000Z</time>
      </trkpt>
      <trkpt lat="48.7263" lon="1.77946">
        <ele>173.5</ele>
        <time>2015-05-24T09:13:06.000Z</time>
      </trkpt>
      <trkpt lat="48.72642" lon="1.77944">
        <ele>174.2</ele>
        <time>2015-05-24T09:13:14.000Z</time>
      </trkpt>
      <trkpt lat="48.72646" lon="1.77946">
        <ele>174.4</ele>
        <time>2015-05-24T09:13:16.000Z</time>
      </trkpt>
      <trkpt lat="48.72652" lon="1.77951">
        <ele>174.6</ele>
        <time>2015-05-24T09:13:21.000Z</time>
      </trkpt>
      <trkpt lat="48.72659" lon="1.77952">
        <ele>175.1</ele>
        <time>2015-05-24T09:13:27.000Z</time>
      </trkpt>
      <trkpt lat="48.72661" lon="1.77953">
        <ele>175.2</ele>
        <time>2015-05-24T09:13:28.000Z</time>
      </trkpt>
      <trkpt lat="48.72668" lon="1.77956">
        <ele>175.6</ele>
        <time>2015-05-24T09:13:32.000Z</time>
      </trkpt>
      <trkpt lat="48.72678" lon="1.77962">
        <ele>176</ele>
        <time>2015-05-24T09:13:38.000Z</time>
      </trkpt>
      <trkpt lat="48.72686" lon="1.7797">
        <ele>176.4</ele>
        <time>2015-05-24T09:13:44.000Z</time>
      </trkpt>
      <trkpt lat="48.72687" lon="1.77972">
        <ele>176.4</ele>
        <time>2015-05-24T09:13:45.000Z</time>
      </trkpt>
      <trkpt lat="48.72695" lon="1.77989">
        <ele>176.4</ele>
        <time>2015-05-24T09:13:53.000Z</time>
      </trkpt>
      <trkpt lat="48.72703" lon="1.78001">
        <ele>176.3</ele>
        <time>2015-05-24T09:13:59.000Z</time>
      </trkpt>
      <trkpt lat="48.72707" lon="1.78009">
        <ele>176.5</ele>
        <time>2015-05-24T09:14:03.000Z</time>
      </trkpt>
      <trkpt lat="48.72711" lon="1.78015">
        <ele>176.6</ele>
        <time>2015-05-24T09:14:07.000Z</time>
      </trkpt>
      <trkpt lat="48.72711" lon="1.78022">
        <ele>176.6</ele>
        <time>2015-05-24T09:14:11.000Z</time>
      </trkpt>
      <trkpt lat="48.72716" lon="1.78036">
        <ele>177.1</ele>
        <time>2015-05-24T09:14:16.000Z</time>
      </trkpt>
      <trkpt lat="48.72718" lon="1.78036">
        <ele>177.1</ele>
        <time>2015-05-24T09:14:17.000Z</time>
      </trkpt>
      <trkpt lat="48.72723" lon="1.78044">
        <ele>177.6</ele>
        <time>2015-05-24T09:14:23.000Z</time>
      </trkpt>
      <trkpt lat="48.72732" lon="1.78054">
        <ele>178</ele>
        <time>2015-05-24T09:14:30.000Z</time>
      </trkpt>
      <trkpt lat="48.72734" lon="1.78056">
        <ele>178</ele>
        <time>2015-05-24T09:14:31.000Z</time>
      </trkpt>
      <trkpt lat="48.72745" lon="1.78061">
        <ele>178</ele>
        <time>2015-05-24T09:14:37.000Z</time>
      </trkpt>
      <trkpt lat="48.72747" lon="1.78061">
        <ele>178</ele>
        <time>2015-05-24T09:14:38.000Z</time>
      </trkpt>
      <trkpt lat="48.72753" lon="1.78067">
        <ele>178</ele>
        <time>2015-05-24T09:14:43.000Z</time>
      </trkpt>
      <trkpt lat="48.72758" lon="1.78077">
        <ele>178.2</ele>
        <time>2015-05-24T09:14:50.000Z</time>
      </trkpt>
      <trkpt lat="48.72765" lon="1.78083">
        <ele>178.5</ele>
        <time>2015-05-24T09:14:55.000Z</time>
      </trkpt>
      <trkpt lat="48.72775" lon="1.78092">
        <ele>178.9</ele>
        <time>2015-05-24T09:15:02.000Z</time>
      </trkpt>
      <trkpt lat="48.72786" lon="1.78101">
        <ele>179</ele>
        <time>2015-05-24T09:15:07.000Z</time>
      </trkpt>
      <trkpt lat="48.7279" lon="1.78104">
        <ele>179</ele>
        <time>2015-05-24T09:15:10.000Z</time>
      </trkpt>
      <trkpt lat="48.728" lon="1.78111">
        <ele>179</ele>
        <time>2015-05-24T09:15:16.000Z</time>
      </trkpt>
      <trkpt lat="48.72805" lon="1.78115">
        <ele>179</ele>
        <time>2015-05-24T09:15:20.000Z</time>
      </trkpt>
      <trkpt lat="48.72809" lon="1.78118">
        <ele>179</ele>
        <time>2015-05-24T09:15:22.000Z</time>
      </trkpt>
      <trkpt lat="48.72825" lon="1.78133">
        <ele>179</ele>
        <time>2015-05-24T09:15:27.000Z</time>
      </trkpt>
      <trkpt lat="48.72846" lon="1.7815">
        <ele>179.2</ele>
        <time>2015-05-24T09:15:32.000Z</time>
      </trkpt>
      <trkpt lat="48.72871" lon="1.78172">
        <ele>179.9</ele>
        <time>2015-05-24T09:15:38.000Z</time>
      </trkpt>
      <trkpt lat="48.72889" lon="1.78189">
        <ele>179.2</ele>
        <time>2015-05-24T09:15:43.000Z</time>
      </trkpt>
      <trkpt lat="48.72912" lon="1.78209">
        <ele>179.9</ele>
        <time>2015-05-24T09:15:49.000Z</time>
      </trkpt>
      <trkpt lat="48.72926" lon="1.78221">
        <ele>180</ele>
        <time>2015-05-24T09:15:52.000Z</time>
      </trkpt>
      <trkpt lat="48.72939" lon="1.7824">
        <ele>180</ele>
        <time>2015-05-24T09:15:57.000Z</time>
      </trkpt>
      <trkpt lat="48.72945" lon="1.78246">
        <ele>180</ele>
        <time>2015-05-24T09:15:59.000Z</time>
      </trkpt>
      <trkpt lat="48.72958" lon="1.78259">
        <ele>180</ele>
        <time>2015-05-24T09:16:03.000Z</time>
      </trkpt>
      <trkpt lat="48.72987" lon="1.78278">
        <ele>180</ele>
        <time>2015-05-24T09:16:09.000Z</time>
      </trkpt>
      <trkpt lat="48.7299" lon="1.78281">
        <ele>180</ele>
        <time>2015-05-24T09:16:10.000Z</time>
      </trkpt>
      <trkpt lat="48.73028" lon="1.78307">
        <ele>179</ele>
        <time>2015-05-24T09:16:18.000Z</time>
      </trkpt>
      <trkpt lat="48.73045" lon="1.78324">
        <ele>179</ele>
        <time>2015-05-24T09:16:24.000Z</time>
      </trkpt>
      <trkpt lat="48.73062" lon="1.7834">
        <ele>178.9</ele>
        <time>2015-05-24T09:16:29.000Z</time>
      </trkpt>
      <trkpt lat="48.73085" lon="1.78361">
        <ele>178</ele>
        <time>2015-05-24T09:16:36.000Z</time>
      </trkpt>
      <trkpt lat="48.73097" lon="1.78373">
        <ele>177.8</ele>
        <time>2015-05-24T09:16:41.000Z</time>
      </trkpt>
      <trkpt lat="48.7311" lon="1.78384">
        <ele>177.2</ele>
        <time>2015-05-24T09:16:45.000Z</time>
      </trkpt>
      <trkpt lat="48.73123" lon="1.78396">
        <ele>176.9</ele>
        <time>2015-05-24T09:16:49.000Z</time>
      </trkpt>
      <trkpt lat="48.73136" lon="1.78405">
        <ele>176.5</ele>
        <time>2015-05-24T09:16:52.000Z</time>
      </trkpt>
      <trkpt lat="48.73157" lon="1.78419">
        <ele>176</ele>
        <time>2015-05-24T09:16:57.000Z</time>
      </trkpt>
      <trkpt lat="48.73171" lon="1.78431">
        <ele>175.8</ele>
        <time>2015-05-24T09:17:03.000Z</time>
      </trkpt>
      <trkpt lat="48.73182" lon="1.78438">
        <ele>175.5</ele>
        <time>2015-05-24T09:17:07.000Z</time>
      </trkpt>
      <trkpt lat="48.73196" lon="1.78453">
        <ele>175</ele>
        <time>2015-05-24T09:17:12.000Z</time>
      </trkpt>
      <trkpt lat="48.73215" lon="1.7847">
        <ele>174.3</ele>
        <time>2015-05-24T09:17:18.000Z</time>
      </trkpt>
      <trkpt lat="48.73232" lon="1.7848">
        <ele>173.6</ele>
        <time>2015-05-24T09:17:22.000Z</time>
      </trkpt>
      <trkpt lat="48.73244" lon="1.78489">
        <ele>173.2</ele>
        <time>2015-05-24T09:17:25.000Z</time>
      </trkpt>
      <trkpt lat="48.73257" lon="1.78502">
        <ele>172.7</ele>
        <time>2015-05-24T09:17:31.000Z</time>
      </trkpt>
      <trkpt lat="48.73259" lon="1.78505">
        <ele>172.7</ele>
        <time>2015-05-24T09:17:37.000Z</time>
      </trkpt>
      <trkpt lat="48.73267" lon="1.78511">
        <ele>172.4</ele>
        <time>2015-05-24T09:17:42.000Z</time>
      </trkpt>
      <trkpt lat="48.73272" lon="1.78517">
        <ele>172.2</ele>
        <time>2015-05-24T09:17:48.000Z</time>
      </trkpt>
      <trkpt lat="48.73279" lon="1.78521">
        <ele>172</ele>
        <time>2015-05-24T09:17:54.000Z</time>
      </trkpt>
      <trkpt lat="48.7328" lon="1.78521">
        <ele>172</ele>
        <time>2015-05-24T09:17:55.000Z</time>
      </trkpt>
      <trkpt lat="48.73285" lon="1.78523">
        <ele>172</ele>
        <time>2015-05-24T09:17:59.000Z</time>
      </trkpt>
      <trkpt lat="48.73291" lon="1.78527">
        <ele>172</ele>
        <time>2015-05-24T09:18:04.000Z</time>
      </trkpt>
      <trkpt lat="48.73294" lon="1.7853">
        <ele>171.9</ele>
        <time>2015-05-24T09:18:07.000Z</time>
      </trkpt>
      <trkpt lat="48.73299" lon="1.7854">
        <ele>171.7</ele>
        <time>2015-05-24T09:18:13.000Z</time>
      </trkpt>
      <trkpt lat="48.733" lon="1.78541">
        <ele>171.6</ele>
        <time>2015-05-24T09:18:14.000Z</time>
      </trkpt>
      <trkpt lat="48.73308" lon="1.78548">
        <ele>171.1</ele>
        <time>2015-05-24T09:18:21.000Z</time>
      </trkpt>
      <trkpt lat="48.7331" lon="1.78549">
        <ele>170.9</ele>
        <time>2015-05-24T09:18:22.000Z</time>
      </trkpt>
      <trkpt lat="48.73318" lon="1.78556">
        <ele>170.1</ele>
        <time>2015-05-24T09:18:27.000Z</time>
      </trkpt>
      <trkpt lat="48.73323" lon="1.7856">
        <ele>169.6</ele>
        <time>2015-05-24T09:18:32.000Z</time>
      </trkpt>
      <trkpt lat="48.73326" lon="1.78563">
        <ele>169.2</ele>
        <time>2015-05-24T09:18:35.000Z</time>
      </trkpt>
      <trkpt lat="48.73331" lon="1.78569">
        <ele>168.7</ele>
        <time>2015-05-24T09:18:38.000Z</time>
      </trkpt>
      <trkpt lat="48.73338" lon="1.78576">
        <ele>167.9</ele>
        <time>2015-05-24T09:18:44.000Z</time>
      </trkpt>
      <trkpt lat="48.7334" lon="1.78579">
        <ele>167.7</ele>
        <time>2015-05-24T09:18:46.000Z</time>
      </trkpt>
      <trkpt lat="48.73349" lon="1.78586">
        <ele>166.8</ele>
        <time>2015-05-24T09:18:53.000Z</time>
      </trkpt>
      <trkpt lat="48.73356" lon="1.78592">
        <ele>166.1</ele>
        <time>2015-05-24T09:18:58.000Z</time>
      </trkpt>
      <trkpt lat="48.73363" lon="1.78594">
        <ele>165.5</ele>
        <time>2015-05-24T09:19:03.000Z</time>
      </trkpt>
      <trkpt lat="48.73364" lon="1.78596">
        <ele>165.4</ele>
        <time>2015-05-24T09:19:04.000Z</time>
      </trkpt>
      <trkpt lat="48.73371" lon="1.786">
        <ele>164.9</ele>
        <time>2015-05-24T09:19:10.000Z</time>
      </trkpt>
      <trkpt lat="48.73379" lon="1.78605">
        <ele>164.4</ele>
        <time>2015-05-24T09:19:15.000Z</time>
      </trkpt>
      <trkpt lat="48.73385" lon="1.78615">
        <ele>164.3</ele>
        <time>2015-05-24T09:19:20.000Z</time>
      </trkpt>
      <trkpt lat="48.73391" lon="1.78626">
        <ele>164.6</ele>
        <time>2015-05-24T09:19:26.000Z</time>
      </trkpt>
      <trkpt lat="48.73398" lon="1.78633">
        <ele>165.1</ele>
        <time>2015-05-24T09:19:31.000Z</time>
      </trkpt>
      <trkpt lat="48.73403" lon="1.78635">
        <ele>165.3</ele>
        <time>2015-05-24T09:19:34.000Z</time>
      </trkpt>
      <trkpt lat="48.73407" lon="1.78639">
        <ele>165.6</ele>
        <time>2015-05-24T09:19:37.000Z</time>
      </trkpt>
      <trkpt lat="48.73414" lon="1.78646">
        <ele>165.9</ele>
        <time>2015-05-24T09:19:42.000Z</time>
      </trkpt>
      <trkpt lat="48.73423" lon="1.78655">
        <ele>166.5</ele>
        <time>2015-05-24T09:19:49.000Z</time>
      </trkpt>
      <trkpt lat="48.7343" lon="1.78662">
        <ele>167</ele>
        <time>2015-05-24T09:19:54.000Z</time>
      </trkpt>
      <trkpt lat="48.73433" lon="1.78666">
        <ele>167.2</ele>
        <time>2015-05-24T09:19:57.000Z</time>
      </trkpt>
      <trkpt lat="48.73436" lon="1.78669">
        <ele>167.5</ele>
        <time>2015-05-24T09:19:59.000Z</time>
      </trkpt>
      <trkpt lat="48.73443" lon="1.78675">
        <ele>168.2</ele>
        <time>2015-05-24T09:20:04.000Z</time>
      </trkpt>
      <trkpt lat="48.73448" lon="1.7868">
        <ele>168.8</ele>
        <time>2015-05-24T09:20:08.000Z</time>
      </trkpt>
      <trkpt lat="48.73454" lon="1.78683">
        <ele>169.4</ele>
        <time>2015-05-24T09:20:12.000Z</time>
      </trkpt>
      <trkpt lat="48.73459" lon="1.7869">
        <ele>170</ele>
        <time>2015-05-24T09:20:17.000Z</time>
      </trkpt>
      <trkpt lat="48.73464" lon="1.78695">
        <ele>170.5</ele>
        <time>2015-05-24T09:20:21.000Z</time>
      </trkpt>
      <trkpt lat="48.73474" lon="1.78704">
        <ele>171.4</ele>
        <time>2015-05-24T09:20:29.000Z</time>
      </trkpt>
      <trkpt lat="48.7348" lon="1.78712">
        <ele>172.2</ele>
        <time>2015-05-24T09:20:35.000Z</time>
      </trkpt>
      <trkpt lat="48.73481" lon="1.78714">
        <ele>172.3</ele>
        <time>2015-05-24T09:20:36.000Z</time>
      </trkpt>
      <trkpt lat="48.73487" lon="1.78718">
        <ele>172.9</ele>
        <time>2015-05-24T09:20:41.000Z</time>
      </trkpt>
      <trkpt lat="48.73496" lon="1.78727">
        <ele>173.9</ele>
        <time>2015-05-24T09:20:48.000Z</time>
      </trkpt>
      <trkpt lat="48.735" lon="1.78731">
        <ele>174.3</ele>
        <time>2015-05-24T09:20:51.000Z</time>
      </trkpt>
      <trkpt lat="48.73514" lon="1.78741">
        <ele>175.4</ele>
        <time>2015-05-24T09:21:01.000Z</time>
      </trkpt>
      <trkpt lat="48.73526" lon="1.78752">
        <ele>176</ele>
        <time>2015-05-24T09:21:11.000Z</time>
      </trkpt>
      <trkpt lat="48.73538" lon="1.78765">
        <ele>177</ele>
        <time>2015-05-24T09:21:21.000Z</time>
      </trkpt>
      <trkpt lat="48.73549" lon="1.78775">
        <ele>177.7</ele>
        <time>2015-05-24T09:21:30.000Z</time>
      </trkpt>
      <trkpt lat="48.73561" lon="1.78788">
        <ele>178.7</ele>
        <time>2015-05-24T09:21:40.000Z</time>
      </trkpt>
      <trkpt lat="48.73575" lon="1.78801">
        <ele>179.7</ele>
        <time>2015-05-24T09:21:51.000Z</time>
      </trkpt>
      <trkpt lat="48.73589" lon="1.78814">
        <ele>180.6</ele>
        <time>2015-05-24T09:22:02.000Z</time>
      </trkpt>
      <trkpt lat="48.73597" lon="1.7882">
        <ele>181.2</ele>
        <time>2015-05-24T09:22:08.000Z</time>
      </trkpt>
      <trkpt lat="48.73605" lon="1.78829">
        <ele>181.8</ele>
        <time>2015-05-24T09:22:15.000Z</time>
      </trkpt>
      <trkpt lat="48.73614" lon="1.78835">
        <ele>182</ele>
        <time>2015-05-24T09:22:20.000Z</time>
      </trkpt>
      <trkpt lat="48.73621" lon="1.78842">
        <ele>182.1</ele>
        <time>2015-05-24T09:22:26.000Z</time>
      </trkpt>
      <trkpt lat="48.73628" lon="1.78851">
        <ele>182.4</ele>
        <time>2015-05-24T09:22:33.000Z</time>
      </trkpt>
      <trkpt lat="48.73629" lon="1.78852">
        <ele>182.4</ele>
        <time>2015-05-24T09:22:34.000Z</time>
      </trkpt>
      <trkpt lat="48.7363" lon="1.78853">
        <ele>182.5</ele>
        <time>2015-05-24T09:22:37.000Z</time>
      </trkpt>
      <trkpt lat="48.73626" lon="1.78867">
        <ele>182.5</ele>
        <time>2015-05-24T09:22:48.000Z</time>
      </trkpt>
      <trkpt lat="48.73624" lon="1.78882">
        <ele>182.5</ele>
        <time>2015-05-24T09:22:54.000Z</time>
      </trkpt>
      <trkpt lat="48.73623" lon="1.78894">
        <ele>182.5</ele>
        <time>2015-05-24T09:23:01.000Z</time>
      </trkpt>
      <trkpt lat="48.73621" lon="1.78907">
        <ele>182.8</ele>
        <time>2015-05-24T09:23:08.000Z</time>
      </trkpt>
      <trkpt lat="48.7362" lon="1.78913">
        <ele>182.9</ele>
        <time>2015-05-24T09:23:11.000Z</time>
      </trkpt>
      <trkpt lat="48.7362" lon="1.7892">
        <ele>183</ele>
        <time>2015-05-24T09:23:15.000Z</time>
      </trkpt>
      <trkpt lat="48.73616" lon="1.78934">
        <ele>183</ele>
        <time>2015-05-24T09:23:22.000Z</time>
      </trkpt>
      <trkpt lat="48.7361" lon="1.78945">
        <ele>183</ele>
        <time>2015-05-24T09:23:28.000Z</time>
      </trkpt>
      <trkpt lat="48.73609" lon="1.78947">
        <ele>183</ele>
        <time>2015-05-24T09:23:29.000Z</time>
      </trkpt>
      <trkpt lat="48.73607" lon="1.7896">
        <ele>183</ele>
        <time>2015-05-24T09:23:36.000Z</time>
      </trkpt>
      <trkpt lat="48.73605" lon="1.7897">
        <ele>183</ele>
        <time>2015-05-24T09:23:42.000Z</time>
      </trkpt>
      <trkpt lat="48.73604" lon="1.78985">
        <ele>183</ele>
        <time>2015-05-24T09:23:49.000Z</time>
      </trkpt>
      <trkpt lat="48.73602" lon="1.79001">
        <ele>183</ele>
        <time>2015-05-24T09:23:55.000Z</time>
      </trkpt>
      <trkpt lat="48.736" lon="1.79018">
        <ele>183</ele>
        <time>2015-05-24T09:24:02.000Z</time>
      </trkpt>
      <trkpt lat="48.73598" lon="1.79035">
        <ele>183.1</ele>
        <time>2015-05-24T09:24:10.000Z</time>
      </trkpt>
      <trkpt lat="48.73594" lon="1.79051">
        <ele>183.3</ele>
        <time>2015-05-24T09:24:18.000Z</time>
      </trkpt>
      <trkpt lat="48.73593" lon="1.79052">
        <ele>183.3</ele>
        <time>2015-05-24T09:24:19.000Z</time>
      </trkpt>
      <trkpt lat="48.73589" lon="1.79064">
        <ele>183.5</ele>
        <time>2015-05-24T09:24:26.000Z</time>
      </trkpt>
      <trkpt lat="48.73588" lon="1.79079">
        <ele>183.9</ele>
        <time>2015-05-24T09:24:33.000Z</time>
      </trkpt>
      <trkpt lat="48.73584" lon="1.79098">
        <ele>184</ele>
        <time>2015-05-24T09:24:41.000Z</time>
      </trkpt>
      <trkpt lat="48.73582" lon="1.79106">
        <ele>184</ele>
        <time>2015-05-24T09:24:45.000Z</time>
      </trkpt>
      <trkpt lat="48.73579" lon="1.79122">
        <ele>184</ele>
        <time>2015-05-24T09:24:53.000Z</time>
      </trkpt>
      <trkpt lat="48.73576" lon="1.79135">
        <ele>184</ele>
        <time>2015-05-24T09:24:59.000Z</time>
      </trkpt>
      <trkpt lat="48.73574" lon="1.79144">
        <ele>184</ele>
        <time>2015-05-24T09:25:03.000Z</time>
      </trkpt>
      <trkpt lat="48.73571" lon="1.79154">
        <ele>184</ele>
        <time>2015-05-24T09:25:08.000Z</time>
      </trkpt>
      <trkpt lat="48.73568" lon="1.79168">
        <ele>184</ele>
        <time>2015-05-24T09:25:15.000Z</time>
      </trkpt>
      <trkpt lat="48.73566" lon="1.79179">
        <ele>184</ele>
        <time>2015-05-24T09:25:21.000Z</time>
      </trkpt>
      <trkpt lat="48.73565" lon="1.79185">
        <ele>184</ele>
        <time>2015-05-24T09:25:25.000Z</time>
      </trkpt>
      <trkpt lat="48.73563" lon="1.79197">
        <ele>184</ele>
        <time>2015-05-24T09:25:31.000Z</time>
      </trkpt>
      <trkpt lat="48.73562" lon="1.79205">
        <ele>184</ele>
        <time>2015-05-24T09:25:35.000Z</time>
      </trkpt>
      <trkpt lat="48.73556" lon="1.7922">
        <ele>184</ele>
        <time>2015-05-24T09:25:43.000Z</time>
      </trkpt>
      <trkpt lat="48.73552" lon="1.79232">
        <ele>184</ele>
        <time>2015-05-24T09:25:48.000Z</time>
      </trkpt>
      <trkpt lat="48.7355" lon="1.79245">
        <ele>184</ele>
        <time>2015-05-24T09:25:56.000Z</time>
      </trkpt>
      <trkpt lat="48.73545" lon="1.79255">
        <ele>183.8</ele>
        <time>2015-05-24T09:26:02.000Z</time>
      </trkpt>
      <trkpt lat="48.73545" lon="1.79259">
        <ele>183.7</ele>
        <time>2015-05-24T09:26:04.000Z</time>
      </trkpt>
      <trkpt lat="48.73543" lon="1.79277">
        <ele>183</ele>
        <time>2015-05-24T09:26:13.000Z</time>
      </trkpt>
      <trkpt lat="48.7354" lon="1.79291">
        <ele>183</ele>
        <time>2015-05-24T09:26:20.000Z</time>
      </trkpt>
      <trkpt lat="48.73539" lon="1.79293">
        <ele>183</ele>
        <time>2015-05-24T09:26:21.000Z</time>
      </trkpt>
      <trkpt lat="48.73538" lon="1.79302">
        <ele>183</ele>
        <time>2015-05-24T09:26:26.000Z</time>
      </trkpt>
      <trkpt lat="48.73536" lon="1.79311">
        <ele>183</ele>
        <time>2015-05-24T09:26:30.000Z</time>
      </trkpt>
      <trkpt lat="48.73535" lon="1.79316">
        <ele>183</ele>
        <time>2015-05-24T09:26:32.000Z</time>
      </trkpt>
      <trkpt lat="48.73533" lon="1.79337">
        <ele>183</ele>
        <time>2015-05-24T09:26:41.000Z</time>
      </trkpt>
      <trkpt lat="48.73531" lon="1.79345">
        <ele>183</ele>
        <time>2015-05-24T09:26:45.000Z</time>
      </trkpt>
      <trkpt lat="48.73527" lon="1.79359">
        <ele>183</ele>
        <time>2015-05-24T09:26:52.000Z</time>
      </trkpt>
      <trkpt lat="48.73526" lon="1.79363">
        <ele>183</ele>
        <time>2015-05-24T09:26:54.000Z</time>
      </trkpt>
      <trkpt lat="48.73529" lon="1.79372">
        <ele>183</ele>
        <time>2015-05-24T09:27:00.000Z</time>
      </trkpt>
      <trkpt lat="48.73531" lon="1.79372">
        <ele>183</ele>
        <time>2015-05-24T09:27:03.000Z</time>
      </trkpt>
      <trkpt lat="48.7353" lon="1.79383">
        <ele>183.1</ele>
        <time>2015-05-24T09:28:36.000Z</time>
      </trkpt>
      <trkpt lat="48.73532" lon="1.79397">
        <ele>183.1</ele>
        <time>2015-05-24T09:28:43.000Z</time>
      </trkpt>
      <trkpt lat="48.73534" lon="1.79403">
        <ele>183.2</ele>
        <time>2015-05-24T09:28:50.000Z</time>
      </trkpt>
      <trkpt lat="48.73545" lon="1.79404">
        <ele>183.6</ele>
        <time>2015-05-24T09:29:18.000Z</time>
      </trkpt>
      <trkpt lat="48.73554" lon="1.79416">
        <ele>183.9</ele>
        <time>2015-05-24T09:29:26.000Z</time>
      </trkpt>
      <trkpt lat="48.7356" lon="1.79421">
        <ele>184</ele>
        <time>2015-05-24T09:29:32.000Z</time>
      </trkpt>
      <trkpt lat="48.73571" lon="1.79428">
        <ele>184</ele>
        <time>2015-05-24T09:29:42.000Z</time>
      </trkpt>
      <trkpt lat="48.73573" lon="1.79429">
        <ele>184</ele>
        <time>2015-05-24T09:29:47.000Z</time>
      </trkpt>
      <trkpt lat="48.7359" lon="1.79426">
        <ele>184.1</ele>
        <time>2015-05-24T09:30:27.000Z</time>
      </trkpt>
      <trkpt lat="48.73596" lon="1.79434">
        <ele>184.3</ele>
        <time>2015-05-24T09:30:32.000Z</time>
      </trkpt>
      <trkpt lat="48.736" lon="1.79438">
        <ele>184.5</ele>
        <time>2015-05-24T09:30:36.000Z</time>
      </trkpt>
      <trkpt lat="48.73609" lon="1.79445">
        <ele>184.9</ele>
        <time>2015-05-24T09:30:40.000Z</time>
      </trkpt>
      <trkpt lat="48.73616" lon="1.79452">
        <ele>185</ele>
        <time>2015-05-24T09:30:44.000Z</time>
      </trkpt>
      <trkpt lat="48.73617" lon="1.79454">
        <ele>185</ele>
        <time>2015-05-24T09:30:46.000Z</time>
      </trkpt>
      <trkpt lat="48.73623" lon="1.79461">
        <ele>185</ele>
        <time>2015-05-24T09:30:51.000Z</time>
      </trkpt>
      <trkpt lat="48.73628" lon="1.79463">
        <ele>185</ele>
        <time>2015-05-24T09:30:54.000Z</time>
      </trkpt>
      <trkpt lat="48.73635" lon="1.79469">
        <ele>185</ele>
        <time>2015-05-24T09:30:59.000Z</time>
      </trkpt>
      <trkpt lat="48.73638" lon="1.79472">
        <ele>185</ele>
        <time>2015-05-24T09:31:01.000Z</time>
      </trkpt>
      <trkpt lat="48.73646" lon="1.79479">
        <ele>185</ele>
        <time>2015-05-24T09:31:08.000Z</time>
      </trkpt>
      <trkpt lat="48.73656" lon="1.79488">
        <ele>185</ele>
        <time>2015-05-24T09:31:15.000Z</time>
      </trkpt>
      <trkpt lat="48.73662" lon="1.79498">
        <ele>185</ele>
        <time>2015-05-24T09:31:21.000Z</time>
      </trkpt>
      <trkpt lat="48.73667" lon="1.79505">
        <ele>185</ele>
        <time>2015-05-24T09:31:26.000Z</time>
      </trkpt>
      <trkpt lat="48.73674" lon="1.79514">
        <ele>185</ele>
        <time>2015-05-24T09:31:32.000Z</time>
      </trkpt>
      <trkpt lat="48.73683" lon="1.79524">
        <ele>185</ele>
        <time>2015-05-24T09:31:39.000Z</time>
      </trkpt>
      <trkpt lat="48.73688" lon="1.79532">
        <ele>185</ele>
        <time>2015-05-24T09:31:46.000Z</time>
      </trkpt>
      <trkpt lat="48.7369" lon="1.79533">
        <ele>185</ele>
        <time>2015-05-24T09:31:47.000Z</time>
      </trkpt>
      <trkpt lat="48.73693" lon="1.79539">
        <ele>185</ele>
        <time>2015-05-24T09:31:51.000Z</time>
      </trkpt>
      <trkpt lat="48.73702" lon="1.79547">
        <ele>185</ele>
        <time>2015-05-24T09:31:58.000Z</time>
      </trkpt>
      <trkpt lat="48.7371" lon="1.79553">
        <ele>185</ele>
        <time>2015-05-24T09:32:04.000Z</time>
      </trkpt>
      <trkpt lat="48.73716" lon="1.7956">
        <ele>185</ele>
        <time>2015-05-24T09:32:09.000Z</time>
      </trkpt>
      <trkpt lat="48.73723" lon="1.79567">
        <ele>185</ele>
        <time>2015-05-24T09:32:15.000Z</time>
      </trkpt>
      <trkpt lat="48.73724" lon="1.79568">
        <ele>185</ele>
        <time>2015-05-24T09:32:16.000Z</time>
      </trkpt>
      <trkpt lat="48.7373" lon="1.79574">
        <ele>185</ele>
        <time>2015-05-24T09:32:21.000Z</time>
      </trkpt>
      <trkpt lat="48.73735" lon="1.7958">
        <ele>185</ele>
        <time>2015-05-24T09:32:25.000Z</time>
      </trkpt>
      <trkpt lat="48.73743" lon="1.79588">
        <ele>185</ele>
        <time>2015-05-24T09:32:31.000Z</time>
      </trkpt>
      <trkpt lat="48.73751" lon="1.79597">
        <ele>185</ele>
        <time>2015-05-24T09:32:37.000Z</time>
      </trkpt>
      <trkpt lat="48.73762" lon="1.79607">
        <ele>185</ele>
        <time>2015-05-24T09:32:45.000Z</time>
      </trkpt>
      <trkpt lat="48.73772" lon="1.79614">
        <ele>185</ele>
        <time>2015-05-24T09:32:51.000Z</time>
      </trkpt>
      <trkpt lat="48.73777" lon="1.79622">
        <ele>185</ele>
        <time>2015-05-24T09:32:57.000Z</time>
      </trkpt>
      <trkpt lat="48.73787" lon="1.79632">
        <ele>185</ele>
        <time>2015-05-24T09:33:04.000Z</time>
      </trkpt>
      <trkpt lat="48.73797" lon="1.79641">
        <ele>185</ele>
        <time>2015-05-24T09:33:11.000Z</time>
      </trkpt>
      <trkpt lat="48.73802" lon="1.79649">
        <ele>185</ele>
        <time>2015-05-24T09:33:17.000Z</time>
      </trkpt>
      <trkpt lat="48.7381" lon="1.79659">
        <ele>185</ele>
        <time>2015-05-24T09:33:23.000Z</time>
      </trkpt>
      <trkpt lat="48.73817" lon="1.79669">
        <ele>185</ele>
        <time>2015-05-24T09:33:30.000Z</time>
      </trkpt>
      <trkpt lat="48.73819" lon="1.79672">
        <ele>185</ele>
        <time>2015-05-24T09:33:33.000Z</time>
      </trkpt>
      <trkpt lat="48.73826" lon="1.79679">
        <ele>185</ele>
        <time>2015-05-24T09:33:38.000Z</time>
      </trkpt>
      <trkpt lat="48.73834" lon="1.79689">
        <ele>185</ele>
        <time>2015-05-24T09:33:44.000Z</time>
      </trkpt>
      <trkpt lat="48.73835" lon="1.79697">
        <ele>185</ele>
        <time>2015-05-24T09:33:49.000Z</time>
      </trkpt>
      <trkpt lat="48.73842" lon="1.79705">
        <ele>185</ele>
        <time>2015-05-24T09:33:56.000Z</time>
      </trkpt>
      <trkpt lat="48.73847" lon="1.79706">
        <ele>185</ele>
        <time>2015-05-24T09:34:01.000Z</time>
      </trkpt>
      <trkpt lat="48.73855" lon="1.7971">
        <ele>185</ele>
        <time>2015-05-24T09:34:07.000Z</time>
      </trkpt>
      <trkpt lat="48.73858" lon="1.79712">
        <ele>185</ele>
        <time>2015-05-24T09:34:09.000Z</time>
      </trkpt>
      <trkpt lat="48.73865" lon="1.79724">
        <ele>185</ele>
        <time>2015-05-24T09:34:14.000Z</time>
      </trkpt>
      <trkpt lat="48.73874" lon="1.79741">
        <ele>185</ele>
        <time>2015-05-24T09:34:21.000Z</time>
      </trkpt>
      <trkpt lat="48.73874" lon="1.79742">
        <ele>185</ele>
        <time>2015-05-24T09:34:22.000Z</time>
      </trkpt>
      <trkpt lat="48.73878" lon="1.79741">
        <ele>185</ele>
        <time>2015-05-24T09:34:28.000Z</time>
      </trkpt>
      <trkpt lat="48.73879" lon="1.79742">
        <ele>185</ele>
        <time>2015-05-24T09:34:29.000Z</time>
      </trkpt>
      <trkpt lat="48.73887" lon="1.79747">
        <ele>185</ele>
        <time>2015-05-24T09:34:37.000Z</time>
      </trkpt>
      <trkpt lat="48.73889" lon="1.79749">
        <ele>185</ele>
        <time>2015-05-24T09:34:38.000Z</time>
      </trkpt>
      <trkpt lat="48.739" lon="1.79759">
        <ele>185</ele>
        <time>2015-05-24T09:34:44.000Z</time>
      </trkpt>
      <trkpt lat="48.73915" lon="1.7978">
        <ele>185</ele>
        <time>2015-05-24T09:34:52.000Z</time>
      </trkpt>
      <trkpt lat="48.73916" lon="1.79786">
        <ele>185</ele>
        <time>2015-05-24T09:34:54.000Z</time>
      </trkpt>
      <trkpt lat="48.73918" lon="1.79795">
        <ele>185</ele>
        <time>2015-05-24T09:34:58.000Z</time>
      </trkpt>
      <trkpt lat="48.7392" lon="1.79806">
        <ele>185</ele>
        <time>2015-05-24T09:35:04.000Z</time>
      </trkpt>
      <trkpt lat="48.73925" lon="1.79812">
        <ele>185</ele>
        <time>2015-05-24T09:35:07.000Z</time>
      </trkpt>
      <trkpt lat="48.73928" lon="1.7982">
        <ele>185</ele>
        <time>2015-05-24T09:35:12.000Z</time>
      </trkpt>
      <trkpt lat="48.73931" lon="1.7983">
        <ele>185</ele>
        <time>2015-05-24T09:35:17.000Z</time>
      </trkpt>
      <trkpt lat="48.73933" lon="1.79833">
        <ele>185</ele>
        <time>2015-05-24T09:35:19.000Z</time>
      </trkpt>
      <trkpt lat="48.73938" lon="1.79841">
        <ele>185</ele>
        <time>2015-05-24T09:35:24.000Z</time>
      </trkpt>
      <trkpt lat="48.73944" lon="1.79839">
        <ele>185</ele>
        <time>2015-05-24T09:35:30.000Z</time>
      </trkpt>
      <trkpt lat="48.7395" lon="1.79842">
        <ele>185</ele>
        <time>2015-05-24T09:35:36.000Z</time>
      </trkpt>
      <trkpt lat="48.73956" lon="1.79853">
        <ele>185</ele>
        <time>2015-05-24T09:35:41.000Z</time>
      </trkpt>
      <trkpt lat="48.73967" lon="1.79872">
        <ele>185</ele>
        <time>2015-05-24T09:35:47.000Z</time>
      </trkpt>
      <trkpt lat="48.7397" lon="1.79884">
        <ele>185</ele>
        <time>2015-05-24T09:35:51.000Z</time>
      </trkpt>
      <trkpt lat="48.73973" lon="1.79901">
        <ele>185</ele>
        <time>2015-05-24T09:35:57.000Z</time>
      </trkpt>
      <trkpt lat="48.73977" lon="1.79915">
        <ele>185</ele>
        <time>2015-05-24T09:36:03.000Z</time>
      </trkpt>
      <trkpt lat="48.73982" lon="1.7993">
        <ele>185</ele>
        <time>2015-05-24T09:36:10.000Z</time>
      </trkpt>
      <trkpt lat="48.73988" lon="1.79944">
        <ele>185</ele>
        <time>2015-05-24T09:36:17.000Z</time>
      </trkpt>
      <trkpt lat="48.73993" lon="1.79958">
        <ele>185</ele>
        <time>2015-05-24T09:36:24.000Z</time>
      </trkpt>
      <trkpt lat="48.73996" lon="1.7997">
        <ele>185</ele>
        <time>2015-05-24T09:36:29.000Z</time>
      </trkpt>
      <trkpt lat="48.74001" lon="1.79984">
        <ele>185</ele>
        <time>2015-05-24T09:36:35.000Z</time>
      </trkpt>
      <trkpt lat="48.74004" lon="1.79992">
        <ele>185</ele>
        <time>2015-05-24T09:36:39.000Z</time>
      </trkpt>
      <trkpt lat="48.74012" lon="1.80014">
        <ele>185</ele>
        <time>2015-05-24T09:36:50.000Z</time>
      </trkpt>
      <trkpt lat="48.74021" lon="1.80026">
        <ele>185</ele>
        <time>2015-05-24T09:36:57.000Z</time>
      </trkpt>
      <trkpt lat="48.74023" lon="1.80032">
        <ele>185</ele>
        <time>2015-05-24T09:37:00.000Z</time>
      </trkpt>
      <trkpt lat="48.74031" lon="1.80046">
        <ele>185</ele>
        <time>2015-05-24T09:37:07.000Z</time>
      </trkpt>
      <trkpt lat="48.74034" lon="1.80055">
        <ele>185</ele>
        <time>2015-05-24T09:37:11.000Z</time>
      </trkpt>
      <trkpt lat="48.74039" lon="1.80068">
        <ele>185</ele>
        <time>2015-05-24T09:37:18.000Z</time>
      </trkpt>
      <trkpt lat="48.74041" lon="1.80078">
        <ele>185</ele>
        <time>2015-05-24T09:37:24.000Z</time>
      </trkpt>
      <trkpt lat="48.74044" lon="1.80083">
        <ele>185</ele>
        <time>2015-05-24T09:37:31.000Z</time>
      </trkpt>
      <trkpt lat="48.74047" lon="1.80088">
        <ele>185</ele>
        <time>2015-05-24T09:37:36.000Z</time>
      </trkpt>
      <trkpt lat="48.74049" lon="1.8009">
        <ele>185</ele>
        <time>2015-05-24T09:37:38.000Z</time>
      </trkpt>
      <trkpt lat="48.74059" lon="1.80099">
        <ele>185</ele>
        <time>2015-05-24T09:37:45.000Z</time>
      </trkpt>
      <trkpt lat="48.74068" lon="1.80112">
        <ele>185</ele>
        <time>2015-05-24T09:37:53.000Z</time>
      </trkpt>
      <trkpt lat="48.74075" lon="1.80123">
        <ele>185</ele>
        <time>2015-05-24T09:37:59.000Z</time>
      </trkpt>
      <trkpt lat="48.7408" lon="1.80133">
        <ele>185</ele>
        <time>2015-05-24T09:38:05.000Z</time>
      </trkpt>
      <trkpt lat="48.74088" lon="1.80141">
        <ele>185</ele>
        <time>2015-05-24T09:38:11.000Z</time>
      </trkpt>
      <trkpt lat="48.7409" lon="1.80147">
        <ele>185</ele>
        <time>2015-05-24T09:38:14.000Z</time>
      </trkpt>
      <trkpt lat="48.74098" lon="1.80156">
        <ele>185</ele>
        <time>2015-05-24T09:38:21.000Z</time>
      </trkpt>
      <trkpt lat="48.74104" lon="1.80163">
        <ele>185</ele>
        <time>2015-05-24T09:38:26.000Z</time>
      </trkpt>
      <trkpt lat="48.74108" lon="1.80173">
        <ele>185</ele>
        <time>2015-05-24T09:38:32.000Z</time>
      </trkpt>
      <trkpt lat="48.7411" lon="1.80175">
        <ele>185</ele>
        <time>2015-05-24T09:38:34.000Z</time>
      </trkpt>
      <trkpt lat="48.74114" lon="1.80186">
        <ele>185</ele>
        <time>2015-05-24T09:38:41.000Z</time>
      </trkpt>
      <trkpt lat="48.74117" lon="1.80192">
        <ele>185</ele>
        <time>2015-05-24T09:38:44.000Z</time>
      </trkpt>
      <trkpt lat="48.74121" lon="1.802">
        <ele>185</ele>
        <time>2015-05-24T09:38:49.000Z</time>
      </trkpt>
      <trkpt lat="48.7413" lon="1.80206">
        <ele>185</ele>
        <time>2015-05-24T09:38:54.000Z</time>
      </trkpt>
      <trkpt lat="48.74141" lon="1.80216">
        <ele>185</ele>
        <time>2015-05-24T09:39:01.000Z</time>
      </trkpt>
      <trkpt lat="48.74149" lon="1.80224">
        <ele>185</ele>
        <time>2015-05-24T09:39:07.000Z</time>
      </trkpt>
      <trkpt lat="48.74152" lon="1.80226">
        <ele>185</ele>
        <time>2015-05-24T09:39:11.000Z</time>
      </trkpt>
      <trkpt lat="48.74154" lon="1.8023">
        <ele>185</ele>
        <time>2015-05-24T09:39:16.000Z</time>
      </trkpt>
      <trkpt lat="48.7416" lon="1.80238">
        <ele>185</ele>
        <time>2015-05-24T09:39:21.000Z</time>
      </trkpt>
      <trkpt lat="48.74165" lon="1.80251">
        <ele>185</ele>
        <time>2015-05-24T09:39:28.000Z</time>
      </trkpt>
      <trkpt lat="48.74172" lon="1.80259">
        <ele>185</ele>
        <time>2015-05-24T09:39:34.000Z</time>
      </trkpt>
      <trkpt lat="48.74174" lon="1.80263">
        <ele>185</ele>
        <time>2015-05-24T09:39:38.000Z</time>
      </trkpt>
      <trkpt lat="48.74184" lon="1.8027">
        <ele>185</ele>
        <time>2015-05-24T09:39:45.000Z</time>
      </trkpt>
      <trkpt lat="48.74193" lon="1.80282">
        <ele>185</ele>
        <time>2015-05-24T09:39:52.000Z</time>
      </trkpt>
      <trkpt lat="48.74199" lon="1.80294">
        <ele>185</ele>
        <time>2015-05-24T09:39:59.000Z</time>
      </trkpt>
      <trkpt lat="48.74206" lon="1.80301">
        <ele>185</ele>
        <time>2015-05-24T09:40:05.000Z</time>
      </trkpt>
      <trkpt lat="48.74207" lon="1.80302">
        <ele>185</ele>
        <time>2015-05-24T09:40:06.000Z</time>
      </trkpt>
      <trkpt lat="48.74212" lon="1.8031">
        <ele>185</ele>
        <time>2015-05-24T09:40:12.000Z</time>
      </trkpt>
      <trkpt lat="48.74213" lon="1.80312">
        <ele>185</ele>
        <time>2015-05-24T09:40:13.000Z</time>
      </trkpt>
      <trkpt lat="48.7422" lon="1.80322">
        <ele>185</ele>
        <time>2015-05-24T09:40:20.000Z</time>
      </trkpt>
      <trkpt lat="48.7423" lon="1.80329">
        <ele>185</ele>
        <time>2015-05-24T09:40:28.000Z</time>
      </trkpt>
      <trkpt lat="48.74231" lon="1.80329">
        <ele>185</ele>
        <time>2015-05-24T09:40:30.000Z</time>
      </trkpt>
      <trkpt lat="48.7424" lon="1.80336">
        <ele>185</ele>
        <time>2015-05-24T09:40:37.000Z</time>
      </trkpt>
      <trkpt lat="48.74242" lon="1.80337">
        <ele>185</ele>
        <time>2015-05-24T09:40:38.000Z</time>
      </trkpt>
      <trkpt lat="48.74246" lon="1.8034">
        <ele>185</ele>
        <time>2015-05-24T09:40:40.000Z</time>
      </trkpt>
      <trkpt lat="48.74254" lon="1.80347">
        <ele>185</ele>
        <time>2015-05-24T09:40:46.000Z</time>
      </trkpt>
      <trkpt lat="48.74259" lon="1.80353">
        <ele>185</ele>
        <time>2015-05-24T09:40:52.000Z</time>
      </trkpt>
      <trkpt lat="48.74264" lon="1.80361">
        <ele>185</ele>
        <time>2015-05-24T09:40:58.000Z</time>
      </trkpt>
      <trkpt lat="48.74272" lon="1.80368">
        <ele>185</ele>
        <time>2015-05-24T09:41:04.000Z</time>
      </trkpt>
      <trkpt lat="48.74284" lon="1.80383">
        <ele>185</ele>
        <time>2015-05-24T09:41:12.000Z</time>
      </trkpt>
      <trkpt lat="48.74295" lon="1.80394">
        <ele>185</ele>
        <time>2015-05-24T09:41:19.000Z</time>
      </trkpt>
      <trkpt lat="48.74297" lon="1.80396">
        <ele>185</ele>
        <time>2015-05-24T09:41:20.000Z</time>
      </trkpt>
      <trkpt lat="48.74302" lon="1.80404">
        <ele>185</ele>
        <time>2015-05-24T09:41:25.000Z</time>
      </trkpt>
      <trkpt lat="48.74307" lon="1.8041">
        <ele>185</ele>
        <time>2015-05-24T09:41:29.000Z</time>
      </trkpt>
      <trkpt lat="48.74319" lon="1.80418">
        <ele>185</ele>
        <time>2015-05-24T09:41:36.000Z</time>
      </trkpt>
      <trkpt lat="48.74324" lon="1.80426">
        <ele>185</ele>
        <time>2015-05-24T09:41:41.000Z</time>
      </trkpt>
      <trkpt lat="48.74333" lon="1.80436">
        <ele>185</ele>
        <time>2015-05-24T09:41:48.000Z</time>
      </trkpt>
      <trkpt lat="48.74339" lon="1.80443">
        <ele>185</ele>
        <time>2015-05-24T09:41:53.000Z</time>
      </trkpt>
      <trkpt lat="48.74344" lon="1.80446">
        <ele>185</ele>
        <time>2015-05-24T09:41:56.000Z</time>
      </trkpt>
      <trkpt lat="48.74353" lon="1.80455">
        <ele>185</ele>
        <time>2015-05-24T09:42:03.000Z</time>
      </trkpt>
      <trkpt lat="48.74355" lon="1.80459">
        <ele>185</ele>
        <time>2015-05-24T09:42:05.000Z</time>
      </trkpt>
      <trkpt lat="48.74361" lon="1.80467">
        <ele>185</ele>
        <time>2015-05-24T09:42:10.000Z</time>
      </trkpt>
      <trkpt lat="48.74372" lon="1.8048">
        <ele>185</ele>
        <time>2015-05-24T09:42:18.000Z</time>
      </trkpt>
      <trkpt lat="48.74378" lon="1.8049">
        <ele>185</ele>
        <time>2015-05-24T09:42:24.000Z</time>
      </trkpt>
      <trkpt lat="48.74384" lon="1.80497">
        <ele>185</ele>
        <time>2015-05-24T09:42:30.000Z</time>
      </trkpt>
      <trkpt lat="48.74384" lon="1.80499">
        <ele>185</ele>
        <time>2015-05-24T09:42:31.000Z</time>
      </trkpt>
      <trkpt lat="48.74386" lon="1.80508">
        <ele>184.7</ele>
        <time>2015-05-24T09:42:36.000Z</time>
      </trkpt>
      <trkpt lat="48.74394" lon="1.80517">
        <ele>184.3</ele>
        <time>2015-05-24T09:42:43.000Z</time>
      </trkpt>
      <trkpt lat="48.74398" lon="1.80526">
        <ele>184.1</ele>
        <time>2015-05-24T09:42:48.000Z</time>
      </trkpt>
      <trkpt lat="48.74403" lon="1.80534">
        <ele>184</ele>
        <time>2015-05-24T09:42:54.000Z</time>
      </trkpt>
      <trkpt lat="48.74409" lon="1.80536">
        <ele>184</ele>
        <time>2015-05-24T09:42:58.000Z</time>
      </trkpt>
      <trkpt lat="48.7442" lon="1.80548">
        <ele>184</ele>
        <time>2015-05-24T09:43:06.000Z</time>
      </trkpt>
      <trkpt lat="48.74428" lon="1.80555">
        <ele>184</ele>
        <time>2015-05-24T09:43:13.000Z</time>
      </trkpt>
      <trkpt lat="48.74431" lon="1.80565">
        <ele>184</ele>
        <time>2015-05-24T09:43:18.000Z</time>
      </trkpt>
      <trkpt lat="48.74437" lon="1.80575">
        <ele>184</ele>
        <time>2015-05-24T09:43:23.000Z</time>
      </trkpt>
      <trkpt lat="48.74442" lon="1.80585">
        <ele>184</ele>
        <time>2015-05-24T09:43:29.000Z</time>
      </trkpt>
      <trkpt lat="48.74449" lon="1.80593">
        <ele>184</ele>
        <time>2015-05-24T09:43:34.000Z</time>
      </trkpt>
      <trkpt lat="48.74452" lon="1.80596">
        <ele>184</ele>
        <time>2015-05-24T09:43:36.000Z</time>
      </trkpt>
      <trkpt lat="48.74462" lon="1.80608">
        <ele>184</ele>
        <time>2015-05-24T09:43:44.000Z</time>
      </trkpt>
      <trkpt lat="48.74465" lon="1.80611">
        <ele>184</ele>
        <time>2015-05-24T09:43:46.000Z</time>
      </trkpt>
      <trkpt lat="48.74478" lon="1.80627">
        <ele>184</ele>
        <time>2015-05-24T09:43:55.000Z</time>
      </trkpt>
      <trkpt lat="48.74484" lon="1.80633">
        <ele>184</ele>
        <time>2015-05-24T09:44:00.000Z</time>
      </trkpt>
      <trkpt lat="48.74486" lon="1.80649">
        <ele>184</ele>
        <time>2015-05-24T09:44:07.000Z</time>
      </trkpt>
      <trkpt lat="48.74484" lon="1.8066">
        <ele>184</ele>
        <time>2015-05-24T09:44:12.000Z</time>
      </trkpt>
      <trkpt lat="48.7448" lon="1.80679">
        <ele>184</ele>
        <time>2015-05-24T09:44:21.000Z</time>
      </trkpt>
      <trkpt lat="48.74483" lon="1.80695">
        <ele>184</ele>
        <time>2015-05-24T09:44:30.000Z</time>
      </trkpt>
      <trkpt lat="48.74488" lon="1.80695">
        <ele>184</ele>
        <time>2015-05-24T09:44:38.000Z</time>
      </trkpt>
      <trkpt lat="48.74504" lon="1.80689">
        <ele>183.9</ele>
        <time>2015-05-24T09:45:22.000Z</time>
      </trkpt>
      <trkpt lat="48.74513" lon="1.80698">
        <ele>183.5</ele>
        <time>2015-05-24T09:45:29.000Z</time>
      </trkpt>
      <trkpt lat="48.74519" lon="1.80705">
        <ele>183.3</ele>
        <time>2015-05-24T09:45:35.000Z</time>
      </trkpt>
      <trkpt lat="48.74526" lon="1.80707">
        <ele>183.1</ele>
        <time>2015-05-24T09:45:41.000Z</time>
      </trkpt>
      <trkpt lat="48.74528" lon="1.80708">
        <ele>183</ele>
        <time>2015-05-24T09:45:43.000Z</time>
      </trkpt>
      <trkpt lat="48.74533" lon="1.80714">
        <ele>183</ele>
        <time>2015-05-24T09:45:49.000Z</time>
      </trkpt>
      <trkpt lat="48.74541" lon="1.80725">
        <ele>183</ele>
        <time>2015-05-24T09:45:58.000Z</time>
      </trkpt>
      <trkpt lat="48.74547" lon="1.80734">
        <ele>183</ele>
        <time>2015-05-24T09:46:05.000Z</time>
      </trkpt>
      <trkpt lat="48.74553" lon="1.80741">
        <ele>183</ele>
        <time>2015-05-24T09:46:11.000Z</time>
      </trkpt>
      <trkpt lat="48.74564" lon="1.80751">
        <ele>183</ele>
        <time>2015-05-24T09:46:19.000Z</time>
      </trkpt>
      <trkpt lat="48.74569" lon="1.80759">
        <ele>183</ele>
        <time>2015-05-24T09:46:24.000Z</time>
      </trkpt>
      <trkpt lat="48.74571" lon="1.80763">
        <ele>183</ele>
        <time>2015-05-24T09:46:28.000Z</time>
      </trkpt>
      <trkpt lat="48.74579" lon="1.8077">
        <ele>183</ele>
        <time>2015-05-24T09:46:33.000Z</time>
      </trkpt>
      <trkpt lat="48.74583" lon="1.80774">
        <ele>183</ele>
        <time>2015-05-24T09:46:36.000Z</time>
      </trkpt>
      <trkpt lat="48.74591" lon="1.80781">
        <ele>183</ele>
        <time>2015-05-24T09:46:43.000Z</time>
      </trkpt>
      <trkpt lat="48.74593" lon="1.80782">
        <ele>183</ele>
        <time>2015-05-24T09:46:44.000Z</time>
      </trkpt>
      <trkpt lat="48.74595" lon="1.80785">
        <ele>183</ele>
        <time>2015-05-24T09:46:47.000Z</time>
      </trkpt>
      <trkpt lat="48.74601" lon="1.80791">
        <ele>183</ele>
        <time>2015-05-24T09:46:53.000Z</time>
      </trkpt>
      <trkpt lat="48.74606" lon="1.80803">
        <ele>183</ele>
        <time>2015-05-24T09:46:59.000Z</time>
      </trkpt>
      <trkpt lat="48.74609" lon="1.80805">
        <ele>183</ele>
        <time>2015-05-24T09:47:01.000Z</time>
      </trkpt>
      <trkpt lat="48.74618" lon="1.80818">
        <ele>183</ele>
        <time>2015-05-24T09:47:09.000Z</time>
      </trkpt>
      <trkpt lat="48.7462" lon="1.80821">
        <ele>183</ele>
        <time>2015-05-24T09:47:14.000Z</time>
      </trkpt>
      <trkpt lat="48.74628" lon="1.80831">
        <ele>183</ele>
        <time>2015-05-24T09:47:21.000Z</time>
      </trkpt>
      <trkpt lat="48.74635" lon="1.80842">
        <ele>183</ele>
        <time>2015-05-24T09:47:28.000Z</time>
      </trkpt>
      <trkpt lat="48.7464" lon="1.80848">
        <ele>183</ele>
        <time>2015-05-24T09:47:33.000Z</time>
      </trkpt>
      <trkpt lat="48.74644" lon="1.80856">
        <ele>183</ele>
        <time>2015-05-24T09:47:37.000Z</time>
      </trkpt>
      <trkpt lat="48.74646" lon="1.80862">
        <ele>183</ele>
        <time>2015-05-24T09:47:40.000Z</time>
      </trkpt>
      <trkpt lat="48.74657" lon="1.8088">
        <ele>183</ele>
        <time>2015-05-24T09:47:49.000Z</time>
      </trkpt>
      <trkpt lat="48.74658" lon="1.80882">
        <ele>183</ele>
        <time>2015-05-24T09:47:50.000Z</time>
      </trkpt>
      <trkpt lat="48.74661" lon="1.80889">
        <ele>183</ele>
        <time>2015-05-24T09:47:55.000Z</time>
      </trkpt>
      <trkpt lat="48.74666" lon="1.80899">
        <ele>183</ele>
        <time>2015-05-24T09:48:00.000Z</time>
      </trkpt>
      <trkpt lat="48.74674" lon="1.80911">
        <ele>182.7</ele>
        <time>2015-05-24T09:48:07.000Z</time>
      </trkpt>
      <trkpt lat="48.74677" lon="1.80917">
        <ele>182.6</ele>
        <time>2015-05-24T09:48:12.000Z</time>
      </trkpt>
      <trkpt lat="48.74679" lon="1.80922">
        <ele>182.5</ele>
        <time>2015-05-24T09:48:15.000Z</time>
      </trkpt>
      <trkpt lat="48.7468" lon="1.80924">
        <ele>182.5</ele>
        <time>2015-05-24T09:48:17.000Z</time>
      </trkpt>
      <trkpt lat="48.74682" lon="1.80931">
        <ele>182.4</ele>
        <time>2015-05-24T09:48:21.000Z</time>
      </trkpt>
      <trkpt lat="48.74691" lon="1.80945">
        <ele>182.1</ele>
        <time>2015-05-24T09:48:29.000Z</time>
      </trkpt>
      <trkpt lat="48.74698" lon="1.80956">
        <ele>182.2</ele>
        <time>2015-05-24T09:48:36.000Z</time>
      </trkpt>
      <trkpt lat="48.74703" lon="1.80965">
        <ele>182.2</ele>
        <time>2015-05-24T09:48:41.000Z</time>
      </trkpt>
      <trkpt lat="48.7471" lon="1.80981">
        <ele>181.9</ele>
        <time>2015-05-24T09:48:49.000Z</time>
      </trkpt>
      <trkpt lat="48.74711" lon="1.80986">
        <ele>181.9</ele>
        <time>2015-05-24T09:48:52.000Z</time>
      </trkpt>
      <trkpt lat="48.74711" lon="1.80986">
        <ele>181.9</ele>
        <time>2015-05-24T09:48:55.000Z</time>
      </trkpt>
      <trkpt lat="48.74715" lon="1.80993">
        <ele>181.9</ele>
        <time>2015-05-24T09:49:01.000Z</time>
      </trkpt>
      <trkpt lat="48.74721" lon="1.81003">
        <ele>182</ele>
        <time>2015-05-24T09:49:07.000Z</time>
      </trkpt>
      <trkpt lat="48.74725" lon="1.81011">
        <ele>182</ele>
        <time>2015-05-24T09:49:12.000Z</time>
      </trkpt>
      <trkpt lat="48.74732" lon="1.81021">
        <ele>182</ele>
        <time>2015-05-24T09:49:19.000Z</time>
      </trkpt>
      <trkpt lat="48.74735" lon="1.81024">
        <ele>182</ele>
        <time>2015-05-24T09:49:23.000Z</time>
      </trkpt>
      <trkpt lat="48.74745" lon="1.81035">
        <ele>182</ele>
        <time>2015-05-24T09:49:31.000Z</time>
      </trkpt>
      <trkpt lat="48.74754" lon="1.8105">
        <ele>181.9</ele>
        <time>2015-05-24T09:49:40.000Z</time>
      </trkpt>
      <trkpt lat="48.74757" lon="1.81055">
        <ele>181.8</ele>
        <time>2015-05-24T09:49:44.000Z</time>
      </trkpt>
      <trkpt lat="48.74763" lon="1.81065">
        <ele>181.4</ele>
        <time>2015-05-24T09:49:50.000Z</time>
      </trkpt>
      <trkpt lat="48.74767" lon="1.81073">
        <ele>181.1</ele>
        <time>2015-05-24T09:49:55.000Z</time>
      </trkpt>
      <trkpt lat="48.74771" lon="1.8108">
        <ele>181</ele>
        <time>2015-05-24T09:50:00.000Z</time>
      </trkpt>
      <trkpt lat="48.74776" lon="1.81087">
        <ele>180.9</ele>
        <time>2015-05-24T09:50:05.000Z</time>
      </trkpt>
      <trkpt lat="48.7478" lon="1.81092">
        <ele>180.6</ele>
        <time>2015-05-24T09:50:08.000Z</time>
      </trkpt>
      <trkpt lat="48.74792" lon="1.81103">
        <ele>179.8</ele>
        <time>2015-05-24T09:50:16.000Z</time>
      </trkpt>
      <trkpt lat="48.74795" lon="1.81107">
        <ele>179.5</ele>
        <time>2015-05-24T09:50:19.000Z</time>
      </trkpt>
      <trkpt lat="48.74802" lon="1.81111">
        <ele>179.2</ele>
        <time>2015-05-24T09:50:24.000Z</time>
      </trkpt>
      <trkpt lat="48.74806" lon="1.81118">
        <ele>179</ele>
        <time>2015-05-24T09:50:29.000Z</time>
      </trkpt>
      <trkpt lat="48.74809" lon="1.81122">
        <ele>179</ele>
        <time>2015-05-24T09:50:32.000Z</time>
      </trkpt>
      <trkpt lat="48.74816" lon="1.81129">
        <ele>179</ele>
        <time>2015-05-24T09:50:37.000Z</time>
      </trkpt>
      <trkpt lat="48.74824" lon="1.81136">
        <ele>179</ele>
        <time>2015-05-24T09:50:43.000Z</time>
      </trkpt>
      <trkpt lat="48.7483" lon="1.81147">
        <ele>178.7</ele>
        <time>2015-05-24T09:50:49.000Z</time>
      </trkpt>
      <trkpt lat="48.74841" lon="1.81157">
        <ele>178.3</ele>
        <time>2015-05-24T09:50:57.000Z</time>
      </trkpt>
      <trkpt lat="48.74852" lon="1.81165">
        <ele>178.1</ele>
        <time>2015-05-24T09:51:04.000Z</time>
      </trkpt>
      <trkpt lat="48.74856" lon="1.81174">
        <ele>177.7</ele>
        <time>2015-05-24T09:51:10.000Z</time>
      </trkpt>
      <trkpt lat="48.7486" lon="1.81181">
        <ele>177.5</ele>
        <time>2015-05-24T09:51:16.000Z</time>
      </trkpt>
      <trkpt lat="48.74862" lon="1.81182">
        <ele>177.4</ele>
        <time>2015-05-24T09:51:17.000Z</time>
      </trkpt>
      <trkpt lat="48.74864" lon="1.81184">
        <ele>177.3</ele>
        <time>2015-05-24T09:51:21.000Z</time>
      </trkpt>
      <trkpt lat="48.74867" lon="1.81185">
        <ele>177.1</ele>
        <time>2015-05-24T09:51:25.000Z</time>
      </trkpt>
      <trkpt lat="48.74872" lon="1.81187">
        <ele>176.9</ele>
        <time>2015-05-24T09:51:29.000Z</time>
      </trkpt>
      <trkpt lat="48.74875" lon="1.81192">
        <ele>176.6</ele>
        <time>2015-05-24T09:51:32.000Z</time>
      </trkpt>
      <trkpt lat="48.74881" lon="1.81199">
        <ele>176</ele>
        <time>2015-05-24T09:51:37.000Z</time>
      </trkpt>
      <trkpt lat="48.74888" lon="1.81206">
        <ele>175.2</ele>
        <time>2015-05-24T09:51:44.000Z</time>
      </trkpt>
      <trkpt lat="48.74893" lon="1.81208">
        <ele>174.9</ele>
        <time>2015-05-24T09:51:46.000Z</time>
      </trkpt>
      <trkpt lat="48.74907" lon="1.81219">
        <ele>174.1</ele>
        <time>2015-05-24T09:51:54.000Z</time>
      </trkpt>
      <trkpt lat="48.74915" lon="1.81223">
        <ele>174</ele>
        <time>2015-05-24T09:51:59.000Z</time>
      </trkpt>
      <trkpt lat="48.74922" lon="1.81227">
        <ele>173.6</ele>
        <time>2015-05-24T09:52:04.000Z</time>
      </trkpt>
      <trkpt lat="48.74928" lon="1.81235">
        <ele>173.1</ele>
        <time>2015-05-24T09:52:11.000Z</time>
      </trkpt>
      <trkpt lat="48.74928" lon="1.81239">
        <ele>173</ele>
        <time>2015-05-24T09:52:13.000Z</time>
      </trkpt>
      <trkpt lat="48.74939" lon="1.81242">
        <ele>172.5</ele>
        <time>2015-05-24T09:52:20.000Z</time>
      </trkpt>
      <trkpt lat="48.74947" lon="1.81247">
        <ele>172</ele>
        <time>2015-05-24T09:52:26.000Z</time>
      </trkpt>
      <trkpt lat="48.74948" lon="1.81248">
        <ele>172</ele>
        <time>2015-05-24T09:52:27.000Z</time>
      </trkpt>
      <trkpt lat="48.74952" lon="1.81253">
        <ele>171.6</ele>
        <time>2015-05-24T09:52:33.000Z</time>
      </trkpt>
      <trkpt lat="48.74956" lon="1.81257">
        <ele>171.5</ele>
        <time>2015-05-24T09:52:37.000Z</time>
      </trkpt>
      <trkpt lat="48.74965" lon="1.81265">
        <ele>171.1</ele>
        <time>2015-05-24T09:52:45.000Z</time>
      </trkpt>
      <trkpt lat="48.74969" lon="1.81269">
        <ele>171</ele>
        <time>2015-05-24T09:52:48.000Z</time>
      </trkpt>
      <trkpt lat="48.74973" lon="1.81271">
        <ele>171</ele>
        <time>2015-05-24T09:52:52.000Z</time>
      </trkpt>
      <trkpt lat="48.74975" lon="1.8127">
        <ele>170.9</ele>
        <time>2015-05-24T09:52:54.000Z</time>
      </trkpt>
      <trkpt lat="48.74981" lon="1.81275">
        <ele>170.7</ele>
        <time>2015-05-24T09:52:59.000Z</time>
      </trkpt>
      <trkpt lat="48.74981" lon="1.81278">
        <ele>170.7</ele>
        <time>2015-05-24T09:53:02.000Z</time>
      </trkpt>
      <trkpt lat="48.74989" lon="1.81284">
        <ele>169.9</ele>
        <time>2015-05-24T09:53:08.000Z</time>
      </trkpt>
      <trkpt lat="48.74991" lon="1.81286">
        <ele>169.7</ele>
        <time>2015-05-24T09:53:10.000Z</time>
      </trkpt>
      <trkpt lat="48.74994" lon="1.8129">
        <ele>169.3</ele>
        <time>2015-05-24T09:53:13.000Z</time>
      </trkpt>
      <trkpt lat="48.75004" lon="1.81301">
        <ele>168.2</ele>
        <time>2015-05-24T09:53:22.000Z</time>
      </trkpt>
      <trkpt lat="48.75009" lon="1.81305">
        <ele>167.7</ele>
        <time>2015-05-24T09:53:26.000Z</time>
      </trkpt>
      <trkpt lat="48.75014" lon="1.81307">
        <ele>167.4</ele>
        <time>2015-05-24T09:53:31.000Z</time>
      </trkpt>
      <trkpt lat="48.75019" lon="1.8131">
        <ele>167</ele>
        <time>2015-05-24T09:53:34.000Z</time>
      </trkpt>
      <trkpt lat="48.75026" lon="1.81313">
        <ele>166.6</ele>
        <time>2015-05-24T09:53:39.000Z</time>
      </trkpt>
      <trkpt lat="48.75026" lon="1.81313">
        <ele>166.5</ele>
        <time>2015-05-24T09:53:40.000Z</time>
      </trkpt>
      <trkpt lat="48.75027" lon="1.81314">
        <ele>166.4</ele>
        <time>2015-05-24T09:53:43.000Z</time>
      </trkpt>
      <trkpt lat="48.75037" lon="1.81323">
        <ele>165.1</ele>
        <time>2015-05-24T09:53:47.000Z</time>
      </trkpt>
      <trkpt lat="48.75041" lon="1.81326">
        <ele>164.6</ele>
        <time>2015-05-24T09:53:52.000Z</time>
      </trkpt>
      <trkpt lat="48.75042" lon="1.81327">
        <ele>164.5</ele>
        <time>2015-05-24T09:53:53.000Z</time>
      </trkpt>
      <trkpt lat="48.75048" lon="1.81335">
        <ele>163.4</ele>
        <time>2015-05-24T09:53:58.000Z</time>
      </trkpt>
      <trkpt lat="48.75059" lon="1.81346">
        <ele>161.9</ele>
        <time>2015-05-24T09:54:06.000Z</time>
      </trkpt>
      <trkpt lat="48.75063" lon="1.81351">
        <ele>161.1</ele>
        <time>2015-05-24T09:54:12.000Z</time>
      </trkpt>
      <trkpt lat="48.75067" lon="1.81355">
        <ele>160.6</ele>
        <time>2015-05-24T09:54:16.000Z</time>
      </trkpt>
      <trkpt lat="48.75076" lon="1.81359">
        <ele>159.7</ele>
        <time>2015-05-24T09:54:23.000Z</time>
      </trkpt>
      <trkpt lat="48.75076" lon="1.81359">
        <ele>159.7</ele>
        <time>2015-05-24T09:54:25.000Z</time>
      </trkpt>
      <trkpt lat="48.75083" lon="1.81365">
        <ele>158.9</ele>
        <time>2015-05-24T09:54:33.000Z</time>
      </trkpt>
      <trkpt lat="48.75091" lon="1.81372">
        <ele>158.1</ele>
        <time>2015-05-24T09:54:39.000Z</time>
      </trkpt>
      <trkpt lat="48.75094" lon="1.81373">
        <ele>157.8</ele>
        <time>2015-05-24T09:54:43.000Z</time>
      </trkpt>
      <trkpt lat="48.75096" lon="1.81372">
        <ele>157.7</ele>
        <time>2015-05-24T09:54:45.000Z</time>
      </trkpt>
      <trkpt lat="48.75101" lon="1.81375">
        <ele>157.2</ele>
        <time>2015-05-24T09:54:49.000Z</time>
      </trkpt>
      <trkpt lat="48.75108" lon="1.81372">
        <ele>156.8</ele>
        <time>2015-05-24T09:54:56.000Z</time>
      </trkpt>
      <trkpt lat="48.75115" lon="1.81374">
        <ele>156.1</ele>
        <time>2015-05-24T09:55:00.000Z</time>
      </trkpt>
      <trkpt lat="48.7512" lon="1.81376">
        <ele>155.5</ele>
        <time>2015-05-24T09:55:03.000Z</time>
      </trkpt>
      <trkpt lat="48.75128" lon="1.81382">
        <ele>154.5</ele>
        <time>2015-05-24T09:55:09.000Z</time>
      </trkpt>
      <trkpt lat="48.75129" lon="1.81382">
        <ele>154.3</ele>
        <time>2015-05-24T09:55:10.000Z</time>
      </trkpt>
      <trkpt lat="48.75132" lon="1.8139">
        <ele>153.6</ele>
        <time>2015-05-24T09:55:17.000Z</time>
      </trkpt>
      <trkpt lat="48.75134" lon="1.81391">
        <ele>153.4</ele>
        <time>2015-05-24T09:55:18.000Z</time>
      </trkpt>
      <trkpt lat="48.75138" lon="1.81395">
        <ele>152.7</ele>
        <time>2015-05-24T09:55:22.000Z</time>
      </trkpt>
      <trkpt lat="48.75149" lon="1.81406">
        <ele>150.6</ele>
        <time>2015-05-24T09:55:30.000Z</time>
      </trkpt>
      <trkpt lat="48.75154" lon="1.81414">
        <ele>149.6</ele>
        <time>2015-05-24T09:55:35.000Z</time>
      </trkpt>
      <trkpt lat="48.75161" lon="1.81423">
        <ele>148.4</ele>
        <time>2015-05-24T09:55:41.000Z</time>
      </trkpt>
      <trkpt lat="48.75171" lon="1.81426">
        <ele>147.3</ele>
        <time>2015-05-24T09:55:47.000Z</time>
      </trkpt>
      <trkpt lat="48.75175" lon="1.8143">
        <ele>146.9</ele>
        <time>2015-05-24T09:55:51.000Z</time>
      </trkpt>
      <trkpt lat="48.75182" lon="1.81441">
        <ele>146</ele>
        <time>2015-05-24T09:55:57.000Z</time>
      </trkpt>
      <trkpt lat="48.75183" lon="1.81442">
        <ele>145.9</ele>
        <time>2015-05-24T09:55:58.000Z</time>
      </trkpt>
      <trkpt lat="48.75191" lon="1.8145">
        <ele>144.8</ele>
        <time>2015-05-24T09:56:04.000Z</time>
      </trkpt>
      <trkpt lat="48.75197" lon="1.8146">
        <ele>143.7</ele>
        <time>2015-05-24T09:56:09.000Z</time>
      </trkpt>
      <trkpt lat="48.75198" lon="1.81462">
        <ele>143.5</ele>
        <time>2015-05-24T09:56:10.000Z</time>
      </trkpt>
      <trkpt lat="48.75209" lon="1.81478">
        <ele>141.5</ele>
        <time>2015-05-24T09:56:19.000Z</time>
      </trkpt>
      <trkpt lat="48.75209" lon="1.8148">
        <ele>141.3</ele>
        <time>2015-05-24T09:56:20.000Z</time>
      </trkpt>
      <trkpt lat="48.75208" lon="1.81486">
        <ele>141</ele>
        <time>2015-05-24T09:56:26.000Z</time>
      </trkpt>
      <trkpt lat="48.75215" lon="1.81497">
        <ele>139.8</ele>
        <time>2015-05-24T09:56:31.000Z</time>
      </trkpt>
      <trkpt lat="48.75215" lon="1.81503">
        <ele>139.4</ele>
        <time>2015-05-24T09:56:33.000Z</time>
      </trkpt>
      <trkpt lat="48.7522" lon="1.81513">
        <ele>138.7</ele>
        <time>2015-05-24T09:56:39.000Z</time>
      </trkpt>
      <trkpt lat="48.75224" lon="1.81521">
        <ele>138.2</ele>
        <time>2015-05-24T09:56:44.000Z</time>
      </trkpt>
      <trkpt lat="48.75228" lon="1.81524">
        <ele>138</ele>
        <time>2015-05-24T09:56:46.000Z</time>
      </trkpt>
      <trkpt lat="48.75232" lon="1.81526">
        <ele>137.7</ele>
        <time>2015-05-24T09:56:48.000Z</time>
      </trkpt>
      <trkpt lat="48.75234" lon="1.8153">
        <ele>137.5</ele>
        <time>2015-05-24T09:56:51.000Z</time>
      </trkpt>
      <trkpt lat="48.7524" lon="1.81537">
        <ele>137</ele>
        <time>2015-05-24T09:56:56.000Z</time>
      </trkpt>
      <trkpt lat="48.75242" lon="1.8155">
        <ele>136.5</ele>
        <time>2015-05-24T09:57:03.000Z</time>
      </trkpt>
      <trkpt lat="48.75247" lon="1.8156">
        <ele>135.9</ele>
        <time>2015-05-24T09:57:10.000Z</time>
      </trkpt>
      <trkpt lat="48.75248" lon="1.81563">
        <ele>135.8</ele>
        <time>2015-05-24T09:57:12.000Z</time>
      </trkpt>
      <trkpt lat="48.75248" lon="1.81568">
        <ele>135.6</ele>
        <time>2015-05-24T09:57:18.000Z</time>
      </trkpt>
      <trkpt lat="48.75249" lon="1.81568">
        <ele>135.6</ele>
        <time>2015-05-24T09:57:20.000Z</time>
      </trkpt>
      <trkpt lat="48.75259" lon="1.81576">
        <ele>134.6</ele>
        <time>2015-05-24T09:57:26.000Z</time>
      </trkpt>
      <trkpt lat="48.75267" lon="1.81583">
        <ele>133.8</ele>
        <time>2015-05-24T09:57:31.000Z</time>
      </trkpt>
      <trkpt lat="48.75274" lon="1.8159">
        <ele>133.2</ele>
        <time>2015-05-24T09:57:35.000Z</time>
      </trkpt>
      <trkpt lat="48.75281" lon="1.81599">
        <ele>132.8</ele>
        <time>2015-05-24T09:57:41.000Z</time>
      </trkpt>
      <trkpt lat="48.75279" lon="1.81611">
        <ele>132.9</ele>
        <time>2015-05-24T09:57:48.000Z</time>
      </trkpt>
      <trkpt lat="48.75284" lon="1.81616">
        <ele>132.4</ele>
        <time>2015-05-24T09:57:52.000Z</time>
      </trkpt>
      <trkpt lat="48.7529" lon="1.81629">
        <ele>131.8</ele>
        <time>2015-05-24T09:57:59.000Z</time>
      </trkpt>
      <trkpt lat="48.75291" lon="1.81632">
        <ele>131.6</ele>
        <time>2015-05-24T09:58:01.000Z</time>
      </trkpt>
      <trkpt lat="48.753" lon="1.81641">
        <ele>131.1</ele>
        <time>2015-05-24T09:58:07.000Z</time>
      </trkpt>
      <trkpt lat="48.75302" lon="1.81644">
        <ele>131</ele>
        <time>2015-05-24T09:58:11.000Z</time>
      </trkpt>
      <trkpt lat="48.75302" lon="1.81645">
        <ele>130.9</ele>
        <time>2015-05-24T09:58:12.000Z</time>
      </trkpt>
      <trkpt lat="48.75311" lon="1.81649">
        <ele>130.4</ele>
        <time>2015-05-24T09:58:17.000Z</time>
      </trkpt>
      <trkpt lat="48.75321" lon="1.81658">
        <ele>129.7</ele>
        <time>2015-05-24T09:58:22.000Z</time>
      </trkpt>
      <trkpt lat="48.75329" lon="1.81666">
        <ele>129.2</ele>
        <time>2015-05-24T09:58:26.000Z</time>
      </trkpt>
      <trkpt lat="48.75335" lon="1.81677">
        <ele>128.5</ele>
        <time>2015-05-24T09:58:31.000Z</time>
      </trkpt>
      <trkpt lat="48.7534" lon="1.81692">
        <ele>127.8</ele>
        <time>2015-05-24T09:58:38.000Z</time>
      </trkpt>
      <trkpt lat="48.75341" lon="1.81699">
        <ele>127.7</ele>
        <time>2015-05-24T09:58:44.000Z</time>
      </trkpt>
      <trkpt lat="48.75346" lon="1.81699">
        <ele>127.6</ele>
        <time>2015-05-24T09:58:50.000Z</time>
      </trkpt>
      <trkpt lat="48.75353" lon="1.8171">
        <ele>127.3</ele>
        <time>2015-05-24T09:58:55.000Z</time>
      </trkpt>
      <trkpt lat="48.7536" lon="1.81719">
        <ele>127</ele>
        <time>2015-05-24T09:59:01.000Z</time>
      </trkpt>
      <trkpt lat="48.75368" lon="1.81729">
        <ele>126.7</ele>
        <time>2015-05-24T09:59:06.000Z</time>
      </trkpt>
      <trkpt lat="48.75373" lon="1.81739">
        <ele>126.6</ele>
        <time>2015-05-24T09:59:11.000Z</time>
      </trkpt>
      <trkpt lat="48.75376" lon="1.81749">
        <ele>126.4</ele>
        <time>2015-05-24T09:59:16.000Z</time>
      </trkpt>
      <trkpt lat="48.75383" lon="1.81754">
        <ele>126.1</ele>
        <time>2015-05-24T09:59:21.000Z</time>
      </trkpt>
      <trkpt lat="48.75384" lon="1.81758">
        <ele>125.9</ele>
        <time>2015-05-24T09:59:25.000Z</time>
      </trkpt>
      <trkpt lat="48.75388" lon="1.81766">
        <ele>125.5</ele>
        <time>2015-05-24T09:59:32.000Z</time>
      </trkpt>
      <trkpt lat="48.75391" lon="1.81772">
        <ele>125.4</ele>
        <time>2015-05-24T09:59:36.000Z</time>
      </trkpt>
      <trkpt lat="48.754" lon="1.81779">
        <ele>126.2</ele>
        <time>2015-05-24T09:59:42.000Z</time>
      </trkpt>
      <trkpt lat="48.75407" lon="1.81786">
        <ele>126.7</ele>
        <time>2015-05-24T09:59:46.000Z</time>
      </trkpt>
      <trkpt lat="48.75417" lon="1.818">
        <ele>127.3</ele>
        <time>2015-05-24T09:59:54.000Z</time>
      </trkpt>
      <trkpt lat="48.75419" lon="1.81803">
        <ele>127.6</ele>
        <time>2015-05-24T09:59:56.000Z</time>
      </trkpt>
      <trkpt lat="48.75422" lon="1.81807">
        <ele>128</ele>
        <time>2015-05-24T10:00:01.000Z</time>
      </trkpt>
      <trkpt lat="48.75423" lon="1.81799">
        <ele>128.7</ele>
        <time>2015-05-24T10:00:07.000Z</time>
      </trkpt>
      <trkpt lat="48.75422" lon="1.81793">
        <ele>128.9</ele>
        <time>2015-05-24T10:00:11.000Z</time>
      </trkpt>
      <trkpt lat="48.75421" lon="1.81785">
        <ele>129.2</ele>
        <time>2015-05-24T10:00:15.000Z</time>
      </trkpt>
      <trkpt lat="48.7542" lon="1.81776">
        <ele>129</ele>
        <time>2015-05-24T10:00:20.000Z</time>
      </trkpt>
      <trkpt lat="48.75417" lon="1.81762">
        <ele>128.6</ele>
        <time>2015-05-24T10:00:26.000Z</time>
      </trkpt>
      <trkpt lat="48.75416" lon="1.8175">
        <ele>128.9</ele>
        <time>2015-05-24T10:00:32.000Z</time>
      </trkpt>
      <trkpt lat="48.75416" lon="1.81748">
        <ele>129</ele>
        <time>2015-05-24T10:00:33.000Z</time>
      </trkpt>
      <trkpt lat="48.75417" lon="1.81745">
        <ele>129.2</ele>
        <time>2015-05-24T10:00:35.000Z</time>
      </trkpt>
      <trkpt lat="48.75416" lon="1.81735">
        <ele>128.9</ele>
        <time>2015-05-24T10:00:39.000Z</time>
      </trkpt>
      <trkpt lat="48.75415" lon="1.81732">
        <ele>128.8</ele>
        <time>2015-05-24T10:00:41.000Z</time>
      </trkpt>
      <trkpt lat="48.75413" lon="1.81717">
        <ele>128.6</ele>
        <time>2015-05-24T10:00:47.000Z</time>
      </trkpt>
      <trkpt lat="48.7541" lon="1.81705">
        <ele>128.4</ele>
        <time>2015-05-24T10:00:52.000Z</time>
      </trkpt>
      <trkpt lat="48.75414" lon="1.81697">
        <ele>128.8</ele>
        <time>2015-05-24T10:00:58.000Z</time>
      </trkpt>
      <trkpt lat="48.75412" lon="1.8169">
        <ele>128.8</ele>
        <time>2015-05-24T10:01:02.000Z</time>
      </trkpt>
      <trkpt lat="48.75412" lon="1.81689">
        <ele>128.8</ele>
        <time>2015-05-24T10:01:03.000Z</time>
      </trkpt>
      <trkpt lat="48.75411" lon="1.81678">
        <ele>129.2</ele>
        <time>2015-05-24T10:01:09.000Z</time>
      </trkpt>
      <trkpt lat="48.7541" lon="1.81661">
        <ele>129.7</ele>
        <time>2015-05-24T10:01:16.000Z</time>
      </trkpt>
      <trkpt lat="48.7541" lon="1.81659">
        <ele>129.7</ele>
        <time>2015-05-24T10:01:17.000Z</time>
      </trkpt>
      <trkpt lat="48.75409" lon="1.81652">
        <ele>129.8</ele>
        <time>2015-05-24T10:01:20.000Z</time>
      </trkpt>
      <trkpt lat="48.75409" lon="1.81637">
        <ele>130.1</ele>
        <time>2015-05-24T10:01:24.000Z</time>
      </trkpt>
      <trkpt lat="48.7541" lon="1.81623">
        <ele>130.2</ele>
        <time>2015-05-24T10:01:28.000Z</time>
      </trkpt>
      <trkpt lat="48.7541" lon="1.81611">
        <ele>130.2</ele>
        <time>2015-05-24T10:01:35.000Z</time>
      </trkpt>
      <trkpt lat="48.75409" lon="1.81598">
        <ele>129.5</ele>
        <time>2015-05-24T10:01:40.000Z</time>
      </trkpt>
      <trkpt lat="48.7541" lon="1.81586">
        <ele>128.9</ele>
        <time>2015-05-24T10:01:45.000Z</time>
      </trkpt>
      <trkpt lat="48.75411" lon="1.81576">
        <ele>128.9</ele>
        <time>2015-05-24T10:01:50.000Z</time>
      </trkpt>
      <trkpt lat="48.75415" lon="1.81566">
        <ele>129</ele>
        <time>2015-05-24T10:01:55.000Z</time>
      </trkpt>
      <trkpt lat="48.75417" lon="1.81551">
        <ele>129.2</ele>
        <time>2015-05-24T10:02:02.000Z</time>
      </trkpt>
      <trkpt lat="48.7542" lon="1.81547">
        <ele>129.7</ele>
        <time>2015-05-24T10:02:05.000Z</time>
      </trkpt>
      <trkpt lat="48.75427" lon="1.81538">
        <ele>130.4</ele>
        <time>2015-05-24T10:02:12.000Z</time>
      </trkpt>
      <trkpt lat="48.75426" lon="1.81525">
        <ele>130.4</ele>
        <time>2015-05-24T10:02:17.000Z</time>
      </trkpt>
      <trkpt lat="48.7543" lon="1.81509">
        <ele>130.8</ele>
        <time>2015-05-24T10:02:23.000Z</time>
      </trkpt>
      <trkpt lat="48.75431" lon="1.81496">
        <ele>131.1</ele>
        <time>2015-05-24T10:02:28.000Z</time>
      </trkpt>
      <trkpt lat="48.75435" lon="1.81487">
        <ele>131.2</ele>
        <time>2015-05-24T10:02:33.000Z</time>
      </trkpt>
      <trkpt lat="48.75439" lon="1.81478">
        <ele>131.1</ele>
        <time>2015-05-24T10:02:38.000Z</time>
      </trkpt>
      <trkpt lat="48.75441" lon="1.81461">
        <ele>131.6</ele>
        <time>2015-05-24T10:02:45.000Z</time>
      </trkpt>
      <trkpt lat="48.75445" lon="1.81453">
        <ele>131.7</ele>
        <time>2015-05-24T10:02:49.000Z</time>
      </trkpt>
      <trkpt lat="48.75445" lon="1.81452">
        <ele>131.8</ele>
        <time>2015-05-24T10:02:52.000Z</time>
      </trkpt>
      <trkpt lat="48.75441" lon="1.81449">
        <ele>132</ele>
        <time>2015-05-24T10:03:19.000Z</time>
      </trkpt>
      <trkpt lat="48.75441" lon="1.81448">
        <ele>132.1</ele>
        <time>2015-05-24T10:03:23.000Z</time>
      </trkpt>
      <trkpt lat="48.75452" lon="1.81441">
        <ele>133</ele>
        <time>2015-05-24T10:03:28.000Z</time>
      </trkpt>
      <trkpt lat="48.75455" lon="1.81433">
        <ele>133.5</ele>
        <time>2015-05-24T10:03:33.000Z</time>
      </trkpt>
      <trkpt lat="48.75459" lon="1.81421">
        <ele>133.9</ele>
        <time>2015-05-24T10:03:39.000Z</time>
      </trkpt>
      <trkpt lat="48.75461" lon="1.81419">
        <ele>134</ele>
        <time>2015-05-24T10:03:41.000Z</time>
      </trkpt>
      <trkpt lat="48.75464" lon="1.81416">
        <ele>134</ele>
        <time>2015-05-24T10:03:44.000Z</time>
      </trkpt>
      <trkpt lat="48.75467" lon="1.81403">
        <ele>134.2</ele>
        <time>2015-05-24T10:03:50.000Z</time>
      </trkpt>
      <trkpt lat="48.75469" lon="1.81391">
        <ele>134.2</ele>
        <time>2015-05-24T10:03:55.000Z</time>
      </trkpt>
      <trkpt lat="48.75471" lon="1.81389">
        <ele>134.1</ele>
        <time>2015-05-24T10:03:57.000Z</time>
      </trkpt>
      <trkpt lat="48.75472" lon="1.81383">
        <ele>134.4</ele>
        <time>2015-05-24T10:04:00.000Z</time>
      </trkpt>
      <trkpt lat="48.75475" lon="1.81374">
        <ele>135</ele>
        <time>2015-05-24T10:04:06.000Z</time>
      </trkpt>
      <trkpt lat="48.75482" lon="1.81367">
        <ele>135.4</ele>
        <time>2015-05-24T10:04:10.000Z</time>
      </trkpt>
      <trkpt lat="48.75491" lon="1.81357">
        <ele>135.6</ele>
        <time>2015-05-24T10:04:16.000Z</time>
      </trkpt>
      <trkpt lat="48.75499" lon="1.81348">
        <ele>136</ele>
        <time>2015-05-24T10:04:22.000Z</time>
      </trkpt>
      <trkpt lat="48.75506" lon="1.81343">
        <ele>136.3</ele>
        <time>2015-05-24T10:04:28.000Z</time>
      </trkpt>
      <trkpt lat="48.75506" lon="1.81343">
        <ele>136.3</ele>
        <time>2015-05-24T10:04:30.000Z</time>
      </trkpt>
      <trkpt lat="48.75516" lon="1.81318">
        <ele>137</ele>
        <time>2015-05-24T10:04:54.000Z</time>
      </trkpt>
      <trkpt lat="48.75519" lon="1.81304">
        <ele>137.4</ele>
        <time>2015-05-24T10:04:59.000Z</time>
      </trkpt>
      <trkpt lat="48.7552" lon="1.81302">
        <ele>137.4</ele>
        <time>2015-05-24T10:05:00.000Z</time>
      </trkpt>
      <trkpt lat="48.75531" lon="1.81293">
        <ele>137.7</ele>
        <time>2015-05-24T10:05:06.000Z</time>
      </trkpt>
      <trkpt lat="48.75537" lon="1.81286">
        <ele>138.2</ele>
        <time>2015-05-24T10:05:10.000Z</time>
      </trkpt>
      <trkpt lat="48.75539" lon="1.8128">
        <ele>138.4</ele>
        <time>2015-05-24T10:05:14.000Z</time>
      </trkpt>
      <trkpt lat="48.75538" lon="1.8127">
        <ele>138.7</ele>
        <time>2015-05-24T10:05:19.000Z</time>
      </trkpt>
      <trkpt lat="48.75541" lon="1.81268">
        <ele>138.9</ele>
        <time>2015-05-24T10:05:21.000Z</time>
      </trkpt>
      <trkpt lat="48.75541" lon="1.81263">
        <ele>139</ele>
        <time>2015-05-24T10:05:23.000Z</time>
      </trkpt>
      <trkpt lat="48.75541" lon="1.81256">
        <ele>139.3</ele>
        <time>2015-05-24T10:05:26.000Z</time>
      </trkpt>
      <trkpt lat="48.75544" lon="1.81251">
        <ele>139.4</ele>
        <time>2015-05-24T10:05:29.000Z</time>
      </trkpt>
      <trkpt lat="48.75548" lon="1.81251">
        <ele>139.2</ele>
        <time>2015-05-24T10:05:31.000Z</time>
      </trkpt>
      <trkpt lat="48.75556" lon="1.81242">
        <ele>139.8</ele>
        <time>2015-05-24T10:05:36.000Z</time>
      </trkpt>
      <trkpt lat="48.75562" lon="1.81235">
        <ele>140.5</ele>
        <time>2015-05-24T10:05:40.000Z</time>
      </trkpt>
      <trkpt lat="48.75569" lon="1.81226">
        <ele>140.8</ele>
        <time>2015-05-24T10:05:46.000Z</time>
      </trkpt>
      <trkpt lat="48.7558" lon="1.8122">
        <ele>140.5</ele>
        <time>2015-05-24T10:05:51.000Z</time>
      </trkpt>
      <trkpt lat="48.75587" lon="1.81215">
        <ele>141</ele>
        <time>2015-05-24T10:05:56.000Z</time>
      </trkpt>
      <trkpt lat="48.75588" lon="1.81209">
        <ele>141.5</ele>
        <time>2015-05-24T10:05:58.000Z</time>
      </trkpt>
      <trkpt lat="48.75591" lon="1.81196">
        <ele>142.6</ele>
        <time>2015-05-24T10:06:04.000Z</time>
      </trkpt>
      <trkpt lat="48.75605" lon="1.81189">
        <ele>142.5</ele>
        <time>2015-05-24T10:06:10.000Z</time>
      </trkpt>
      <trkpt lat="48.75611" lon="1.8118">
        <ele>142.5</ele>
        <time>2015-05-24T10:06:16.000Z</time>
      </trkpt>
      <trkpt lat="48.75615" lon="1.81164">
        <ele>143.3</ele>
        <time>2015-05-24T10:06:24.000Z</time>
      </trkpt>
      <trkpt lat="48.75619" lon="1.81159">
        <ele>143.6</ele>
        <time>2015-05-24T10:06:29.000Z</time>
      </trkpt>
      <trkpt lat="48.7562" lon="1.81158">
        <ele>143.6</ele>
        <time>2015-05-24T10:06:30.000Z</time>
      </trkpt>
      <trkpt lat="48.75626" lon="1.81151">
        <ele>143.8</ele>
        <time>2015-05-24T10:06:35.000Z</time>
      </trkpt>
      <trkpt lat="48.75635" lon="1.81147">
        <ele>143.5</ele>
        <time>2015-05-24T10:06:40.000Z</time>
      </trkpt>
      <trkpt lat="48.7564" lon="1.81136">
        <ele>143.2</ele>
        <time>2015-05-24T10:06:45.000Z</time>
      </trkpt>
      <trkpt lat="48.75649" lon="1.81125">
        <ele>144.8</ele>
        <time>2015-05-24T10:06:50.000Z</time>
      </trkpt>
      <trkpt lat="48.75653" lon="1.81115">
        <ele>145.1</ele>
        <time>2015-05-24T10:06:56.000Z</time>
      </trkpt>
      <trkpt lat="48.75653" lon="1.81102">
        <ele>145.2</ele>
        <time>2015-05-24T10:07:02.000Z</time>
      </trkpt>
      <trkpt lat="48.75654" lon="1.8109">
        <ele>145.4</ele>
        <time>2015-05-24T10:07:08.000Z</time>
      </trkpt>
      <trkpt lat="48.75654" lon="1.81076">
        <ele>145.7</ele>
        <time>2015-05-24T10:07:13.000Z</time>
      </trkpt>
      <trkpt lat="48.75657" lon="1.8107">
        <ele>145.7</ele>
        <time>2015-05-24T10:07:17.000Z</time>
      </trkpt>
      <trkpt lat="48.75657" lon="1.81066">
        <ele>145.8</ele>
        <time>2015-05-24T10:07:19.000Z</time>
      </trkpt>
      <trkpt lat="48.75657" lon="1.81055">
        <ele>146.1</ele>
        <time>2015-05-24T10:07:24.000Z</time>
      </trkpt>
      <trkpt lat="48.7566" lon="1.81039">
        <ele>146.5</ele>
        <time>2015-05-24T10:07:30.000Z</time>
      </trkpt>
      <trkpt lat="48.75665" lon="1.81028">
        <ele>146.3</ele>
        <time>2015-05-24T10:07:35.000Z</time>
      </trkpt>
      <trkpt lat="48.75672" lon="1.81019">
        <ele>146.6</ele>
        <time>2015-05-24T10:07:41.000Z</time>
      </trkpt>
      <trkpt lat="48.75681" lon="1.81012">
        <ele>146.5</ele>
        <time>2015-05-24T10:07:47.000Z</time>
      </trkpt>
      <trkpt lat="48.75689" lon="1.81004">
        <ele>145.8</ele>
        <time>2015-05-24T10:07:53.000Z</time>
      </trkpt>
      <trkpt lat="48.75693" lon="1.8099">
        <ele>145.5</ele>
        <time>2015-05-24T10:07:59.000Z</time>
      </trkpt>
      <trkpt lat="48.75698" lon="1.8098">
        <ele>146</ele>
        <time>2015-05-24T10:08:07.000Z</time>
      </trkpt>
      <trkpt lat="48.75703" lon="1.80971">
        <ele>146.4</ele>
        <time>2015-05-24T10:08:13.000Z</time>
      </trkpt>
      <trkpt lat="48.75708" lon="1.80956">
        <ele>147.1</ele>
        <time>2015-05-24T10:08:19.000Z</time>
      </trkpt>
      <trkpt lat="48.75719" lon="1.80946">
        <ele>147.1</ele>
        <time>2015-05-24T10:08:25.000Z</time>
      </trkpt>
      <trkpt lat="48.75724" lon="1.80943">
        <ele>147.4</ele>
        <time>2015-05-24T10:08:28.000Z</time>
      </trkpt>
      <trkpt lat="48.7573" lon="1.8094">
        <ele>148.1</ele>
        <time>2015-05-24T10:08:32.000Z</time>
      </trkpt>
      <trkpt lat="48.75728" lon="1.80933">
        <ele>148</ele>
        <time>2015-05-24T10:08:35.000Z</time>
      </trkpt>
      <trkpt lat="48.75738" lon="1.80921">
        <ele>148.7</ele>
        <time>2015-05-24T10:08:42.000Z</time>
      </trkpt>
      <trkpt lat="48.75746" lon="1.80916">
        <ele>148.9</ele>
        <time>2015-05-24T10:08:47.000Z</time>
      </trkpt>
      <trkpt lat="48.75746" lon="1.80913">
        <ele>148.9</ele>
        <time>2015-05-24T10:08:49.000Z</time>
      </trkpt>
      <trkpt lat="48.7575" lon="1.80908">
        <ele>149</ele>
        <time>2015-05-24T10:08:55.000Z</time>
      </trkpt>
      <trkpt lat="48.7575" lon="1.80892">
        <ele>149</ele>
        <time>2015-05-24T10:09:01.000Z</time>
      </trkpt>
      <trkpt lat="48.75752" lon="1.80882">
        <ele>149.4</ele>
        <time>2015-05-24T10:09:06.000Z</time>
      </trkpt>
      <trkpt lat="48.75759" lon="1.80868">
        <ele>150.2</ele>
        <time>2015-05-24T10:09:13.000Z</time>
      </trkpt>
      <trkpt lat="48.75762" lon="1.80862">
        <ele>150.4</ele>
        <time>2015-05-24T10:09:19.000Z</time>
      </trkpt>
      <trkpt lat="48.75766" lon="1.80859">
        <ele>150.6</ele>
        <time>2015-05-24T10:09:22.000Z</time>
      </trkpt>
      <trkpt lat="48.75772" lon="1.80851">
        <ele>150.6</ele>
        <time>2015-05-24T10:09:28.000Z</time>
      </trkpt>
      <trkpt lat="48.75772" lon="1.80836">
        <ele>150.3</ele>
        <time>2015-05-24T10:09:35.000Z</time>
      </trkpt>
      <trkpt lat="48.75773" lon="1.80821">
        <ele>150.2</ele>
        <time>2015-05-24T10:09:40.000Z</time>
      </trkpt>
      <trkpt lat="48.75776" lon="1.80805">
        <ele>150.2</ele>
        <time>2015-05-24T10:09:46.000Z</time>
      </trkpt>
      <trkpt lat="48.7578" lon="1.80798">
        <ele>150.5</ele>
        <time>2015-05-24T10:09:51.000Z</time>
      </trkpt>
      <trkpt lat="48.75784" lon="1.80793">
        <ele>151.3</ele>
        <time>2015-05-24T10:09:55.000Z</time>
      </trkpt>
      <trkpt lat="48.7579" lon="1.80776">
        <ele>152.3</ele>
        <time>2015-05-24T10:10:02.000Z</time>
      </trkpt>
      <trkpt lat="48.75788" lon="1.80766">
        <ele>152.4</ele>
        <time>2015-05-24T10:10:06.000Z</time>
      </trkpt>
      <trkpt lat="48.75792" lon="1.80759">
        <ele>152.9</ele>
        <time>2015-05-24T10:10:10.000Z</time>
      </trkpt>
      <trkpt lat="48.75795" lon="1.80749">
        <ele>153.3</ele>
        <time>2015-05-24T10:10:15.000Z</time>
      </trkpt>
      <trkpt lat="48.75798" lon="1.80741">
        <ele>153.8</ele>
        <time>2015-05-24T10:10:20.000Z</time>
      </trkpt>
      <trkpt lat="48.75799" lon="1.80733">
        <ele>154.2</ele>
        <time>2015-05-24T10:10:24.000Z</time>
      </trkpt>
      <trkpt lat="48.75805" lon="1.80719">
        <ele>155.1</ele>
        <time>2015-05-24T10:10:30.000Z</time>
      </trkpt>
      <trkpt lat="48.75811" lon="1.80707">
        <ele>156.6</ele>
        <time>2015-05-24T10:10:34.000Z</time>
      </trkpt>
      <trkpt lat="48.75812" lon="1.807">
        <ele>157</ele>
        <time>2015-05-24T10:10:36.000Z</time>
      </trkpt>
      <trkpt lat="48.75815" lon="1.80675">
        <ele>158.7</ele>
        <time>2015-05-24T10:10:40.000Z</time>
      </trkpt>
      <trkpt lat="48.75829" lon="1.80671">
        <ele>161.8</ele>
        <time>2015-05-24T10:10:44.000Z</time>
      </trkpt>
      <trkpt lat="48.75836" lon="1.80663">
        <ele>163.8</ele>
        <time>2015-05-24T10:10:48.000Z</time>
      </trkpt>
      <trkpt lat="48.75837" lon="1.8066">
        <ele>164.3</ele>
        <time>2015-05-24T10:10:49.000Z</time>
      </trkpt>
      <trkpt lat="48.7583" lon="1.80654">
        <ele>163.1</ele>
        <time>2015-05-24T10:10:57.000Z</time>
      </trkpt>
      <trkpt lat="48.75826" lon="1.80651">
        <ele>162.3</ele>
        <time>2015-05-24T10:11:01.000Z</time>
      </trkpt>
      <trkpt lat="48.7582" lon="1.80646">
        <ele>161.4</ele>
        <time>2015-05-24T10:11:07.000Z</time>
      </trkpt>
      <trkpt lat="48.75821" lon="1.80646">
        <ele>161.4</ele>
        <time>2015-05-24T10:11:08.000Z</time>
      </trkpt>
      <trkpt lat="48.75819" lon="1.80636">
        <ele>161.4</ele>
        <time>2015-05-24T10:11:22.000Z</time>
      </trkpt>
      <trkpt lat="48.75816" lon="1.80632">
        <ele>161</ele>
        <time>2015-05-24T10:11:24.000Z</time>
      </trkpt>
      <trkpt lat="48.75817" lon="1.80627">
        <ele>161.3</ele>
        <time>2015-05-24T10:11:26.000Z</time>
      </trkpt>
      <trkpt lat="48.75817" lon="1.80619">
        <ele>161.6</ele>
        <time>2015-05-24T10:11:31.000Z</time>
      </trkpt>
      <trkpt lat="48.75818" lon="1.80607">
        <ele>162.1</ele>
        <time>2015-05-24T10:11:36.000Z</time>
      </trkpt>
      <trkpt lat="48.75819" lon="1.80601">
        <ele>162.5</ele>
        <time>2015-05-24T10:11:39.000Z</time>
      </trkpt>
      <trkpt lat="48.75819" lon="1.80585">
        <ele>162.5</ele>
        <time>2015-05-24T10:11:46.000Z</time>
      </trkpt>
      <trkpt lat="48.75818" lon="1.80574">
        <ele>161.9</ele>
        <time>2015-05-24T10:11:52.000Z</time>
      </trkpt>
      <trkpt lat="48.75817" lon="1.80566">
        <ele>161.6</ele>
        <time>2015-05-24T10:11:58.000Z</time>
      </trkpt>
      <trkpt lat="48.75817" lon="1.80562">
        <ele>161.5</ele>
        <time>2015-05-24T10:12:03.000Z</time>
      </trkpt>
      <trkpt lat="48.75806" lon="1.80543">
        <ele>159.1</ele>
        <time>2015-05-24T10:12:49.000Z</time>
      </trkpt>
      <trkpt lat="48.75805" lon="1.80543">
        <ele>159</ele>
        <time>2015-05-24T10:12:51.000Z</time>
      </trkpt>
      <trkpt lat="48.75799" lon="1.80537">
        <ele>158.6</ele>
        <time>2015-05-24T10:13:01.000Z</time>
      </trkpt>
      <trkpt lat="48.75806" lon="1.8054">
        <ele>159</ele>
        <time>2015-05-24T10:13:09.000Z</time>
      </trkpt>
      <trkpt lat="48.75804" lon="1.80537">
        <ele>158.6</ele>
        <time>2015-05-24T10:13:15.000Z</time>
      </trkpt>
      <trkpt lat="48.75802" lon="1.80536">
        <ele>158.6</ele>
        <time>2015-05-24T10:13:20.000Z</time>
      </trkpt>
      <trkpt lat="48.75799" lon="1.80532">
        <ele>158.3</ele>
        <time>2015-05-24T10:13:27.000Z</time>
      </trkpt>
      <trkpt lat="48.75795" lon="1.80529">
        <ele>158.1</ele>
        <time>2015-05-24T10:13:31.000Z</time>
      </trkpt>
      <trkpt lat="48.758" lon="1.80532">
        <ele>158.3</ele>
        <time>2015-05-24T10:13:34.000Z</time>
      </trkpt>
      <trkpt lat="48.75801" lon="1.80534">
        <ele>158.4</ele>
        <time>2015-05-24T10:13:38.000Z</time>
      </trkpt>
      <trkpt lat="48.75813" lon="1.80537">
        <ele>159.3</ele>
        <time>2015-05-24T10:17:52.000Z</time>
      </trkpt>
      <trkpt lat="48.75819" lon="1.80551">
        <ele>161.1</ele>
        <time>2015-05-24T10:17:58.000Z</time>
      </trkpt>
      <trkpt lat="48.75818" lon="1.80565">
        <ele>161.6</ele>
        <time>2015-05-24T10:18:05.000Z</time>
      </trkpt>
      <trkpt lat="48.75815" lon="1.80569">
        <ele>161.4</ele>
        <time>2015-05-24T10:18:08.000Z</time>
      </trkpt>
      <trkpt lat="48.75805" lon="1.80568">
        <ele>159.9</ele>
        <time>2015-05-24T10:18:16.000Z</time>
      </trkpt>
      <trkpt lat="48.75801" lon="1.80569">
        <ele>159.7</ele>
        <time>2015-05-24T10:18:18.000Z</time>
      </trkpt>
      <trkpt lat="48.7579" lon="1.80568">
        <ele>158.9</ele>
        <time>2015-05-24T10:18:25.000Z</time>
      </trkpt>
      <trkpt lat="48.75779" lon="1.80565">
        <ele>158.4</ele>
        <time>2015-05-24T10:18:31.000Z</time>
      </trkpt>
      <trkpt lat="48.75776" lon="1.80564">
        <ele>158.4</ele>
        <time>2015-05-24T10:18:33.000Z</time>
      </trkpt>
      <trkpt lat="48.75766" lon="1.80563">
        <ele>158.6</ele>
        <time>2015-05-24T10:18:41.000Z</time>
      </trkpt>
      <trkpt lat="48.75758" lon="1.8056">
        <ele>158.8</ele>
        <time>2015-05-24T10:18:46.000Z</time>
      </trkpt>
      <trkpt lat="48.75755" lon="1.80562">
        <ele>158.7</ele>
        <time>2015-05-24T10:18:51.000Z</time>
      </trkpt>
      <trkpt lat="48.75755" lon="1.80562">
        <ele>158.7</ele>
        <time>2015-05-24T10:18:52.000Z</time>
      </trkpt>
      <trkpt lat="48.75752" lon="1.80557">
        <ele>158.9</ele>
        <time>2015-05-24T10:18:58.000Z</time>
      </trkpt>
      <trkpt lat="48.75751" lon="1.80548">
        <ele>159</ele>
        <time>2015-05-24T10:19:02.000Z</time>
      </trkpt>
      <trkpt lat="48.75747" lon="1.80535">
        <ele>159.8</ele>
        <time>2015-05-24T10:19:08.000Z</time>
      </trkpt>
      <trkpt lat="48.75747" lon="1.80524">
        <ele>159.7</ele>
        <time>2015-05-24T10:19:13.000Z</time>
      </trkpt>
      <trkpt lat="48.75745" lon="1.80517">
        <ele>159.9</ele>
        <time>2015-05-24T10:19:16.000Z</time>
      </trkpt>
      <trkpt lat="48.75742" lon="1.80509">
        <ele>160.2</ele>
        <time>2015-05-24T10:19:20.000Z</time>
      </trkpt>
      <trkpt lat="48.7574" lon="1.80493">
        <ele>160.4</ele>
        <time>2015-05-24T10:19:26.000Z</time>
      </trkpt>
      <trkpt lat="48.7574" lon="1.80489">
        <ele>160.5</ele>
        <time>2015-05-24T10:19:27.000Z</time>
      </trkpt>
      <trkpt lat="48.75737" lon="1.80477">
        <ele>160.9</ele>
        <time>2015-05-24T10:19:31.000Z</time>
      </trkpt>
      <trkpt lat="48.75736" lon="1.80464">
        <ele>161.2</ele>
        <time>2015-05-24T10:19:36.000Z</time>
      </trkpt>
      <trkpt lat="48.75735" lon="1.80461">
        <ele>161.3</ele>
        <time>2015-05-24T10:19:37.000Z</time>
      </trkpt>
      <trkpt lat="48.75735" lon="1.80456">
        <ele>161.5</ele>
        <time>2015-05-24T10:19:39.000Z</time>
      </trkpt>
      <trkpt lat="48.75736" lon="1.80445">
        <ele>161.4</ele>
        <time>2015-05-24T10:19:44.000Z</time>
      </trkpt>
      <trkpt lat="48.75737" lon="1.80438">
        <ele>161.4</ele>
        <time>2015-05-24T10:19:47.000Z</time>
      </trkpt>
      <trkpt lat="48.75736" lon="1.80427">
        <ele>161.7</ele>
        <time>2015-05-24T10:19:51.000Z</time>
      </trkpt>
      <trkpt lat="48.75735" lon="1.80411">
        <ele>162.4</ele>
        <time>2015-05-24T10:19:57.000Z</time>
      </trkpt>
      <trkpt lat="48.75734" lon="1.80401">
        <ele>162.7</ele>
        <time>2015-05-24T10:20:01.000Z</time>
      </trkpt>
      <trkpt lat="48.75731" lon="1.80383">
        <ele>163.3</ele>
        <time>2015-05-24T10:20:08.000Z</time>
      </trkpt>
      <trkpt lat="48.7573" lon="1.80372">
        <ele>163.1</ele>
        <time>2015-05-24T10:20:13.000Z</time>
      </trkpt>
      <trkpt lat="48.75728" lon="1.80358">
        <ele>163</ele>
        <time>2015-05-24T10:20:20.000Z</time>
      </trkpt>
      <trkpt lat="48.75727" lon="1.80344">
        <ele>162.3</ele>
        <time>2015-05-24T10:20:26.000Z</time>
      </trkpt>
      <trkpt lat="48.75725" lon="1.80331">
        <ele>161.7</ele>
        <time>2015-05-24T10:20:31.000Z</time>
      </trkpt>
      <trkpt lat="48.75724" lon="1.80319">
        <ele>161.4</ele>
        <time>2015-05-24T10:20:36.000Z</time>
      </trkpt>
      <trkpt lat="48.75724" lon="1.80317">
        <ele>161.4</ele>
        <time>2015-05-24T10:20:37.000Z</time>
      </trkpt>
      <trkpt lat="48.75727" lon="1.80298">
        <ele>160.9</ele>
        <time>2015-05-24T10:20:45.000Z</time>
      </trkpt>
      <trkpt lat="48.75735" lon="1.80288">
        <ele>161.2</ele>
        <time>2015-05-24T10:20:51.000Z</time>
      </trkpt>
      <trkpt lat="48.75744" lon="1.80292">
        <ele>161.7</ele>
        <time>2015-05-24T10:20:58.000Z</time>
      </trkpt>
      <trkpt lat="48.75754" lon="1.80306">
        <ele>161.6</ele>
        <time>2015-05-24T10:21:07.000Z</time>
      </trkpt>
      <trkpt lat="48.75765" lon="1.80324">
        <ele>162.2</ele>
        <time>2015-05-24T10:21:16.000Z</time>
      </trkpt>
      <trkpt lat="48.75775" lon="1.80344">
        <ele>162</ele>
        <time>2015-05-24T10:21:26.000Z</time>
      </trkpt>
      <trkpt lat="48.75781" lon="1.8036">
        <ele>161.5</ele>
        <time>2015-05-24T10:21:34.000Z</time>
      </trkpt>
      <trkpt lat="48.75786" lon="1.80375">
        <ele>161.3</ele>
        <time>2015-05-24T10:21:41.000Z</time>
      </trkpt>
      <trkpt lat="48.75791" lon="1.80389">
        <ele>160.9</ele>
        <time>2015-05-24T10:21:47.000Z</time>
      </trkpt>
      <trkpt lat="48.75794" lon="1.80402">
        <ele>160.7</ele>
        <time>2015-05-24T10:21:54.000Z</time>
      </trkpt>
      <trkpt lat="48.75802" lon="1.80418">
        <ele>160.6</ele>
        <time>2015-05-24T10:22:02.000Z</time>
      </trkpt>
      <trkpt lat="48.75805" lon="1.80421">
        <ele>160.6</ele>
        <time>2015-05-24T10:22:07.000Z</time>
      </trkpt>
      <trkpt lat="48.75806" lon="1.80427">
        <ele>160.2</ele>
        <time>2015-05-24T10:22:14.000Z</time>
      </trkpt>
      <trkpt lat="48.75821" lon="1.8042">
        <ele>160.8</ele>
        <time>2015-05-24T10:27:02.000Z</time>
      </trkpt>
      <trkpt lat="48.75829" lon="1.80413">
        <ele>161.3</ele>
        <time>2015-05-24T10:27:08.000Z</time>
      </trkpt>
      <trkpt lat="48.7583" lon="1.80411">
        <ele>161.4</ele>
        <time>2015-05-24T10:27:12.000Z</time>
      </trkpt>
      <trkpt lat="48.75835" lon="1.804">
        <ele>162.1</ele>
        <time>2015-05-24T10:27:22.000Z</time>
      </trkpt>
      <trkpt lat="48.75835" lon="1.80395">
        <ele>162.4</ele>
        <time>2015-05-24T10:27:24.000Z</time>
      </trkpt>
      <trkpt lat="48.75837" lon="1.80387">
        <ele>162.8</ele>
        <time>2015-05-24T10:27:28.000Z</time>
      </trkpt>
      <trkpt lat="48.75837" lon="1.80383">
        <ele>163</ele>
        <time>2015-05-24T10:27:30.000Z</time>
      </trkpt>
      <trkpt lat="48.7584" lon="1.80373">
        <ele>163.5</ele>
        <time>2015-05-24T10:27:34.000Z</time>
      </trkpt>
      <trkpt lat="48.75843" lon="1.8036">
        <ele>164.4</ele>
        <time>2015-05-24T10:27:41.000Z</time>
      </trkpt>
      <trkpt lat="48.75844" lon="1.80356">
        <ele>164.7</ele>
        <time>2015-05-24T10:27:43.000Z</time>
      </trkpt>
      <trkpt lat="48.75844" lon="1.80346">
        <ele>165.5</ele>
        <time>2015-05-24T10:27:47.000Z</time>
      </trkpt>
      <trkpt lat="48.75844" lon="1.80329">
        <ele>167</ele>
        <time>2015-05-24T10:27:54.000Z</time>
      </trkpt>
      <trkpt lat="48.75847" lon="1.80316">
        <ele>167.8</ele>
        <time>2015-05-24T10:28:01.000Z</time>
      </trkpt>
      <trkpt lat="48.75851" lon="1.80308">
        <ele>168.2</ele>
        <time>2015-05-24T10:28:07.000Z</time>
      </trkpt>
      <trkpt lat="48.75854" lon="1.80297">
        <ele>168.8</ele>
        <time>2015-05-24T10:28:12.000Z</time>
      </trkpt>
      <trkpt lat="48.75858" lon="1.80283">
        <ele>169.6</ele>
        <time>2015-05-24T10:28:20.000Z</time>
      </trkpt>
      <trkpt lat="48.75862" lon="1.8027">
        <ele>170.5</ele>
        <time>2015-05-24T10:28:27.000Z</time>
      </trkpt>
      <trkpt lat="48.75862" lon="1.80268">
        <ele>170.6</ele>
        <time>2015-05-24T10:28:28.000Z</time>
      </trkpt>
      <trkpt lat="48.75866" lon="1.80252">
        <ele>171.5</ele>
        <time>2015-05-24T10:28:36.000Z</time>
      </trkpt>
      <trkpt lat="48.75868" lon="1.80233">
        <ele>172.3</ele>
        <time>2015-05-24T10:28:44.000Z</time>
      </trkpt>
      <trkpt lat="48.7587" lon="1.8022">
        <ele>172.8</ele>
        <time>2015-05-24T10:28:50.000Z</time>
      </trkpt>
      <trkpt lat="48.75871" lon="1.80203">
        <ele>173.3</ele>
        <time>2015-05-24T10:28:57.000Z</time>
      </trkpt>
      <trkpt lat="48.75872" lon="1.80185">
        <ele>173.9</ele>
        <time>2015-05-24T10:29:04.000Z</time>
      </trkpt>
      <trkpt lat="48.75869" lon="1.80167">
        <ele>174.7</ele>
        <time>2015-05-24T10:29:10.000Z</time>
      </trkpt>
      <trkpt lat="48.75866" lon="1.80152">
        <ele>175.3</ele>
        <time>2015-05-24T10:29:15.000Z</time>
      </trkpt>
      <trkpt lat="48.75866" lon="1.80143">
        <ele>175.7</ele>
        <time>2015-05-24T10:29:19.000Z</time>
      </trkpt>
      <trkpt lat="48.75869" lon="1.80124">
        <ele>176.3</ele>
        <time>2015-05-24T10:29:27.000Z</time>
      </trkpt>
      <trkpt lat="48.75871" lon="1.80113">
        <ele>176.6</ele>
        <time>2015-05-24T10:29:32.000Z</time>
      </trkpt>
      <trkpt lat="48.75874" lon="1.80104">
        <ele>176.7</ele>
        <time>2015-05-24T10:29:36.000Z</time>
      </trkpt>
      <trkpt lat="48.75876" lon="1.80097">
        <ele>176.7</ele>
        <time>2015-05-24T10:29:39.000Z</time>
      </trkpt>
      <trkpt lat="48.75879" lon="1.80083">
        <ele>177</ele>
        <time>2015-05-24T10:29:46.000Z</time>
      </trkpt>
      <trkpt lat="48.75879" lon="1.80081">
        <ele>177</ele>
        <time>2015-05-24T10:29:47.000Z</time>
      </trkpt>
      <trkpt lat="48.7588" lon="1.80065">
        <ele>177.2</ele>
        <time>2015-05-24T10:29:54.000Z</time>
      </trkpt>
      <trkpt lat="48.75882" lon="1.80047">
        <ele>177.3</ele>
        <time>2015-05-24T10:30:01.000Z</time>
      </trkpt>
      <trkpt lat="48.75884" lon="1.8003">
        <ele>177.2</ele>
        <time>2015-05-24T10:30:07.000Z</time>
      </trkpt>
      <trkpt lat="48.75884" lon="1.80026">
        <ele>177.2</ele>
        <time>2015-05-24T10:30:08.000Z</time>
      </trkpt>
      <trkpt lat="48.75885" lon="1.80017">
        <ele>177.5</ele>
        <time>2015-05-24T10:30:12.000Z</time>
      </trkpt>
      <trkpt lat="48.75888" lon="1.80005">
        <ele>177.8</ele>
        <time>2015-05-24T10:30:17.000Z</time>
      </trkpt>
      <trkpt lat="48.75889" lon="1.79988">
        <ele>178</ele>
        <time>2015-05-24T10:30:25.000Z</time>
      </trkpt>
      <trkpt lat="48.7589" lon="1.79986">
        <ele>178</ele>
        <time>2015-05-24T10:30:26.000Z</time>
      </trkpt>
      <trkpt lat="48.75891" lon="1.79979">
        <ele>177.9</ele>
        <time>2015-05-24T10:30:32.000Z</time>
      </trkpt>
      <trkpt lat="48.75892" lon="1.7998">
        <ele>177.9</ele>
        <time>2015-05-24T10:30:33.000Z</time>
      </trkpt>
      <trkpt lat="48.75894" lon="1.79979">
        <ele>177.8</ele>
        <time>2015-05-24T10:31:05.000Z</time>
      </trkpt>
      <trkpt lat="48.75899" lon="1.79965">
        <ele>177.7</ele>
        <time>2015-05-24T10:31:11.000Z</time>
      </trkpt>
      <trkpt lat="48.759" lon="1.79953">
        <ele>177.6</ele>
        <time>2015-05-24T10:31:16.000Z</time>
      </trkpt>
      <trkpt lat="48.75904" lon="1.79937">
        <ele>177.7</ele>
        <time>2015-05-24T10:31:23.000Z</time>
      </trkpt>
      <trkpt lat="48.7591" lon="1.79916">
        <ele>178.2</ele>
        <time>2015-05-24T10:31:33.000Z</time>
      </trkpt>
      <trkpt lat="48.75911" lon="1.79901">
        <ele>178.2</ele>
        <time>2015-05-24T10:31:39.000Z</time>
      </trkpt>
      <trkpt lat="48.75914" lon="1.79887">
        <ele>178.1</ele>
        <time>2015-05-24T10:31:45.000Z</time>
      </trkpt>
      <trkpt lat="48.75916" lon="1.79877">
        <ele>178</ele>
        <time>2015-05-24T10:31:49.000Z</time>
      </trkpt>
      <trkpt lat="48.75918" lon="1.79855">
        <ele>177.9</ele>
        <time>2015-05-24T10:31:55.000Z</time>
      </trkpt>
      <trkpt lat="48.7592" lon="1.7985">
        <ele>177.8</ele>
        <time>2015-05-24T10:31:57.000Z</time>
      </trkpt>
      <trkpt lat="48.75916" lon="1.79829">
        <ele>178.1</ele>
        <time>2015-05-24T10:32:04.000Z</time>
      </trkpt>
      <trkpt lat="48.75916" lon="1.79826">
        <ele>178.1</ele>
        <time>2015-05-24T10:32:05.000Z</time>
      </trkpt>
      <trkpt lat="48.75914" lon="1.79817">
        <ele>178.2</ele>
        <time>2015-05-24T10:32:09.000Z</time>
      </trkpt>
      <trkpt lat="48.75914" lon="1.79806">
        <ele>178.2</ele>
        <time>2015-05-24T10:32:14.000Z</time>
      </trkpt>
      <trkpt lat="48.75919" lon="1.79802">
        <ele>177.8</ele>
        <time>2015-05-24T10:32:17.000Z</time>
      </trkpt>
      <trkpt lat="48.75923" lon="1.79788">
        <ele>177.5</ele>
        <time>2015-05-24T10:32:22.000Z</time>
      </trkpt>
      <trkpt lat="48.75926" lon="1.79769">
        <ele>177.3</ele>
        <time>2015-05-24T10:32:29.000Z</time>
      </trkpt>
      <trkpt lat="48.75932" lon="1.79757">
        <ele>176.9</ele>
        <time>2015-05-24T10:32:36.000Z</time>
      </trkpt>
      <trkpt lat="48.75933" lon="1.79754">
        <ele>176.8</ele>
        <time>2015-05-24T10:32:38.000Z</time>
      </trkpt>
      <trkpt lat="48.75931" lon="1.79747">
        <ele>177.1</ele>
        <time>2015-05-24T10:32:41.000Z</time>
      </trkpt>
      <trkpt lat="48.75927" lon="1.79738">
        <ele>177.7</ele>
        <time>2015-05-24T10:32:45.000Z</time>
      </trkpt>
      <trkpt lat="48.75931" lon="1.79723">
        <ele>177.9</ele>
        <time>2015-05-24T10:32:51.000Z</time>
      </trkpt>
      <trkpt lat="48.75932" lon="1.79708">
        <ele>177.9</ele>
        <time>2015-05-24T10:32:57.000Z</time>
      </trkpt>
      <trkpt lat="48.75933" lon="1.79704">
        <ele>177.8</ele>
        <time>2015-05-24T10:32:58.000Z</time>
      </trkpt>
      <trkpt lat="48.75935" lon="1.79687">
        <ele>177.9</ele>
        <time>2015-05-24T10:33:02.000Z</time>
      </trkpt>
      <trkpt lat="48.75935" lon="1.79673">
        <ele>178.2</ele>
        <time>2015-05-24T10:33:07.000Z</time>
      </trkpt>
      <trkpt lat="48.75935" lon="1.79666">
        <ele>178.4</ele>
        <time>2015-05-24T10:33:10.000Z</time>
      </trkpt>
      <trkpt lat="48.75933" lon="1.79652">
        <ele>178.4</ele>
        <time>2015-05-24T10:33:15.000Z</time>
      </trkpt>
      <trkpt lat="48.75934" lon="1.7964">
        <ele>178.4</ele>
        <time>2015-05-24T10:33:20.000Z</time>
      </trkpt>
      <trkpt lat="48.75937" lon="1.79628">
        <ele>178.6</ele>
        <time>2015-05-24T10:33:25.000Z</time>
      </trkpt>
      <trkpt lat="48.75939" lon="1.79624">
        <ele>178.8</ele>
        <time>2015-05-24T10:33:27.000Z</time>
      </trkpt>
      <trkpt lat="48.75938" lon="1.79619">
        <ele>178.9</ele>
        <time>2015-05-24T10:33:29.000Z</time>
      </trkpt>
      <trkpt lat="48.7594" lon="1.79602">
        <ele>179.4</ele>
        <time>2015-05-24T10:33:35.000Z</time>
      </trkpt>
      <trkpt lat="48.75945" lon="1.79585">
        <ele>179.9</ele>
        <time>2015-05-24T10:33:39.000Z</time>
      </trkpt>
      <trkpt lat="48.75947" lon="1.79578">
        <ele>179.9</ele>
        <time>2015-05-24T10:33:42.000Z</time>
      </trkpt>
      <trkpt lat="48.75951" lon="1.79561">
        <ele>180</ele>
        <time>2015-05-24T10:33:48.000Z</time>
      </trkpt>
      <trkpt lat="48.7595" lon="1.79537">
        <ele>180</ele>
        <time>2015-05-24T10:33:56.000Z</time>
      </trkpt>
      <trkpt lat="48.75958" lon="1.79524">
        <ele>180</ele>
        <time>2015-05-24T10:34:03.000Z</time>
      </trkpt>
      <trkpt lat="48.75966" lon="1.79516">
        <ele>180</ele>
        <time>2015-05-24T10:34:09.000Z</time>
      </trkpt>
      <trkpt lat="48.75969" lon="1.79514">
        <ele>180</ele>
        <time>2015-05-24T10:34:11.000Z</time>
      </trkpt>
      <trkpt lat="48.75974" lon="1.79503">
        <ele>180</ele>
        <time>2015-05-24T10:34:17.000Z</time>
      </trkpt>
      <trkpt lat="48.75977" lon="1.79497">
        <ele>180</ele>
        <time>2015-05-24T10:34:20.000Z</time>
      </trkpt>
      <trkpt lat="48.75979" lon="1.79494">
        <ele>180</ele>
        <time>2015-05-24T10:34:22.000Z</time>
      </trkpt>
      <trkpt lat="48.75986" lon="1.79484">
        <ele>180</ele>
        <time>2015-05-24T10:34:29.000Z</time>
      </trkpt>
      <trkpt lat="48.75991" lon="1.79477">
        <ele>180</ele>
        <time>2015-05-24T10:34:34.000Z</time>
      </trkpt>
      <trkpt lat="48.75994" lon="1.79476">
        <ele>180</ele>
        <time>2015-05-24T10:34:36.000Z</time>
      </trkpt>
      <trkpt lat="48.76006" lon="1.79466">
        <ele>180</ele>
        <time>2015-05-24T10:34:43.000Z</time>
      </trkpt>
      <trkpt lat="48.76008" lon="1.79464">
        <ele>180</ele>
        <time>2015-05-24T10:34:44.000Z</time>
      </trkpt>
      <trkpt lat="48.76014" lon="1.79458">
        <ele>180</ele>
        <time>2015-05-24T10:34:48.000Z</time>
      </trkpt>
      <trkpt lat="48.76024" lon="1.79446">
        <ele>180</ele>
        <time>2015-05-24T10:34:55.000Z</time>
      </trkpt>
      <trkpt lat="48.76025" lon="1.79445">
        <ele>180</ele>
        <time>2015-05-24T10:34:56.000Z</time>
      </trkpt>
      <trkpt lat="48.76036" lon="1.79433">
        <ele>180</ele>
        <time>2015-05-24T10:35:05.000Z</time>
      </trkpt>
      <trkpt lat="48.76043" lon="1.79425">
        <ele>180</ele>
        <time>2015-05-24T10:35:11.000Z</time>
      </trkpt>
      <trkpt lat="48.76051" lon="1.79424">
        <ele>180</ele>
        <time>2015-05-24T10:35:17.000Z</time>
      </trkpt>
      <trkpt lat="48.76063" lon="1.79426">
        <ele>180</ele>
        <time>2015-05-24T10:35:25.000Z</time>
      </trkpt>
      <trkpt lat="48.76071" lon="1.7943">
        <ele>180</ele>
        <time>2015-05-24T10:35:32.000Z</time>
      </trkpt>
      <trkpt lat="48.76083" lon="1.79437">
        <ele>180</ele>
        <time>2015-05-24T10:35:40.000Z</time>
      </trkpt>
      <trkpt lat="48.76091" lon="1.7944">
        <ele>180.3</ele>
        <time>2015-05-24T10:35:45.000Z</time>
      </trkpt>
      <trkpt lat="48.76093" lon="1.79445">
        <ele>180.4</ele>
        <time>2015-05-24T10:35:52.000Z</time>
      </trkpt>
      <trkpt lat="48.76081" lon="1.79441">
        <ele>180</ele>
        <time>2015-05-24T10:36:04.000Z</time>
      </trkpt>
      <trkpt lat="48.76077" lon="1.79438">
        <ele>180</ele>
        <time>2015-05-24T10:36:06.000Z</time>
      </trkpt>
      <trkpt lat="48.76069" lon="1.79436">
        <ele>180</ele>
        <time>2015-05-24T10:36:13.000Z</time>
      </trkpt>
      <trkpt lat="48.76057" lon="1.79432">
        <ele>180</ele>
        <time>2015-05-24T10:36:20.000Z</time>
      </trkpt>
      <trkpt lat="48.7605" lon="1.79431">
        <ele>180</ele>
        <time>2015-05-24T10:36:25.000Z</time>
      </trkpt>
      <trkpt lat="48.76041" lon="1.79433">
        <ele>180</ele>
        <time>2015-05-24T10:36:32.000Z</time>
      </trkpt>
      <trkpt lat="48.76036" lon="1.79438">
        <ele>180</ele>
        <time>2015-05-24T10:36:37.000Z</time>
      </trkpt>
      <trkpt lat="48.76026" lon="1.79449">
        <ele>180</ele>
        <time>2015-05-24T10:36:44.000Z</time>
      </trkpt>
      <trkpt lat="48.76018" lon="1.79458">
        <ele>180</ele>
        <time>2015-05-24T10:36:49.000Z</time>
      </trkpt>
      <trkpt lat="48.76011" lon="1.79466">
        <ele>180</ele>
        <time>2015-05-24T10:36:54.000Z</time>
      </trkpt>
      <trkpt lat="48.76004" lon="1.7947">
        <ele>180</ele>
        <time>2015-05-24T10:36:59.000Z</time>
      </trkpt>
      <trkpt lat="48.75999" lon="1.79476">
        <ele>180</ele>
        <time>2015-05-24T10:37:03.000Z</time>
      </trkpt>
      <trkpt lat="48.75992" lon="1.79484">
        <ele>180</ele>
        <time>2015-05-24T10:37:09.000Z</time>
      </trkpt>
      <trkpt lat="48.75987" lon="1.79489">
        <ele>180</ele>
        <time>2015-05-24T10:37:12.000Z</time>
      </trkpt>
      <trkpt lat="48.7598" lon="1.79496">
        <ele>180</ele>
        <time>2015-05-24T10:37:18.000Z</time>
      </trkpt>
      <trkpt lat="48.75975" lon="1.79501">
        <ele>180</ele>
        <time>2015-05-24T10:37:22.000Z</time>
      </trkpt>
      <trkpt lat="48.7597" lon="1.79505">
        <ele>180</ele>
        <time>2015-05-24T10:37:27.000Z</time>
      </trkpt>
      <trkpt lat="48.75966" lon="1.79509">
        <ele>180</ele>
        <time>2015-05-24T10:37:31.000Z</time>
      </trkpt>
      <trkpt lat="48.75955" lon="1.7951">
        <ele>180</ele>
        <time>2015-05-24T10:37:37.000Z</time>
      </trkpt>
      <trkpt lat="48.75955" lon="1.79509">
        <ele>180</ele>
        <time>2015-05-24T10:37:38.000Z</time>
      </trkpt>
      <trkpt lat="48.75953" lon="1.79509">
        <ele>180</ele>
        <time>2015-05-24T10:37:41.000Z</time>
      </trkpt>
      <trkpt lat="48.75952" lon="1.79509">
        <ele>180</ele>
        <time>2015-05-24T10:37:45.000Z</time>
      </trkpt>
      <trkpt lat="48.75952" lon="1.79503">
        <ele>180</ele>
        <time>2015-05-24T10:38:37.000Z</time>
      </trkpt>
      <trkpt lat="48.75951" lon="1.79499">
        <ele>180</ele>
        <time>2015-05-24T10:38:39.000Z</time>
      </trkpt>
      <trkpt lat="48.75951" lon="1.79492">
        <ele>180</ele>
        <time>2015-05-24T10:38:46.000Z</time>
      </trkpt>
      <trkpt lat="48.75952" lon="1.79481">
        <ele>180</ele>
        <time>2015-05-24T10:38:53.000Z</time>
      </trkpt>
      <trkpt lat="48.75952" lon="1.79476">
        <ele>180</ele>
        <time>2015-05-24T10:38:56.000Z</time>
      </trkpt>
      <trkpt lat="48.75952" lon="1.79463">
        <ele>180</ele>
        <time>2015-05-24T10:39:03.000Z</time>
      </trkpt>
      <trkpt lat="48.75952" lon="1.79453">
        <ele>180</ele>
        <time>2015-05-24T10:39:09.000Z</time>
      </trkpt>
      <trkpt lat="48.75952" lon="1.79446">
        <ele>180</ele>
        <time>2015-05-24T10:39:13.000Z</time>
      </trkpt>
      <trkpt lat="48.75949" lon="1.79431">
        <ele>180</ele>
        <time>2015-05-24T10:39:19.000Z</time>
      </trkpt>
      <trkpt lat="48.75949" lon="1.79429">
        <ele>180</ele>
        <time>2015-05-24T10:39:20.000Z</time>
      </trkpt>
      <trkpt lat="48.7595" lon="1.79412">
        <ele>180</ele>
        <time>2015-05-24T10:39:28.000Z</time>
      </trkpt>
      <trkpt lat="48.75951" lon="1.7941">
        <ele>180</ele>
        <time>2015-05-24T10:39:29.000Z</time>
      </trkpt>
      <trkpt lat="48.7595" lon="1.7939">
        <ele>180</ele>
        <time>2015-05-24T10:39:37.000Z</time>
      </trkpt>
      <trkpt lat="48.7595" lon="1.79378">
        <ele>180</ele>
        <time>2015-05-24T10:39:42.000Z</time>
      </trkpt>
      <trkpt lat="48.75945" lon="1.79347">
        <ele>180</ele>
        <time>2015-05-24T10:39:53.000Z</time>
      </trkpt>
      <trkpt lat="48.75944" lon="1.79333">
        <ele>180</ele>
        <time>2015-05-24T10:39:59.000Z</time>
      </trkpt>
      <trkpt lat="48.75943" lon="1.79319">
        <ele>180</ele>
        <time>2015-05-24T10:40:05.000Z</time>
      </trkpt>
      <trkpt lat="48.75942" lon="1.79304">
        <ele>180</ele>
        <time>2015-05-24T10:40:11.000Z</time>
      </trkpt>
      <trkpt lat="48.75942" lon="1.79287">
        <ele>180</ele>
        <time>2015-05-24T10:40:19.000Z</time>
      </trkpt>
      <trkpt lat="48.75942" lon="1.79275">
        <ele>180</ele>
        <time>2015-05-24T10:40:24.000Z</time>
      </trkpt>
      <trkpt lat="48.75941" lon="1.7926">
        <ele>180</ele>
        <time>2015-05-24T10:40:30.000Z</time>
      </trkpt>
      <trkpt lat="48.75942" lon="1.7925">
        <ele>180</ele>
        <time>2015-05-24T10:40:36.000Z</time>
      </trkpt>
      <trkpt lat="48.75942" lon="1.79248">
        <ele>180.1</ele>
        <time>2015-05-24T10:40:37.000Z</time>
      </trkpt>
      <trkpt lat="48.7594" lon="1.79231">
        <ele>180.7</ele>
        <time>2015-05-24T10:40:43.000Z</time>
      </trkpt>
      <trkpt lat="48.75936" lon="1.79214">
        <ele>181</ele>
        <time>2015-05-24T10:40:49.000Z</time>
      </trkpt>
      <trkpt lat="48.75936" lon="1.79197">
        <ele>181</ele>
        <time>2015-05-24T10:40:57.000Z</time>
      </trkpt>
      <trkpt lat="48.75937" lon="1.7918">
        <ele>181</ele>
        <time>2015-05-24T10:41:04.000Z</time>
      </trkpt>
      <trkpt lat="48.75937" lon="1.79172">
        <ele>181</ele>
        <time>2015-05-24T10:41:07.000Z</time>
      </trkpt>
      <trkpt lat="48.75935" lon="1.79159">
        <ele>181</ele>
        <time>2015-05-24T10:41:13.000Z</time>
      </trkpt>
      <trkpt lat="48.75932" lon="1.79145">
        <ele>181</ele>
        <time>2015-05-24T10:41:19.000Z</time>
      </trkpt>
      <trkpt lat="48.75932" lon="1.79143">
        <ele>181</ele>
        <time>2015-05-24T10:41:20.000Z</time>
      </trkpt>
      <trkpt lat="48.75931" lon="1.79134">
        <ele>181</ele>
        <time>2015-05-24T10:41:24.000Z</time>
      </trkpt>
      <trkpt lat="48.75929" lon="1.79115">
        <ele>181</ele>
        <time>2015-05-24T10:41:31.000Z</time>
      </trkpt>
      <trkpt lat="48.75929" lon="1.79107">
        <ele>181</ele>
        <time>2015-05-24T10:41:34.000Z</time>
      </trkpt>
      <trkpt lat="48.7593" lon="1.79093">
        <ele>181</ele>
        <time>2015-05-24T10:41:39.000Z</time>
      </trkpt>
      <trkpt lat="48.75931" lon="1.79073">
        <ele>181</ele>
        <time>2015-05-24T10:41:47.000Z</time>
      </trkpt>
      <trkpt lat="48.75933" lon="1.79062">
        <ele>181</ele>
        <time>2015-05-24T10:41:54.000Z</time>
      </trkpt>
      <trkpt lat="48.75928" lon="1.79041">
        <ele>181</ele>
        <time>2015-05-24T10:42:02.000Z</time>
      </trkpt>
      <trkpt lat="48.75929" lon="1.79032">
        <ele>181</ele>
        <time>2015-05-24T10:42:06.000Z</time>
      </trkpt>
      <trkpt lat="48.75927" lon="1.79023">
        <ele>181</ele>
        <time>2015-05-24T10:42:10.000Z</time>
      </trkpt>
      <trkpt lat="48.75925" lon="1.79009">
        <ele>181</ele>
        <time>2015-05-24T10:42:16.000Z</time>
      </trkpt>
      <trkpt lat="48.75928" lon="1.78994">
        <ele>181</ele>
        <time>2015-05-24T10:42:23.000Z</time>
      </trkpt>
      <trkpt lat="48.75926" lon="1.7898">
        <ele>181</ele>
        <time>2015-05-24T10:42:28.000Z</time>
      </trkpt>
      <trkpt lat="48.75927" lon="1.78967">
        <ele>181</ele>
        <time>2015-05-24T10:42:34.000Z</time>
      </trkpt>
      <trkpt lat="48.75926" lon="1.78951">
        <ele>181</ele>
        <time>2015-05-24T10:42:40.000Z</time>
      </trkpt>
      <trkpt lat="48.75924" lon="1.78934">
        <ele>181</ele>
        <time>2015-05-24T10:42:46.000Z</time>
      </trkpt>
      <trkpt lat="48.75924" lon="1.78925">
        <ele>181</ele>
        <time>2015-05-24T10:42:49.000Z</time>
      </trkpt>
      <trkpt lat="48.75922" lon="1.78914">
        <ele>181</ele>
        <time>2015-05-24T10:42:54.000Z</time>
      </trkpt>
      <trkpt lat="48.75921" lon="1.78908">
        <ele>181</ele>
        <time>2015-05-24T10:42:57.000Z</time>
      </trkpt>
      <trkpt lat="48.75918" lon="1.78894">
        <ele>181</ele>
        <time>2015-05-24T10:43:03.000Z</time>
      </trkpt>
      <trkpt lat="48.75918" lon="1.78881">
        <ele>181</ele>
        <time>2015-05-24T10:43:09.000Z</time>
      </trkpt>
      <trkpt lat="48.75918" lon="1.78879">
        <ele>181</ele>
        <time>2015-05-24T10:43:10.000Z</time>
      </trkpt>
      <trkpt lat="48.75918" lon="1.78867">
        <ele>181</ele>
        <time>2015-05-24T10:43:17.000Z</time>
      </trkpt>
      <trkpt lat="48.75917" lon="1.78852">
        <ele>181.3</ele>
        <time>2015-05-24T10:43:24.000Z</time>
      </trkpt>
      <trkpt lat="48.75917" lon="1.78849">
        <ele>181.4</ele>
        <time>2015-05-24T10:43:25.000Z</time>
      </trkpt>
      <trkpt lat="48.75916" lon="1.78831">
        <ele>182</ele>
        <time>2015-05-24T10:43:32.000Z</time>
      </trkpt>
      <trkpt lat="48.75917" lon="1.78822">
        <ele>182</ele>
        <time>2015-05-24T10:43:36.000Z</time>
      </trkpt>
      <trkpt lat="48.75912" lon="1.78806">
        <ele>182</ele>
        <time>2015-05-24T10:43:43.000Z</time>
      </trkpt>
      <trkpt lat="48.75911" lon="1.78776">
        <ele>182</ele>
        <time>2015-05-24T10:43:54.000Z</time>
      </trkpt>
      <trkpt lat="48.75911" lon="1.78757">
        <ele>182</ele>
        <time>2015-05-24T10:44:01.000Z</time>
      </trkpt>
      <trkpt lat="48.75912" lon="1.78743">
        <ele>182</ele>
        <time>2015-05-24T10:44:07.000Z</time>
      </trkpt>
      <trkpt lat="48.75911" lon="1.78727">
        <ele>182</ele>
        <time>2015-05-24T10:44:14.000Z</time>
      </trkpt>
      <trkpt lat="48.7591" lon="1.78708">
        <ele>182</ele>
        <time>2015-05-24T10:44:22.000Z</time>
      </trkpt>
      <trkpt lat="48.75912" lon="1.78701">
        <ele>182</ele>
        <time>2015-05-24T10:44:25.000Z</time>
      </trkpt>
      <trkpt lat="48.75911" lon="1.78692">
        <ele>182</ele>
        <time>2015-05-24T10:44:29.000Z</time>
      </trkpt>
      <trkpt lat="48.75912" lon="1.78677">
        <ele>182</ele>
        <time>2015-05-24T10:44:35.000Z</time>
      </trkpt>
      <trkpt lat="48.7591" lon="1.78655">
        <ele>182</ele>
        <time>2015-05-24T10:44:44.000Z</time>
      </trkpt>
      <trkpt lat="48.75909" lon="1.78649">
        <ele>182</ele>
        <time>2015-05-24T10:44:47.000Z</time>
      </trkpt>
      <trkpt lat="48.75908" lon="1.7863">
        <ele>182</ele>
        <time>2015-05-24T10:44:56.000Z</time>
      </trkpt>
      <trkpt lat="48.75908" lon="1.78621">
        <ele>182</ele>
        <time>2015-05-24T10:45:01.000Z</time>
      </trkpt>
      <trkpt lat="48.75907" lon="1.7861">
        <ele>182</ele>
        <time>2015-05-24T10:45:06.000Z</time>
      </trkpt>
      <trkpt lat="48.75907" lon="1.78596">
        <ele>182</ele>
        <time>2015-05-24T10:45:12.000Z</time>
      </trkpt>
      <trkpt lat="48.75907" lon="1.78583">
        <ele>182</ele>
        <time>2015-05-24T10:45:17.000Z</time>
      </trkpt>
      <trkpt lat="48.75906" lon="1.78576">
        <ele>182</ele>
        <time>2015-05-24T10:45:21.000Z</time>
      </trkpt>
      <trkpt lat="48.75904" lon="1.78562">
        <ele>182</ele>
        <time>2015-05-24T10:45:28.000Z</time>
      </trkpt>
      <trkpt lat="48.75905" lon="1.78548">
        <ele>182</ele>
        <time>2015-05-24T10:45:34.000Z</time>
      </trkpt>
      <trkpt lat="48.75901" lon="1.78528">
        <ele>182</ele>
        <time>2015-05-24T10:45:42.000Z</time>
      </trkpt>
      <trkpt lat="48.759" lon="1.78519">
        <ele>182</ele>
        <time>2015-05-24T10:45:47.000Z</time>
      </trkpt>
      <trkpt lat="48.75902" lon="1.78525">
        <ele>182</ele>
        <time>2015-05-24T10:45:56.000Z</time>
      </trkpt>
      <trkpt lat="48.75902" lon="1.7853">
        <ele>182</ele>
        <time>2015-05-24T10:46:00.000Z</time>
      </trkpt>
      <trkpt lat="48.75905" lon="1.78539">
        <ele>182</ele>
        <time>2015-05-24T10:46:07.000Z</time>
      </trkpt>
      <trkpt lat="48.75909" lon="1.78555">
        <ele>182</ele>
        <time>2015-05-24T10:46:13.000Z</time>
      </trkpt>
      <trkpt lat="48.75909" lon="1.7856">
        <ele>182</ele>
        <time>2015-05-24T10:46:14.000Z</time>
      </trkpt>
      <trkpt lat="48.75913" lon="1.78574">
        <ele>182</ele>
        <time>2015-05-24T10:46:20.000Z</time>
      </trkpt>
      <trkpt lat="48.75914" lon="1.78591">
        <ele>182</ele>
        <time>2015-05-24T10:46:27.000Z</time>
      </trkpt>
      <trkpt lat="48.75913" lon="1.78595">
        <ele>182</ele>
        <time>2015-05-24T10:46:29.000Z</time>
      </trkpt>
      <trkpt lat="48.75912" lon="1.78603">
        <ele>182</ele>
        <time>2015-05-24T10:46:32.000Z</time>
      </trkpt>
      <trkpt lat="48.75911" lon="1.78619">
        <ele>182</ele>
        <time>2015-05-24T10:46:39.000Z</time>
      </trkpt>
      <trkpt lat="48.75912" lon="1.78624">
        <ele>182</ele>
        <time>2015-05-24T10:46:44.000Z</time>
      </trkpt>
      <trkpt lat="48.75921" lon="1.78644">
        <ele>182</ele>
        <time>2015-05-24T10:47:10.000Z</time>
      </trkpt>
      <trkpt lat="48.75926" lon="1.78649">
        <ele>182</ele>
        <time>2015-05-24T10:47:14.000Z</time>
      </trkpt>
      <trkpt lat="48.75934" lon="1.78655">
        <ele>182</ele>
        <time>2015-05-24T10:47:21.000Z</time>
      </trkpt>
      <trkpt lat="48.75935" lon="1.78656">
        <ele>182</ele>
        <time>2015-05-24T10:47:22.000Z</time>
      </trkpt>
      <trkpt lat="48.75943" lon="1.78665">
        <ele>182</ele>
        <time>2015-05-24T10:47:30.000Z</time>
      </trkpt>
      <trkpt lat="48.7595" lon="1.78673">
        <ele>182</ele>
        <time>2015-05-24T10:47:37.000Z</time>
      </trkpt>
      <trkpt lat="48.75956" lon="1.78679">
        <ele>182</ele>
        <time>2015-05-24T10:47:44.000Z</time>
      </trkpt>
      <trkpt lat="48.75962" lon="1.78686">
        <ele>182</ele>
        <time>2015-05-24T10:47:50.000Z</time>
      </trkpt>
      <trkpt lat="48.75964" lon="1.78686">
        <ele>182</ele>
        <time>2015-05-24T10:47:52.000Z</time>
      </trkpt>
      <trkpt lat="48.75969" lon="1.78693">
        <ele>182</ele>
        <time>2015-05-24T10:47:57.000Z</time>
      </trkpt>
      <trkpt lat="48.75981" lon="1.78702">
        <ele>182</ele>
        <time>2015-05-24T10:48:06.000Z</time>
      </trkpt>
      <trkpt lat="48.75988" lon="1.78707">
        <ele>182</ele>
        <time>2015-05-24T10:48:13.000Z</time>
      </trkpt>
      <trkpt lat="48.75997" lon="1.78715">
        <ele>182</ele>
        <time>2015-05-24T10:48:21.000Z</time>
      </trkpt>
      <trkpt lat="48.76003" lon="1.78721">
        <ele>182</ele>
        <time>2015-05-24T10:48:27.000Z</time>
      </trkpt>
      <trkpt lat="48.76013" lon="1.78731">
        <ele>182</ele>
        <time>2015-05-24T10:48:34.000Z</time>
      </trkpt>
      <trkpt lat="48.76027" lon="1.78743">
        <ele>182</ele>
        <time>2015-05-24T10:48:42.000Z</time>
      </trkpt>
      <trkpt lat="48.76035" lon="1.78749">
        <ele>182</ele>
        <time>2015-05-24T10:48:48.000Z</time>
      </trkpt>
      <trkpt lat="48.76042" lon="1.78758">
        <ele>182</ele>
        <time>2015-05-24T10:48:56.000Z</time>
      </trkpt>
      <trkpt lat="48.76047" lon="1.78764">
        <ele>182</ele>
        <time>2015-05-24T10:49:01.000Z</time>
      </trkpt>
      <trkpt lat="48.76051" lon="1.78771">
        <ele>182</ele>
        <time>2015-05-24T10:49:06.000Z</time>
      </trkpt>
      <trkpt lat="48.76057" lon="1.78775">
        <ele>182</ele>
        <time>2015-05-24T10:49:13.000Z</time>
      </trkpt>
      <trkpt lat="48.76061" lon="1.78776">
        <ele>182</ele>
        <time>2015-05-24T10:49:17.000Z</time>
      </trkpt>
      <trkpt lat="48.76072" lon="1.78786">
        <ele>182</ele>
        <time>2015-05-24T10:49:26.000Z</time>
      </trkpt>
      <trkpt lat="48.76079" lon="1.78796">
        <ele>182</ele>
        <time>2015-05-24T10:49:33.000Z</time>
      </trkpt>
      <trkpt lat="48.76085" lon="1.78801">
        <ele>182</ele>
        <time>2015-05-24T10:49:38.000Z</time>
      </trkpt>
      <trkpt lat="48.76095" lon="1.78809">
        <ele>182</ele>
        <time>2015-05-24T10:49:47.000Z</time>
      </trkpt>
      <trkpt lat="48.76102" lon="1.78809">
        <ele>182</ele>
        <time>2015-05-24T10:49:53.000Z</time>
      </trkpt>
      <trkpt lat="48.76104" lon="1.7881">
        <ele>182</ele>
        <time>2015-05-24T10:49:57.000Z</time>
      </trkpt>
      <trkpt lat="48.76107" lon="1.78801">
        <ele>182</ele>
        <time>2015-05-24T10:50:16.000Z</time>
      </trkpt>
      <trkpt lat="48.7611" lon="1.78787">
        <ele>182</ele>
        <time>2015-05-24T10:50:22.000Z</time>
      </trkpt>
      <trkpt lat="48.76112" lon="1.78772">
        <ele>182</ele>
        <time>2015-05-24T10:50:29.000Z</time>
      </trkpt>
      <trkpt lat="48.76118" lon="1.78762">
        <ele>182</ele>
        <time>2015-05-24T10:50:35.000Z</time>
      </trkpt>
      <trkpt lat="48.7612" lon="1.78752">
        <ele>182</ele>
        <time>2015-05-24T10:50:40.000Z</time>
      </trkpt>
      <trkpt lat="48.76121" lon="1.78749">
        <ele>182</ele>
        <time>2015-05-24T10:50:42.000Z</time>
      </trkpt>
      <trkpt lat="48.76125" lon="1.78739">
        <ele>182</ele>
        <time>2015-05-24T10:50:49.000Z</time>
      </trkpt>
      <trkpt lat="48.76127" lon="1.78734">
        <ele>182</ele>
        <time>2015-05-24T10:50:52.000Z</time>
      </trkpt>
      <trkpt lat="48.76129" lon="1.78725">
        <ele>182</ele>
        <time>2015-05-24T10:50:57.000Z</time>
      </trkpt>
      <trkpt lat="48.76132" lon="1.78711">
        <ele>182</ele>
        <time>2015-05-24T10:51:04.000Z</time>
      </trkpt>
      <trkpt lat="48.76136" lon="1.787">
        <ele>182</ele>
        <time>2015-05-24T10:51:11.000Z</time>
      </trkpt>
      <trkpt lat="48.76138" lon="1.78695">
        <ele>182</ele>
        <time>2015-05-24T10:51:13.000Z</time>
      </trkpt>
      <trkpt lat="48.76142" lon="1.78681">
        <ele>182.5</ele>
        <time>2015-05-24T10:51:20.000Z</time>
      </trkpt>
      <trkpt lat="48.76145" lon="1.78675">
        <ele>182.8</ele>
        <time>2015-05-24T10:51:23.000Z</time>
      </trkpt>
      <trkpt lat="48.7615" lon="1.78664">
        <ele>183</ele>
        <time>2015-05-24T10:51:29.000Z</time>
      </trkpt>
      <trkpt lat="48.7615" lon="1.78659">
        <ele>183</ele>
        <time>2015-05-24T10:51:31.000Z</time>
      </trkpt>
      <trkpt lat="48.76154" lon="1.78644">
        <ele>183</ele>
        <time>2015-05-24T10:51:37.000Z</time>
      </trkpt>
      <trkpt lat="48.76158" lon="1.78631">
        <ele>183</ele>
        <time>2015-05-24T10:51:42.000Z</time>
      </trkpt>
      <trkpt lat="48.76163" lon="1.78616">
        <ele>183</ele>
        <time>2015-05-24T10:51:49.000Z</time>
      </trkpt>
      <trkpt lat="48.76168" lon="1.78601">
        <ele>183</ele>
        <time>2015-05-24T10:51:56.000Z</time>
      </trkpt>
      <trkpt lat="48.7617" lon="1.78595">
        <ele>183</ele>
        <time>2015-05-24T10:51:59.000Z</time>
      </trkpt>
      <trkpt lat="48.76173" lon="1.78587">
        <ele>183</ele>
        <time>2015-05-24T10:52:05.000Z</time>
      </trkpt>
      <trkpt lat="48.76177" lon="1.78578">
        <ele>183</ele>
        <time>2015-05-24T10:52:15.000Z</time>
      </trkpt>
      <trkpt lat="48.76178" lon="1.78567">
        <ele>183</ele>
        <time>2015-05-24T10:52:19.000Z</time>
      </trkpt>
      <trkpt lat="48.76177" lon="1.78561">
        <ele>183</ele>
        <time>2015-05-24T10:52:22.000Z</time>
      </trkpt>
      <trkpt lat="48.7618" lon="1.78556">
        <ele>183</ele>
        <time>2015-05-24T10:52:25.000Z</time>
      </trkpt>
      <trkpt lat="48.76185" lon="1.78546">
        <ele>183</ele>
        <time>2015-05-24T10:52:31.000Z</time>
      </trkpt>
      <trkpt lat="48.76186" lon="1.78542">
        <ele>183</ele>
        <time>2015-05-24T10:52:33.000Z</time>
      </trkpt>
      <trkpt lat="48.76194" lon="1.78527">
        <ele>183</ele>
        <time>2015-05-24T10:52:41.000Z</time>
      </trkpt>
      <trkpt lat="48.762" lon="1.78521">
        <ele>183</ele>
        <time>2015-05-24T10:52:47.000Z</time>
      </trkpt>
      <trkpt lat="48.76209" lon="1.78515">
        <ele>183</ele>
        <time>2015-05-24T10:52:54.000Z</time>
      </trkpt>
      <trkpt lat="48.76213" lon="1.78512">
        <ele>183</ele>
        <time>2015-05-24T10:52:57.000Z</time>
      </trkpt>
      <trkpt lat="48.76219" lon="1.7851">
        <ele>183</ele>
        <time>2015-05-24T10:53:01.000Z</time>
      </trkpt>
      <trkpt lat="48.76224" lon="1.78508">
        <ele>183</ele>
        <time>2015-05-24T10:53:04.000Z</time>
      </trkpt>
      <trkpt lat="48.76235" lon="1.78511">
        <ele>183</ele>
        <time>2015-05-24T10:53:11.000Z</time>
      </trkpt>
      <trkpt lat="48.76243" lon="1.78511">
        <ele>183</ele>
        <time>2015-05-24T10:53:17.000Z</time>
      </trkpt>
      <trkpt lat="48.76249" lon="1.78509">
        <ele>183</ele>
        <time>2015-05-24T10:53:21.000Z</time>
      </trkpt>
      <trkpt lat="48.76257" lon="1.78495">
        <ele>183</ele>
        <time>2015-05-24T10:53:27.000Z</time>
      </trkpt>
      <trkpt lat="48.76261" lon="1.78487">
        <ele>183</ele>
        <time>2015-05-24T10:53:30.000Z</time>
      </trkpt>
      <trkpt lat="48.76265" lon="1.78475">
        <ele>183</ele>
        <time>2015-05-24T10:53:36.000Z</time>
      </trkpt>
      <trkpt lat="48.76269" lon="1.7846">
        <ele>183</ele>
        <time>2015-05-24T10:53:42.000Z</time>
      </trkpt>
      <trkpt lat="48.76274" lon="1.78453">
        <ele>183</ele>
        <time>2015-05-24T10:53:48.000Z</time>
      </trkpt>
      <trkpt lat="48.76283" lon="1.78456">
        <ele>183</ele>
        <time>2015-05-24T10:53:55.000Z</time>
      </trkpt>
      <trkpt lat="48.76288" lon="1.7846">
        <ele>183</ele>
        <time>2015-05-24T10:54:00.000Z</time>
      </trkpt>
      <trkpt lat="48.76294" lon="1.78463">
        <ele>183</ele>
        <time>2015-05-24T10:54:05.000Z</time>
      </trkpt>
      <trkpt lat="48.76304" lon="1.78469">
        <ele>183</ele>
        <time>2015-05-24T10:54:11.000Z</time>
      </trkpt>
      <trkpt lat="48.76307" lon="1.78473">
        <ele>183</ele>
        <time>2015-05-24T10:54:14.000Z</time>
      </trkpt>
      <trkpt lat="48.76312" lon="1.78477">
        <ele>183</ele>
        <time>2015-05-24T10:54:18.000Z</time>
      </trkpt>
      <trkpt lat="48.76319" lon="1.78484">
        <ele>183</ele>
        <time>2015-05-24T10:54:24.000Z</time>
      </trkpt>
      <trkpt lat="48.76327" lon="1.78491">
        <ele>183</ele>
        <time>2015-05-24T10:54:30.000Z</time>
      </trkpt>
      <trkpt lat="48.76341" lon="1.78502">
        <ele>183</ele>
        <time>2015-05-24T10:54:38.000Z</time>
      </trkpt>
      <trkpt lat="48.76346" lon="1.78503">
        <ele>183</ele>
        <time>2015-05-24T10:54:43.000Z</time>
      </trkpt>
      <trkpt lat="48.76346" lon="1.78503">
        <ele>183</ele>
        <time>2015-05-24T10:54:44.000Z</time>
      </trkpt>
      <trkpt lat="48.76339" lon="1.785">
        <ele>183</ele>
        <time>2015-05-24T10:54:58.000Z</time>
      </trkpt>
      <trkpt lat="48.76336" lon="1.78494">
        <ele>183</ele>
        <time>2015-05-24T10:55:00.000Z</time>
      </trkpt>
      <trkpt lat="48.76327" lon="1.78484">
        <ele>183</ele>
        <time>2015-05-24T10:55:07.000Z</time>
      </trkpt>
      <trkpt lat="48.76318" lon="1.78477">
        <ele>183</ele>
        <time>2015-05-24T10:55:13.000Z</time>
      </trkpt>
      <trkpt lat="48.76307" lon="1.78467">
        <ele>183</ele>
        <time>2015-05-24T10:55:21.000Z</time>
      </trkpt>
      <trkpt lat="48.76294" lon="1.78459">
        <ele>183</ele>
        <time>2015-05-24T10:55:30.000Z</time>
      </trkpt>
      <trkpt lat="48.76283" lon="1.7845">
        <ele>183</ele>
        <time>2015-05-24T10:55:38.000Z</time>
      </trkpt>
      <trkpt lat="48.76272" lon="1.78449">
        <ele>183</ele>
        <time>2015-05-24T10:55:45.000Z</time>
      </trkpt>
      <trkpt lat="48.7627" lon="1.78448">
        <ele>183</ele>
        <time>2015-05-24T10:55:46.000Z</time>
      </trkpt>
      <trkpt lat="48.76265" lon="1.78442">
        <ele>183</ele>
        <time>2015-05-24T10:55:50.000Z</time>
      </trkpt>
      <trkpt lat="48.7626" lon="1.78431">
        <ele>183</ele>
        <time>2015-05-24T10:55:56.000Z</time>
      </trkpt>
      <trkpt lat="48.76262" lon="1.78421">
        <ele>183</ele>
        <time>2015-05-24T10:56:01.000Z</time>
      </trkpt>
      <trkpt lat="48.76263" lon="1.78403">
        <ele>183</ele>
        <time>2015-05-24T10:56:08.000Z</time>
      </trkpt>
      <trkpt lat="48.76262" lon="1.78384">
        <ele>183</ele>
        <time>2015-05-24T10:56:16.000Z</time>
      </trkpt>
      <trkpt lat="48.7626" lon="1.78368">
        <ele>183</ele>
        <time>2015-05-24T10:56:22.000Z</time>
      </trkpt>
      <trkpt lat="48.76259" lon="1.78355">
        <ele>183</ele>
        <time>2015-05-24T10:56:27.000Z</time>
      </trkpt>
      <trkpt lat="48.76255" lon="1.78339">
        <ele>183</ele>
        <time>2015-05-24T10:56:34.000Z</time>
      </trkpt>
      <trkpt lat="48.76252" lon="1.78328">
        <ele>183</ele>
        <time>2015-05-24T10:56:40.000Z</time>
      </trkpt>
      <trkpt lat="48.76251" lon="1.78322">
        <ele>183</ele>
        <time>2015-05-24T10:56:43.000Z</time>
      </trkpt>
      <trkpt lat="48.76252" lon="1.78311">
        <ele>183</ele>
        <time>2015-05-24T10:56:48.000Z</time>
      </trkpt>
      <trkpt lat="48.76252" lon="1.783">
        <ele>183</ele>
        <time>2015-05-24T10:56:53.000Z</time>
      </trkpt>
      <trkpt lat="48.76255" lon="1.78291">
        <ele>183</ele>
        <time>2015-05-24T10:56:57.000Z</time>
      </trkpt>
      <trkpt lat="48.76257" lon="1.7828">
        <ele>183</ele>
        <time>2015-05-24T10:57:02.000Z</time>
      </trkpt>
      <trkpt lat="48.7626" lon="1.78268">
        <ele>183</ele>
        <time>2015-05-24T10:57:08.000Z</time>
      </trkpt>
      <trkpt lat="48.76261" lon="1.78264">
        <ele>183</ele>
        <time>2015-05-24T10:57:10.000Z</time>
      </trkpt>
      <trkpt lat="48.76262" lon="1.78261">
        <ele>183</ele>
        <time>2015-05-24T10:57:12.000Z</time>
      </trkpt>
      <trkpt lat="48.76267" lon="1.78244">
        <ele>183</ele>
        <time>2015-05-24T10:57:19.000Z</time>
      </trkpt>
      <trkpt lat="48.76269" lon="1.78236">
        <ele>183</ele>
        <time>2015-05-24T10:57:29.000Z</time>
      </trkpt>
      <trkpt lat="48.76274" lon="1.78217">
        <ele>183</ele>
        <time>2015-05-24T10:57:38.000Z</time>
      </trkpt>
      <trkpt lat="48.76278" lon="1.78205">
        <ele>183</ele>
        <time>2015-05-24T10:57:44.000Z</time>
      </trkpt>
      <trkpt lat="48.7628" lon="1.78201">
        <ele>183</ele>
        <time>2015-05-24T10:57:46.000Z</time>
      </trkpt>
      <trkpt lat="48.76281" lon="1.78196">
        <ele>183</ele>
        <time>2015-05-24T10:57:48.000Z</time>
      </trkpt>
      <trkpt lat="48.76282" lon="1.7819">
        <ele>183</ele>
        <time>2015-05-24T10:57:51.000Z</time>
      </trkpt>
      <trkpt lat="48.76286" lon="1.78181">
        <ele>183</ele>
        <time>2015-05-24T10:57:55.000Z</time>
      </trkpt>
      <trkpt lat="48.76294" lon="1.78167">
        <ele>183</ele>
        <time>2015-05-24T10:58:03.000Z</time>
      </trkpt>
      <trkpt lat="48.76299" lon="1.78153">
        <ele>183</ele>
        <time>2015-05-24T10:58:09.000Z</time>
      </trkpt>
      <trkpt lat="48.76301" lon="1.78144">
        <ele>183</ele>
        <time>2015-05-24T10:58:13.000Z</time>
      </trkpt>
      <trkpt lat="48.76304" lon="1.78129">
        <ele>183</ele>
        <time>2015-05-24T10:58:20.000Z</time>
      </trkpt>
      <trkpt lat="48.76304" lon="1.78123">
        <ele>183</ele>
        <time>2015-05-24T10:58:23.000Z</time>
      </trkpt>
      <trkpt lat="48.76307" lon="1.78111">
        <ele>183</ele>
        <time>2015-05-24T10:58:29.000Z</time>
      </trkpt>
      <trkpt lat="48.7631" lon="1.781">
        <ele>183</ele>
        <time>2015-05-24T10:58:34.000Z</time>
      </trkpt>
      <trkpt lat="48.76312" lon="1.78087">
        <ele>183</ele>
        <time>2015-05-24T10:58:39.000Z</time>
      </trkpt>
      <trkpt lat="48.76315" lon="1.78082">
        <ele>183</ele>
        <time>2015-05-24T10:58:42.000Z</time>
      </trkpt>
      <trkpt lat="48.76319" lon="1.7807">
        <ele>183</ele>
        <time>2015-05-24T10:58:47.000Z</time>
      </trkpt>
      <trkpt lat="48.7632" lon="1.78067">
        <ele>183</ele>
        <time>2015-05-24T10:58:48.000Z</time>
      </trkpt>
      <trkpt lat="48.76323" lon="1.78047">
        <ele>183</ele>
        <time>2015-05-24T10:58:57.000Z</time>
      </trkpt>
      <trkpt lat="48.76323" lon="1.7804">
        <ele>183</ele>
        <time>2015-05-24T10:59:00.000Z</time>
      </trkpt>
      <trkpt lat="48.76326" lon="1.78034">
        <ele>183</ele>
        <time>2015-05-24T10:59:06.000Z</time>
      </trkpt>
      <trkpt lat="48.76335" lon="1.78004">
        <ele>183</ele>
        <time>2015-05-24T11:01:47.000Z</time>
      </trkpt>
      <trkpt lat="48.76337" lon="1.77994">
        <ele>183</ele>
        <time>2015-05-24T11:01:51.000Z</time>
      </trkpt>
      <trkpt lat="48.7634" lon="1.77983">
        <ele>183</ele>
        <time>2015-05-24T11:01:56.000Z</time>
      </trkpt>
      <trkpt lat="48.76344" lon="1.7797">
        <ele>183</ele>
        <time>2015-05-24T11:02:03.000Z</time>
      </trkpt>
      <trkpt lat="48.76347" lon="1.77959">
        <ele>183</ele>
        <time>2015-05-24T11:02:08.000Z</time>
      </trkpt>
      <trkpt lat="48.76347" lon="1.77955">
        <ele>183</ele>
        <time>2015-05-24T11:02:10.000Z</time>
      </trkpt>
      <trkpt lat="48.76351" lon="1.77943">
        <ele>183</ele>
        <time>2015-05-24T11:02:16.000Z</time>
      </trkpt>
      <trkpt lat="48.76355" lon="1.77935">
        <ele>183</ele>
        <time>2015-05-24T11:02:21.000Z</time>
      </trkpt>
      <trkpt lat="48.76359" lon="1.77922">
        <ele>183</ele>
        <time>2015-05-24T11:02:28.000Z</time>
      </trkpt>
      <trkpt lat="48.76359" lon="1.77911">
        <ele>183</ele>
        <time>2015-05-24T11:02:40.000Z</time>
      </trkpt>
      <trkpt lat="48.76361" lon="1.77906">
        <ele>183</ele>
        <time>2015-05-24T11:02:46.000Z</time>
      </trkpt>
      <trkpt lat="48.76367" lon="1.77912">
        <ele>183</ele>
        <time>2015-05-24T11:03:04.000Z</time>
      </trkpt>
      <trkpt lat="48.76375" lon="1.7792">
        <ele>183</ele>
        <time>2015-05-24T11:03:09.000Z</time>
      </trkpt>
      <trkpt lat="48.7638" lon="1.77923">
        <ele>183</ele>
        <time>2015-05-24T11:03:12.000Z</time>
      </trkpt>
      <trkpt lat="48.76385" lon="1.77929">
        <ele>183</ele>
        <time>2015-05-24T11:03:17.000Z</time>
      </trkpt>
      <trkpt lat="48.76395" lon="1.77939">
        <ele>183</ele>
        <time>2015-05-24T11:03:24.000Z</time>
      </trkpt>
      <trkpt lat="48.76404" lon="1.77947">
        <ele>183</ele>
        <time>2015-05-24T11:03:30.000Z</time>
      </trkpt>
      <trkpt lat="48.76406" lon="1.77949">
        <ele>183</ele>
        <time>2015-05-24T11:03:31.000Z</time>
      </trkpt>
      <trkpt lat="48.76411" lon="1.77953">
        <ele>183</ele>
        <time>2015-05-24T11:03:35.000Z</time>
      </trkpt>
      <trkpt lat="48.76418" lon="1.77962">
        <ele>183</ele>
        <time>2015-05-24T11:03:42.000Z</time>
      </trkpt>
      <trkpt lat="48.76421" lon="1.77964">
        <ele>183</ele>
        <time>2015-05-24T11:03:44.000Z</time>
      </trkpt>
      <trkpt lat="48.76432" lon="1.7797">
        <ele>183</ele>
        <time>2015-05-24T11:03:50.000Z</time>
      </trkpt>
      <trkpt lat="48.76442" lon="1.77973">
        <ele>183</ele>
        <time>2015-05-24T11:03:57.000Z</time>
      </trkpt>
      <trkpt lat="48.76448" lon="1.77989">
        <ele>183</ele>
        <time>2015-05-24T11:04:06.000Z</time>
      </trkpt>
      <trkpt lat="48.76454" lon="1.77999">
        <ele>183</ele>
        <time>2015-05-24T11:04:13.000Z</time>
      </trkpt>
      <trkpt lat="48.76463" lon="1.78014">
        <ele>183</ele>
        <time>2015-05-24T11:04:21.000Z</time>
      </trkpt>
      <trkpt lat="48.7647" lon="1.78021">
        <ele>183</ele>
        <time>2015-05-24T11:04:27.000Z</time>
      </trkpt>
      <trkpt lat="48.76479" lon="1.78029">
        <ele>183</ele>
        <time>2015-05-24T11:04:34.000Z</time>
      </trkpt>
      <trkpt lat="48.76483" lon="1.78031">
        <ele>183</ele>
        <time>2015-05-24T11:04:37.000Z</time>
      </trkpt>
      <trkpt lat="48.76496" lon="1.7804">
        <ele>183</ele>
        <time>2015-05-24T11:04:45.000Z</time>
      </trkpt>
      <trkpt lat="48.76504" lon="1.78049">
        <ele>183</ele>
        <time>2015-05-24T11:04:51.000Z</time>
      </trkpt>
      <trkpt lat="48.76506" lon="1.78052">
        <ele>183</ele>
        <time>2015-05-24T11:04:54.000Z</time>
      </trkpt>
      <trkpt lat="48.76514" lon="1.78063">
        <ele>183</ele>
        <time>2015-05-24T11:05:02.000Z</time>
      </trkpt>
      <trkpt lat="48.76525" lon="1.78076">
        <ele>183</ele>
        <time>2015-05-24T11:05:11.000Z</time>
      </trkpt>
      <trkpt lat="48.76534" lon="1.78083">
        <ele>183</ele>
        <time>2015-05-24T11:05:17.000Z</time>
      </trkpt>
      <trkpt lat="48.76544" lon="1.78093">
        <ele>183</ele>
        <time>2015-05-24T11:05:23.000Z</time>
      </trkpt>
      <trkpt lat="48.76551" lon="1.78104">
        <ele>183</ele>
        <time>2015-05-24T11:05:28.000Z</time>
      </trkpt>
      <trkpt lat="48.76557" lon="1.78113">
        <ele>183</ele>
        <time>2015-05-24T11:05:33.000Z</time>
      </trkpt>
      <trkpt lat="48.76559" lon="1.78118">
        <ele>183</ele>
        <time>2015-05-24T11:05:36.000Z</time>
      </trkpt>
      <trkpt lat="48.76563" lon="1.78121">
        <ele>183</ele>
        <time>2015-05-24T11:05:42.000Z</time>
      </trkpt>
      <trkpt lat="48.76568" lon="1.78121">
        <ele>183</ele>
        <time>2015-05-24T11:05:47.000Z</time>
      </trkpt>
      <trkpt lat="48.76575" lon="1.78129">
        <ele>183</ele>
        <time>2015-05-24T11:05:52.000Z</time>
      </trkpt>
      <trkpt lat="48.76584" lon="1.78139">
        <ele>183</ele>
        <time>2015-05-24T11:05:58.000Z</time>
      </trkpt>
      <trkpt lat="48.76592" lon="1.78148">
        <ele>183</ele>
        <time>2015-05-24T11:06:03.000Z</time>
      </trkpt>
      <trkpt lat="48.76598" lon="1.78152">
        <ele>183</ele>
        <time>2015-05-24T11:06:07.000Z</time>
      </trkpt>
      <trkpt lat="48.76608" lon="1.78153">
        <ele>183</ele>
        <time>2015-05-24T11:06:13.000Z</time>
      </trkpt>
      <trkpt lat="48.76618" lon="1.7816">
        <ele>183</ele>
        <time>2015-05-24T11:06:21.000Z</time>
      </trkpt>
      <trkpt lat="48.7662" lon="1.78154">
        <ele>183</ele>
        <time>2015-05-24T11:06:25.000Z</time>
      </trkpt>
      <trkpt lat="48.76618" lon="1.78141">
        <ele>183</ele>
        <time>2015-05-24T11:06:33.000Z</time>
      </trkpt>
      <trkpt lat="48.76614" lon="1.78128">
        <ele>183</ele>
        <time>2015-05-24T11:06:39.000Z</time>
      </trkpt>
      <trkpt lat="48.76609" lon="1.78114">
        <ele>183</ele>
        <time>2015-05-24T11:06:46.000Z</time>
      </trkpt>
      <trkpt lat="48.76605" lon="1.78101">
        <ele>183</ele>
        <time>2015-05-24T11:06:53.000Z</time>
      </trkpt>
      <trkpt lat="48.76601" lon="1.78089">
        <ele>183</ele>
        <time>2015-05-24T11:07:00.000Z</time>
      </trkpt>
      <trkpt lat="48.76595" lon="1.78072">
        <ele>183</ele>
        <time>2015-05-24T11:07:08.000Z</time>
      </trkpt>
      <trkpt lat="48.76591" lon="1.7806">
        <ele>183</ele>
        <time>2015-05-24T11:07:15.000Z</time>
      </trkpt>
      <trkpt lat="48.76585" lon="1.78049">
        <ele>183</ele>
        <time>2015-05-24T11:07:21.000Z</time>
      </trkpt>
      <trkpt lat="48.76581" lon="1.78039">
        <ele>183</ele>
        <time>2015-05-24T11:07:26.000Z</time>
      </trkpt>
      <trkpt lat="48.76578" lon="1.78028">
        <ele>183</ele>
        <time>2015-05-24T11:07:32.000Z</time>
      </trkpt>
      <trkpt lat="48.76573" lon="1.78016">
        <ele>183</ele>
        <time>2015-05-24T11:07:37.000Z</time>
      </trkpt>
      <trkpt lat="48.76566" lon="1.77999">
        <ele>183</ele>
        <time>2015-05-24T11:07:46.000Z</time>
      </trkpt>
      <trkpt lat="48.7656" lon="1.77985">
        <ele>183</ele>
        <time>2015-05-24T11:07:53.000Z</time>
      </trkpt>
      <trkpt lat="48.76559" lon="1.77981">
        <ele>183</ele>
        <time>2015-05-24T11:07:55.000Z</time>
      </trkpt>
      <trkpt lat="48.76554" lon="1.7797">
        <ele>183</ele>
        <time>2015-05-24T11:08:01.000Z</time>
      </trkpt>
      <trkpt lat="48.76552" lon="1.7796">
        <ele>183</ele>
        <time>2015-05-24T11:08:04.000Z</time>
      </trkpt>
      <trkpt lat="48.76547" lon="1.77939">
        <ele>183</ele>
        <time>2015-05-24T11:08:11.000Z</time>
      </trkpt>
      <trkpt lat="48.76544" lon="1.77925">
        <ele>183</ele>
        <time>2015-05-24T11:08:17.000Z</time>
      </trkpt>
      <trkpt lat="48.76539" lon="1.77905">
        <ele>183</ele>
        <time>2015-05-24T11:08:25.000Z</time>
      </trkpt>
      <trkpt lat="48.76532" lon="1.77881">
        <ele>183</ele>
        <time>2015-05-24T11:08:36.000Z</time>
      </trkpt>
      <trkpt lat="48.76525" lon="1.77863">
        <ele>183</ele>
        <time>2015-05-24T11:08:43.000Z</time>
      </trkpt>
      <trkpt lat="48.76519" lon="1.77848">
        <ele>183</ele>
        <time>2015-05-24T11:08:48.000Z</time>
      </trkpt>
      <trkpt lat="48.76514" lon="1.77835">
        <ele>183</ele>
        <time>2015-05-24T11:08:54.000Z</time>
      </trkpt>
      <trkpt lat="48.76509" lon="1.77817">
        <ele>183</ele>
        <time>2015-05-24T11:09:00.000Z</time>
      </trkpt>
      <trkpt lat="48.76504" lon="1.77805">
        <ele>183</ele>
        <time>2015-05-24T11:09:05.000Z</time>
      </trkpt>
      <trkpt lat="48.76501" lon="1.77794">
        <ele>183</ele>
        <time>2015-05-24T11:09:10.000Z</time>
      </trkpt>
      <trkpt lat="48.76497" lon="1.7778">
        <ele>183</ele>
        <time>2015-05-24T11:09:16.000Z</time>
      </trkpt>
      <trkpt lat="48.76492" lon="1.77766">
        <ele>183</ele>
        <time>2015-05-24T11:09:23.000Z</time>
      </trkpt>
      <trkpt lat="48.76487" lon="1.7775">
        <ele>183</ele>
        <time>2015-05-24T11:09:30.000Z</time>
      </trkpt>
      <trkpt lat="48.76482" lon="1.77735">
        <ele>183</ele>
        <time>2015-05-24T11:09:36.000Z</time>
      </trkpt>
      <trkpt lat="48.76475" lon="1.77718">
        <ele>183</ele>
        <time>2015-05-24T11:09:45.000Z</time>
      </trkpt>
      <trkpt lat="48.76469" lon="1.77702">
        <ele>183</ele>
        <time>2015-05-24T11:09:53.000Z</time>
      </trkpt>
      <trkpt lat="48.76464" lon="1.77688">
        <ele>183</ele>
        <time>2015-05-24T11:09:59.000Z</time>
      </trkpt>
      <trkpt lat="48.76459" lon="1.77672">
        <ele>183</ele>
        <time>2015-05-24T11:10:04.000Z</time>
      </trkpt>
      <trkpt lat="48.76456" lon="1.77659">
        <ele>183</ele>
        <time>2015-05-24T11:10:10.000Z</time>
      </trkpt>
      <trkpt lat="48.76454" lon="1.77651">
        <ele>183</ele>
        <time>2015-05-24T11:10:13.000Z</time>
      </trkpt>
      <trkpt lat="48.76448" lon="1.77639">
        <ele>183</ele>
        <time>2015-05-24T11:10:20.000Z</time>
      </trkpt>
      <trkpt lat="48.76442" lon="1.77624">
        <ele>183</ele>
        <time>2015-05-24T11:10:26.000Z</time>
      </trkpt>
      <trkpt lat="48.76436" lon="1.77607">
        <ele>183</ele>
        <time>2015-05-24T11:10:35.000Z</time>
      </trkpt>
      <trkpt lat="48.76435" lon="1.77603">
        <ele>183</ele>
        <time>2015-05-24T11:10:37.000Z</time>
      </trkpt>
      <trkpt lat="48.76432" lon="1.77594">
        <ele>183</ele>
        <time>2015-05-24T11:10:41.000Z</time>
      </trkpt>
      <trkpt lat="48.76427" lon="1.77575">
        <ele>183</ele>
        <time>2015-05-24T11:10:49.000Z</time>
      </trkpt>
      <trkpt lat="48.76421" lon="1.77556">
        <ele>183</ele>
        <time>2015-05-24T11:10:57.000Z</time>
      </trkpt>
      <trkpt lat="48.76417" lon="1.77544">
        <ele>183</ele>
        <time>2015-05-24T11:11:02.000Z</time>
      </trkpt>
      <trkpt lat="48.76411" lon="1.77525">
        <ele>182.9</ele>
        <time>2015-05-24T11:11:10.000Z</time>
      </trkpt>
      <trkpt lat="48.76407" lon="1.77512">
        <ele>182.6</ele>
        <time>2015-05-24T11:11:15.000Z</time>
      </trkpt>
      <trkpt lat="48.76404" lon="1.77502">
        <ele>182.5</ele>
        <time>2015-05-24T11:11:20.000Z</time>
      </trkpt>
      <trkpt lat="48.76399" lon="1.77489">
        <ele>182.4</ele>
        <time>2015-05-24T11:11:26.000Z</time>
      </trkpt>
      <trkpt lat="48.76392" lon="1.77466">
        <ele>182</ele>
        <time>2015-05-24T11:11:36.000Z</time>
      </trkpt>
      <trkpt lat="48.76386" lon="1.77447">
        <ele>182</ele>
        <time>2015-05-24T11:11:44.000Z</time>
      </trkpt>
      <trkpt lat="48.7638" lon="1.77428">
        <ele>182</ele>
        <time>2015-05-24T11:11:52.000Z</time>
      </trkpt>
      <trkpt lat="48.76374" lon="1.77412">
        <ele>182</ele>
        <time>2015-05-24T11:11:58.000Z</time>
      </trkpt>
      <trkpt lat="48.76365" lon="1.77387">
        <ele>182</ele>
        <time>2015-05-24T11:12:06.000Z</time>
      </trkpt>
      <trkpt lat="48.76359" lon="1.77368">
        <ele>182</ele>
        <time>2015-05-24T11:12:14.000Z</time>
      </trkpt>
      <trkpt lat="48.76353" lon="1.77353">
        <ele>182</ele>
        <time>2015-05-24T11:12:20.000Z</time>
      </trkpt>
      <trkpt lat="48.76348" lon="1.7733">
        <ele>182</ele>
        <time>2015-05-24T11:12:27.000Z</time>
      </trkpt>
      <trkpt lat="48.76345" lon="1.7732">
        <ele>182</ele>
        <time>2015-05-24T11:12:32.000Z</time>
      </trkpt>
      <trkpt lat="48.76339" lon="1.77305">
        <ele>182</ele>
        <time>2015-05-24T11:12:40.000Z</time>
      </trkpt>
      <trkpt lat="48.76333" lon="1.7729">
        <ele>182</ele>
        <time>2015-05-24T11:12:47.000Z</time>
      </trkpt>
      <trkpt lat="48.7633" lon="1.77279">
        <ele>182</ele>
        <time>2015-05-24T11:12:52.000Z</time>
      </trkpt>
      <trkpt lat="48.76324" lon="1.77261">
        <ele>182</ele>
        <time>2015-05-24T11:13:00.000Z</time>
      </trkpt>
      <trkpt lat="48.76318" lon="1.77245">
        <ele>182</ele>
        <time>2015-05-24T11:13:07.000Z</time>
      </trkpt>
      <trkpt lat="48.76316" lon="1.77236">
        <ele>182</ele>
        <time>2015-05-24T11:13:11.000Z</time>
      </trkpt>
      <trkpt lat="48.7631" lon="1.77222">
        <ele>182</ele>
        <time>2015-05-24T11:13:18.000Z</time>
      </trkpt>
      <trkpt lat="48.76304" lon="1.77206">
        <ele>182</ele>
        <time>2015-05-24T11:13:25.000Z</time>
      </trkpt>
      <trkpt lat="48.76299" lon="1.7719">
        <ele>182</ele>
        <time>2015-05-24T11:13:33.000Z</time>
      </trkpt>
      <trkpt lat="48.76293" lon="1.77173">
        <ele>182</ele>
        <time>2015-05-24T11:13:41.000Z</time>
      </trkpt>
      <trkpt lat="48.76286" lon="1.77148">
        <ele>182</ele>
        <time>2015-05-24T11:13:51.000Z</time>
      </trkpt>
      <trkpt lat="48.76283" lon="1.7714">
        <ele>182</ele>
        <time>2015-05-24T11:13:54.000Z</time>
      </trkpt>
      <trkpt lat="48.76277" lon="1.77124">
        <ele>182</ele>
        <time>2015-05-24T11:14:02.000Z</time>
      </trkpt>
      <trkpt lat="48.76272" lon="1.77107">
        <ele>182.3</ele>
        <time>2015-05-24T11:14:10.000Z</time>
      </trkpt>
      <trkpt lat="48.76264" lon="1.77083">
        <ele>183</ele>
        <time>2015-05-24T11:14:21.000Z</time>
      </trkpt>
      <trkpt lat="48.76256" lon="1.7706">
        <ele>183</ele>
        <time>2015-05-24T11:14:31.000Z</time>
      </trkpt>
      <trkpt lat="48.76251" lon="1.77043">
        <ele>183</ele>
        <time>2015-05-24T11:14:38.000Z</time>
      </trkpt>
      <trkpt lat="48.76247" lon="1.7703">
        <ele>183</ele>
        <time>2015-05-24T11:14:44.000Z</time>
      </trkpt>
      <trkpt lat="48.76244" lon="1.77019">
        <ele>183</ele>
        <time>2015-05-24T11:14:50.000Z</time>
      </trkpt>
      <trkpt lat="48.76233" lon="1.76986">
        <ele>183</ele>
        <time>2015-05-24T11:15:06.000Z</time>
      </trkpt>
      <trkpt lat="48.76225" lon="1.7696">
        <ele>183</ele>
        <time>2015-05-24T11:15:17.000Z</time>
      </trkpt>
      <trkpt lat="48.76216" lon="1.76934">
        <ele>183</ele>
        <time>2015-05-24T11:15:29.000Z</time>
      </trkpt>
      <trkpt lat="48.76209" lon="1.76913">
        <ele>183</ele>
        <time>2015-05-24T11:15:39.000Z</time>
      </trkpt>
      <trkpt lat="48.76202" lon="1.76894">
        <ele>183</ele>
        <time>2015-05-24T11:15:49.000Z</time>
      </trkpt>
      <trkpt lat="48.76195" lon="1.76878">
        <ele>183</ele>
        <time>2015-05-24T11:15:58.000Z</time>
      </trkpt>
      <trkpt lat="48.76195" lon="1.76878">
        <ele>183</ele>
        <time>2015-05-24T11:16:01.000Z</time>
      </trkpt>
      <trkpt lat="48.76185" lon="1.76871">
        <ele>183</ele>
        <time>2015-05-24T11:16:29.000Z</time>
      </trkpt>
      <trkpt lat="48.76174" lon="1.76867">
        <ele>183</ele>
        <time>2015-05-24T11:16:35.000Z</time>
      </trkpt>
      <trkpt lat="48.76163" lon="1.7687">
        <ele>183</ele>
        <time>2015-05-24T11:16:41.000Z</time>
      </trkpt>
      <trkpt lat="48.76154" lon="1.76869">
        <ele>183</ele>
        <time>2015-05-24T11:16:48.000Z</time>
      </trkpt>
      <trkpt lat="48.7614" lon="1.76878">
        <ele>183</ele>
        <time>2015-05-24T11:16:56.000Z</time>
      </trkpt>
      <trkpt lat="48.76137" lon="1.76877">
        <ele>183</ele>
        <time>2015-05-24T11:16:58.000Z</time>
      </trkpt>
      <trkpt lat="48.76122" lon="1.76886">
        <ele>183</ele>
        <time>2015-05-24T11:17:07.000Z</time>
      </trkpt>
      <trkpt lat="48.76111" lon="1.76888">
        <ele>183</ele>
        <time>2015-05-24T11:17:15.000Z</time>
      </trkpt>
      <trkpt lat="48.76095" lon="1.76894">
        <ele>183</ele>
        <time>2015-05-24T11:17:24.000Z</time>
      </trkpt>
      <trkpt lat="48.7608" lon="1.76902">
        <ele>183</ele>
        <time>2015-05-24T11:17:33.000Z</time>
      </trkpt>
      <trkpt lat="48.76068" lon="1.76906">
        <ele>183</ele>
        <time>2015-05-24T11:17:41.000Z</time>
      </trkpt>
      <trkpt lat="48.76066" lon="1.76906">
        <ele>183</ele>
        <time>2015-05-24T11:17:42.000Z</time>
      </trkpt>
      <trkpt lat="48.76058" lon="1.76908">
        <ele>183</ele>
        <time>2015-05-24T11:17:47.000Z</time>
      </trkpt>
      <trkpt lat="48.76044" lon="1.76909">
        <ele>183</ele>
        <time>2015-05-24T11:17:56.000Z</time>
      </trkpt>
      <trkpt lat="48.76033" lon="1.76915">
        <ele>183</ele>
        <time>2015-05-24T11:18:03.000Z</time>
      </trkpt>
      <trkpt lat="48.76024" lon="1.76916">
        <ele>183</ele>
        <time>2015-05-24T11:18:09.000Z</time>
      </trkpt>
      <trkpt lat="48.76012" lon="1.76913">
        <ele>183</ele>
        <time>2015-05-24T11:18:18.000Z</time>
      </trkpt>
      <trkpt lat="48.76001" lon="1.76916">
        <ele>183</ele>
        <time>2015-05-24T11:18:25.000Z</time>
      </trkpt>
      <trkpt lat="48.75991" lon="1.76921">
        <ele>183</ele>
        <time>2015-05-24T11:18:32.000Z</time>
      </trkpt>
      <trkpt lat="48.75982" lon="1.7692">
        <ele>183</ele>
        <time>2015-05-24T11:18:38.000Z</time>
      </trkpt>
      <trkpt lat="48.75973" lon="1.76924">
        <ele>183</ele>
        <time>2015-05-24T11:18:43.000Z</time>
      </trkpt>
      <trkpt lat="48.75959" lon="1.7692">
        <ele>183</ele>
        <time>2015-05-24T11:18:51.000Z</time>
      </trkpt>
      <trkpt lat="48.75947" lon="1.76919">
        <ele>183</ele>
        <time>2015-05-24T11:18:59.000Z</time>
      </trkpt>
      <trkpt lat="48.75939" lon="1.76917">
        <ele>183</ele>
        <time>2015-05-24T11:19:04.000Z</time>
      </trkpt>
      <trkpt lat="48.75929" lon="1.76914">
        <ele>183</ele>
        <time>2015-05-24T11:19:10.000Z</time>
      </trkpt>
      <trkpt lat="48.75921" lon="1.76908">
        <ele>183</ele>
        <time>2015-05-24T11:19:16.000Z</time>
      </trkpt>
      <trkpt lat="48.7591" lon="1.76906">
        <ele>183</ele>
        <time>2015-05-24T11:19:23.000Z</time>
      </trkpt>
      <trkpt lat="48.75899" lon="1.76904">
        <ele>183</ele>
        <time>2015-05-24T11:19:30.000Z</time>
      </trkpt>
      <trkpt lat="48.75887" lon="1.769">
        <ele>183</ele>
        <time>2015-05-24T11:19:38.000Z</time>
      </trkpt>
      <trkpt lat="48.75875" lon="1.76895">
        <ele>183</ele>
        <time>2015-05-24T11:19:46.000Z</time>
      </trkpt>
      <trkpt lat="48.75862" lon="1.76888">
        <ele>183</ele>
        <time>2015-05-24T11:19:54.000Z</time>
      </trkpt>
      <trkpt lat="48.7585" lon="1.76885">
        <ele>183</ele>
        <time>2015-05-24T11:20:01.000Z</time>
      </trkpt>
      <trkpt lat="48.75837" lon="1.76879">
        <ele>183</ele>
        <time>2015-05-24T11:20:09.000Z</time>
      </trkpt>
      <trkpt lat="48.75827" lon="1.76876">
        <ele>183</ele>
        <time>2015-05-24T11:20:16.000Z</time>
      </trkpt>
      <trkpt lat="48.75812" lon="1.76873">
        <ele>183</ele>
        <time>2015-05-24T11:20:25.000Z</time>
      </trkpt>
      <trkpt lat="48.75798" lon="1.7687">
        <ele>183</ele>
        <time>2015-05-24T11:20:33.000Z</time>
      </trkpt>
      <trkpt lat="48.75783" lon="1.76864">
        <ele>183</ele>
        <time>2015-05-24T11:20:42.000Z</time>
      </trkpt>
      <trkpt lat="48.75781" lon="1.76864">
        <ele>183</ele>
        <time>2015-05-24T11:20:43.000Z</time>
      </trkpt>
      <trkpt lat="48.75773" lon="1.76863">
        <ele>183</ele>
        <time>2015-05-24T11:20:48.000Z</time>
      </trkpt>
      <trkpt lat="48.75767" lon="1.76859">
        <ele>183</ele>
        <time>2015-05-24T11:20:53.000Z</time>
      </trkpt>
      <trkpt lat="48.75759" lon="1.76858">
        <ele>183</ele>
        <time>2015-05-24T11:20:59.000Z</time>
      </trkpt>
      <trkpt lat="48.7575" lon="1.76851">
        <ele>183</ele>
        <time>2015-05-24T11:21:06.000Z</time>
      </trkpt>
      <trkpt lat="48.75746" lon="1.7685">
        <ele>183</ele>
        <time>2015-05-24T11:21:09.000Z</time>
      </trkpt>
      <trkpt lat="48.75732" lon="1.76843">
        <ele>183</ele>
        <time>2015-05-24T11:21:18.000Z</time>
      </trkpt>
      <trkpt lat="48.75728" lon="1.76842">
        <ele>183</ele>
        <time>2015-05-24T11:21:22.000Z</time>
      </trkpt>
      <trkpt lat="48.75726" lon="1.76843">
        <ele>183</ele>
        <time>2015-05-24T11:21:26.000Z</time>
      </trkpt>
      <trkpt lat="48.75718" lon="1.76842">
        <ele>183</ele>
        <time>2015-05-24T11:21:41.000Z</time>
      </trkpt>
      <trkpt lat="48.75717" lon="1.76844">
        <ele>183</ele>
        <time>2015-05-24T11:21:44.000Z</time>
      </trkpt>
      <trkpt lat="48.75702" lon="1.76839">
        <ele>183</ele>
        <time>2015-05-24T11:22:19.000Z</time>
      </trkpt>
      <trkpt lat="48.7569" lon="1.76838">
        <ele>183</ele>
        <time>2015-05-24T11:22:26.000Z</time>
      </trkpt>
      <trkpt lat="48.75679" lon="1.76837">
        <ele>183</ele>
        <time>2015-05-24T11:22:33.000Z</time>
      </trkpt>
      <trkpt lat="48.7567" lon="1.76831">
        <ele>183</ele>
        <time>2015-05-24T11:22:39.000Z</time>
      </trkpt>
      <trkpt lat="48.75661" lon="1.76827">
        <ele>183</ele>
        <time>2015-05-24T11:22:45.000Z</time>
      </trkpt>
      <trkpt lat="48.75649" lon="1.76822">
        <ele>183</ele>
        <time>2015-05-24T11:22:50.000Z</time>
      </trkpt>
      <trkpt lat="48.7564" lon="1.7682">
        <ele>183</ele>
        <time>2015-05-24T11:22:54.000Z</time>
      </trkpt>
      <trkpt lat="48.75634" lon="1.76819">
        <ele>183</ele>
        <time>2015-05-24T11:22:58.000Z</time>
      </trkpt>
      <trkpt lat="48.75622" lon="1.76813">
        <ele>183</ele>
        <time>2015-05-24T11:23:05.000Z</time>
      </trkpt>
      <trkpt lat="48.75614" lon="1.76812">
        <ele>183</ele>
        <time>2015-05-24T11:23:09.000Z</time>
      </trkpt>
      <trkpt lat="48.75608" lon="1.76812">
        <ele>183</ele>
        <time>2015-05-24T11:23:13.000Z</time>
      </trkpt>
      <trkpt lat="48.75595" lon="1.76808">
        <ele>183</ele>
        <time>2015-05-24T11:23:22.000Z</time>
      </trkpt>
      <trkpt lat="48.75586" lon="1.76804">
        <ele>183</ele>
        <time>2015-05-24T11:23:27.000Z</time>
      </trkpt>
      <trkpt lat="48.75577" lon="1.76797">
        <ele>183</ele>
        <time>2015-05-24T11:23:31.000Z</time>
      </trkpt>
      <trkpt lat="48.7557" lon="1.76789">
        <ele>183</ele>
        <time>2015-05-24T11:23:36.000Z</time>
      </trkpt>
      <trkpt lat="48.75568" lon="1.76786">
        <ele>183</ele>
        <time>2015-05-24T11:23:38.000Z</time>
      </trkpt>
      <trkpt lat="48.7556" lon="1.76784">
        <ele>183</ele>
        <time>2015-05-24T11:23:44.000Z</time>
      </trkpt>
      <trkpt lat="48.75551" lon="1.76784">
        <ele>183</ele>
        <time>2015-05-24T11:23:50.000Z</time>
      </trkpt>
      <trkpt lat="48.7555" lon="1.76784">
        <ele>183</ele>
        <time>2015-05-24T11:23:51.000Z</time>
      </trkpt>
      <trkpt lat="48.75542" lon="1.76784">
        <ele>183</ele>
        <time>2015-05-24T11:23:55.000Z</time>
      </trkpt>
      <trkpt lat="48.75528" lon="1.76784">
        <ele>183</ele>
        <time>2015-05-24T11:24:03.000Z</time>
      </trkpt>
      <trkpt lat="48.75519" lon="1.76783">
        <ele>183</ele>
        <time>2015-05-24T11:24:09.000Z</time>
      </trkpt>
      <trkpt lat="48.75519" lon="1.76782">
        <ele>183</ele>
        <time>2015-05-24T11:24:11.000Z</time>
      </trkpt>
      <trkpt lat="48.75514" lon="1.76781">
        <ele>183</ele>
        <time>2015-05-24T11:24:24.000Z</time>
      </trkpt>
      <trkpt lat="48.75505" lon="1.76781">
        <ele>183</ele>
        <time>2015-05-24T11:24:28.000Z</time>
      </trkpt>
      <trkpt lat="48.75494" lon="1.76779">
        <ele>183</ele>
        <time>2015-05-24T11:24:34.000Z</time>
      </trkpt>
      <trkpt lat="48.75481" lon="1.76775">
        <ele>183</ele>
        <time>2015-05-24T11:24:42.000Z</time>
      </trkpt>
      <trkpt lat="48.75471" lon="1.76772">
        <ele>183</ele>
        <time>2015-05-24T11:24:49.000Z</time>
      </trkpt>
      <trkpt lat="48.75463" lon="1.76766">
        <ele>183</ele>
        <time>2015-05-24T11:24:55.000Z</time>
      </trkpt>
      <trkpt lat="48.75453" lon="1.76762">
        <ele>183</ele>
        <time>2015-05-24T11:25:02.000Z</time>
      </trkpt>
      <trkpt lat="48.75442" lon="1.76762">
        <ele>183</ele>
        <time>2015-05-24T11:25:09.000Z</time>
      </trkpt>
      <trkpt lat="48.75434" lon="1.7676">
        <ele>183</ele>
        <time>2015-05-24T11:25:14.000Z</time>
      </trkpt>
      <trkpt lat="48.75427" lon="1.76756">
        <ele>183</ele>
        <time>2015-05-24T11:25:19.000Z</time>
      </trkpt>
      <trkpt lat="48.75417" lon="1.76753">
        <ele>183</ele>
        <time>2015-05-24T11:25:25.000Z</time>
      </trkpt>
      <trkpt lat="48.75408" lon="1.76748">
        <ele>183</ele>
        <time>2015-05-24T11:25:31.000Z</time>
      </trkpt>
      <trkpt lat="48.75405" lon="1.76745">
        <ele>183</ele>
        <time>2015-05-24T11:25:33.000Z</time>
      </trkpt>
      <trkpt lat="48.75397" lon="1.76743">
        <ele>183</ele>
        <time>2015-05-24T11:25:38.000Z</time>
      </trkpt>
      <trkpt lat="48.75391" lon="1.76742">
        <ele>183</ele>
        <time>2015-05-24T11:25:43.000Z</time>
      </trkpt>
      <trkpt lat="48.75378" lon="1.76741">
        <ele>183</ele>
        <time>2015-05-24T11:25:51.000Z</time>
      </trkpt>
      <trkpt lat="48.75367" lon="1.7674">
        <ele>183</ele>
        <time>2015-05-24T11:25:58.000Z</time>
      </trkpt>
      <trkpt lat="48.7535" lon="1.76732">
        <ele>183</ele>
        <time>2015-05-24T11:26:04.000Z</time>
      </trkpt>
      <trkpt lat="48.75339" lon="1.76729">
        <ele>183</ele>
        <time>2015-05-24T11:26:09.000Z</time>
      </trkpt>
      <trkpt lat="48.75332" lon="1.76725">
        <ele>183</ele>
        <time>2015-05-24T11:26:14.000Z</time>
      </trkpt>
      <trkpt lat="48.75327" lon="1.76721">
        <ele>183</ele>
        <time>2015-05-24T11:26:18.000Z</time>
      </trkpt>
      <trkpt lat="48.75319" lon="1.76717">
        <ele>183</ele>
        <time>2015-05-24T11:26:25.000Z</time>
      </trkpt>
      <trkpt lat="48.75316" lon="1.76715">
        <ele>183</ele>
        <time>2015-05-24T11:26:28.000Z</time>
      </trkpt>
      <trkpt lat="48.75309" lon="1.76713">
        <ele>183</ele>
        <time>2015-05-24T11:26:33.000Z</time>
      </trkpt>
      <trkpt lat="48.75307" lon="1.76712">
        <ele>183</ele>
        <time>2015-05-24T11:26:35.000Z</time>
      </trkpt>
      <trkpt lat="48.75302" lon="1.7671">
        <ele>183</ele>
        <time>2015-05-24T11:26:38.000Z</time>
      </trkpt>
      <trkpt lat="48.75296" lon="1.7671">
        <ele>183</ele>
        <time>2015-05-24T11:26:46.000Z</time>
      </trkpt>
      <trkpt lat="48.75291" lon="1.76712">
        <ele>183</ele>
        <time>2015-05-24T11:26:50.000Z</time>
      </trkpt>
      <trkpt lat="48.75287" lon="1.76714">
        <ele>183</ele>
        <time>2015-05-24T11:26:55.000Z</time>
      </trkpt>
      <trkpt lat="48.75282" lon="1.76712">
        <ele>183</ele>
        <time>2015-05-24T11:27:22.000Z</time>
      </trkpt>
      <trkpt lat="48.75276" lon="1.76711">
        <ele>183</ele>
        <time>2015-05-24T11:27:25.000Z</time>
      </trkpt>
      <trkpt lat="48.75264" lon="1.76706">
        <ele>183</ele>
        <time>2015-05-24T11:27:33.000Z</time>
      </trkpt>
      <trkpt lat="48.75254" lon="1.76705">
        <ele>183</ele>
        <time>2015-05-24T11:27:39.000Z</time>
      </trkpt>
      <trkpt lat="48.75244" lon="1.76702">
        <ele>183</ele>
        <time>2015-05-24T11:27:45.000Z</time>
      </trkpt>
      <trkpt lat="48.75233" lon="1.76697">
        <ele>183</ele>
        <time>2015-05-24T11:27:52.000Z</time>
      </trkpt>
      <trkpt lat="48.75227" lon="1.76695">
        <ele>183</ele>
        <time>2015-05-24T11:27:56.000Z</time>
      </trkpt>
      <trkpt lat="48.75219" lon="1.76695">
        <ele>183</ele>
        <time>2015-05-24T11:28:03.000Z</time>
      </trkpt>
      <trkpt lat="48.75219" lon="1.76695">
        <ele>183</ele>
        <time>2015-05-24T11:28:04.000Z</time>
      </trkpt>
      <trkpt lat="48.75212" lon="1.76693">
        <ele>183</ele>
        <time>2015-05-24T11:28:22.000Z</time>
      </trkpt>
      <trkpt lat="48.75209" lon="1.76687">
        <ele>183</ele>
        <time>2015-05-24T11:28:26.000Z</time>
      </trkpt>
      <trkpt lat="48.75204" lon="1.76682">
        <ele>183</ele>
        <time>2015-05-24T11:28:31.000Z</time>
      </trkpt>
      <trkpt lat="48.75202" lon="1.76678">
        <ele>183</ele>
        <time>2015-05-24T11:28:33.000Z</time>
      </trkpt>
      <trkpt lat="48.75189" lon="1.76678">
        <ele>183</ele>
        <time>2015-05-24T11:28:39.000Z</time>
      </trkpt>
      <trkpt lat="48.75173" lon="1.7668">
        <ele>183</ele>
        <time>2015-05-24T11:28:47.000Z</time>
      </trkpt>
      <trkpt lat="48.75159" lon="1.76683">
        <ele>183</ele>
        <time>2015-05-24T11:28:55.000Z</time>
      </trkpt>
      <trkpt lat="48.75147" lon="1.76687">
        <ele>183</ele>
        <time>2015-05-24T11:29:03.000Z</time>
      </trkpt>
      <trkpt lat="48.75145" lon="1.76686">
        <ele>183</ele>
        <time>2015-05-24T11:29:04.000Z</time>
      </trkpt>
      <trkpt lat="48.75135" lon="1.76686">
        <ele>182.9</ele>
        <time>2015-05-24T11:29:11.000Z</time>
      </trkpt>
      <trkpt lat="48.75125" lon="1.7668">
        <ele>182.8</ele>
        <time>2015-05-24T11:29:17.000Z</time>
      </trkpt>
      <trkpt lat="48.75115" lon="1.76673">
        <ele>182.8</ele>
        <time>2015-05-24T11:29:23.000Z</time>
      </trkpt>
      <trkpt lat="48.75104" lon="1.76669">
        <ele>182.7</ele>
        <time>2015-05-24T11:29:30.000Z</time>
      </trkpt>
      <trkpt lat="48.75095" lon="1.76666">
        <ele>182.4</ele>
        <time>2015-05-24T11:29:36.000Z</time>
      </trkpt>
      <trkpt lat="48.75093" lon="1.76665">
        <ele>182.4</ele>
        <time>2015-05-24T11:29:38.000Z</time>
      </trkpt>
      <trkpt lat="48.75086" lon="1.7666">
        <ele>182.3</ele>
        <time>2015-05-24T11:29:43.000Z</time>
      </trkpt>
      <trkpt lat="48.75079" lon="1.76657">
        <ele>182.5</ele>
        <time>2015-05-24T11:29:49.000Z</time>
      </trkpt>
      <trkpt lat="48.75076" lon="1.76657">
        <ele>182.5</ele>
        <time>2015-05-24T11:29:51.000Z</time>
      </trkpt>
      <trkpt lat="48.75066" lon="1.76654">
        <ele>182.8</ele>
        <time>2015-05-24T11:29:58.000Z</time>
      </trkpt>
      <trkpt lat="48.75058" lon="1.76642">
        <ele>183</ele>
        <time>2015-05-24T11:30:03.000Z</time>
      </trkpt>
      <trkpt lat="48.75044" lon="1.76637">
        <ele>183</ele>
        <time>2015-05-24T11:30:09.000Z</time>
      </trkpt>
      <trkpt lat="48.7503" lon="1.76637">
        <ele>183</ele>
        <time>2015-05-24T11:30:15.000Z</time>
      </trkpt>
      <trkpt lat="48.75011" lon="1.7663">
        <ele>183</ele>
        <time>2015-05-24T11:30:20.000Z</time>
      </trkpt>
      <trkpt lat="48.74995" lon="1.76623">
        <ele>183</ele>
        <time>2015-05-24T11:30:25.000Z</time>
      </trkpt>
      <trkpt lat="48.74985" lon="1.76617">
        <ele>183</ele>
        <time>2015-05-24T11:30:27.000Z</time>
      </trkpt>
      <trkpt lat="48.74963" lon="1.76606">
        <ele>183</ele>
        <time>2015-05-24T11:30:32.000Z</time>
      </trkpt>
      <trkpt lat="48.74959" lon="1.76604">
        <ele>183</ele>
        <time>2015-05-24T11:30:33.000Z</time>
      </trkpt>
      <trkpt lat="48.74942" lon="1.76595">
        <ele>183</ele>
        <time>2015-05-24T11:30:36.000Z</time>
      </trkpt>
      <trkpt lat="48.74927" lon="1.76592">
        <ele>183</ele>
        <time>2015-05-24T11:30:39.000Z</time>
      </trkpt>
      <trkpt lat="48.74909" lon="1.76589">
        <ele>183</ele>
        <time>2015-05-24T11:30:43.000Z</time>
      </trkpt>
      <trkpt lat="48.74888" lon="1.76581">
        <ele>183</ele>
        <time>2015-05-24T11:30:47.000Z</time>
      </trkpt>
      <trkpt lat="48.74867" lon="1.76574">
        <ele>182.2</ele>
        <time>2015-05-24T11:30:52.000Z</time>
      </trkpt>
      <trkpt lat="48.74844" lon="1.76571">
        <ele>182</ele>
        <time>2015-05-24T11:30:57.000Z</time>
      </trkpt>
      <trkpt lat="48.74825" lon="1.76565">
        <ele>182</ele>
        <time>2015-05-24T11:31:01.000Z</time>
      </trkpt>
      <trkpt lat="48.74795" lon="1.76556">
        <ele>182</ele>
        <time>2015-05-24T11:31:07.000Z</time>
      </trkpt>
      <trkpt lat="48.7477" lon="1.76547">
        <ele>182</ele>
        <time>2015-05-24T11:31:12.000Z</time>
      </trkpt>
      <trkpt lat="48.7475" lon="1.76541">
        <ele>182</ele>
        <time>2015-05-24T11:31:16.000Z</time>
      </trkpt>
      <trkpt lat="48.74728" lon="1.76538">
        <ele>181.5</ele>
        <time>2015-05-24T11:31:20.000Z</time>
      </trkpt>
      <trkpt lat="48.74716" lon="1.76533">
        <ele>181.2</ele>
        <time>2015-05-24T11:31:22.000Z</time>
      </trkpt>
      <trkpt lat="48.74686" lon="1.76518">
        <ele>181</ele>
        <time>2015-05-24T11:31:28.000Z</time>
      </trkpt>
      <trkpt lat="48.74675" lon="1.76514">
        <ele>181</ele>
        <time>2015-05-24T11:31:30.000Z</time>
      </trkpt>
      <trkpt lat="48.7465" lon="1.76506">
        <ele>181</ele>
        <time>2015-05-24T11:31:35.000Z</time>
      </trkpt>
      <trkpt lat="48.74627" lon="1.76497">
        <ele>180.6</ele>
        <time>2015-05-24T11:31:41.000Z</time>
      </trkpt>
      <trkpt lat="48.7462" lon="1.7649">
        <ele>180.3</ele>
        <time>2015-05-24T11:31:46.000Z</time>
      </trkpt>
      <trkpt lat="48.74613" lon="1.7649">
        <ele>180.1</ele>
        <time>2015-05-24T11:31:51.000Z</time>
      </trkpt>
      <trkpt lat="48.74609" lon="1.76487">
        <ele>180</ele>
        <time>2015-05-24T11:31:54.000Z</time>
      </trkpt>
      <trkpt lat="48.74598" lon="1.76488">
        <ele>179.8</ele>
        <time>2015-05-24T11:32:00.000Z</time>
      </trkpt>
      <trkpt lat="48.74595" lon="1.76488">
        <ele>179.8</ele>
        <time>2015-05-24T11:32:01.000Z</time>
      </trkpt>
      <trkpt lat="48.74585" lon="1.76489">
        <ele>179.6</ele>
        <time>2015-05-24T11:32:07.000Z</time>
      </trkpt>
      <trkpt lat="48.74584" lon="1.76488">
        <ele>179.6</ele>
        <time>2015-05-24T11:32:08.000Z</time>
      </trkpt>
      <trkpt lat="48.74579" lon="1.76483">
        <ele>179.3</ele>
        <time>2015-05-24T11:32:11.000Z</time>
      </trkpt>
      <trkpt lat="48.7457" lon="1.76476">
        <ele>178.7</ele>
        <time>2015-05-24T11:32:16.000Z</time>
      </trkpt>
      <trkpt lat="48.74562" lon="1.76472">
        <ele>178.2</ele>
        <time>2015-05-24T11:32:20.000Z</time>
      </trkpt>
      <trkpt lat="48.74555" lon="1.76472">
        <ele>178</ele>
        <time>2015-05-24T11:32:25.000Z</time>
      </trkpt>
      <trkpt lat="48.74544" lon="1.76469">
        <ele>177.6</ele>
        <time>2015-05-24T11:32:32.000Z</time>
      </trkpt>
      <trkpt lat="48.74543" lon="1.76469">
        <ele>177.5</ele>
        <time>2015-05-24T11:32:33.000Z</time>
      </trkpt>
      <trkpt lat="48.74533" lon="1.76471">
        <ele>177.8</ele>
        <time>2015-05-24T11:32:38.000Z</time>
      </trkpt>
      <trkpt lat="48.74527" lon="1.76469">
        <ele>177.5</ele>
        <time>2015-05-24T11:32:41.000Z</time>
      </trkpt>
      <trkpt lat="48.74517" lon="1.76464">
        <ele>176.3</ele>
        <time>2015-05-24T11:32:48.000Z</time>
      </trkpt>
      <trkpt lat="48.74508" lon="1.76457">
        <ele>174.9</ele>
        <time>2015-05-24T11:32:57.000Z</time>
      </trkpt>
      <trkpt lat="48.74506" lon="1.76456">
        <ele>174.7</ele>
        <time>2015-05-24T11:32:59.000Z</time>
      </trkpt>
      <trkpt lat="48.74501" lon="1.76455">
        <ele>174.5</ele>
        <time>2015-05-24T11:33:05.000Z</time>
      </trkpt>
      <trkpt lat="48.74495" lon="1.76454">
        <ele>173.7</ele>
        <time>2015-05-24T11:33:14.000Z</time>
      </trkpt>
      <trkpt lat="48.74487" lon="1.76453">
        <ele>172.6</ele>
        <time>2015-05-24T11:33:18.000Z</time>
      </trkpt>
      <trkpt lat="48.74475" lon="1.7645">
        <ele>170.8</ele>
        <time>2015-05-24T11:33:26.000Z</time>
      </trkpt>
      <trkpt lat="48.74469" lon="1.76445">
        <ele>169.4</ele>
        <time>2015-05-24T11:33:32.000Z</time>
      </trkpt>
      <trkpt lat="48.74467" lon="1.76444">
        <ele>169.1</ele>
        <time>2015-05-24T11:33:33.000Z</time>
      </trkpt>
      <trkpt lat="48.74462" lon="1.76442">
        <ele>167.9</ele>
        <time>2015-05-24T11:33:37.000Z</time>
      </trkpt>
      <trkpt lat="48.74455" lon="1.76441">
        <ele>166.5</ele>
        <time>2015-05-24T11:33:41.000Z</time>
      </trkpt>
      <trkpt lat="48.74438" lon="1.7644">
        <ele>164.2</ele>
        <time>2015-05-24T11:33:48.000Z</time>
      </trkpt>
      <trkpt lat="48.74426" lon="1.76437">
        <ele>162.9</ele>
        <time>2015-05-24T11:33:53.000Z</time>
      </trkpt>
      <trkpt lat="48.74415" lon="1.76431">
        <ele>161.6</ele>
        <time>2015-05-24T11:33:58.000Z</time>
      </trkpt>
      <trkpt lat="48.74405" lon="1.76425">
        <ele>161.1</ele>
        <time>2015-05-24T11:34:05.000Z</time>
      </trkpt>
      <trkpt lat="48.74396" lon="1.76424">
        <ele>161.2</ele>
        <time>2015-05-24T11:34:12.000Z</time>
      </trkpt>
      <trkpt lat="48.74387" lon="1.76423">
        <ele>161.2</ele>
        <time>2015-05-24T11:34:18.000Z</time>
      </trkpt>
      <trkpt lat="48.74378" lon="1.76423">
        <ele>161.2</ele>
        <time>2015-05-24T11:34:23.000Z</time>
      </trkpt>
      <trkpt lat="48.74365" lon="1.76421">
        <ele>161.1</ele>
        <time>2015-05-24T11:34:31.000Z</time>
      </trkpt>
      <trkpt lat="48.74356" lon="1.76416">
        <ele>160.9</ele>
        <time>2015-05-24T11:34:37.000Z</time>
      </trkpt>
      <trkpt lat="48.74351" lon="1.76415">
        <ele>160.9</ele>
        <time>2015-05-24T11:34:41.000Z</time>
      </trkpt>
      <trkpt lat="48.7434" lon="1.7641">
        <ele>160.3</ele>
        <time>2015-05-24T11:34:50.000Z</time>
      </trkpt>
      <trkpt lat="48.74331" lon="1.76406">
        <ele>159.5</ele>
        <time>2015-05-24T11:34:56.000Z</time>
      </trkpt>
      <trkpt lat="48.74325" lon="1.76403">
        <ele>158.4</ele>
        <time>2015-05-24T11:35:00.000Z</time>
      </trkpt>
      <trkpt lat="48.7432" lon="1.76404">
        <ele>157.9</ele>
        <time>2015-05-24T11:35:03.000Z</time>
      </trkpt>
      <trkpt lat="48.74318" lon="1.76403">
        <ele>157.5</ele>
        <time>2015-05-24T11:35:05.000Z</time>
      </trkpt>
      <trkpt lat="48.74311" lon="1.76401">
        <ele>156.5</ele>
        <time>2015-05-24T11:35:10.000Z</time>
      </trkpt>
      <trkpt lat="48.7431" lon="1.764">
        <ele>156.3</ele>
        <time>2015-05-24T11:35:11.000Z</time>
      </trkpt>
      <trkpt lat="48.74307" lon="1.76398">
        <ele>155.8</ele>
        <time>2015-05-24T11:35:13.000Z</time>
      </trkpt>
      <trkpt lat="48.74293" lon="1.76395">
        <ele>153.3</ele>
        <time>2015-05-24T11:35:21.000Z</time>
      </trkpt>
      <trkpt lat="48.74282" lon="1.76393">
        <ele>151</ele>
        <time>2015-05-24T11:35:28.000Z</time>
      </trkpt>
      <trkpt lat="48.74271" lon="1.76388">
        <ele>149.5</ele>
        <time>2015-05-24T11:35:33.000Z</time>
      </trkpt>
      <trkpt lat="48.74257" lon="1.76386">
        <ele>148.5</ele>
        <time>2015-05-24T11:35:37.000Z</time>
      </trkpt>
      <trkpt lat="48.74249" lon="1.76389">
        <ele>148</ele>
        <time>2015-05-24T11:35:41.000Z</time>
      </trkpt>
      <trkpt lat="48.74247" lon="1.76389">
        <ele>148.1</ele>
        <time>2015-05-24T11:35:44.000Z</time>
      </trkpt>
      <trkpt lat="48.74246" lon="1.76388">
        <ele>148.1</ele>
        <time>2015-05-24T11:35:47.000Z</time>
      </trkpt>
      <trkpt lat="48.74244" lon="1.76387">
        <ele>148.2</ele>
        <time>2015-05-24T11:35:48.000Z</time>
      </trkpt>
      <trkpt lat="48.74236" lon="1.76385">
        <ele>148.6</ele>
        <time>2015-05-24T11:35:53.000Z</time>
      </trkpt>
      <trkpt lat="48.74229" lon="1.76382">
        <ele>148.9</ele>
        <time>2015-05-24T11:35:57.000Z</time>
      </trkpt>
      <trkpt lat="48.74227" lon="1.76382">
        <ele>149</ele>
        <time>2015-05-24T11:35:58.000Z</time>
      </trkpt>
      <trkpt lat="48.74213" lon="1.76379">
        <ele>150.1</ele>
        <time>2015-05-24T11:36:04.000Z</time>
      </trkpt>
      <trkpt lat="48.74207" lon="1.76374">
        <ele>150.9</ele>
        <time>2015-05-24T11:36:08.000Z</time>
      </trkpt>
      <trkpt lat="48.74212" lon="1.76374">
        <ele>150.5</ele>
        <time>2015-05-24T11:36:16.000Z</time>
      </trkpt>
      <trkpt lat="48.74216" lon="1.76377">
        <ele>150</ele>
        <time>2015-05-24T11:36:20.000Z</time>
      </trkpt>
      <trkpt lat="48.74219" lon="1.7638">
        <ele>149.6</ele>
        <time>2015-05-24T11:36:26.000Z</time>
      </trkpt>
      <trkpt lat="48.74207" lon="1.76374">
        <ele>150.9</ele>
        <time>2015-05-24T11:36:32.000Z</time>
      </trkpt>
      <trkpt lat="48.74197" lon="1.76367">
        <ele>152.3</ele>
        <time>2015-05-24T11:36:37.000Z</time>
      </trkpt>
      <trkpt lat="48.74189" lon="1.76366">
        <ele>153.7</ele>
        <time>2015-05-24T11:36:42.000Z</time>
      </trkpt>
      <trkpt lat="48.74177" lon="1.76365">
        <ele>155.9</ele>
        <time>2015-05-24T11:36:50.000Z</time>
      </trkpt>
      <trkpt lat="48.74169" lon="1.76366">
        <ele>157.3</ele>
        <time>2015-05-24T11:36:55.000Z</time>
      </trkpt>
      <trkpt lat="48.74158" lon="1.76369">
        <ele>159</ele>
        <time>2015-05-24T11:37:01.000Z</time>
      </trkpt>
      <trkpt lat="48.74149" lon="1.76368">
        <ele>160.9</ele>
        <time>2015-05-24T11:37:08.000Z</time>
      </trkpt>
      <trkpt lat="48.7414" lon="1.76361">
        <ele>162.9</ele>
        <time>2015-05-24T11:37:16.000Z</time>
      </trkpt>
      <trkpt lat="48.74127" lon="1.76362">
        <ele>164.2</ele>
        <time>2015-05-24T11:37:24.000Z</time>
      </trkpt>
      <trkpt lat="48.74124" lon="1.76364">
        <ele>164.4</ele>
        <time>2015-05-24T11:37:26.000Z</time>
      </trkpt>
      <trkpt lat="48.74119" lon="1.76363">
        <ele>165.1</ele>
        <time>2015-05-24T11:37:31.000Z</time>
      </trkpt>
      <trkpt lat="48.74113" lon="1.76362">
        <ele>165.8</ele>
        <time>2015-05-24T11:37:36.000Z</time>
      </trkpt>
      <trkpt lat="48.741" lon="1.76359">
        <ele>166.9</ele>
        <time>2015-05-24T11:37:45.000Z</time>
      </trkpt>
      <trkpt lat="48.74095" lon="1.7636">
        <ele>167.2</ele>
        <time>2015-05-24T11:37:48.000Z</time>
      </trkpt>
      <trkpt lat="48.74086" lon="1.76361">
        <ele>167.8</ele>
        <time>2015-05-24T11:37:52.000Z</time>
      </trkpt>
      <trkpt lat="48.74078" lon="1.76361">
        <ele>168.4</ele>
        <time>2015-05-24T11:37:56.000Z</time>
      </trkpt>
      <trkpt lat="48.74064" lon="1.76361">
        <ele>169.4</ele>
        <time>2015-05-24T11:38:06.000Z</time>
      </trkpt>
      <trkpt lat="48.74051" lon="1.76362">
        <ele>170.1</ele>
        <time>2015-05-24T11:38:15.000Z</time>
      </trkpt>
      <trkpt lat="48.74039" lon="1.76368">
        <ele>170.4</ele>
        <time>2015-05-24T11:38:23.000Z</time>
      </trkpt>
      <trkpt lat="48.74031" lon="1.76367">
        <ele>170.7</ele>
        <time>2015-05-24T11:38:30.000Z</time>
      </trkpt>
      <trkpt lat="48.74031" lon="1.76367">
        <ele>170.7</ele>
        <time>2015-05-24T11:38:32.000Z</time>
      </trkpt>
      <trkpt lat="48.74022" lon="1.76372">
        <ele>171</ele>
        <time>2015-05-24T11:38:55.000Z</time>
      </trkpt>
      <trkpt lat="48.7402" lon="1.76372">
        <ele>171.1</ele>
        <time>2015-05-24T11:38:56.000Z</time>
      </trkpt>
      <trkpt lat="48.74013" lon="1.76372">
        <ele>171.7</ele>
        <time>2015-05-24T11:39:00.000Z</time>
      </trkpt>
      <trkpt lat="48.74001" lon="1.76375">
        <ele>172.5</ele>
        <time>2015-05-24T11:39:08.000Z</time>
      </trkpt>
      <trkpt lat="48.73989" lon="1.76378">
        <ele>172.8</ele>
        <time>2015-05-24T11:39:15.000Z</time>
      </trkpt>
      <trkpt lat="48.73979" lon="1.76378">
        <ele>173.2</ele>
        <time>2015-05-24T11:39:22.000Z</time>
      </trkpt>
      <trkpt lat="48.73967" lon="1.7638">
        <ele>173.5</ele>
        <time>2015-05-24T11:39:30.000Z</time>
      </trkpt>
      <trkpt lat="48.73964" lon="1.76381">
        <ele>173.6</ele>
        <time>2015-05-24T11:39:32.000Z</time>
      </trkpt>
      <trkpt lat="48.73954" lon="1.76377">
        <ele>174.1</ele>
        <time>2015-05-24T11:39:40.000Z</time>
      </trkpt>
      <trkpt lat="48.73947" lon="1.76377">
        <ele>174.3</ele>
        <time>2015-05-24T11:39:45.000Z</time>
      </trkpt>
      <trkpt lat="48.73934" lon="1.76379">
        <ele>174.7</ele>
        <time>2015-05-24T11:39:54.000Z</time>
      </trkpt>
      <trkpt lat="48.73927" lon="1.76379">
        <ele>175</ele>
        <time>2015-05-24T11:40:00.000Z</time>
      </trkpt>
      <trkpt lat="48.73917" lon="1.76382">
        <ele>175.3</ele>
        <time>2015-05-24T11:40:07.000Z</time>
      </trkpt>
      <trkpt lat="48.7391" lon="1.7638">
        <ele>175.5</ele>
        <time>2015-05-24T11:40:12.000Z</time>
      </trkpt>
      <trkpt lat="48.73904" lon="1.76381">
        <ele>175.6</ele>
        <time>2015-05-24T11:40:16.000Z</time>
      </trkpt>
      <trkpt lat="48.73893" lon="1.76382">
        <ele>175.9</ele>
        <time>2015-05-24T11:40:23.000Z</time>
      </trkpt>
      <trkpt lat="48.73884" lon="1.76382">
        <ele>176</ele>
        <time>2015-05-24T11:40:30.000Z</time>
      </trkpt>
      <trkpt lat="48.73874" lon="1.76385">
        <ele>176.1</ele>
        <time>2015-05-24T11:40:37.000Z</time>
      </trkpt>
      <trkpt lat="48.73868" lon="1.76387">
        <ele>176</ele>
        <time>2015-05-24T11:40:41.000Z</time>
      </trkpt>
      <trkpt lat="48.73862" lon="1.76389">
        <ele>176</ele>
        <time>2015-05-24T11:40:46.000Z</time>
      </trkpt>
      <trkpt lat="48.73847" lon="1.76391">
        <ele>176.6</ele>
        <time>2015-05-24T11:40:55.000Z</time>
      </trkpt>
      <trkpt lat="48.73839" lon="1.76391">
        <ele>176.8</ele>
        <time>2015-05-24T11:41:00.000Z</time>
      </trkpt>
      <trkpt lat="48.73833" lon="1.76391">
        <ele>177</ele>
        <time>2015-05-24T11:41:04.000Z</time>
      </trkpt>
      <trkpt lat="48.73819" lon="1.76399">
        <ele>177.5</ele>
        <time>2015-05-24T11:41:12.000Z</time>
      </trkpt>
      <trkpt lat="48.73807" lon="1.76403">
        <ele>177.9</ele>
        <time>2015-05-24T11:41:20.000Z</time>
      </trkpt>
      <trkpt lat="48.73806" lon="1.76392">
        <ele>178</ele>
        <time>2015-05-24T11:41:26.000Z</time>
      </trkpt>
      <trkpt lat="48.73802" lon="1.7639">
        <ele>178</ele>
        <time>2015-05-24T11:41:33.000Z</time>
      </trkpt>
      <trkpt lat="48.73793" lon="1.76416">
        <ele>178</ele>
        <time>2015-05-24T11:42:55.000Z</time>
      </trkpt>
      <trkpt lat="48.73786" lon="1.76427">
        <ele>178</ele>
        <time>2015-05-24T11:43:02.000Z</time>
      </trkpt>
      <trkpt lat="48.7378" lon="1.76437">
        <ele>178</ele>
        <time>2015-05-24T11:43:08.000Z</time>
      </trkpt>
      <trkpt lat="48.73771" lon="1.7645">
        <ele>178</ele>
        <time>2015-05-24T11:43:17.000Z</time>
      </trkpt>
      <trkpt lat="48.73764" lon="1.76462">
        <ele>178</ele>
        <time>2015-05-24T11:43:23.000Z</time>
      </trkpt>
      <trkpt lat="48.73754" lon="1.76476">
        <ele>178</ele>
        <time>2015-05-24T11:43:30.000Z</time>
      </trkpt>
      <trkpt lat="48.73753" lon="1.7648">
        <ele>178</ele>
        <time>2015-05-24T11:43:33.000Z</time>
      </trkpt>
      <trkpt lat="48.73747" lon="1.76489">
        <ele>178</ele>
        <time>2015-05-24T11:43:39.000Z</time>
      </trkpt>
      <trkpt lat="48.73743" lon="1.76494">
        <ele>178.1</ele>
        <time>2015-05-24T11:43:42.000Z</time>
      </trkpt>
      <trkpt lat="48.73735" lon="1.76502">
        <ele>178</ele>
        <time>2015-05-24T11:43:48.000Z</time>
      </trkpt>
      <trkpt lat="48.73729" lon="1.76511">
        <ele>178</ele>
        <time>2015-05-24T11:43:55.000Z</time>
      </trkpt>
      <trkpt lat="48.73727" lon="1.76515">
        <ele>178</ele>
        <time>2015-05-24T11:43:58.000Z</time>
      </trkpt>
      <trkpt lat="48.73717" lon="1.76529">
        <ele>178</ele>
        <time>2015-05-24T11:44:06.000Z</time>
      </trkpt>
      <trkpt lat="48.73711" lon="1.76539">
        <ele>178</ele>
        <time>2015-05-24T11:44:11.000Z</time>
      </trkpt>
      <trkpt lat="48.737" lon="1.76555">
        <ele>178</ele>
        <time>2015-05-24T11:44:18.000Z</time>
      </trkpt>
      <trkpt lat="48.73693" lon="1.76567">
        <ele>178</ele>
        <time>2015-05-24T11:44:24.000Z</time>
      </trkpt>
      <trkpt lat="48.73687" lon="1.76576">
        <ele>178</ele>
        <time>2015-05-24T11:44:30.000Z</time>
      </trkpt>
      <trkpt lat="48.73684" lon="1.76581">
        <ele>178</ele>
        <time>2015-05-24T11:44:37.000Z</time>
      </trkpt>
      <trkpt lat="48.73681" lon="1.76588">
        <ele>178</ele>
        <time>2015-05-24T11:44:42.000Z</time>
      </trkpt>
      <trkpt lat="48.73672" lon="1.76601">
        <ele>178</ele>
        <time>2015-05-24T11:44:48.000Z</time>
      </trkpt>
      <trkpt lat="48.73669" lon="1.76606">
        <ele>178</ele>
        <time>2015-05-24T11:44:50.000Z</time>
      </trkpt>
      <trkpt lat="48.73656" lon="1.76619">
        <ele>178</ele>
        <time>2015-05-24T11:44:57.000Z</time>
      </trkpt>
      <trkpt lat="48.73649" lon="1.76631">
        <ele>178</ele>
        <time>2015-05-24T11:45:01.000Z</time>
      </trkpt>
      <trkpt lat="48.73634" lon="1.76636">
        <ele>178</ele>
        <time>2015-05-24T11:45:06.000Z</time>
      </trkpt>
      <trkpt lat="48.73623" lon="1.76649">
        <ele>178</ele>
        <time>2015-05-24T11:45:09.000Z</time>
      </trkpt>
      <trkpt lat="48.73609" lon="1.76674">
        <ele>178</ele>
        <time>2015-05-24T11:45:13.000Z</time>
      </trkpt>
      <trkpt lat="48.73602" lon="1.76688">
        <ele>178</ele>
        <time>2015-05-24T11:45:15.000Z</time>
      </trkpt>
      <trkpt lat="48.73582" lon="1.7672">
        <ele>178</ele>
        <time>2015-05-24T11:45:20.000Z</time>
      </trkpt>
      <trkpt lat="48.73563" lon="1.76757">
        <ele>178</ele>
        <time>2015-05-24T11:45:25.000Z</time>
      </trkpt>
      <trkpt lat="48.73541" lon="1.76793">
        <ele>178</ele>
        <time>2015-05-24T11:45:30.000Z</time>
      </trkpt>
      <trkpt lat="48.73529" lon="1.7681">
        <ele>178</ele>
        <time>2015-05-24T11:45:33.000Z</time>
      </trkpt>
      <trkpt lat="48.7352" lon="1.76822">
        <ele>178</ele>
        <time>2015-05-24T11:45:35.000Z</time>
      </trkpt>
      <trkpt lat="48.73509" lon="1.76836">
        <ele>178</ele>
        <time>2015-05-24T11:45:38.000Z</time>
      </trkpt>
      <trkpt lat="48.73501" lon="1.76848">
        <ele>178</ele>
        <time>2015-05-24T11:45:40.000Z</time>
      </trkpt>
      <trkpt lat="48.73494" lon="1.76858">
        <ele>178</ele>
        <time>2015-05-24T11:45:42.000Z</time>
      </trkpt>
      <trkpt lat="48.73476" lon="1.76885">
        <ele>178</ele>
        <time>2015-05-24T11:45:47.000Z</time>
      </trkpt>
      <trkpt lat="48.73474" lon="1.7689">
        <ele>178</ele>
        <time>2015-05-24T11:45:48.000Z</time>
      </trkpt>
      <trkpt lat="48.7346" lon="1.76915">
        <ele>178</ele>
        <time>2015-05-24T11:45:52.000Z</time>
      </trkpt>
      <trkpt lat="48.73454" lon="1.76924">
        <ele>178</ele>
        <time>2015-05-24T11:45:55.000Z</time>
      </trkpt>
      <trkpt lat="48.73447" lon="1.76932">
        <ele>178</ele>
        <time>2015-05-24T11:46:02.000Z</time>
      </trkpt>
      <trkpt lat="48.73441" lon="1.7694">
        <ele>178</ele>
        <time>2015-05-24T11:46:09.000Z</time>
      </trkpt>
      <trkpt lat="48.73436" lon="1.76949">
        <ele>178</ele>
        <time>2015-05-24T11:46:14.000Z</time>
      </trkpt>
      <trkpt lat="48.7343" lon="1.76958">
        <ele>178</ele>
        <time>2015-05-24T11:46:21.000Z</time>
      </trkpt>
      <trkpt lat="48.73428" lon="1.76962">
        <ele>178</ele>
        <time>2015-05-24T11:46:27.000Z</time>
      </trkpt>
      <trkpt lat="48.73425" lon="1.76971">
        <ele>178</ele>
        <time>2015-05-24T11:46:37.000Z</time>
      </trkpt>
      <trkpt lat="48.73422" lon="1.76978">
        <ele>178</ele>
        <time>2015-05-24T11:46:47.000Z</time>
      </trkpt>
      <trkpt lat="48.73417" lon="1.7699">
        <ele>178</ele>
        <time>2015-05-24T11:47:03.000Z</time>
      </trkpt>
      <trkpt lat="48.73416" lon="1.76994">
        <ele>178</ele>
        <time>2015-05-24T11:47:04.000Z</time>
      </trkpt>
      <trkpt lat="48.73411" lon="1.77007">
        <ele>178.1</ele>
        <time>2015-05-24T11:47:12.000Z</time>
      </trkpt>
      <trkpt lat="48.73412" lon="1.77013">
        <ele>178.1</ele>
        <time>2015-05-24T11:47:18.000Z</time>
      </trkpt>
      <trkpt lat="48.73412" lon="1.77014">
        <ele>178.1</ele>
        <time>2015-05-24T11:47:19.000Z</time>
      </trkpt>
      <trkpt lat="48.73405" lon="1.77022">
        <ele>178.3</ele>
        <time>2015-05-24T11:47:23.000Z</time>
      </trkpt>
      <trkpt lat="48.73399" lon="1.77039">
        <ele>178.4</ele>
        <time>2015-05-24T11:47:32.000Z</time>
      </trkpt>
      <trkpt lat="48.73399" lon="1.77048">
        <ele>178.2</ele>
        <time>2015-05-24T11:47:37.000Z</time>
      </trkpt>
      <trkpt lat="48.734" lon="1.77055">
        <ele>178</ele>
        <time>2015-05-24T11:47:41.000Z</time>
      </trkpt>
      <trkpt lat="48.73392" lon="1.77065">
        <ele>178</ele>
        <time>2015-05-24T11:47:48.000Z</time>
      </trkpt>
      <trkpt lat="48.73392" lon="1.77069">
        <ele>178</ele>
        <time>2015-05-24T11:47:51.000Z</time>
      </trkpt>
      <trkpt lat="48.73396" lon="1.77076">
        <ele>178</ele>
        <time>2015-05-24T11:47:57.000Z</time>
      </trkpt>
      <trkpt lat="48.73395" lon="1.77082">
        <ele>178</ele>
        <time>2015-05-24T11:47:59.000Z</time>
      </trkpt>
      <trkpt lat="48.73383" lon="1.77096">
        <ele>178.1</ele>
        <time>2015-05-24T11:48:05.000Z</time>
      </trkpt>
      <trkpt lat="48.73376" lon="1.77106">
        <ele>178.1</ele>
        <time>2015-05-24T11:48:12.000Z</time>
      </trkpt>
      <trkpt lat="48.73371" lon="1.77111">
        <ele>178</ele>
        <time>2015-05-24T11:48:16.000Z</time>
      </trkpt>
      <trkpt lat="48.73368" lon="1.7712">
        <ele>178.3</ele>
        <time>2015-05-24T11:48:23.000Z</time>
      </trkpt>
      <trkpt lat="48.73369" lon="1.77127">
        <ele>178.4</ele>
        <time>2015-05-24T11:48:30.000Z</time>
      </trkpt>
      <trkpt lat="48.73366" lon="1.77132">
        <ele>178.6</ele>
        <time>2015-05-24T11:48:39.000Z</time>
      </trkpt>
      <trkpt lat="48.7337" lon="1.77135">
        <ele>178.6</ele>
        <time>2015-05-24T11:48:44.000Z</time>
      </trkpt>
      <trkpt lat="48.73367" lon="1.77142">
        <ele>178.7</ele>
        <time>2015-05-24T11:48:48.000Z</time>
      </trkpt>
      <trkpt lat="48.73362" lon="1.7715">
        <ele>178.6</ele>
        <time>2015-05-24T11:48:52.000Z</time>
      </trkpt>
      <trkpt lat="48.73359" lon="1.77155">
        <ele>178.5</ele>
        <time>2015-05-24T11:48:55.000Z</time>
      </trkpt>
      <trkpt lat="48.73354" lon="1.77163">
        <ele>178.4</ele>
        <time>2015-05-24T11:48:59.000Z</time>
      </trkpt>
      <trkpt lat="48.73347" lon="1.77172">
        <ele>178.4</ele>
        <time>2015-05-24T11:49:04.000Z</time>
      </trkpt>
      <trkpt lat="48.73342" lon="1.77179">
        <ele>178.4</ele>
        <time>2015-05-24T11:49:08.000Z</time>
      </trkpt>
      <trkpt lat="48.73335" lon="1.77196">
        <ele>178.1</ele>
        <time>2015-05-24T11:49:15.000Z</time>
      </trkpt>
      <trkpt lat="48.73333" lon="1.77208">
        <ele>178.5</ele>
        <time>2015-05-24T11:49:20.000Z</time>
      </trkpt>
      <trkpt lat="48.7333" lon="1.77224">
        <ele>179</ele>
        <time>2015-05-24T11:49:27.000Z</time>
      </trkpt>
      <trkpt lat="48.73327" lon="1.77235">
        <ele>178.6</ele>
        <time>2015-05-24T11:49:33.000Z</time>
      </trkpt>
      <trkpt lat="48.73321" lon="1.7725">
        <ele>178.4</ele>
        <time>2015-05-24T11:49:39.000Z</time>
      </trkpt>
      <trkpt lat="48.7332" lon="1.77254">
        <ele>178.5</ele>
        <time>2015-05-24T11:49:42.000Z</time>
      </trkpt>
      <trkpt lat="48.73321" lon="1.77258">
        <ele>178.4</ele>
        <time>2015-05-24T11:49:45.000Z</time>
      </trkpt>
      <trkpt lat="48.73324" lon="1.77266">
        <ele>178.3</ele>
        <time>2015-05-24T11:49:51.000Z</time>
      </trkpt>
      <trkpt lat="48.73323" lon="1.77269">
        <ele>178.4</ele>
        <time>2015-05-24T11:49:52.000Z</time>
      </trkpt>
      <trkpt lat="48.73319" lon="1.77282">
        <ele>178.4</ele>
        <time>2015-05-24T11:49:58.000Z</time>
      </trkpt>
      <trkpt lat="48.73318" lon="1.77285">
        <ele>178.4</ele>
        <time>2015-05-24T11:50:00.000Z</time>
      </trkpt>
      <trkpt lat="48.73315" lon="1.77297">
        <ele>178.2</ele>
        <time>2015-05-24T11:50:04.000Z</time>
      </trkpt>
      <trkpt lat="48.73305" lon="1.77321">
        <ele>178</ele>
        <time>2015-05-24T11:50:10.000Z</time>
      </trkpt>
      <trkpt lat="48.73297" lon="1.77342">
        <ele>178.3</ele>
        <time>2015-05-24T11:50:17.000Z</time>
      </trkpt>
      <trkpt lat="48.73295" lon="1.77351">
        <ele>178.4</ele>
        <time>2015-05-24T11:50:21.000Z</time>
      </trkpt>
      <trkpt lat="48.73294" lon="1.77358">
        <ele>178.4</ele>
        <time>2015-05-24T11:50:25.000Z</time>
      </trkpt>
      <trkpt lat="48.73295" lon="1.77362">
        <ele>178.4</ele>
        <time>2015-05-24T11:50:28.000Z</time>
      </trkpt>
      <trkpt lat="48.73297" lon="1.77369">
        <ele>178.3</ele>
        <time>2015-05-24T11:50:32.000Z</time>
      </trkpt>
      <trkpt lat="48.73295" lon="1.77381">
        <ele>178.4</ele>
        <time>2015-05-24T11:50:37.000Z</time>
      </trkpt>
      <trkpt lat="48.73292" lon="1.77385">
        <ele>178.5</ele>
        <time>2015-05-24T11:50:39.000Z</time>
      </trkpt>
      <trkpt lat="48.73286" lon="1.77399">
        <ele>178.6</ele>
        <time>2015-05-24T11:50:45.000Z</time>
      </trkpt>
      <trkpt lat="48.73286" lon="1.77402">
        <ele>178.5</ele>
        <time>2015-05-24T11:50:46.000Z</time>
      </trkpt>
      <trkpt lat="48.73287" lon="1.77419">
        <ele>178.3</ele>
        <time>2015-05-24T11:50:55.000Z</time>
      </trkpt>
      <trkpt lat="48.73281" lon="1.77437">
        <ele>178</ele>
        <time>2015-05-24T11:51:01.000Z</time>
      </trkpt>
      <trkpt lat="48.73279" lon="1.7745">
        <ele>178</ele>
        <time>2015-05-24T11:51:06.000Z</time>
      </trkpt>
      <trkpt lat="48.73276" lon="1.77461">
        <ele>178.1</ele>
        <time>2015-05-24T11:51:10.000Z</time>
      </trkpt>
      <trkpt lat="48.73277" lon="1.77466">
        <ele>178</ele>
        <time>2015-05-24T11:51:12.000Z</time>
      </trkpt>
      <trkpt lat="48.73278" lon="1.77471">
        <ele>178</ele>
        <time>2015-05-24T11:51:16.000Z</time>
      </trkpt>
      <trkpt lat="48.73275" lon="1.77481">
        <ele>178.1</ele>
        <time>2015-05-24T11:51:20.000Z</time>
      </trkpt>
      <trkpt lat="48.73272" lon="1.77496">
        <ele>178</ele>
        <time>2015-05-24T11:51:26.000Z</time>
      </trkpt>
      <trkpt lat="48.73271" lon="1.77509">
        <ele>178.1</ele>
        <time>2015-05-24T11:51:31.000Z</time>
      </trkpt>
      <trkpt lat="48.7327" lon="1.77523">
        <ele>178.2</ele>
        <time>2015-05-24T11:51:37.000Z</time>
      </trkpt>
      <trkpt lat="48.73266" lon="1.7754">
        <ele>178.2</ele>
        <time>2015-05-24T11:51:44.000Z</time>
      </trkpt>
      <trkpt lat="48.73261" lon="1.77555">
        <ele>178</ele>
        <time>2015-05-24T11:51:50.000Z</time>
      </trkpt>
      <trkpt lat="48.73261" lon="1.77557">
        <ele>178</ele>
        <time>2015-05-24T11:51:51.000Z</time>
      </trkpt>
      <trkpt lat="48.73258" lon="1.77565">
        <ele>178.2</ele>
        <time>2015-05-24T11:51:55.000Z</time>
      </trkpt>
      <trkpt lat="48.73256" lon="1.77575">
        <ele>178.5</ele>
        <time>2015-05-24T11:52:01.000Z</time>
      </trkpt>
      <trkpt lat="48.73256" lon="1.77576">
        <ele>178.6</ele>
        <time>2015-05-24T11:52:03.000Z</time>
      </trkpt>
      <trkpt lat="48.73254" lon="1.77583">
        <ele>178.8</ele>
        <time>2015-05-24T11:52:06.000Z</time>
      </trkpt>
      <trkpt lat="48.73246" lon="1.77604">
        <ele>178.4</ele>
        <time>2015-05-24T11:52:14.000Z</time>
      </trkpt>
      <trkpt lat="48.73245" lon="1.77606">
        <ele>178.3</ele>
        <time>2015-05-24T11:52:15.000Z</time>
      </trkpt>
      <trkpt lat="48.73243" lon="1.77615">
        <ele>178.3</ele>
        <time>2015-05-24T11:52:19.000Z</time>
      </trkpt>
      <trkpt lat="48.73242" lon="1.77628">
        <ele>178.3</ele>
        <time>2015-05-24T11:52:25.000Z</time>
      </trkpt>
      <trkpt lat="48.73245" lon="1.77632">
        <ele>178.2</ele>
        <time>2015-05-24T11:52:29.000Z</time>
      </trkpt>
      <trkpt lat="48.73239" lon="1.77645">
        <ele>178.4</ele>
        <time>2015-05-24T11:52:33.000Z</time>
      </trkpt>
      <trkpt lat="48.73242" lon="1.77659">
        <ele>178.3</ele>
        <time>2015-05-24T11:52:40.000Z</time>
      </trkpt>
      <trkpt lat="48.73243" lon="1.77664">
        <ele>178.3</ele>
        <time>2015-05-24T11:52:42.000Z</time>
      </trkpt>
      <trkpt lat="48.73236" lon="1.77686">
        <ele>178.5</ele>
        <time>2015-05-24T11:52:50.000Z</time>
      </trkpt>
      <trkpt lat="48.73232" lon="1.77693">
        <ele>178.7</ele>
        <time>2015-05-24T11:52:52.000Z</time>
      </trkpt>
      <trkpt lat="48.73231" lon="1.777">
        <ele>178.7</ele>
        <time>2015-05-24T11:52:55.000Z</time>
      </trkpt>
      <trkpt lat="48.7323" lon="1.77715">
        <ele>178.7</ele>
        <time>2015-05-24T11:53:01.000Z</time>
      </trkpt>
      <trkpt lat="48.73229" lon="1.77718">
        <ele>178.8</ele>
        <time>2015-05-24T11:53:02.000Z</time>
      </trkpt>
      <trkpt lat="48.73224" lon="1.77732">
        <ele>178.6</ele>
        <time>2015-05-24T11:53:07.000Z</time>
      </trkpt>
      <trkpt lat="48.73222" lon="1.77741">
        <ele>178.3</ele>
        <time>2015-05-24T11:53:11.000Z</time>
      </trkpt>
      <trkpt lat="48.7322" lon="1.77747">
        <ele>178.1</ele>
        <time>2015-05-24T11:53:14.000Z</time>
      </trkpt>
      <trkpt lat="48.73217" lon="1.77755">
        <ele>178</ele>
        <time>2015-05-24T11:53:18.000Z</time>
      </trkpt>
      <trkpt lat="48.73214" lon="1.77761">
        <ele>178</ele>
        <time>2015-05-24T11:53:21.000Z</time>
      </trkpt>
      <trkpt lat="48.73214" lon="1.77771">
        <ele>178</ele>
        <time>2015-05-24T11:53:26.000Z</time>
      </trkpt>
      <trkpt lat="48.73214" lon="1.77777">
        <ele>178</ele>
        <time>2015-05-24T11:53:29.000Z</time>
      </trkpt>
      <trkpt lat="48.73214" lon="1.77782">
        <ele>178</ele>
        <time>2015-05-24T11:53:32.000Z</time>
      </trkpt>
      <trkpt lat="48.73211" lon="1.77794">
        <ele>178</ele>
        <time>2015-05-24T11:53:36.000Z</time>
      </trkpt>
      <trkpt lat="48.73203" lon="1.77813">
        <ele>178</ele>
        <time>2015-05-24T11:53:43.000Z</time>
      </trkpt>
      <trkpt lat="48.73198" lon="1.77825">
        <ele>178</ele>
        <time>2015-05-24T11:53:48.000Z</time>
      </trkpt>
      <trkpt lat="48.73201" lon="1.77836">
        <ele>178</ele>
        <time>2015-05-24T11:53:53.000Z</time>
      </trkpt>
      <trkpt lat="48.73204" lon="1.77847">
        <ele>178</ele>
        <time>2015-05-24T11:53:58.000Z</time>
      </trkpt>
      <trkpt lat="48.73198" lon="1.77862">
        <ele>178</ele>
        <time>2015-05-24T11:54:04.000Z</time>
      </trkpt>
      <trkpt lat="48.73198" lon="1.77864">
        <ele>178</ele>
        <time>2015-05-24T11:54:05.000Z</time>
      </trkpt>
      <trkpt lat="48.73194" lon="1.77876">
        <ele>178</ele>
        <time>2015-05-24T11:54:10.000Z</time>
      </trkpt>
      <trkpt lat="48.73192" lon="1.77888">
        <ele>178</ele>
        <time>2015-05-24T11:54:16.000Z</time>
      </trkpt>
      <trkpt lat="48.73192" lon="1.77891">
        <ele>178</ele>
        <time>2015-05-24T11:54:18.000Z</time>
      </trkpt>
      <trkpt lat="48.7319" lon="1.77903">
        <ele>178</ele>
        <time>2015-05-24T11:54:23.000Z</time>
      </trkpt>
      <trkpt lat="48.73184" lon="1.77916">
        <ele>178</ele>
        <time>2015-05-24T11:54:28.000Z</time>
      </trkpt>
      <trkpt lat="48.73173" lon="1.77932">
        <ele>178</ele>
        <time>2015-05-24T11:54:34.000Z</time>
      </trkpt>
      <trkpt lat="48.73169" lon="1.77938">
        <ele>178</ele>
        <time>2015-05-24T11:54:37.000Z</time>
      </trkpt>
      <trkpt lat="48.73163" lon="1.77951">
        <ele>178.1</ele>
        <time>2015-05-24T11:54:43.000Z</time>
      </trkpt>
      <trkpt lat="48.73163" lon="1.7796">
        <ele>178.1</ele>
        <time>2015-05-24T11:54:49.000Z</time>
      </trkpt>
      <trkpt lat="48.73155" lon="1.77968">
        <ele>178.1</ele>
        <time>2015-05-24T11:54:56.000Z</time>
      </trkpt>
      <trkpt lat="48.73144" lon="1.77978">
        <ele>178</ele>
        <time>2015-05-24T11:55:03.000Z</time>
      </trkpt>
      <trkpt lat="48.73133" lon="1.77987">
        <ele>178.2</ele>
        <time>2015-05-24T11:55:09.000Z</time>
      </trkpt>
      <trkpt lat="48.7313" lon="1.77987">
        <ele>178.3</ele>
        <time>2015-05-24T11:55:11.000Z</time>
      </trkpt>
      <trkpt lat="48.73119" lon="1.77993">
        <ele>178.7</ele>
        <time>2015-05-24T11:55:19.000Z</time>
      </trkpt>
      <trkpt lat="48.73116" lon="1.78">
        <ele>178.8</ele>
        <time>2015-05-24T11:55:23.000Z</time>
      </trkpt>
      <trkpt lat="48.73112" lon="1.78004">
        <ele>179</ele>
        <time>2015-05-24T11:55:26.000Z</time>
      </trkpt>
      <trkpt lat="48.73099" lon="1.78014">
        <ele>179</ele>
        <time>2015-05-24T11:55:33.000Z</time>
      </trkpt>
      <trkpt lat="48.73097" lon="1.78019">
        <ele>179</ele>
        <time>2015-05-24T11:55:36.000Z</time>
      </trkpt>
      <trkpt lat="48.73097" lon="1.7802">
        <ele>179</ele>
        <time>2015-05-24T11:55:38.000Z</time>
      </trkpt>
      <trkpt lat="48.73087" lon="1.7803">
        <ele>179</ele>
        <time>2015-05-24T11:55:44.000Z</time>
      </trkpt>
      <trkpt lat="48.73078" lon="1.78033">
        <ele>179</ele>
        <time>2015-05-24T11:55:49.000Z</time>
      </trkpt>
      <trkpt lat="48.73071" lon="1.78037">
        <ele>179</ele>
        <time>2015-05-24T11:55:55.000Z</time>
      </trkpt>
      <trkpt lat="48.73063" lon="1.78047">
        <ele>179</ele>
        <time>2015-05-24T11:56:01.000Z</time>
      </trkpt>
      <trkpt lat="48.73061" lon="1.7805">
        <ele>179</ele>
        <time>2015-05-24T11:56:03.000Z</time>
      </trkpt>
      <trkpt lat="48.7306" lon="1.78052">
        <ele>179</ele>
        <time>2015-05-24T11:56:05.000Z</time>
      </trkpt>
      <trkpt lat="48.73054" lon="1.78051">
        <ele>179</ele>
        <time>2015-05-24T11:56:09.000Z</time>
      </trkpt>
      <trkpt lat="48.73049" lon="1.78046">
        <ele>179.2</ele>
        <time>2015-05-24T11:56:13.000Z</time>
      </trkpt>
      <trkpt lat="48.73038" lon="1.78026">
        <ele>179</ele>
        <time>2015-05-24T11:56:21.000Z</time>
      </trkpt>
      <trkpt lat="48.73036" lon="1.78021">
        <ele>179</ele>
        <time>2015-05-24T11:56:27.000Z</time>
      </trkpt>
      <trkpt lat="48.73033" lon="1.7801">
        <ele>179</ele>
        <time>2015-05-24T11:56:32.000Z</time>
      </trkpt>
      <trkpt lat="48.7303" lon="1.78005">
        <ele>179</ele>
        <time>2015-05-24T11:56:34.000Z</time>
      </trkpt>
      <trkpt lat="48.73027" lon="1.78004">
        <ele>179</ele>
        <time>2015-05-24T11:56:36.000Z</time>
      </trkpt>
      <trkpt lat="48.73024" lon="1.78001">
        <ele>179</ele>
        <time>2015-05-24T11:56:40.000Z</time>
      </trkpt>
      <trkpt lat="48.7302" lon="1.77999">
        <ele>179</ele>
        <time>2015-05-24T11:56:46.000Z</time>
      </trkpt>
      <trkpt lat="48.73018" lon="1.77998">
        <ele>179</ele>
        <time>2015-05-24T11:56:51.000Z</time>
      </trkpt>
      <trkpt lat="48.73014" lon="1.77999">
        <ele>179</ele>
        <time>2015-05-24T11:57:03.000Z</time>
      </trkpt>
      <trkpt lat="48.73015" lon="1.77998">
        <ele>179</ele>
        <time>2015-05-24T11:57:06.000Z</time>
      </trkpt>
      <trkpt lat="48.73017" lon="1.77998">
        <ele>179</ele>
        <time>2015-05-24T11:57:08.000Z</time>
      </trkpt>
      <trkpt lat="48.73013" lon="1.77994">
        <ele>179</ele>
        <time>2015-05-24T11:57:15.000Z</time>
      </trkpt>
      <trkpt lat="48.73007" lon="1.77994">
        <ele>179</ele>
        <time>2015-05-24T11:57:18.000Z</time>
      </trkpt>
      <trkpt lat="48.73003" lon="1.77996">
        <ele>179</ele>
        <time>2015-05-24T11:57:23.000Z</time>
      </trkpt>
      <trkpt lat="48.73005" lon="1.77996">
        <ele>179</ele>
        <time>2015-05-24T11:57:30.000Z</time>
      </trkpt>
      <trkpt lat="48.73006" lon="1.77995">
        <ele>179</ele>
        <time>2015-05-24T11:57:33.000Z</time>
      </trkpt>
      <trkpt lat="48.73015" lon="1.77997">
        <ele>179</ele>
        <time>2015-05-24T11:58:07.000Z</time>
      </trkpt>
      <trkpt lat="48.7302" lon="1.77996">
        <ele>179</ele>
        <time>2015-05-24T11:58:12.000Z</time>
      </trkpt>
      <trkpt lat="48.73025" lon="1.77996">
        <ele>179</ele>
        <time>2015-05-24T11:58:16.000Z</time>
      </trkpt>
      <trkpt lat="48.73031" lon="1.77997">
        <ele>179</ele>
        <time>2015-05-24T11:58:21.000Z</time>
      </trkpt>
      <trkpt lat="48.7303" lon="1.77995">
        <ele>179</ele>
        <time>2015-05-24T11:58:22.000Z</time>
      </trkpt>
      <trkpt lat="48.73028" lon="1.77981">
        <ele>179</ele>
        <time>2015-05-24T11:58:28.000Z</time>
      </trkpt>
      <trkpt lat="48.73026" lon="1.77967">
        <ele>179</ele>
        <time>2015-05-24T11:58:35.000Z</time>
      </trkpt>
      <trkpt lat="48.73026" lon="1.77956">
        <ele>179</ele>
        <time>2015-05-24T11:58:39.000Z</time>
      </trkpt>
      <trkpt lat="48.73024" lon="1.77942">
        <ele>179.1</ele>
        <time>2015-05-24T11:58:46.000Z</time>
      </trkpt>
      <trkpt lat="48.73022" lon="1.77931">
        <ele>179.4</ele>
        <time>2015-05-24T11:58:51.000Z</time>
      </trkpt>
      <trkpt lat="48.73021" lon="1.77921">
        <ele>179.6</ele>
        <time>2015-05-24T11:58:56.000Z</time>
      </trkpt>
      <trkpt lat="48.73019" lon="1.77906">
        <ele>179.7</ele>
        <time>2015-05-24T11:59:02.000Z</time>
      </trkpt>
      <trkpt lat="48.73018" lon="1.77902">
        <ele>179.6</ele>
        <time>2015-05-24T11:59:04.000Z</time>
      </trkpt>
      <trkpt lat="48.73017" lon="1.77886">
        <ele>179.5</ele>
        <time>2015-05-24T11:59:10.000Z</time>
      </trkpt>
      <trkpt lat="48.73018" lon="1.77873">
        <ele>179.3</ele>
        <time>2015-05-24T11:59:16.000Z</time>
      </trkpt>
      <trkpt lat="48.73017" lon="1.77871">
        <ele>179.2</ele>
        <time>2015-05-24T11:59:18.000Z</time>
      </trkpt>
      <trkpt lat="48.73013" lon="1.77856">
        <ele>179</ele>
        <time>2015-05-24T11:59:25.000Z</time>
      </trkpt>
      <trkpt lat="48.73012" lon="1.77842">
        <ele>179</ele>
        <time>2015-05-24T11:59:31.000Z</time>
      </trkpt>
      <trkpt lat="48.73009" lon="1.77826">
        <ele>179</ele>
        <time>2015-05-24T11:59:38.000Z</time>
      </trkpt>
      <trkpt lat="48.73009" lon="1.7781">
        <ele>179</ele>
        <time>2015-05-24T11:59:44.000Z</time>
      </trkpt>
      <trkpt lat="48.73005" lon="1.77792">
        <ele>179.1</ele>
        <time>2015-05-24T11:59:51.000Z</time>
      </trkpt>
      <trkpt lat="48.73004" lon="1.77779">
        <ele>179.1</ele>
        <time>2015-05-24T11:59:57.000Z</time>
      </trkpt>
      <trkpt lat="48.73005" lon="1.77777">
        <ele>179.2</ele>
        <time>2015-05-24T11:59:58.000Z</time>
      </trkpt>
      <trkpt lat="48.73005" lon="1.77765">
        <ele>179.1</ele>
        <time>2015-05-24T12:00:03.000Z</time>
      </trkpt>
      <trkpt lat="48.73004" lon="1.77762">
        <ele>179.1</ele>
        <time>2015-05-24T12:00:04.000Z</time>
      </trkpt>
      <trkpt lat="48.73003" lon="1.77748">
        <ele>179.1</ele>
        <time>2015-05-24T12:00:10.000Z</time>
      </trkpt>
      <trkpt lat="48.73" lon="1.77729">
        <ele>179.7</ele>
        <time>2015-05-24T12:00:16.000Z</time>
      </trkpt>
      <trkpt lat="48.72998" lon="1.77714">
        <ele>179.9</ele>
        <time>2015-05-24T12:00:22.000Z</time>
      </trkpt>
      <trkpt lat="48.72997" lon="1.77702">
        <ele>179.9</ele>
        <time>2015-05-24T12:00:28.000Z</time>
      </trkpt>
      <trkpt lat="48.72993" lon="1.77683">
        <ele>179.7</ele>
        <time>2015-05-24T12:00:35.000Z</time>
      </trkpt>
      <trkpt lat="48.72991" lon="1.77673">
        <ele>179.7</ele>
        <time>2015-05-24T12:00:41.000Z</time>
      </trkpt>
      <trkpt lat="48.72989" lon="1.77667">
        <ele>179.6</ele>
        <time>2015-05-24T12:00:47.000Z</time>
      </trkpt>
      <trkpt lat="48.72989" lon="1.77663">
        <ele>179.6</ele>
        <time>2015-05-24T12:00:50.000Z</time>
      </trkpt>
      <trkpt lat="48.7299" lon="1.77649">
        <ele>179.6</ele>
        <time>2015-05-24T12:00:54.000Z</time>
      </trkpt>
      <trkpt lat="48.72988" lon="1.77632">
        <ele>179.4</ele>
        <time>2015-05-24T12:01:00.000Z</time>
      </trkpt>
      <trkpt lat="48.72986" lon="1.77621">
        <ele>179.2</ele>
        <time>2015-05-24T12:01:05.000Z</time>
      </trkpt>
      <trkpt lat="48.72986" lon="1.77615">
        <ele>179.1</ele>
        <time>2015-05-24T12:01:09.000Z</time>
      </trkpt>
      <trkpt lat="48.72985" lon="1.77601">
        <ele>179</ele>
        <time>2015-05-24T12:01:14.000Z</time>
      </trkpt>
      <trkpt lat="48.72985" lon="1.77598">
        <ele>179</ele>
        <time>2015-05-24T12:01:15.000Z</time>
      </trkpt>
      <trkpt lat="48.72984" lon="1.77594">
        <ele>179</ele>
        <time>2015-05-24T12:01:17.000Z</time>
      </trkpt>
      <trkpt lat="48.72982" lon="1.77587">
        <ele>179</ele>
        <time>2015-05-24T12:01:21.000Z</time>
      </trkpt>
      <trkpt lat="48.72977" lon="1.77573">
        <ele>179</ele>
        <time>2015-05-24T12:01:26.000Z</time>
      </trkpt>
      <trkpt lat="48.72975" lon="1.77557">
        <ele>179</ele>
        <time>2015-05-24T12:01:33.000Z</time>
      </trkpt>
      <trkpt lat="48.72974" lon="1.77553">
        <ele>179</ele>
        <time>2015-05-24T12:01:35.000Z</time>
      </trkpt>
      <trkpt lat="48.72972" lon="1.77541">
        <ele>179</ele>
        <time>2015-05-24T12:01:40.000Z</time>
      </trkpt>
      <trkpt lat="48.72967" lon="1.7752">
        <ele>178.9</ele>
        <time>2015-05-24T12:01:48.000Z</time>
      </trkpt>
      <trkpt lat="48.72963" lon="1.77512">
        <ele>178.8</ele>
        <time>2015-05-24T12:01:53.000Z</time>
      </trkpt>
      <trkpt lat="48.72961" lon="1.775">
        <ele>178.6</ele>
        <time>2015-05-24T12:01:59.000Z</time>
      </trkpt>
      <trkpt lat="48.72962" lon="1.77498">
        <ele>178.6</ele>
        <time>2015-05-24T12:02:00.000Z</time>
      </trkpt>
      <trkpt lat="48.72959" lon="1.77484">
        <ele>178.5</ele>
        <time>2015-05-24T12:02:05.000Z</time>
      </trkpt>
      <trkpt lat="48.72955" lon="1.77468">
        <ele>178.4</ele>
        <time>2015-05-24T12:02:11.000Z</time>
      </trkpt>
      <trkpt lat="48.72952" lon="1.77455">
        <ele>178.3</ele>
        <time>2015-05-24T12:02:16.000Z</time>
      </trkpt>
      <trkpt lat="48.7295" lon="1.77444">
        <ele>178.2</ele>
        <time>2015-05-24T12:02:21.000Z</time>
      </trkpt>
      <trkpt lat="48.72946" lon="1.77435">
        <ele>178</ele>
        <time>2015-05-24T12:02:26.000Z</time>
      </trkpt>
      <trkpt lat="48.72946" lon="1.7743">
        <ele>178</ele>
        <time>2015-05-24T12:02:33.000Z</time>
      </trkpt>
      <trkpt lat="48.72948" lon="1.77421">
        <ele>178</ele>
        <time>2015-05-24T12:02:38.000Z</time>
      </trkpt>
      <trkpt lat="48.72948" lon="1.77419">
        <ele>178</ele>
        <time>2015-05-24T12:02:39.000Z</time>
      </trkpt>
      <trkpt lat="48.72944" lon="1.77412">
        <ele>178</ele>
        <time>2015-05-24T12:02:43.000Z</time>
      </trkpt>
      <trkpt lat="48.72939" lon="1.774">
        <ele>178</ele>
        <time>2015-05-24T12:02:50.000Z</time>
      </trkpt>
      <trkpt lat="48.72938" lon="1.77389">
        <ele>178</ele>
        <time>2015-05-24T12:02:56.000Z</time>
      </trkpt>
      <trkpt lat="48.72937" lon="1.77387">
        <ele>178</ele>
        <time>2015-05-24T12:02:58.000Z</time>
      </trkpt>
      <trkpt lat="48.72928" lon="1.77382">
        <ele>178</ele>
        <time>2015-05-24T12:03:04.000Z</time>
      </trkpt>
      <trkpt lat="48.72924" lon="1.77368">
        <ele>178</ele>
        <time>2015-05-24T12:03:11.000Z</time>
      </trkpt>
      <trkpt lat="48.72925" lon="1.77361">
        <ele>178</ele>
        <time>2015-05-24T12:03:16.000Z</time>
      </trkpt>
      <trkpt lat="48.72926" lon="1.7736">
        <ele>178</ele>
        <time>2015-05-24T12:03:17.000Z</time>
      </trkpt>
      <trkpt lat="48.72927" lon="1.77352">
        <ele>178</ele>
        <time>2015-05-24T12:03:22.000Z</time>
      </trkpt>
      <trkpt lat="48.72928" lon="1.77349">
        <ele>178</ele>
        <time>2015-05-24T12:03:24.000Z</time>
      </trkpt>
      <trkpt lat="48.72929" lon="1.7734">
        <ele>178</ele>
        <time>2015-05-24T12:03:30.000Z</time>
      </trkpt>
      <trkpt lat="48.72928" lon="1.77337">
        <ele>178</ele>
        <time>2015-05-24T12:03:31.000Z</time>
      </trkpt>
      <trkpt lat="48.72921" lon="1.77324">
        <ele>178</ele>
        <time>2015-05-24T12:03:38.000Z</time>
      </trkpt>
      <trkpt lat="48.72917" lon="1.77314">
        <ele>178</ele>
        <time>2015-05-24T12:03:43.000Z</time>
      </trkpt>
      <trkpt lat="48.72914" lon="1.77305">
        <ele>177.9</ele>
        <time>2015-05-24T12:03:48.000Z</time>
      </trkpt>
      <trkpt lat="48.72913" lon="1.77291">
        <ele>177.9</ele>
        <time>2015-05-24T12:03:54.000Z</time>
      </trkpt>
      <trkpt lat="48.7291" lon="1.77286">
        <ele>177.8</ele>
        <time>2015-05-24T12:03:56.000Z</time>
      </trkpt>
      <trkpt lat="48.72904" lon="1.7728">
        <ele>177.5</ele>
        <time>2015-05-24T12:04:01.000Z</time>
      </trkpt>
      <trkpt lat="48.72897" lon="1.77268">
        <ele>177.3</ele>
        <time>2015-05-24T12:04:06.000Z</time>
      </trkpt>
      <trkpt lat="48.72892" lon="1.77258">
        <ele>177.1</ele>
        <time>2015-05-24T12:04:12.000Z</time>
      </trkpt>
      <trkpt lat="48.72893" lon="1.77256">
        <ele>177.1</ele>
        <time>2015-05-24T12:04:13.000Z</time>
      </trkpt>
      <trkpt lat="48.72887" lon="1.77248">
        <ele>177</ele>
        <time>2015-05-24T12:04:19.000Z</time>
      </trkpt>
      <trkpt lat="48.72879" lon="1.77234">
        <ele>176.8</ele>
        <time>2015-05-24T12:04:25.000Z</time>
      </trkpt>
      <trkpt lat="48.72878" lon="1.77227">
        <ele>176.7</ele>
        <time>2015-05-24T12:04:30.000Z</time>
      </trkpt>
      <trkpt lat="48.72882" lon="1.77232">
        <ele>176.8</ele>
        <time>2015-05-24T12:04:36.000Z</time>
      </trkpt>
      <trkpt lat="48.72884" lon="1.77241">
        <ele>176.9</ele>
        <time>2015-05-24T12:04:42.000Z</time>
      </trkpt>
      <trkpt lat="48.72888" lon="1.7725">
        <ele>177</ele>
        <time>2015-05-24T12:04:47.000Z</time>
      </trkpt>
      <trkpt lat="48.72884" lon="1.77269">
        <ele>177</ele>
        <time>2015-05-24T12:04:54.000Z</time>
      </trkpt>
      <trkpt lat="48.7288" lon="1.77283">
        <ele>177</ele>
        <time>2015-05-24T12:04:59.000Z</time>
      </trkpt>
      <trkpt lat="48.7288" lon="1.77285">
        <ele>177</ele>
        <time>2015-05-24T12:05:00.000Z</time>
      </trkpt>
      <trkpt lat="48.72877" lon="1.77299">
        <ele>177</ele>
        <time>2015-05-24T12:05:06.000Z</time>
      </trkpt>
      <trkpt lat="48.72877" lon="1.77301">
        <ele>177</ele>
        <time>2015-05-24T12:05:07.000Z</time>
      </trkpt>
      <trkpt lat="48.72877" lon="1.77303">
        <ele>177</ele>
        <time>2015-05-24T12:05:09.000Z</time>
      </trkpt>
      <trkpt lat="48.72871" lon="1.77321">
        <ele>177.2</ele>
        <time>2015-05-24T12:05:16.000Z</time>
      </trkpt>
      <trkpt lat="48.7287" lon="1.77321">
        <ele>177.2</ele>
        <time>2015-05-24T12:05:18.000Z</time>
      </trkpt>
      <trkpt lat="48.72869" lon="1.77326">
        <ele>177.2</ele>
        <time>2015-05-24T12:05:22.000Z</time>
      </trkpt>
      <trkpt lat="48.72863" lon="1.77346">
        <ele>177.1</ele>
        <time>2015-05-24T12:05:30.000Z</time>
      </trkpt>
      <trkpt lat="48.72857" lon="1.77361">
        <ele>177</ele>
        <time>2015-05-24T12:05:34.000Z</time>
      </trkpt>
      <trkpt lat="48.72854" lon="1.77367">
        <ele>177</ele>
        <time>2015-05-24T12:05:36.000Z</time>
      </trkpt>
      <trkpt lat="48.72853" lon="1.77372">
        <ele>177</ele>
        <time>2015-05-24T12:05:38.000Z</time>
      </trkpt>
      <trkpt lat="48.72856" lon="1.77376">
        <ele>177</ele>
        <time>2015-05-24T12:05:43.000Z</time>
      </trkpt>
      <trkpt lat="48.72849" lon="1.77388">
        <ele>177</ele>
        <time>2015-05-24T12:05:48.000Z</time>
      </trkpt>
      <trkpt lat="48.72838" lon="1.77391">
        <ele>177</ele>
        <time>2015-05-24T12:05:52.000Z</time>
      </trkpt>
      <trkpt lat="48.72826" lon="1.77387">
        <ele>176.8</ele>
        <time>2015-05-24T12:05:58.000Z</time>
      </trkpt>
      <trkpt lat="48.72816" lon="1.77384">
        <ele>176.4</ele>
        <time>2015-05-24T12:06:04.000Z</time>
      </trkpt>
      <trkpt lat="48.72804" lon="1.77384">
        <ele>175.9</ele>
        <time>2015-05-24T12:06:10.000Z</time>
      </trkpt>
      <trkpt lat="48.72796" lon="1.77384">
        <ele>175.7</ele>
        <time>2015-05-24T12:06:14.000Z</time>
      </trkpt>
      <trkpt lat="48.72787" lon="1.77373">
        <ele>175.3</ele>
        <time>2015-05-24T12:06:20.000Z</time>
      </trkpt>
      <trkpt lat="48.72781" lon="1.77375">
        <ele>175.1</ele>
        <time>2015-05-24T12:06:25.000Z</time>
      </trkpt>
      <trkpt lat="48.72779" lon="1.77376">
        <ele>175.1</ele>
        <time>2015-05-24T12:06:26.000Z</time>
      </trkpt>
      <trkpt lat="48.72776" lon="1.77372">
        <ele>175</ele>
        <time>2015-05-24T12:06:31.000Z</time>
      </trkpt>
      <trkpt lat="48.72776" lon="1.77372">
        <ele>175</ele>
        <time>2015-05-24T12:06:32.000Z</time>
      </trkpt>
      <trkpt lat="48.72766" lon="1.77364">
        <ele>175</ele>
        <time>2015-05-24T12:06:47.000Z</time>
      </trkpt>
      <trkpt lat="48.72759" lon="1.77349">
        <ele>174.7</ele>
        <time>2015-05-24T12:06:53.000Z</time>
      </trkpt>
      <trkpt lat="48.72757" lon="1.77348">
        <ele>174.6</ele>
        <time>2015-05-24T12:06:57.000Z</time>
      </trkpt>
      <trkpt lat="48.72749" lon="1.7734">
        <ele>174.2</ele>
        <time>2015-05-24T12:07:02.000Z</time>
      </trkpt>
      <trkpt lat="48.72748" lon="1.77338">
        <ele>174.1</ele>
        <time>2015-05-24T12:07:03.000Z</time>
      </trkpt>
      <trkpt lat="48.72738" lon="1.77328">
        <ele>173.6</ele>
        <time>2015-05-24T12:07:08.000Z</time>
      </trkpt>
      <trkpt lat="48.72728" lon="1.77313">
        <ele>173.2</ele>
        <time>2015-05-24T12:07:14.000Z</time>
      </trkpt>
      <trkpt lat="48.72724" lon="1.77306">
        <ele>173.1</ele>
        <time>2015-05-24T12:07:17.000Z</time>
      </trkpt>
      <trkpt lat="48.7272" lon="1.77298">
        <ele>172.9</ele>
        <time>2015-05-24T12:07:23.000Z</time>
      </trkpt>
      <trkpt lat="48.72716" lon="1.7729">
        <ele>172.8</ele>
        <time>2015-05-24T12:07:28.000Z</time>
      </trkpt>
      <trkpt lat="48.72712" lon="1.77289">
        <ele>172.6</ele>
        <time>2015-05-24T12:07:31.000Z</time>
      </trkpt>
      <trkpt lat="48.72704" lon="1.77275">
        <ele>172.4</ele>
        <time>2015-05-24T12:07:36.000Z</time>
      </trkpt>
      <trkpt lat="48.727" lon="1.77263">
        <ele>172.2</ele>
        <time>2015-05-24T12:07:41.000Z</time>
      </trkpt>
      <trkpt lat="48.72699" lon="1.77259">
        <ele>172.2</ele>
        <time>2015-05-24T12:07:44.000Z</time>
      </trkpt>
      <trkpt lat="48.72696" lon="1.77251">
        <ele>172.1</ele>
        <time>2015-05-24T12:07:49.000Z</time>
      </trkpt>
      <trkpt lat="48.72694" lon="1.77247">
        <ele>172</ele>
        <time>2015-05-24T12:07:51.000Z</time>
      </trkpt>
      <trkpt lat="48.7269" lon="1.77241">
        <ele>171.8</ele>
        <time>2015-05-24T12:07:54.000Z</time>
      </trkpt>
      <trkpt lat="48.72685" lon="1.77232">
        <ele>171.6</ele>
        <time>2015-05-24T12:07:58.000Z</time>
      </trkpt>
      <trkpt lat="48.7268" lon="1.77223">
        <ele>171.5</ele>
        <time>2015-05-24T12:08:03.000Z</time>
      </trkpt>
      <trkpt lat="48.72676" lon="1.77215">
        <ele>171.3</ele>
        <time>2015-05-24T12:08:09.000Z</time>
      </trkpt>
      <trkpt lat="48.7267" lon="1.77204">
        <ele>171.1</ele>
        <time>2015-05-24T12:08:15.000Z</time>
      </trkpt>
      <trkpt lat="48.7267" lon="1.77196">
        <ele>171.1</ele>
        <time>2015-05-24T12:08:20.000Z</time>
      </trkpt>
      <trkpt lat="48.72661" lon="1.77181">
        <ele>170.3</ele>
        <time>2015-05-24T12:08:28.000Z</time>
      </trkpt>
      <trkpt lat="48.72657" lon="1.77169">
        <ele>169.7</ele>
        <time>2015-05-24T12:08:34.000Z</time>
      </trkpt>
      <trkpt lat="48.72656" lon="1.77167">
        <ele>169.6</ele>
        <time>2015-05-24T12:08:35.000Z</time>
      </trkpt>
      <trkpt lat="48.72652" lon="1.77161">
        <ele>169.3</ele>
        <time>2015-05-24T12:08:39.000Z</time>
      </trkpt>
      <trkpt lat="48.72649" lon="1.77152">
        <ele>168.8</ele>
        <time>2015-05-24T12:08:44.000Z</time>
      </trkpt>
      <trkpt lat="48.72647" lon="1.77146">
        <ele>168.5</ele>
        <time>2015-05-24T12:08:49.000Z</time>
      </trkpt>
      <trkpt lat="48.72646" lon="1.77146">
        <ele>168.5</ele>
        <time>2015-05-24T12:08:50.000Z</time>
      </trkpt>
      <trkpt lat="48.72634" lon="1.77141">
        <ele>168</ele>
        <time>2015-05-24T12:08:56.000Z</time>
      </trkpt>
      <trkpt lat="48.72625" lon="1.77134">
        <ele>167.9</ele>
        <time>2015-05-24T12:09:02.000Z</time>
      </trkpt>
      <trkpt lat="48.72624" lon="1.77131">
        <ele>167.9</ele>
        <time>2015-05-24T12:09:03.000Z</time>
      </trkpt>
      <trkpt lat="48.72618" lon="1.77119">
        <ele>167.5</ele>
        <time>2015-05-24T12:09:09.000Z</time>
      </trkpt>
      <trkpt lat="48.72605" lon="1.7711">
        <ele>166.8</ele>
        <time>2015-05-24T12:09:15.000Z</time>
      </trkpt>
      <trkpt lat="48.72599" lon="1.77092">
        <ele>166.9</ele>
        <time>2015-05-24T12:09:21.000Z</time>
      </trkpt>
      <trkpt lat="48.72602" lon="1.77087">
        <ele>167</ele>
        <time>2015-05-24T12:09:25.000Z</time>
      </trkpt>
      <trkpt lat="48.72602" lon="1.77084">
        <ele>167</ele>
        <time>2015-05-24T12:09:27.000Z</time>
      </trkpt>
      <trkpt lat="48.72602" lon="1.77082">
        <ele>167</ele>
        <time>2015-05-24T12:09:29.000Z</time>
      </trkpt>
      <trkpt lat="48.72597" lon="1.77078">
        <ele>167.2</ele>
        <time>2015-05-24T12:09:34.000Z</time>
      </trkpt>
      <trkpt lat="48.72594" lon="1.77078">
        <ele>167.2</ele>
        <time>2015-05-24T12:09:36.000Z</time>
      </trkpt>
      <trkpt lat="48.72587" lon="1.77066">
        <ele>167.6</ele>
        <time>2015-05-24T12:09:42.000Z</time>
      </trkpt>
      <trkpt lat="48.72583" lon="1.77057">
        <ele>168</ele>
        <time>2015-05-24T12:09:47.000Z</time>
      </trkpt>
      <trkpt lat="48.72582" lon="1.77055">
        <ele>168.1</ele>
        <time>2015-05-24T12:09:48.000Z</time>
      </trkpt>
      <trkpt lat="48.72579" lon="1.77045">
        <ele>168.6</ele>
        <time>2015-05-24T12:09:54.000Z</time>
      </trkpt>
      <trkpt lat="48.72579" lon="1.77043">
        <ele>168.6</ele>
        <time>2015-05-24T12:09:55.000Z</time>
      </trkpt>
      <trkpt lat="48.72576" lon="1.77041">
        <ele>168.8</ele>
        <time>2015-05-24T12:09:59.000Z</time>
      </trkpt>
      <trkpt lat="48.72563" lon="1.77026">
        <ele>169.7</ele>
        <time>2015-05-24T12:10:08.000Z</time>
      </trkpt>
      <trkpt lat="48.72556" lon="1.77022">
        <ele>170</ele>
        <time>2015-05-24T12:10:11.000Z</time>
      </trkpt>
      <trkpt lat="48.72548" lon="1.77013">
        <ele>170.1</ele>
        <time>2015-05-24T12:10:18.000Z</time>
      </trkpt>
      <trkpt lat="48.72544" lon="1.7701">
        <ele>170.3</ele>
        <time>2015-05-24T12:10:23.000Z</time>
      </trkpt>
      <trkpt lat="48.72543" lon="1.7701">
        <ele>170.3</ele>
        <time>2015-05-24T12:10:25.000Z</time>
      </trkpt>
      <trkpt lat="48.72537" lon="1.77008">
        <ele>170.5</ele>
        <time>2015-05-24T12:10:34.000Z</time>
      </trkpt>
      <trkpt lat="48.72528" lon="1.76996">
        <ele>171</ele>
        <time>2015-05-24T12:10:39.000Z</time>
      </trkpt>
      <trkpt lat="48.72527" lon="1.76995">
        <ele>171</ele>
        <time>2015-05-24T12:10:40.000Z</time>
      </trkpt>
      <trkpt lat="48.72525" lon="1.76991">
        <ele>171</ele>
        <time>2015-05-24T12:10:42.000Z</time>
      </trkpt>
      <trkpt lat="48.72516" lon="1.76981">
        <ele>171</ele>
        <time>2015-05-24T12:10:49.000Z</time>
      </trkpt>
      <trkpt lat="48.72516" lon="1.76979">
        <ele>171</ele>
        <time>2015-05-24T12:10:50.000Z</time>
      </trkpt>
      <trkpt lat="48.72503" lon="1.76972">
        <ele>171</ele>
        <time>2015-05-24T12:10:56.000Z</time>
      </trkpt>
      <trkpt lat="48.72498" lon="1.76968">
        <ele>170.7</ele>
        <time>2015-05-24T12:10:59.000Z</time>
      </trkpt>
      <trkpt lat="48.72491" lon="1.76968">
        <ele>170.8</ele>
        <time>2015-05-24T12:11:04.000Z</time>
      </trkpt>
      <trkpt lat="48.72482" lon="1.76963">
        <ele>170.5</ele>
        <time>2015-05-24T12:11:10.000Z</time>
      </trkpt>
      <trkpt lat="48.7248" lon="1.7696">
        <ele>170.5</ele>
        <time>2015-05-24T12:11:11.000Z</time>
      </trkpt>
      <trkpt lat="48.72455" lon="1.76943">
        <ele>169.9</ele>
        <time>2015-05-24T12:11:19.000Z</time>
      </trkpt>
      <trkpt lat="48.72441" lon="1.7694">
        <ele>169.8</ele>
        <time>2015-05-24T12:11:23.000Z</time>
      </trkpt>
      <trkpt lat="48.72428" lon="1.76939">
        <ele>169.7</ele>
        <time>2015-05-24T12:11:26.000Z</time>
      </trkpt>
      <trkpt lat="48.72407" lon="1.76932">
        <ele>169.3</ele>
        <time>2015-05-24T12:11:31.000Z</time>
      </trkpt>
      <trkpt lat="48.72394" lon="1.7693">
        <ele>169.4</ele>
        <time>2015-05-24T12:11:34.000Z</time>
      </trkpt>
      <trkpt lat="48.72369" lon="1.76929">
        <ele>169</ele>
        <time>2015-05-24T12:11:39.000Z</time>
      </trkpt>
      <trkpt lat="48.7236" lon="1.76933">
        <ele>169</ele>
        <time>2015-05-24T12:11:41.000Z</time>
      </trkpt>
      <trkpt lat="48.7235" lon="1.7694">
        <ele>168.7</ele>
        <time>2015-05-24T12:11:43.000Z</time>
      </trkpt>
      <trkpt lat="48.72329" lon="1.76956">
        <ele>168.5</ele>
        <time>2015-05-24T12:11:48.000Z</time>
      </trkpt>
      <trkpt lat="48.72305" lon="1.76972">
        <ele>169</ele>
        <time>2015-05-24T12:11:54.000Z</time>
      </trkpt>
      <trkpt lat="48.72284" lon="1.76988">
        <ele>168.2</ele>
        <time>2015-05-24T12:11:59.000Z</time>
      </trkpt>
      <trkpt lat="48.72272" lon="1.77012">
        <ele>169.1</ele>
        <time>2015-05-24T12:12:03.000Z</time>
      </trkpt>
      <trkpt lat="48.72272" lon="1.77043">
        <ele>169.2</ele>
        <time>2015-05-24T12:12:06.000Z</time>
      </trkpt>
      <trkpt lat="48.72267" lon="1.77065">
        <ele>168.6</ele>
        <time>2015-05-24T12:12:09.000Z</time>
      </trkpt>
      <trkpt lat="48.72256" lon="1.77098">
        <ele>167.9</ele>
        <time>2015-05-24T12:12:13.000Z</time>
      </trkpt>
      <trkpt lat="48.72249" lon="1.77122">
        <ele>168.1</ele>
        <time>2015-05-24T12:12:17.000Z</time>
      </trkpt>
      <trkpt lat="48.72238" lon="1.7715">
        <ele>166.7</ele>
        <time>2015-05-24T12:12:23.000Z</time>
      </trkpt>
      <trkpt lat="48.72234" lon="1.77169">
        <ele>167.2</ele>
        <time>2015-05-24T12:12:26.000Z</time>
      </trkpt>
      <trkpt lat="48.72231" lon="1.77192">
        <ele>167.8</ele>
        <time>2015-05-24T12:12:31.000Z</time>
      </trkpt>
      <trkpt lat="48.72231" lon="1.77201">
        <ele>168.2</ele>
        <time>2015-05-24T12:12:33.000Z</time>
      </trkpt>
      <trkpt lat="48.72228" lon="1.77217">
        <ele>168.4</ele>
        <time>2015-05-24T12:12:37.000Z</time>
      </trkpt>
      <trkpt lat="48.7222" lon="1.77239">
        <ele>168.8</ele>
        <time>2015-05-24T12:12:43.000Z</time>
      </trkpt>
      <trkpt lat="48.72216" lon="1.77252">
        <ele>168.6</ele>
        <time>2015-05-24T12:12:47.000Z</time>
      </trkpt>
      <trkpt lat="48.72214" lon="1.77266">
        <ele>168.6</ele>
        <time>2015-05-24T12:12:51.000Z</time>
      </trkpt>
      <trkpt lat="48.7221" lon="1.77283">
        <ele>168.5</ele>
        <time>2015-05-24T12:12:56.000Z</time>
      </trkpt>
      <trkpt lat="48.72209" lon="1.77286">
        <ele>168.6</ele>
        <time>2015-05-24T12:12:57.000Z</time>
      </trkpt>
      <trkpt lat="48.72208" lon="1.77298">
        <ele>169.1</ele>
        <time>2015-05-24T12:13:02.000Z</time>
      </trkpt>
      <trkpt lat="48.72207" lon="1.77302">
        <ele>169.1</ele>
        <time>2015-05-24T12:13:04.000Z</time>
      </trkpt>
      <trkpt lat="48.72202" lon="1.77317">
        <ele>169</ele>
        <time>2015-05-24T12:13:10.000Z</time>
      </trkpt>
      <trkpt lat="48.722" lon="1.77328">
        <ele>169.1</ele>
        <time>2015-05-24T12:13:16.000Z</time>
      </trkpt>
      <trkpt lat="48.72197" lon="1.77335">
        <ele>169.1</ele>
        <time>2015-05-24T12:13:19.000Z</time>
      </trkpt>
      <trkpt lat="48.72195" lon="1.7735">
        <ele>169</ele>
        <time>2015-05-24T12:13:25.000Z</time>
      </trkpt>
      <trkpt lat="48.7219" lon="1.7736">
        <ele>168.1</ele>
        <time>2015-05-24T12:13:29.000Z</time>
      </trkpt>
      <trkpt lat="48.72191" lon="1.77373">
        <ele>168.2</ele>
        <time>2015-05-24T12:13:34.000Z</time>
      </trkpt>
      <trkpt lat="48.72189" lon="1.77391">
        <ele>168</ele>
        <time>2015-05-24T12:13:40.000Z</time>
      </trkpt>
      <trkpt lat="48.7219" lon="1.77395">
        <ele>168.1</ele>
        <time>2015-05-24T12:13:43.000Z</time>
      </trkpt>
      <trkpt lat="48.72191" lon="1.77398">
        <ele>168.3</ele>
        <time>2015-05-24T12:13:45.000Z</time>
      </trkpt>
      <trkpt lat="48.72188" lon="1.77414">
        <ele>167.6</ele>
        <time>2015-05-24T12:13:50.000Z</time>
      </trkpt>
      <trkpt lat="48.72187" lon="1.77417">
        <ele>167.4</ele>
        <time>2015-05-24T12:13:51.000Z</time>
      </trkpt>
      <trkpt lat="48.72186" lon="1.77434">
        <ele>165.7</ele>
        <time>2015-05-24T12:13:56.000Z</time>
      </trkpt>
      <trkpt lat="48.72183" lon="1.77455">
        <ele>164.1</ele>
        <time>2015-05-24T12:14:02.000Z</time>
      </trkpt>
      <trkpt lat="48.72184" lon="1.77462">
        <ele>164.2</ele>
        <time>2015-05-24T12:14:06.000Z</time>
      </trkpt>
      <trkpt lat="48.72178" lon="1.77478">
        <ele>162.6</ele>
        <time>2015-05-24T12:14:12.000Z</time>
      </trkpt>
      <trkpt lat="48.72175" lon="1.77488">
        <ele>161.5</ele>
        <time>2015-05-24T12:14:16.000Z</time>
      </trkpt>
      <trkpt lat="48.72173" lon="1.77498">
        <ele>160.4</ele>
        <time>2015-05-24T12:14:21.000Z</time>
      </trkpt>
      <trkpt lat="48.72173" lon="1.77499">
        <ele>160.4</ele>
        <time>2015-05-24T12:14:22.000Z</time>
      </trkpt>
      <trkpt lat="48.72175" lon="1.77503">
        <ele>160.6</ele>
        <time>2015-05-24T12:14:25.000Z</time>
      </trkpt>
      <trkpt lat="48.72173" lon="1.7752">
        <ele>159.4</ele>
        <time>2015-05-24T12:14:30.000Z</time>
      </trkpt>
      <trkpt lat="48.72172" lon="1.7753">
        <ele>158.5</ele>
        <time>2015-05-24T12:14:33.000Z</time>
      </trkpt>
      <trkpt lat="48.72164" lon="1.77546">
        <ele>155.5</ele>
        <time>2015-05-24T12:14:39.000Z</time>
      </trkpt>
      <trkpt lat="48.72155" lon="1.77558">
        <ele>154</ele>
        <time>2015-05-24T12:14:43.000Z</time>
      </trkpt>
      <trkpt lat="48.72148" lon="1.77568">
        <ele>152.8</ele>
        <time>2015-05-24T12:14:46.000Z</time>
      </trkpt>
      <trkpt lat="48.72139" lon="1.77579">
        <ele>151.3</ele>
        <time>2015-05-24T12:14:51.000Z</time>
      </trkpt>
      <trkpt lat="48.7212" lon="1.77574">
        <ele>150.1</ele>
        <time>2015-05-24T12:14:57.000Z</time>
      </trkpt>
      <trkpt lat="48.72096" lon="1.77551">
        <ele>150.2</ele>
        <time>2015-05-24T12:15:02.000Z</time>
      </trkpt>
      <trkpt lat="48.72091" lon="1.77548">
        <ele>150.3</ele>
        <time>2015-05-24T12:15:03.000Z</time>
      </trkpt>
      <trkpt lat="48.72069" lon="1.77544">
        <ele>150.4</ele>
        <time>2015-05-24T12:15:08.000Z</time>
      </trkpt>
      <trkpt lat="48.72061" lon="1.77545">
        <ele>149.9</ele>
        <time>2015-05-24T12:15:13.000Z</time>
      </trkpt>
      <trkpt lat="48.72061" lon="1.77546">
        <ele>149.9</ele>
        <time>2015-05-24T12:15:15.000Z</time>
      </trkpt>
      <trkpt lat="48.72045" lon="1.77545">
        <ele>149.5</ele>
        <time>2015-05-24T12:15:19.000Z</time>
      </trkpt>
      <trkpt lat="48.72026" lon="1.7754">
        <ele>149.1</ele>
        <time>2015-05-24T12:15:23.000Z</time>
      </trkpt>
      <trkpt lat="48.72014" lon="1.77529">
        <ele>148.5</ele>
        <time>2015-05-24T12:15:26.000Z</time>
      </trkpt>
      <trkpt lat="48.71999" lon="1.7751">
        <ele>147.1</ele>
        <time>2015-05-24T12:15:30.000Z</time>
      </trkpt>
      <trkpt lat="48.71993" lon="1.77499">
        <ele>147.3</ele>
        <time>2015-05-24T12:15:32.000Z</time>
      </trkpt>
      <trkpt lat="48.71988" lon="1.77493">
        <ele>147.6</ele>
        <time>2015-05-24T12:15:34.000Z</time>
      </trkpt>
      <trkpt lat="48.71977" lon="1.77482">
        <ele>147.1</ele>
        <time>2015-05-24T12:15:38.000Z</time>
      </trkpt>
      <trkpt lat="48.71956" lon="1.77451">
        <ele>146.4</ele>
        <time>2015-05-24T12:15:45.000Z</time>
      </trkpt>
      <trkpt lat="48.71944" lon="1.77438">
        <ele>146.8</ele>
        <time>2015-05-24T12:15:49.000Z</time>
      </trkpt>
      <trkpt lat="48.71933" lon="1.77428">
        <ele>146.8</ele>
        <time>2015-05-24T12:15:54.000Z</time>
      </trkpt>
      <trkpt lat="48.7193" lon="1.77425">
        <ele>146.8</ele>
        <time>2015-05-24T12:16:00.000Z</time>
      </trkpt>
      <trkpt lat="48.71927" lon="1.77421">
        <ele>146.8</ele>
        <time>2015-05-24T12:16:04.000Z</time>
      </trkpt>
      <trkpt lat="48.71921" lon="1.77419">
        <ele>146.9</ele>
        <time>2015-05-24T12:16:08.000Z</time>
      </trkpt>
      <trkpt lat="48.71916" lon="1.77418">
        <ele>147.1</ele>
        <time>2015-05-24T12:16:12.000Z</time>
      </trkpt>
      <trkpt lat="48.71905" lon="1.77409">
        <ele>146.8</ele>
        <time>2015-05-24T12:16:18.000Z</time>
      </trkpt>
      <trkpt lat="48.71893" lon="1.774">
        <ele>146.1</ele>
        <time>2015-05-24T12:16:23.000Z</time>
      </trkpt>
      <trkpt lat="48.71888" lon="1.77399">
        <ele>146.1</ele>
        <time>2015-05-24T12:16:26.000Z</time>
      </trkpt>
      <trkpt lat="48.71882" lon="1.77404">
        <ele>146.7</ele>
        <time>2015-05-24T12:16:31.000Z</time>
      </trkpt>
      <trkpt lat="48.71872" lon="1.77411">
        <ele>147.5</ele>
        <time>2015-05-24T12:16:38.000Z</time>
      </trkpt>
      <trkpt lat="48.71863" lon="1.77419">
        <ele>148.3</ele>
        <time>2015-05-24T12:16:43.000Z</time>
      </trkpt>
      <trkpt lat="48.71861" lon="1.77419">
        <ele>148.2</ele>
        <time>2015-05-24T12:16:44.000Z</time>
      </trkpt>
      <trkpt lat="48.71854" lon="1.77426">
        <ele>148.7</ele>
        <time>2015-05-24T12:16:49.000Z</time>
      </trkpt>
      <trkpt lat="48.71842" lon="1.77434">
        <ele>149.1</ele>
        <time>2015-05-24T12:16:56.000Z</time>
      </trkpt>
      <trkpt lat="48.71839" lon="1.77435">
        <ele>149.2</ele>
        <time>2015-05-24T12:16:58.000Z</time>
      </trkpt>
      <trkpt lat="48.71831" lon="1.77439">
        <ele>149.2</ele>
        <time>2015-05-24T12:17:03.000Z</time>
      </trkpt>
      <trkpt lat="48.7182" lon="1.77448">
        <ele>149.5</ele>
        <time>2015-05-24T12:17:10.000Z</time>
      </trkpt>
      <trkpt lat="48.71815" lon="1.77452">
        <ele>149.8</ele>
        <time>2015-05-24T12:17:15.000Z</time>
      </trkpt>
      <trkpt lat="48.71811" lon="1.77454">
        <ele>149.8</ele>
        <time>2015-05-24T12:17:18.000Z</time>
      </trkpt>
      <trkpt lat="48.71805" lon="1.77458">
        <ele>149.9</ele>
        <time>2015-05-24T12:17:23.000Z</time>
      </trkpt>
      <trkpt lat="48.71799" lon="1.77459">
        <ele>149.6</ele>
        <time>2015-05-24T12:17:30.000Z</time>
      </trkpt>
      <trkpt lat="48.71793" lon="1.77461">
        <ele>149.4</ele>
        <time>2015-05-24T12:17:35.000Z</time>
      </trkpt>
      <trkpt lat="48.71792" lon="1.77462">
        <ele>149.5</ele>
        <time>2015-05-24T12:17:39.000Z</time>
      </trkpt>
      <trkpt lat="48.71787" lon="1.77469">
        <ele>149.6</ele>
        <time>2015-05-24T12:17:46.000Z</time>
      </trkpt>
      <trkpt lat="48.71785" lon="1.77471">
        <ele>149.7</ele>
        <time>2015-05-24T12:17:47.000Z</time>
      </trkpt>
      <trkpt lat="48.71768" lon="1.77483">
        <ele>149.5</ele>
        <time>2015-05-24T12:17:54.000Z</time>
      </trkpt>
      <trkpt lat="48.71753" lon="1.77482">
        <ele>148.6</ele>
        <time>2015-05-24T12:18:00.000Z</time>
      </trkpt>
      <trkpt lat="48.71751" lon="1.77481">
        <ele>148.4</ele>
        <time>2015-05-24T12:18:01.000Z</time>
      </trkpt>
      <trkpt lat="48.71744" lon="1.77475">
        <ele>148.3</ele>
        <time>2015-05-24T12:18:05.000Z</time>
      </trkpt>
      <trkpt lat="48.71742" lon="1.77473">
        <ele>148.3</ele>
        <time>2015-05-24T12:18:07.000Z</time>
      </trkpt>
      <trkpt lat="48.71738" lon="1.77473">
        <ele>148.4</ele>
        <time>2015-05-24T12:18:13.000Z</time>
      </trkpt>
      <trkpt lat="48.71738" lon="1.77473">
        <ele>148.5</ele>
        <time>2015-05-24T12:18:14.000Z</time>
      </trkpt>
      <trkpt lat="48.71736" lon="1.77474">
        <ele>148.5</ele>
        <time>2015-05-24T12:18:17.000Z</time>
      </trkpt>
      <trkpt lat="48.71734" lon="1.77481">
        <ele>148.7</ele>
        <time>2015-05-24T12:18:19.000Z</time>
      </trkpt>
      <trkpt lat="48.71731" lon="1.77487">
        <ele>148.8</ele>
        <time>2015-05-24T12:18:24.000Z</time>
      </trkpt>
      <trkpt lat="48.71724" lon="1.77488">
        <ele>149</ele>
        <time>2015-05-24T12:18:28.000Z</time>
      </trkpt>
      <trkpt lat="48.7172" lon="1.77485">
        <ele>149.1</ele>
        <time>2015-05-24T12:18:30.000Z</time>
      </trkpt>
      <trkpt lat="48.71714" lon="1.77482">
        <ele>149.2</ele>
        <time>2015-05-24T12:18:34.000Z</time>
      </trkpt>
      <trkpt lat="48.71702" lon="1.77487">
        <ele>149.8</ele>
        <time>2015-05-24T12:18:41.000Z</time>
      </trkpt>
      <trkpt lat="48.71689" lon="1.77491">
        <ele>150.8</ele>
        <time>2015-05-24T12:18:46.000Z</time>
      </trkpt>
      <trkpt lat="48.71687" lon="1.77491">
        <ele>151</ele>
        <time>2015-05-24T12:18:47.000Z</time>
      </trkpt>
      <trkpt lat="48.71674" lon="1.77489">
        <ele>151.8</ele>
        <time>2015-05-24T12:18:54.000Z</time>
      </trkpt>
      <trkpt lat="48.71673" lon="1.77487">
        <ele>151.7</ele>
        <time>2015-05-24T12:18:55.000Z</time>
      </trkpt>
      <trkpt lat="48.71669" lon="1.77486">
        <ele>151.8</ele>
        <time>2015-05-24T12:18:59.000Z</time>
      </trkpt>
      <trkpt lat="48.71657" lon="1.77481">
        <ele>152.6</ele>
        <time>2015-05-24T12:19:06.000Z</time>
      </trkpt>
      <trkpt lat="48.71655" lon="1.77478">
        <ele>152.4</ele>
        <time>2015-05-24T12:19:07.000Z</time>
      </trkpt>
      <trkpt lat="48.7164" lon="1.77464">
        <ele>152</ele>
        <time>2015-05-24T12:19:14.000Z</time>
      </trkpt>
      <trkpt lat="48.71635" lon="1.77464">
        <ele>152.5</ele>
        <time>2015-05-24T12:19:19.000Z</time>
      </trkpt>
      <trkpt lat="48.71626" lon="1.77467">
        <ele>153.9</ele>
        <time>2015-05-24T12:19:24.000Z</time>
      </trkpt>
      <trkpt lat="48.71622" lon="1.77466">
        <ele>154.3</ele>
        <time>2015-05-24T12:19:28.000Z</time>
      </trkpt>
      <trkpt lat="48.71615" lon="1.77464">
        <ele>154.8</ele>
        <time>2015-05-24T12:19:34.000Z</time>
      </trkpt>
      <trkpt lat="48.71607" lon="1.77466">
        <ele>156</ele>
        <time>2015-05-24T12:19:39.000Z</time>
      </trkpt>
      <trkpt lat="48.71598" lon="1.77464">
        <ele>156.1</ele>
        <time>2015-05-24T12:19:45.000Z</time>
      </trkpt>
      <trkpt lat="48.7159" lon="1.77465">
        <ele>156.7</ele>
        <time>2015-05-24T12:19:50.000Z</time>
      </trkpt>
      <trkpt lat="48.71586" lon="1.77465">
        <ele>157.1</ele>
        <time>2015-05-24T12:19:53.000Z</time>
      </trkpt>
      <trkpt lat="48.71573" lon="1.77464">
        <ele>157.1</ele>
        <time>2015-05-24T12:20:02.000Z</time>
      </trkpt>
      <trkpt lat="48.71566" lon="1.77454">
        <ele>154.9</ele>
        <time>2015-05-24T12:20:07.000Z</time>
      </trkpt>
      <trkpt lat="48.71555" lon="1.77453">
        <ele>154.7</ele>
        <time>2015-05-24T12:20:13.000Z</time>
      </trkpt>
      <trkpt lat="48.71545" lon="1.77456">
        <ele>155.1</ele>
        <time>2015-05-24T12:20:19.000Z</time>
      </trkpt>
      <trkpt lat="48.71538" lon="1.77461">
        <ele>155.9</ele>
        <time>2015-05-24T12:20:23.000Z</time>
      </trkpt>
      <trkpt lat="48.71538" lon="1.77461">
        <ele>155.9</ele>
        <time>2015-05-24T12:20:23.000Z</time>
      </trkpt>
      <trkpt lat="48.71536" lon="1.77463">
        <ele>156.1</ele>
        <time>2015-05-24T12:20:24.000Z</time>
      </trkpt>
      <trkpt lat="48.71526" lon="1.77468">
        <ele>156.3</ele>
        <time>2015-05-24T12:20:30.000Z</time>
      </trkpt>
      <trkpt lat="48.71518" lon="1.77472">
        <ele>156.2</ele>
        <time>2015-05-24T12:20:35.000Z</time>
      </trkpt>
      <trkpt lat="48.71514" lon="1.77464">
        <ele>155.2</ele>
        <time>2015-05-24T12:20:40.000Z</time>
      </trkpt>
      <trkpt lat="48.71514" lon="1.77464">
        <ele>155.1</ele>
        <time>2015-05-24T12:20:53.000Z</time>
      </trkpt>
      <trkpt lat="48.71506" lon="1.77461">
        <ele>154.5</ele>
        <time>2015-05-24T12:21:06.000Z</time>
      </trkpt>
      <trkpt lat="48.71501" lon="1.77466">
        <ele>154.6</ele>
        <time>2015-05-24T12:21:12.000Z</time>
      </trkpt>
      <trkpt lat="48.71499" lon="1.77468">
        <ele>154.7</ele>
        <time>2015-05-24T12:21:17.000Z</time>
      </trkpt>
      <trkpt lat="48.71496" lon="1.77469">
        <ele>154.6</ele>
        <time>2015-05-24T12:21:19.000Z</time>
      </trkpt>
      <trkpt lat="48.71491" lon="1.77475">
        <ele>154.8</ele>
        <time>2015-05-24T12:21:23.000Z</time>
      </trkpt>
      <trkpt lat="48.71487" lon="1.7748">
        <ele>154.9</ele>
        <time>2015-05-24T12:21:26.000Z</time>
      </trkpt>
      <trkpt lat="48.71485" lon="1.77483">
        <ele>155</ele>
        <time>2015-05-24T12:21:28.000Z</time>
      </trkpt>
      <trkpt lat="48.71477" lon="1.77486">
        <ele>154.8</ele>
        <time>2015-05-24T12:21:32.000Z</time>
      </trkpt>
      <trkpt lat="48.71469" lon="1.77483">
        <ele>154.4</ele>
        <time>2015-05-24T12:21:39.000Z</time>
      </trkpt>
      <trkpt lat="48.71465" lon="1.7748">
        <ele>154.3</ele>
        <time>2015-05-24T12:21:46.000Z</time>
      </trkpt>
      <trkpt lat="48.71455" lon="1.77486">
        <ele>154.5</ele>
        <time>2015-05-24T12:21:54.000Z</time>
      </trkpt>
      <trkpt lat="48.71454" lon="1.77486">
        <ele>154.5</ele>
        <time>2015-05-24T12:21:55.000Z</time>
      </trkpt>
      <trkpt lat="48.71458" lon="1.77491">
        <ele>154.7</ele>
        <time>2015-05-24T12:21:59.000Z</time>
      </trkpt>
      <trkpt lat="48.71452" lon="1.7751">
        <ele>155.3</ele>
        <time>2015-05-24T12:22:05.000Z</time>
      </trkpt>
      <trkpt lat="48.71444" lon="1.77524">
        <ele>155.9</ele>
        <time>2015-05-24T12:22:11.000Z</time>
      </trkpt>
      <trkpt lat="48.71438" lon="1.77528">
        <ele>155.8</ele>
        <time>2015-05-24T12:22:16.000Z</time>
      </trkpt>
      <trkpt lat="48.71433" lon="1.77536">
        <ele>155.9</ele>
        <time>2015-05-24T12:22:23.000Z</time>
      </trkpt>
      <trkpt lat="48.71436" lon="1.77536">
        <ele>156</ele>
        <time>2015-05-24T12:22:27.000Z</time>
      </trkpt>
      <trkpt lat="48.71425" lon="1.77558">
        <ele>156.5</ele>
        <time>2015-05-24T12:22:33.000Z</time>
      </trkpt>
      <trkpt lat="48.71423" lon="1.7756">
        <ele>156.5</ele>
        <time>2015-05-24T12:22:34.000Z</time>
      </trkpt>
      <trkpt lat="48.7141" lon="1.77574">
        <ele>157.4</ele>
        <time>2015-05-24T12:22:40.000Z</time>
      </trkpt>
      <trkpt lat="48.71409" lon="1.77577">
        <ele>157.6</ele>
        <time>2015-05-24T12:22:41.000Z</time>
      </trkpt>
      <trkpt lat="48.714" lon="1.77588">
        <ele>158.2</ele>
        <time>2015-05-24T12:22:48.000Z</time>
      </trkpt>
      <trkpt lat="48.71396" lon="1.77592">
        <ele>158.3</ele>
        <time>2015-05-24T12:22:55.000Z</time>
      </trkpt>
      <trkpt lat="48.71396" lon="1.77593">
        <ele>158.3</ele>
        <time>2015-05-24T12:22:56.000Z</time>
      </trkpt>
      <trkpt lat="48.71389" lon="1.776">
        <ele>158.6</ele>
        <time>2015-05-24T12:23:02.000Z</time>
      </trkpt>
      <trkpt lat="48.71389" lon="1.77601">
        <ele>158.6</ele>
        <time>2015-05-24T12:23:03.000Z</time>
      </trkpt>
      <trkpt lat="48.7138" lon="1.77614">
        <ele>159.1</ele>
        <time>2015-05-24T12:23:09.000Z</time>
      </trkpt>
      <trkpt lat="48.71376" lon="1.77617">
        <ele>159.2</ele>
        <time>2015-05-24T12:23:12.000Z</time>
      </trkpt>
      <trkpt lat="48.71371" lon="1.77621">
        <ele>159.4</ele>
        <time>2015-05-24T12:23:17.000Z</time>
      </trkpt>
      <trkpt lat="48.71368" lon="1.77628">
        <ele>159.6</ele>
        <time>2015-05-24T12:23:23.000Z</time>
      </trkpt>
      <trkpt lat="48.71369" lon="1.77629">
        <ele>159.6</ele>
        <time>2015-05-24T12:23:27.000Z</time>
      </trkpt>
      <trkpt lat="48.71361" lon="1.77635">
        <ele>159.9</ele>
        <time>2015-05-24T12:23:33.000Z</time>
      </trkpt>
      <trkpt lat="48.7136" lon="1.77637">
        <ele>159.9</ele>
        <time>2015-05-24T12:23:34.000Z</time>
      </trkpt>
      <trkpt lat="48.71351" lon="1.77646">
        <ele>160.3</ele>
        <time>2015-05-24T12:23:39.000Z</time>
      </trkpt>
      <trkpt lat="48.71351" lon="1.77646">
        <ele>160.3</ele>
        <time>2015-05-24T12:23:41.000Z</time>
      </trkpt>
      <trkpt lat="48.71349" lon="1.77648">
        <ele>160.3</ele>
        <time>2015-05-24T12:23:44.000Z</time>
      </trkpt>
      <trkpt lat="48.71344" lon="1.77654">
        <ele>160.5</ele>
        <time>2015-05-24T12:23:45.000Z</time>
      </trkpt>
      <trkpt lat="48.71339" lon="1.77661">
        <ele>160.8</ele>
        <time>2015-05-24T12:23:48.000Z</time>
      </trkpt>
      <trkpt lat="48.71333" lon="1.77667">
        <ele>161</ele>
        <time>2015-05-24T12:23:52.000Z</time>
      </trkpt>
      <trkpt lat="48.71331" lon="1.77673">
        <ele>160.9</ele>
        <time>2015-05-24T12:23:56.000Z</time>
      </trkpt>
      <trkpt lat="48.71319" lon="1.77689">
        <ele>160.9</ele>
        <time>2015-05-24T12:24:04.000Z</time>
      </trkpt>
      <trkpt lat="48.71318" lon="1.77691">
        <ele>160.9</ele>
        <time>2015-05-24T12:24:06.000Z</time>
      </trkpt>
      <trkpt lat="48.7132" lon="1.77696">
        <ele>161</ele>
        <time>2015-05-24T12:24:11.000Z</time>
      </trkpt>
      <trkpt lat="48.71324" lon="1.77703">
        <ele>161.2</ele>
        <time>2015-05-24T12:24:16.000Z</time>
      </trkpt>
      <trkpt lat="48.71317" lon="1.77707">
        <ele>161.2</ele>
        <time>2015-05-24T12:24:23.000Z</time>
      </trkpt>
      <trkpt lat="48.71309" lon="1.77713">
        <ele>161.1</ele>
        <time>2015-05-24T12:24:26.000Z</time>
      </trkpt>
      <trkpt lat="48.71298" lon="1.77731">
        <ele>161</ele>
        <time>2015-05-24T12:24:32.000Z</time>
      </trkpt>
      <trkpt lat="48.71291" lon="1.77742">
        <ele>161.2</ele>
        <time>2015-05-24T12:24:36.000Z</time>
      </trkpt>
      <trkpt lat="48.71279" lon="1.77752">
        <ele>161.1</ele>
        <time>2015-05-24T12:24:43.000Z</time>
      </trkpt>
      <trkpt lat="48.71272" lon="1.77756">
        <ele>160.9</ele>
        <time>2015-05-24T12:24:46.000Z</time>
      </trkpt>
      <trkpt lat="48.71259" lon="1.77769">
        <ele>160.8</ele>
        <time>2015-05-24T12:24:54.000Z</time>
      </trkpt>
      <trkpt lat="48.71257" lon="1.77788">
        <ele>161.4</ele>
        <time>2015-05-24T12:25:02.000Z</time>
      </trkpt>
      <trkpt lat="48.71257" lon="1.77792">
        <ele>161.5</ele>
        <time>2015-05-24T12:25:04.000Z</time>
      </trkpt>
      <trkpt lat="48.71255" lon="1.77803">
        <ele>161.9</ele>
        <time>2015-05-24T12:25:08.000Z</time>
      </trkpt>
      <trkpt lat="48.71253" lon="1.77814">
        <ele>162</ele>
        <time>2015-05-24T12:25:14.000Z</time>
      </trkpt>
      <trkpt lat="48.71254" lon="1.77816">
        <ele>162</ele>
        <time>2015-05-24T12:25:18.000Z</time>
      </trkpt>
      <trkpt lat="48.71248" lon="1.77811">
        <ele>162</ele>
        <time>2015-05-24T12:25:24.000Z</time>
      </trkpt>
      <trkpt lat="48.71238" lon="1.77809">
        <ele>162</ele>
        <time>2015-05-24T12:25:29.000Z</time>
      </trkpt>
      <trkpt lat="48.71237" lon="1.77808">
        <ele>162.1</ele>
        <time>2015-05-24T12:25:30.000Z</time>
      </trkpt>
      <trkpt lat="48.71226" lon="1.77805">
        <ele>162</ele>
        <time>2015-05-24T12:25:36.000Z</time>
      </trkpt>
      <trkpt lat="48.7122" lon="1.77803">
        <ele>162</ele>
        <time>2015-05-24T12:25:42.000Z</time>
      </trkpt>
      <trkpt lat="48.7122" lon="1.77805">
        <ele>162</ele>
        <time>2015-05-24T12:25:45.000Z</time>
      </trkpt>
      <trkpt lat="48.71224" lon="1.77818">
        <ele>162.4</ele>
        <time>2015-05-24T12:25:50.000Z</time>
      </trkpt>
      <trkpt lat="48.71225" lon="1.77819">
        <ele>162.4</ele>
        <time>2015-05-24T12:25:51.000Z</time>
      </trkpt>
      <trkpt lat="48.71231" lon="1.77834">
        <ele>162.7</ele>
        <time>2015-05-24T12:25:58.000Z</time>
      </trkpt>
      <trkpt lat="48.7123" lon="1.77845">
        <ele>162.8</ele>
        <time>2015-05-24T12:26:02.000Z</time>
      </trkpt>
      <trkpt lat="48.71221" lon="1.77865">
        <ele>163</ele>
        <time>2015-05-24T12:26:08.000Z</time>
      </trkpt>
      <trkpt lat="48.71214" lon="1.77873">
        <ele>163</ele>
        <time>2015-05-24T12:26:14.000Z</time>
      </trkpt>
      <trkpt lat="48.7121" lon="1.77874">
        <ele>163</ele>
        <time>2015-05-24T12:26:18.000Z</time>
      </trkpt>
      <trkpt lat="48.71202" lon="1.77877">
        <ele>163</ele>
        <time>2015-05-24T12:26:25.000Z</time>
      </trkpt>
      <trkpt lat="48.71196" lon="1.77888">
        <ele>163</ele>
        <time>2015-05-24T12:26:31.000Z</time>
      </trkpt>
      <trkpt lat="48.71194" lon="1.7789">
        <ele>163.1</ele>
        <time>2015-05-24T12:26:33.000Z</time>
      </trkpt>
      <trkpt lat="48.71188" lon="1.77897">
        <ele>163.5</ele>
        <time>2015-05-24T12:26:37.000Z</time>
      </trkpt>
      <trkpt lat="48.71181" lon="1.77915">
        <ele>164</ele>
        <time>2015-05-24T12:26:45.000Z</time>
      </trkpt>
      <trkpt lat="48.71175" lon="1.77924">
        <ele>164</ele>
        <time>2015-05-24T12:26:52.000Z</time>
      </trkpt>
      <trkpt lat="48.71167" lon="1.77929">
        <ele>164</ele>
        <time>2015-05-24T12:26:58.000Z</time>
      </trkpt>
      <trkpt lat="48.71158" lon="1.77937">
        <ele>164</ele>
        <time>2015-05-24T12:27:05.000Z</time>
      </trkpt>
      <trkpt lat="48.71152" lon="1.77943">
        <ele>164</ele>
        <time>2015-05-24T12:27:10.000Z</time>
      </trkpt>
      <trkpt lat="48.71145" lon="1.77946">
        <ele>164</ele>
        <time>2015-05-24T12:27:14.000Z</time>
      </trkpt>
      <trkpt lat="48.71141" lon="1.77947">
        <ele>164</ele>
        <time>2015-05-24T12:27:18.000Z</time>
      </trkpt>
      <trkpt lat="48.71134" lon="1.77941">
        <ele>163.2</ele>
        <time>2015-05-24T12:27:25.000Z</time>
      </trkpt>
      <trkpt lat="48.71126" lon="1.77932">
        <ele>161.6</ele>
        <time>2015-05-24T12:27:33.000Z</time>
      </trkpt>
      <trkpt lat="48.71119" lon="1.77919">
        <ele>160.5</ele>
        <time>2015-05-24T12:27:39.000Z</time>
      </trkpt>
      <trkpt lat="48.71117" lon="1.77914">
        <ele>160.3</ele>
        <time>2015-05-24T12:27:41.000Z</time>
      </trkpt>
      <trkpt lat="48.7111" lon="1.77899">
        <ele>160.8</ele>
        <time>2015-05-24T12:27:47.000Z</time>
      </trkpt>
      <trkpt lat="48.71104" lon="1.77892">
        <ele>161</ele>
        <time>2015-05-24T12:27:53.000Z</time>
      </trkpt>
      <trkpt lat="48.711" lon="1.77886">
        <ele>160.9</ele>
        <time>2015-05-24T12:27:57.000Z</time>
      </trkpt>
      <trkpt lat="48.711" lon="1.7788">
        <ele>161.3</ele>
        <time>2015-05-24T12:28:00.000Z</time>
      </trkpt>
      <trkpt lat="48.71106" lon="1.77874">
        <ele>162.1</ele>
        <time>2015-05-24T12:28:05.000Z</time>
      </trkpt>
      <trkpt lat="48.71108" lon="1.77865">
        <ele>162.6</ele>
        <time>2015-05-24T12:28:10.000Z</time>
      </trkpt>
      <trkpt lat="48.71107" lon="1.77863">
        <ele>162.6</ele>
        <time>2015-05-24T12:28:11.000Z</time>
      </trkpt>
      <trkpt lat="48.71106" lon="1.77858">
        <ele>162.6</ele>
        <time>2015-05-24T12:28:15.000Z</time>
      </trkpt>
      <trkpt lat="48.71111" lon="1.77856">
        <ele>162.8</ele>
        <time>2015-05-24T12:28:20.000Z</time>
      </trkpt>
      <trkpt lat="48.71112" lon="1.77853">
        <ele>162.7</ele>
        <time>2015-05-24T12:28:23.000Z</time>
      </trkpt>
      <trkpt lat="48.71103" lon="1.77831">
        <ele>161.6</ele>
        <time>2015-05-24T12:28:31.000Z</time>
      </trkpt>
      <trkpt lat="48.71093" lon="1.77818">
        <ele>160.8</ele>
        <time>2015-05-24T12:28:35.000Z</time>
      </trkpt>
      <trkpt lat="48.71091" lon="1.77802">
        <ele>160.2</ele>
        <time>2015-05-24T12:28:41.000Z</time>
      </trkpt>
      <trkpt lat="48.71096" lon="1.77792">
        <ele>160.2</ele>
        <time>2015-05-24T12:28:47.000Z</time>
      </trkpt>
      <trkpt lat="48.71096" lon="1.7779">
        <ele>160.2</ele>
        <time>2015-05-24T12:28:48.000Z</time>
      </trkpt>
      <trkpt lat="48.71097" lon="1.77781">
        <ele>160.1</ele>
        <time>2015-05-24T12:28:52.000Z</time>
      </trkpt>
      <trkpt lat="48.71096" lon="1.77771">
        <ele>159.9</ele>
        <time>2015-05-24T12:28:57.000Z</time>
      </trkpt>
      <trkpt lat="48.71096" lon="1.77768">
        <ele>159.8</ele>
        <time>2015-05-24T12:29:01.000Z</time>
      </trkpt>
      <trkpt lat="48.71093" lon="1.77758">
        <ele>159.8</ele>
        <time>2015-05-24T12:29:12.000Z</time>
      </trkpt>
      <trkpt lat="48.7109" lon="1.77752">
        <ele>159.8</ele>
        <time>2015-05-24T12:29:17.000Z</time>
      </trkpt>
      <trkpt lat="48.71089" lon="1.77756">
        <ele>159.8</ele>
        <time>2015-05-24T12:29:19.000Z</time>
      </trkpt>
      <trkpt lat="48.7109" lon="1.7776">
        <ele>159.8</ele>
        <time>2015-05-24T12:29:26.000Z</time>
      </trkpt>
      <trkpt lat="48.71083" lon="1.77752">
        <ele>160</ele>
        <time>2015-05-24T12:29:32.000Z</time>
      </trkpt>
      <trkpt lat="48.71084" lon="1.77741">
        <ele>160</ele>
        <time>2015-05-24T12:29:38.000Z</time>
      </trkpt>
      <trkpt lat="48.7108" lon="1.77735">
        <ele>160.1</ele>
        <time>2015-05-24T12:29:46.000Z</time>
      </trkpt>
      <trkpt lat="48.71075" lon="1.7773">
        <ele>160.2</ele>
        <time>2015-05-24T12:29:50.000Z</time>
      </trkpt>
      <trkpt lat="48.7107" lon="1.77724">
        <ele>160.4</ele>
        <time>2015-05-24T12:29:54.000Z</time>
      </trkpt>
      <trkpt lat="48.71068" lon="1.77717">
        <ele>160.6</ele>
        <time>2015-05-24T12:29:59.000Z</time>
      </trkpt>
      <trkpt lat="48.71071" lon="1.77706">
        <ele>160.4</ele>
        <time>2015-05-24T12:30:06.000Z</time>
      </trkpt>
      <trkpt lat="48.71071" lon="1.77703">
        <ele>160.5</ele>
        <time>2015-05-24T12:30:08.000Z</time>
      </trkpt>
      <trkpt lat="48.71071" lon="1.77699">
        <ele>160.5</ele>
        <time>2015-05-24T12:30:11.000Z</time>
      </trkpt>
      <trkpt lat="48.71067" lon="1.77696">
        <ele>160.6</ele>
        <time>2015-05-24T12:30:19.000Z</time>
      </trkpt>
      <trkpt lat="48.71062" lon="1.77696">
        <ele>160.8</ele>
        <time>2015-05-24T12:30:26.000Z</time>
      </trkpt>
      <trkpt lat="48.71062" lon="1.77683">
        <ele>160.8</ele>
        <time>2015-05-24T12:32:12.000Z</time>
      </trkpt>
      <trkpt lat="48.71056" lon="1.77687">
        <ele>161</ele>
        <time>2015-05-24T12:32:16.000Z</time>
      </trkpt>
      <trkpt lat="48.71055" lon="1.77686">
        <ele>161</ele>
        <time>2015-05-24T12:32:17.000Z</time>
      </trkpt>
      <trkpt lat="48.71046" lon="1.77669">
        <ele>161.3</ele>
        <time>2015-05-24T12:32:22.000Z</time>
      </trkpt>
      <trkpt lat="48.71036" lon="1.77652">
        <ele>161.9</ele>
        <time>2015-05-24T12:32:28.000Z</time>
      </trkpt>
      <trkpt lat="48.71033" lon="1.77643">
        <ele>162</ele>
        <time>2015-05-24T12:32:33.000Z</time>
      </trkpt>
      <trkpt lat="48.71033" lon="1.77633">
        <ele>162</ele>
        <time>2015-05-24T12:32:38.000Z</time>
      </trkpt>
      <trkpt lat="48.71029" lon="1.77624">
        <ele>162</ele>
        <time>2015-05-24T12:32:44.000Z</time>
      </trkpt>
      <trkpt lat="48.71027" lon="1.77618">
        <ele>162</ele>
        <time>2015-05-24T12:32:55.000Z</time>
      </trkpt>
      <trkpt lat="48.71024" lon="1.77611">
        <ele>162.1</ele>
        <time>2015-05-24T12:32:57.000Z</time>
      </trkpt>
      <trkpt lat="48.71023" lon="1.776">
        <ele>162.6</ele>
        <time>2015-05-24T12:33:02.000Z</time>
      </trkpt>
      <trkpt lat="48.7102" lon="1.77592">
        <ele>163</ele>
        <time>2015-05-24T12:33:06.000Z</time>
      </trkpt>
      <trkpt lat="48.71018" lon="1.77583">
        <ele>163.4</ele>
        <time>2015-05-24T12:33:10.000Z</time>
      </trkpt>
      <trkpt lat="48.71016" lon="1.77576">
        <ele>163.4</ele>
        <time>2015-05-24T12:33:14.000Z</time>
      </trkpt>
      <trkpt lat="48.71012" lon="1.77565">
        <ele>163.6</ele>
        <time>2015-05-24T12:33:19.000Z</time>
      </trkpt>
      <trkpt lat="48.71008" lon="1.77556">
        <ele>163.7</ele>
        <time>2015-05-24T12:33:24.000Z</time>
      </trkpt>
      <trkpt lat="48.71005" lon="1.77551">
        <ele>163.8</ele>
        <time>2015-05-24T12:33:28.000Z</time>
      </trkpt>
      <trkpt lat="48.71003" lon="1.77551">
        <ele>163.9</ele>
        <time>2015-05-24T12:33:34.000Z</time>
      </trkpt>
      <trkpt lat="48.71002" lon="1.77544">
        <ele>163.9</ele>
        <time>2015-05-24T12:33:37.000Z</time>
      </trkpt>
      <trkpt lat="48.71002" lon="1.77543">
        <ele>163.9</ele>
        <time>2015-05-24T12:33:38.000Z</time>
      </trkpt>
      <trkpt lat="48.70999" lon="1.77531">
        <ele>164</ele>
        <time>2015-05-24T12:33:43.000Z</time>
      </trkpt>
      <trkpt lat="48.70995" lon="1.77521">
        <ele>164.4</ele>
        <time>2015-05-24T12:33:47.000Z</time>
      </trkpt>
      <trkpt lat="48.70988" lon="1.77508">
        <ele>165.2</ele>
        <time>2015-05-24T12:33:54.000Z</time>
      </trkpt>
      <trkpt lat="48.70986" lon="1.77503">
        <ele>165.4</ele>
        <time>2015-05-24T12:33:56.000Z</time>
      </trkpt>
      <trkpt lat="48.70979" lon="1.77492">
        <ele>165.8</ele>
        <time>2015-05-24T12:34:01.000Z</time>
      </trkpt>
      <trkpt lat="48.70975" lon="1.77489">
        <ele>165.9</ele>
        <time>2015-05-24T12:34:03.000Z</time>
      </trkpt>
      <trkpt lat="48.7096" lon="1.77469">
        <ele>166.4</ele>
        <time>2015-05-24T12:34:11.000Z</time>
      </trkpt>
      <trkpt lat="48.70951" lon="1.77455">
        <ele>166.8</ele>
        <time>2015-05-24T12:34:17.000Z</time>
      </trkpt>
      <trkpt lat="48.70948" lon="1.77445">
        <ele>166.9</ele>
        <time>2015-05-24T12:34:22.000Z</time>
      </trkpt>
      <trkpt lat="48.70943" lon="1.77431">
        <ele>167</ele>
        <time>2015-05-24T12:34:29.000Z</time>
      </trkpt>
      <trkpt lat="48.70942" lon="1.7743">
        <ele>167.1</ele>
        <time>2015-05-24T12:34:31.000Z</time>
      </trkpt>
      <trkpt lat="48.70938" lon="1.77421">
        <ele>167.2</ele>
        <time>2015-05-24T12:34:38.000Z</time>
      </trkpt>
      <trkpt lat="48.70935" lon="1.77411">
        <ele>167.3</ele>
        <time>2015-05-24T12:34:44.000Z</time>
      </trkpt>
      <trkpt lat="48.70933" lon="1.77397">
        <ele>167.4</ele>
        <time>2015-05-24T12:34:51.000Z</time>
      </trkpt>
      <trkpt lat="48.70932" lon="1.77391">
        <ele>167.4</ele>
        <time>2015-05-24T12:34:54.000Z</time>
      </trkpt>
      <trkpt lat="48.70926" lon="1.77376">
        <ele>167.7</ele>
        <time>2015-05-24T12:35:03.000Z</time>
      </trkpt>
      <trkpt lat="48.70919" lon="1.77361">
        <ele>167.9</ele>
        <time>2015-05-24T12:35:11.000Z</time>
      </trkpt>
      <trkpt lat="48.70905" lon="1.77341">
        <ele>168.4</ele>
        <time>2015-05-24T12:35:21.000Z</time>
      </trkpt>
      <trkpt lat="48.70897" lon="1.77325">
        <ele>168.7</ele>
        <time>2015-05-24T12:35:27.000Z</time>
      </trkpt>
      <trkpt lat="48.70886" lon="1.77312">
        <ele>169</ele>
        <time>2015-05-24T12:35:32.000Z</time>
      </trkpt>
      <trkpt lat="48.70874" lon="1.7729">
        <ele>169.3</ele>
        <time>2015-05-24T12:35:41.000Z</time>
      </trkpt>
      <trkpt lat="48.70871" lon="1.77272">
        <ele>169.5</ele>
        <time>2015-05-24T12:35:49.000Z</time>
      </trkpt>
      <trkpt lat="48.7087" lon="1.77268">
        <ele>169.3</ele>
        <time>2015-05-24T12:35:51.000Z</time>
      </trkpt>
      <trkpt lat="48.70869" lon="1.77259">
        <ele>169</ele>
        <time>2015-05-24T12:35:55.000Z</time>
      </trkpt>
      <trkpt lat="48.70871" lon="1.77249">
        <ele>168.7</ele>
        <time>2015-05-24T12:36:00.000Z</time>
      </trkpt>
      <trkpt lat="48.70871" lon="1.77247">
        <ele>168.7</ele>
        <time>2015-05-24T12:36:06.000Z</time>
      </trkpt>
      <trkpt lat="48.70867" lon="1.7725">
        <ele>168.8</ele>
        <time>2015-05-24T12:36:10.000Z</time>
      </trkpt>
      <trkpt lat="48.70863" lon="1.7725">
        <ele>168.9</ele>
        <time>2015-05-24T12:36:14.000Z</time>
      </trkpt>
      <trkpt lat="48.70861" lon="1.77251">
        <ele>169</ele>
        <time>2015-05-24T12:36:19.000Z</time>
      </trkpt>
      <trkpt lat="48.70857" lon="1.77252">
        <ele>169.2</ele>
        <time>2015-05-24T12:36:26.000Z</time>
      </trkpt>
      <trkpt lat="48.70851" lon="1.77252">
        <ele>169.4</ele>
        <time>2015-05-24T12:36:29.000Z</time>
      </trkpt>
      <trkpt lat="48.70839" lon="1.77254">
        <ele>169.8</ele>
        <time>2015-05-24T12:36:37.000Z</time>
      </trkpt>
      <trkpt lat="48.70829" lon="1.77253">
        <ele>170</ele>
        <time>2015-05-24T12:36:43.000Z</time>
      </trkpt>
      <trkpt lat="48.70825" lon="1.77254">
        <ele>170</ele>
        <time>2015-05-24T12:36:45.000Z</time>
      </trkpt>
      <trkpt lat="48.70816" lon="1.77259">
        <ele>170.2</ele>
        <time>2015-05-24T12:36:51.000Z</time>
      </trkpt>
      <trkpt lat="48.70808" lon="1.7726">
        <ele>170.3</ele>
        <time>2015-05-24T12:36:56.000Z</time>
      </trkpt>
      <trkpt lat="48.70802" lon="1.77259">
        <ele>170.5</ele>
        <time>2015-05-24T12:36:59.000Z</time>
      </trkpt>
      <trkpt lat="48.70794" lon="1.77257">
        <ele>170.7</ele>
        <time>2015-05-24T12:37:05.000Z</time>
      </trkpt>
      <trkpt lat="48.70784" lon="1.77257">
        <ele>171</ele>
        <time>2015-05-24T12:37:12.000Z</time>
      </trkpt>
      <trkpt lat="48.70774" lon="1.77255">
        <ele>171.3</ele>
        <time>2015-05-24T12:37:18.000Z</time>
      </trkpt>
      <trkpt lat="48.70767" lon="1.77255">
        <ele>171.6</ele>
        <time>2015-05-24T12:37:22.000Z</time>
      </trkpt>
      <trkpt lat="48.7076" lon="1.77257">
        <ele>171.9</ele>
        <time>2015-05-24T12:37:27.000Z</time>
      </trkpt>
      <trkpt lat="48.7075" lon="1.77261">
        <ele>172.4</ele>
        <time>2015-05-24T12:37:33.000Z</time>
      </trkpt>
      <trkpt lat="48.70746" lon="1.77262">
        <ele>172.5</ele>
        <time>2015-05-24T12:37:36.000Z</time>
      </trkpt>
      <trkpt lat="48.70744" lon="1.77261">
        <ele>172.5</ele>
        <time>2015-05-24T12:37:40.000Z</time>
      </trkpt>
      <trkpt lat="48.70736" lon="1.7726">
        <ele>172.7</ele>
        <time>2015-05-24T12:37:47.000Z</time>
      </trkpt>
      <trkpt lat="48.7073" lon="1.77255">
        <ele>172.8</ele>
        <time>2015-05-24T12:37:54.000Z</time>
      </trkpt>
      <trkpt lat="48.70724" lon="1.77258">
        <ele>173</ele>
        <time>2015-05-24T12:37:58.000Z</time>
      </trkpt>
      <trkpt lat="48.70716" lon="1.77258">
        <ele>173.2</ele>
        <time>2015-05-24T12:38:02.000Z</time>
      </trkpt>
      <trkpt lat="48.70709" lon="1.77257">
        <ele>173.5</ele>
        <time>2015-05-24T12:38:06.000Z</time>
      </trkpt>
      <trkpt lat="48.70702" lon="1.77259">
        <ele>173.7</ele>
        <time>2015-05-24T12:38:10.000Z</time>
      </trkpt>
      <trkpt lat="48.70694" lon="1.77261">
        <ele>174</ele>
        <time>2015-05-24T12:38:15.000Z</time>
      </trkpt>
      <trkpt lat="48.70687" lon="1.77263">
        <ele>174.1</ele>
        <time>2015-05-24T12:38:19.000Z</time>
      </trkpt>
      <trkpt lat="48.70682" lon="1.77263">
        <ele>174.2</ele>
        <time>2015-05-24T12:38:22.000Z</time>
      </trkpt>
      <trkpt lat="48.70678" lon="1.77259">
        <ele>174.2</ele>
        <time>2015-05-24T12:38:26.000Z</time>
      </trkpt>
      <trkpt lat="48.7067" lon="1.77264">
        <ele>174.4</ele>
        <time>2015-05-24T12:38:31.000Z</time>
      </trkpt>
      <trkpt lat="48.70667" lon="1.77262">
        <ele>174.4</ele>
        <time>2015-05-24T12:38:33.000Z</time>
      </trkpt>
      <trkpt lat="48.70662" lon="1.77261">
        <ele>174.5</ele>
        <time>2015-05-24T12:38:37.000Z</time>
      </trkpt>
      <trkpt lat="48.70654" lon="1.7726">
        <ele>174.6</ele>
        <time>2015-05-24T12:38:43.000Z</time>
      </trkpt>
      <trkpt lat="48.70653" lon="1.77259">
        <ele>174.7</ele>
        <time>2015-05-24T12:38:44.000Z</time>
      </trkpt>
      <trkpt lat="48.70646" lon="1.77258">
        <ele>174.8</ele>
        <time>2015-05-24T12:38:49.000Z</time>
      </trkpt>
      <trkpt lat="48.7064" lon="1.7726">
        <ele>175</ele>
        <time>2015-05-24T12:38:54.000Z</time>
      </trkpt>
      <trkpt lat="48.70636" lon="1.77258">
        <ele>175</ele>
        <time>2015-05-24T12:38:57.000Z</time>
      </trkpt>
      <trkpt lat="48.70627" lon="1.77252">
        <ele>175</ele>
        <time>2015-05-24T12:39:04.000Z</time>
      </trkpt>
      <trkpt lat="48.7062" lon="1.7725">
        <ele>175</ele>
        <time>2015-05-24T12:39:09.000Z</time>
      </trkpt>
      <trkpt lat="48.70613" lon="1.77248">
        <ele>175</ele>
        <time>2015-05-24T12:39:14.000Z</time>
      </trkpt>
      <trkpt lat="48.70604" lon="1.77248">
        <ele>175.3</ele>
        <time>2015-05-24T12:39:21.000Z</time>
      </trkpt>
      <trkpt lat="48.70591" lon="1.77244">
        <ele>175.7</ele>
        <time>2015-05-24T12:39:29.000Z</time>
      </trkpt>
      <trkpt lat="48.70584" lon="1.77243">
        <ele>176</ele>
        <time>2015-05-24T12:39:35.000Z</time>
      </trkpt>
      <trkpt lat="48.70574" lon="1.77242">
        <ele>176</ele>
        <time>2015-05-24T12:39:42.000Z</time>
      </trkpt>
      <trkpt lat="48.70561" lon="1.7724">
        <ele>176</ele>
        <time>2015-05-24T12:39:50.000Z</time>
      </trkpt>
      <trkpt lat="48.70552" lon="1.77242">
        <ele>176</ele>
        <time>2015-05-24T12:39:56.000Z</time>
      </trkpt>
      <trkpt lat="48.70546" lon="1.77242">
        <ele>176</ele>
        <time>2015-05-24T12:40:02.000Z</time>
      </trkpt>
      <trkpt lat="48.70541" lon="1.77242">
        <ele>176</ele>
        <time>2015-05-24T12:40:05.000Z</time>
      </trkpt>
      <trkpt lat="48.70537" lon="1.7724">
        <ele>176</ele>
        <time>2015-05-24T12:40:09.000Z</time>
      </trkpt>
      <trkpt lat="48.70527" lon="1.77241">
        <ele>176</ele>
        <time>2015-05-24T12:40:16.000Z</time>
      </trkpt>
      <trkpt lat="48.70513" lon="1.77242">
        <ele>176.4</ele>
        <time>2015-05-24T12:40:24.000Z</time>
      </trkpt>
      <trkpt lat="48.70503" lon="1.77239">
        <ele>176.6</ele>
        <time>2015-05-24T12:40:30.000Z</time>
      </trkpt>
      <trkpt lat="48.70498" lon="1.77238">
        <ele>176.6</ele>
        <time>2015-05-24T12:40:34.000Z</time>
      </trkpt>
      <trkpt lat="48.70489" lon="1.77241">
        <ele>176.5</ele>
        <time>2015-05-24T12:40:40.000Z</time>
      </trkpt>
      <trkpt lat="48.70483" lon="1.77241">
        <ele>176.5</ele>
        <time>2015-05-24T12:40:44.000Z</time>
      </trkpt>
      <trkpt lat="48.70475" lon="1.77239">
        <ele>176.4</ele>
        <time>2015-05-24T12:40:51.000Z</time>
      </trkpt>
      <trkpt lat="48.70469" lon="1.77238">
        <ele>176.5</ele>
        <time>2015-05-24T12:40:55.000Z</time>
      </trkpt>
      <trkpt lat="48.70465" lon="1.7724">
        <ele>176.5</ele>
        <time>2015-05-24T12:40:58.000Z</time>
      </trkpt>
      <trkpt lat="48.70455" lon="1.77241">
        <ele>176.7</ele>
        <time>2015-05-24T12:41:04.000Z</time>
      </trkpt>
      <trkpt lat="48.70453" lon="1.77242">
        <ele>176.8</ele>
        <time>2015-05-24T12:41:05.000Z</time>
      </trkpt>
      <trkpt lat="48.70438" lon="1.77251">
        <ele>177</ele>
        <time>2015-05-24T12:41:15.000Z</time>
      </trkpt>
      <trkpt lat="48.70426" lon="1.77257">
        <ele>177</ele>
        <time>2015-05-24T12:41:23.000Z</time>
      </trkpt>
      <trkpt lat="48.70416" lon="1.77263">
        <ele>177</ele>
        <time>2015-05-24T12:41:30.000Z</time>
      </trkpt>
      <trkpt lat="48.70411" lon="1.77267">
        <ele>177</ele>
        <time>2015-05-24T12:41:35.000Z</time>
      </trkpt>
      <trkpt lat="48.7041" lon="1.77268">
        <ele>177</ele>
        <time>2015-05-24T12:41:36.000Z</time>
      </trkpt>
      <trkpt lat="48.70402" lon="1.77275">
        <ele>177</ele>
        <time>2015-05-24T12:41:42.000Z</time>
      </trkpt>
      <trkpt lat="48.70395" lon="1.77281">
        <ele>177</ele>
        <time>2015-05-24T12:41:47.000Z</time>
      </trkpt>
      <trkpt lat="48.70387" lon="1.77288">
        <ele>177</ele>
        <time>2015-05-24T12:41:52.000Z</time>
      </trkpt>
      <trkpt lat="48.70376" lon="1.77293">
        <ele>177</ele>
        <time>2015-05-24T12:42:00.000Z</time>
      </trkpt>
      <trkpt lat="48.70371" lon="1.77284">
        <ele>177</ele>
        <time>2015-05-24T12:42:05.000Z</time>
      </trkpt>
      <trkpt lat="48.70367" lon="1.77268">
        <ele>177</ele>
        <time>2015-05-24T12:42:13.000Z</time>
      </trkpt>
      <trkpt lat="48.70365" lon="1.77267">
        <ele>177</ele>
        <time>2015-05-24T12:42:18.000Z</time>
      </trkpt>
      <trkpt lat="48.70361" lon="1.7725">
        <ele>177</ele>
        <time>2015-05-24T12:42:45.000Z</time>
      </trkpt>
      <trkpt lat="48.70362" lon="1.7724">
        <ele>177</ele>
        <time>2015-05-24T12:42:49.000Z</time>
      </trkpt>
      <trkpt lat="48.7036" lon="1.77227">
        <ele>177</ele>
        <time>2015-05-24T12:42:55.000Z</time>
      </trkpt>
      <trkpt lat="48.70361" lon="1.77217">
        <ele>177</ele>
        <time>2015-05-24T12:43:00.000Z</time>
      </trkpt>
      <trkpt lat="48.70361" lon="1.77213">
        <ele>177</ele>
        <time>2015-05-24T12:43:02.000Z</time>
      </trkpt>
      <trkpt lat="48.70362" lon="1.77202">
        <ele>177</ele>
        <time>2015-05-24T12:43:07.000Z</time>
      </trkpt>
      <trkpt lat="48.70362" lon="1.77197">
        <ele>177</ele>
        <time>2015-05-24T12:43:09.000Z</time>
      </trkpt>
      <trkpt lat="48.70362" lon="1.77184">
        <ele>177</ele>
        <time>2015-05-24T12:43:15.000Z</time>
      </trkpt>
      <trkpt lat="48.70361" lon="1.77179">
        <ele>177</ele>
        <time>2015-05-24T12:43:20.000Z</time>
      </trkpt>
      <trkpt lat="48.70359" lon="1.77165">
        <ele>177</ele>
        <time>2015-05-24T12:43:31.000Z</time>
      </trkpt>
      <trkpt lat="48.70357" lon="1.7715">
        <ele>177</ele>
        <time>2015-05-24T12:43:37.000Z</time>
      </trkpt>
      <trkpt lat="48.70354" lon="1.77136">
        <ele>177</ele>
        <time>2015-05-24T12:43:43.000Z</time>
      </trkpt>
      <trkpt lat="48.70352" lon="1.77129">
        <ele>177</ele>
        <time>2015-05-24T12:43:46.000Z</time>
      </trkpt>
      <trkpt lat="48.7035" lon="1.77111">
        <ele>177</ele>
        <time>2015-05-24T12:43:54.000Z</time>
      </trkpt>
      <trkpt lat="48.70349" lon="1.77106">
        <ele>177</ele>
        <time>2015-05-24T12:43:56.000Z</time>
      </trkpt>
      <trkpt lat="48.70348" lon="1.77094">
        <ele>177</ele>
        <time>2015-05-24T12:44:01.000Z</time>
      </trkpt>
      <trkpt lat="48.70347" lon="1.77092">
        <ele>177</ele>
        <time>2015-05-24T12:44:02.000Z</time>
      </trkpt>
      <trkpt lat="48.70345" lon="1.77077">
        <ele>176.9</ele>
        <time>2015-05-24T12:44:09.000Z</time>
      </trkpt>
      <trkpt lat="48.7034" lon="1.77063">
        <ele>176.8</ele>
        <time>2015-05-24T12:44:15.000Z</time>
      </trkpt>
      <trkpt lat="48.70337" lon="1.7705">
        <ele>176.7</ele>
        <time>2015-05-24T12:44:22.000Z</time>
      </trkpt>
      <trkpt lat="48.70328" lon="1.77034">
        <ele>176.4</ele>
        <time>2015-05-24T12:44:30.000Z</time>
      </trkpt>
      <trkpt lat="48.70327" lon="1.77022">
        <ele>176.4</ele>
        <time>2015-05-24T12:44:34.000Z</time>
      </trkpt>
      <trkpt lat="48.70332" lon="1.77002">
        <ele>176.9</ele>
        <time>2015-05-24T12:44:43.000Z</time>
      </trkpt>
      <trkpt lat="48.70332" lon="1.77001">
        <ele>177</ele>
        <time>2015-05-24T12:44:44.000Z</time>
      </trkpt>
      <trkpt lat="48.70334" lon="1.77">
        <ele>177</ele>
        <time>2015-05-24T12:44:48.000Z</time>
      </trkpt>
      <trkpt lat="48.70335" lon="1.76983">
        <ele>177</ele>
        <time>2015-05-24T12:44:57.000Z</time>
      </trkpt>
      <trkpt lat="48.70335" lon="1.76966">
        <ele>177</ele>
        <time>2015-05-24T12:45:07.000Z</time>
      </trkpt>
      <trkpt lat="48.70335" lon="1.76966">
        <ele>177</ele>
        <time>2015-05-24T12:45:08.000Z</time>
      </trkpt>
      <trkpt lat="48.70336" lon="1.76957">
        <ele>177</ele>
        <time>2015-05-24T12:45:17.000Z</time>
      </trkpt>
      <trkpt lat="48.70335" lon="1.76931">
        <ele>176.5</ele>
        <time>2015-05-24T12:45:28.000Z</time>
      </trkpt>
      <trkpt lat="48.70334" lon="1.76916">
        <ele>176</ele>
        <time>2015-05-24T12:45:35.000Z</time>
      </trkpt>
      <trkpt lat="48.70336" lon="1.76899">
        <ele>176</ele>
        <time>2015-05-24T12:45:43.000Z</time>
      </trkpt>
      <trkpt lat="48.70336" lon="1.76897">
        <ele>176</ele>
        <time>2015-05-24T12:45:44.000Z</time>
      </trkpt>
      <trkpt lat="48.70337" lon="1.76874">
        <ele>176</ele>
        <time>2015-05-24T12:45:53.000Z</time>
      </trkpt>
      <trkpt lat="48.70337" lon="1.76858">
        <ele>175.9</ele>
        <time>2015-05-24T12:46:00.000Z</time>
      </trkpt>
      <trkpt lat="48.70336" lon="1.76852">
        <ele>175.7</ele>
        <time>2015-05-24T12:46:02.000Z</time>
      </trkpt>
      <trkpt lat="48.70335" lon="1.76839">
        <ele>175.2</ele>
        <time>2015-05-24T12:46:07.000Z</time>
      </trkpt>
      <trkpt lat="48.70335" lon="1.76831">
        <ele>175</ele>
        <time>2015-05-24T12:46:10.000Z</time>
      </trkpt>
      <trkpt lat="48.70335" lon="1.76804">
        <ele>174.9</ele>
        <time>2015-05-24T12:46:21.000Z</time>
      </trkpt>
      <trkpt lat="48.70335" lon="1.76785">
        <ele>174.3</ele>
        <time>2015-05-24T12:46:29.000Z</time>
      </trkpt>
      <trkpt lat="48.70334" lon="1.76762">
        <ele>174</ele>
        <time>2015-05-24T12:46:38.000Z</time>
      </trkpt>
      <trkpt lat="48.70332" lon="1.76748">
        <ele>173.9</ele>
        <time>2015-05-24T12:46:44.000Z</time>
      </trkpt>
      <trkpt lat="48.70332" lon="1.76746">
        <ele>173.8</ele>
        <time>2015-05-24T12:46:45.000Z</time>
      </trkpt>
      <trkpt lat="48.70332" lon="1.76744">
        <ele>173.8</ele>
        <time>2015-05-24T12:46:46.000Z</time>
      </trkpt>
      <trkpt lat="48.70332" lon="1.76744">
        <ele>173.8</ele>
        <time>2015-05-24T12:46:46.000Z</time>
      </trkpt>
      <trkpt lat="48.70331" lon="1.76733">
        <ele>173.4</ele>
        <time>2015-05-24T12:46:51.000Z</time>
      </trkpt>
      <trkpt lat="48.70329" lon="1.76712">
        <ele>172.6</ele>
        <time>2015-05-24T12:46:59.000Z</time>
      </trkpt>
      <trkpt lat="48.70327" lon="1.76696">
        <ele>172</ele>
        <time>2015-05-24T12:47:05.000Z</time>
      </trkpt>
      <trkpt lat="48.70323" lon="1.76677">
        <ele>171.8</ele>
        <time>2015-05-24T12:47:11.000Z</time>
      </trkpt>
      <trkpt lat="48.70319" lon="1.7666">
        <ele>171.2</ele>
        <time>2015-05-24T12:47:18.000Z</time>
      </trkpt>
      <trkpt lat="48.70317" lon="1.76646">
        <ele>170.7</ele>
        <time>2015-05-24T12:47:23.000Z</time>
      </trkpt>
      <trkpt lat="48.70318" lon="1.76638">
        <ele>170.4</ele>
        <time>2015-05-24T12:47:26.000Z</time>
      </trkpt>
      <trkpt lat="48.70323" lon="1.76625">
        <ele>170.4</ele>
        <time>2015-05-24T12:47:32.000Z</time>
      </trkpt>
      <trkpt lat="48.70327" lon="1.76618">
        <ele>170.6</ele>
        <time>2015-05-24T12:47:35.000Z</time>
      </trkpt>
      <trkpt lat="48.70332" lon="1.76615">
        <ele>170.9</ele>
        <time>2015-05-24T12:47:43.000Z</time>
      </trkpt>
      <trkpt lat="48.70339" lon="1.76614">
        <ele>171.2</ele>
        <time>2015-05-24T12:47:49.000Z</time>
      </trkpt>
      <trkpt lat="48.70343" lon="1.76614">
        <ele>171.4</ele>
        <time>2015-05-24T12:47:52.000Z</time>
      </trkpt>
      <trkpt lat="48.70345" lon="1.76614">
        <ele>171.5</ele>
        <time>2015-05-24T12:47:54.000Z</time>
      </trkpt>
      <trkpt lat="48.70355" lon="1.76606">
        <ele>171.8</ele>
        <time>2015-05-24T12:48:01.000Z</time>
      </trkpt>
      <trkpt lat="48.7036" lon="1.76604">
        <ele>172</ele>
        <time>2015-05-24T12:48:04.000Z</time>
      </trkpt>
      <trkpt lat="48.70368" lon="1.76602">
        <ele>172.3</ele>
        <time>2015-05-24T12:48:08.000Z</time>
      </trkpt>
      <trkpt lat="48.70381" lon="1.76597">
        <ele>172.7</ele>
        <time>2015-05-24T12:48:15.000Z</time>
      </trkpt>
      <trkpt lat="48.70387" lon="1.76592">
        <ele>172.9</ele>
        <time>2015-05-24T12:48:19.000Z</time>
      </trkpt>
      <trkpt lat="48.70391" lon="1.76588">
        <ele>173</ele>
        <time>2015-05-24T12:48:23.000Z</time>
      </trkpt>
      <trkpt lat="48.70402" lon="1.76581">
        <ele>173</ele>
        <time>2015-05-24T12:48:30.000Z</time>
      </trkpt>
      <trkpt lat="48.70406" lon="1.7658">
        <ele>173</ele>
        <time>2015-05-24T12:48:33.000Z</time>
      </trkpt>
      <trkpt lat="48.70411" lon="1.76579">
        <ele>173</ele>
        <time>2015-05-24T12:48:37.000Z</time>
      </trkpt>
      <trkpt lat="48.70421" lon="1.76576">
        <ele>173.1</ele>
        <time>2015-05-24T12:48:45.000Z</time>
      </trkpt>
      <trkpt lat="48.70425" lon="1.76572">
        <ele>173.2</ele>
        <time>2015-05-24T12:48:51.000Z</time>
      </trkpt>
      <trkpt lat="48.70427" lon="1.76572">
        <ele>173.2</ele>
        <time>2015-05-24T12:48:54.000Z</time>
      </trkpt>
      <trkpt lat="48.70438" lon="1.76565">
        <ele>173.3</ele>
        <time>2015-05-24T12:49:50.000Z</time>
      </trkpt>
      <trkpt lat="48.7044" lon="1.76562">
        <ele>173.2</ele>
        <time>2015-05-24T12:49:58.000Z</time>
      </trkpt>
      <trkpt lat="48.7044" lon="1.76562">
        <ele>173.2</ele>
        <time>2015-05-24T12:49:59.000Z</time>
      </trkpt>
      <trkpt lat="48.7044" lon="1.76564">
        <ele>173.2</ele>
        <time>2015-05-24T12:50:02.000Z</time>
      </trkpt>
      <trkpt lat="48.70439" lon="1.76567">
        <ele>173.3</ele>
        <time>2015-05-24T12:50:06.000Z</time>
      </trkpt>
      <trkpt lat="48.70439" lon="1.76576">
        <ele>173.6</ele>
        <time>2015-05-24T12:50:18.000Z</time>
      </trkpt>
      <trkpt lat="48.70442" lon="1.76559">
        <ele>173.1</ele>
        <time>2015-05-24T12:50:40.000Z</time>
      </trkpt>
      <trkpt lat="48.70444" lon="1.76547">
        <ele>172.7</ele>
        <time>2015-05-24T12:50:44.000Z</time>
      </trkpt>
      <trkpt lat="48.70446" lon="1.76538">
        <ele>172.4</ele>
        <time>2015-05-24T12:50:50.000Z</time>
      </trkpt>
      <trkpt lat="48.70446" lon="1.76534">
        <ele>172.2</ele>
        <time>2015-05-24T12:50:53.000Z</time>
      </trkpt>
      <trkpt lat="48.70446" lon="1.76527">
        <ele>172</ele>
        <time>2015-05-24T12:50:59.000Z</time>
      </trkpt>
      <trkpt lat="48.70449" lon="1.76515">
        <ele>172</ele>
        <time>2015-05-24T12:51:04.000Z</time>
      </trkpt>
      <trkpt lat="48.70452" lon="1.76495">
        <ele>171.8</ele>
        <time>2015-05-24T12:51:12.000Z</time>
      </trkpt>
      <trkpt lat="48.70453" lon="1.76489">
        <ele>171.6</ele>
        <time>2015-05-24T12:51:15.000Z</time>
      </trkpt>
      <trkpt lat="48.70454" lon="1.76481">
        <ele>171.3</ele>
        <time>2015-05-24T12:51:19.000Z</time>
      </trkpt>
      <trkpt lat="48.70453" lon="1.76471">
        <ele>171</ele>
        <time>2015-05-24T12:51:25.000Z</time>
      </trkpt>
      <trkpt lat="48.70453" lon="1.76463">
        <ele>170.7</ele>
        <time>2015-05-24T12:51:30.000Z</time>
      </trkpt>
      <trkpt lat="48.70454" lon="1.76456">
        <ele>170.4</ele>
        <time>2015-05-24T12:51:34.000Z</time>
      </trkpt>
      <trkpt lat="48.70459" lon="1.76443">
        <ele>170</ele>
        <time>2015-05-24T12:51:39.000Z</time>
      </trkpt>
      <trkpt lat="48.70462" lon="1.76434">
        <ele>169.9</ele>
        <time>2015-05-24T12:51:44.000Z</time>
      </trkpt>
      <trkpt lat="48.70464" lon="1.76429">
        <ele>169.8</ele>
        <time>2015-05-24T12:51:47.000Z</time>
      </trkpt>
      <trkpt lat="48.70464" lon="1.76413">
        <ele>169.6</ele>
        <time>2015-05-24T12:51:53.000Z</time>
      </trkpt>
      <trkpt lat="48.70464" lon="1.76412">
        <ele>169.5</ele>
        <time>2015-05-24T12:51:54.000Z</time>
      </trkpt>
      <trkpt lat="48.70462" lon="1.76399">
        <ele>169</ele>
        <time>2015-05-24T12:52:00.000Z</time>
      </trkpt>
      <trkpt lat="48.70459" lon="1.76389">
        <ele>168.5</ele>
        <time>2015-05-24T12:52:05.000Z</time>
      </trkpt>
      <trkpt lat="48.70458" lon="1.76386">
        <ele>168.5</ele>
        <time>2015-05-24T12:52:07.000Z</time>
      </trkpt>
      <trkpt lat="48.70455" lon="1.76371">
        <ele>168.4</ele>
        <time>2015-05-24T12:52:13.000Z</time>
      </trkpt>
      <trkpt lat="48.70453" lon="1.7636">
        <ele>168.3</ele>
        <time>2015-05-24T12:52:19.000Z</time>
      </trkpt>
      <trkpt lat="48.70452" lon="1.76356">
        <ele>168.3</ele>
        <time>2015-05-24T12:52:22.000Z</time>
      </trkpt>
      <trkpt lat="48.70451" lon="1.76351">
        <ele>168.2</ele>
        <time>2015-05-24T12:52:24.000Z</time>
      </trkpt>
      <trkpt lat="48.70448" lon="1.76338">
        <ele>168.1</ele>
        <time>2015-05-24T12:52:31.000Z</time>
      </trkpt>
      <trkpt lat="48.70446" lon="1.76327">
        <ele>168.1</ele>
        <time>2015-05-24T12:52:36.000Z</time>
      </trkpt>
      <trkpt lat="48.70443" lon="1.76316">
        <ele>168</ele>
        <time>2015-05-24T12:52:42.000Z</time>
      </trkpt>
      <trkpt lat="48.70444" lon="1.76304">
        <ele>168.1</ele>
        <time>2015-05-24T12:52:48.000Z</time>
      </trkpt>
      <trkpt lat="48.70446" lon="1.7629">
        <ele>168.6</ele>
        <time>2015-05-24T12:52:55.000Z</time>
      </trkpt>
      <trkpt lat="48.70446" lon="1.76279">
        <ele>169</ele>
        <time>2015-05-24T12:53:00.000Z</time>
      </trkpt>
      <trkpt lat="48.70448" lon="1.76272">
        <ele>169</ele>
        <time>2015-05-24T12:53:04.000Z</time>
      </trkpt>
      <trkpt lat="48.70451" lon="1.76265">
        <ele>168.9</ele>
        <time>2015-05-24T12:53:09.000Z</time>
      </trkpt>
      <trkpt lat="48.70454" lon="1.76262">
        <ele>169</ele>
        <time>2015-05-24T12:53:12.000Z</time>
      </trkpt>
      <trkpt lat="48.70458" lon="1.76252">
        <ele>169</ele>
        <time>2015-05-24T12:53:16.000Z</time>
      </trkpt>
      <trkpt lat="48.70459" lon="1.76245">
        <ele>168.8</ele>
        <time>2015-05-24T12:53:19.000Z</time>
      </trkpt>
      <trkpt lat="48.7046" lon="1.76234">
        <ele>168.6</ele>
        <time>2015-05-24T12:53:24.000Z</time>
      </trkpt>
      <trkpt lat="48.70462" lon="1.76225">
        <ele>168.3</ele>
        <time>2015-05-24T12:53:28.000Z</time>
      </trkpt>
      <trkpt lat="48.70463" lon="1.76219">
        <ele>168.2</ele>
        <time>2015-05-24T12:53:32.000Z</time>
      </trkpt>
      <trkpt lat="48.7046" lon="1.76206">
        <ele>167.8</ele>
        <time>2015-05-24T12:53:39.000Z</time>
      </trkpt>
      <trkpt lat="48.70458" lon="1.76201">
        <ele>167.6</ele>
        <time>2015-05-24T12:53:43.000Z</time>
      </trkpt>
      <trkpt lat="48.70457" lon="1.76191">
        <ele>167.4</ele>
        <time>2015-05-24T12:53:48.000Z</time>
      </trkpt>
      <trkpt lat="48.70456" lon="1.76187">
        <ele>167.4</ele>
        <time>2015-05-24T12:53:50.000Z</time>
      </trkpt>
      <trkpt lat="48.70456" lon="1.76171">
        <ele>167.4</ele>
        <time>2015-05-24T12:53:55.000Z</time>
      </trkpt>
      <trkpt lat="48.70455" lon="1.7616">
        <ele>167.4</ele>
        <time>2015-05-24T12:54:00.000Z</time>
      </trkpt>
      <trkpt lat="48.70456" lon="1.76156">
        <ele>167.4</ele>
        <time>2015-05-24T12:54:02.000Z</time>
      </trkpt>
      <trkpt lat="48.70453" lon="1.76145">
        <ele>167.3</ele>
        <time>2015-05-24T12:54:08.000Z</time>
      </trkpt>
      <trkpt lat="48.70451" lon="1.7614">
        <ele>167.2</ele>
        <time>2015-05-24T12:54:11.000Z</time>
      </trkpt>
      <trkpt lat="48.70451" lon="1.76136">
        <ele>167.3</ele>
        <time>2015-05-24T12:54:14.000Z</time>
      </trkpt>
      <trkpt lat="48.70451" lon="1.76125">
        <ele>167.6</ele>
        <time>2015-05-24T12:54:20.000Z</time>
      </trkpt>
      <trkpt lat="48.70452" lon="1.76123">
        <ele>167.7</ele>
        <time>2015-05-24T12:54:21.000Z</time>
      </trkpt>
      <trkpt lat="48.70457" lon="1.76108">
        <ele>168</ele>
        <time>2015-05-24T12:54:27.000Z</time>
      </trkpt>
      <trkpt lat="48.7046" lon="1.76093">
        <ele>168</ele>
        <time>2015-05-24T12:54:32.000Z</time>
      </trkpt>
      <trkpt lat="48.70463" lon="1.76088">
        <ele>168</ele>
        <time>2015-05-24T12:54:35.000Z</time>
      </trkpt>
      <trkpt lat="48.70463" lon="1.7608">
        <ele>168.1</ele>
        <time>2015-05-24T12:54:40.000Z</time>
      </trkpt>
      <trkpt lat="48.70463" lon="1.76078">
        <ele>168.2</ele>
        <time>2015-05-24T12:54:42.000Z</time>
      </trkpt>
      <trkpt lat="48.70465" lon="1.76073">
        <ele>168.4</ele>
        <time>2015-05-24T12:54:45.000Z</time>
      </trkpt>
      <trkpt lat="48.7047" lon="1.76061">
        <ele>168.8</ele>
        <time>2015-05-24T12:54:52.000Z</time>
      </trkpt>
      <trkpt lat="48.70474" lon="1.76051">
        <ele>169</ele>
        <time>2015-05-24T12:54:58.000Z</time>
      </trkpt>
      <trkpt lat="48.70474" lon="1.76048">
        <ele>169</ele>
        <time>2015-05-24T12:55:02.000Z</time>
      </trkpt>
      <trkpt lat="48.70478" lon="1.76037">
        <ele>169</ele>
        <time>2015-05-24T12:55:14.000Z</time>
      </trkpt>
      <trkpt lat="48.70478" lon="1.76035">
        <ele>169</ele>
        <time>2015-05-24T12:55:15.000Z</time>
      </trkpt>
      <trkpt lat="48.70481" lon="1.76021">
        <ele>169.2</ele>
        <time>2015-05-24T12:55:19.000Z</time>
      </trkpt>
      <trkpt lat="48.70482" lon="1.76014">
        <ele>169.3</ele>
        <time>2015-05-24T12:55:22.000Z</time>
      </trkpt>
      <trkpt lat="48.70482" lon="1.76001">
        <ele>169.6</ele>
        <time>2015-05-24T12:55:27.000Z</time>
      </trkpt>
      <trkpt lat="48.70486" lon="1.75991">
        <ele>169.7</ele>
        <time>2015-05-24T12:55:32.000Z</time>
      </trkpt>
      <trkpt lat="48.70492" lon="1.75982">
        <ele>169.8</ele>
        <time>2015-05-24T12:55:37.000Z</time>
      </trkpt>
      <trkpt lat="48.70493" lon="1.7598">
        <ele>169.8</ele>
        <time>2015-05-24T12:55:38.000Z</time>
      </trkpt>
      <trkpt lat="48.70494" lon="1.75978">
        <ele>169.8</ele>
        <time>2015-05-24T12:55:40.000Z</time>
      </trkpt>
      <trkpt lat="48.705" lon="1.75965">
        <ele>170</ele>
        <time>2015-05-24T12:55:47.000Z</time>
      </trkpt>
      <trkpt lat="48.70506" lon="1.75956">
        <ele>169.9</ele>
        <time>2015-05-24T12:55:53.000Z</time>
      </trkpt>
      <trkpt lat="48.70509" lon="1.75949">
        <ele>170</ele>
        <time>2015-05-24T12:55:57.000Z</time>
      </trkpt>
      <trkpt lat="48.70514" lon="1.75935">
        <ele>170.2</ele>
        <time>2015-05-24T12:56:05.000Z</time>
      </trkpt>
      <trkpt lat="48.70514" lon="1.7593">
        <ele>170.3</ele>
        <time>2015-05-24T12:56:11.000Z</time>
      </trkpt>
      <trkpt lat="48.70518" lon="1.75922">
        <ele>170.3</ele>
        <time>2015-05-24T12:56:17.000Z</time>
      </trkpt>
      <trkpt lat="48.70523" lon="1.75913">
        <ele>170.3</ele>
        <time>2015-05-24T12:56:23.000Z</time>
      </trkpt>
      <trkpt lat="48.70526" lon="1.75907">
        <ele>170.4</ele>
        <time>2015-05-24T12:56:28.000Z</time>
      </trkpt>
      <trkpt lat="48.70528" lon="1.75899">
        <ele>170.6</ele>
        <time>2015-05-24T12:56:33.000Z</time>
      </trkpt>
      <trkpt lat="48.70532" lon="1.75891">
        <ele>170.9</ele>
        <time>2015-05-24T12:56:39.000Z</time>
      </trkpt>
      <trkpt lat="48.70537" lon="1.75881">
        <ele>171</ele>
        <time>2015-05-24T12:56:44.000Z</time>
      </trkpt>
      <trkpt lat="48.70539" lon="1.75878">
        <ele>171</ele>
        <time>2015-05-24T12:56:46.000Z</time>
      </trkpt>
      <trkpt lat="48.70541" lon="1.75869">
        <ele>171</ele>
        <time>2015-05-24T12:56:51.000Z</time>
      </trkpt>
      <trkpt lat="48.70545" lon="1.7586">
        <ele>171</ele>
        <time>2015-05-24T12:56:58.000Z</time>
      </trkpt>
      <trkpt lat="48.70548" lon="1.75854">
        <ele>171.1</ele>
        <time>2015-05-24T12:57:04.000Z</time>
      </trkpt>
      <trkpt lat="48.70549" lon="1.75851">
        <ele>171.1</ele>
        <time>2015-05-24T12:57:06.000Z</time>
      </trkpt>
      <trkpt lat="48.70553" lon="1.75843">
        <ele>171.1</ele>
        <time>2015-05-24T12:57:12.000Z</time>
      </trkpt>
      <trkpt lat="48.70558" lon="1.75835">
        <ele>171</ele>
        <time>2015-05-24T12:57:17.000Z</time>
      </trkpt>
      <trkpt lat="48.70561" lon="1.75829">
        <ele>171.1</ele>
        <time>2015-05-24T12:57:21.000Z</time>
      </trkpt>
      <trkpt lat="48.70566" lon="1.75823">
        <ele>171.4</ele>
        <time>2015-05-24T12:57:25.000Z</time>
      </trkpt>
      <trkpt lat="48.70569" lon="1.75815">
        <ele>171.7</ele>
        <time>2015-05-24T12:57:29.000Z</time>
      </trkpt>
      <trkpt lat="48.70573" lon="1.75806">
        <ele>172</ele>
        <time>2015-05-24T12:57:34.000Z</time>
      </trkpt>
      <trkpt lat="48.70579" lon="1.75802">
        <ele>172</ele>
        <time>2015-05-24T12:57:40.000Z</time>
      </trkpt>
      <trkpt lat="48.70584" lon="1.75794">
        <ele>172</ele>
        <time>2015-05-24T12:57:45.000Z</time>
      </trkpt>
      <trkpt lat="48.70587" lon="1.75788">
        <ele>172</ele>
        <time>2015-05-24T12:57:47.000Z</time>
      </trkpt>
      <trkpt lat="48.70594" lon="1.75777">
        <ele>172</ele>
        <time>2015-05-24T12:57:55.000Z</time>
      </trkpt>
      <trkpt lat="48.70599" lon="1.75768">
        <ele>172</ele>
        <time>2015-05-24T12:58:02.000Z</time>
      </trkpt>
      <trkpt lat="48.70602" lon="1.75761">
        <ele>172</ele>
        <time>2015-05-24T12:58:06.000Z</time>
      </trkpt>
      <trkpt lat="48.70606" lon="1.75754">
        <ele>172</ele>
        <time>2015-05-24T12:58:12.000Z</time>
      </trkpt>
      <trkpt lat="48.70608" lon="1.75752">
        <ele>172</ele>
        <time>2015-05-24T12:58:13.000Z</time>
      </trkpt>
      <trkpt lat="48.70613" lon="1.75746">
        <ele>172</ele>
        <time>2015-05-24T12:58:18.000Z</time>
      </trkpt>
      <trkpt lat="48.70614" lon="1.75745">
        <ele>172</ele>
        <time>2015-05-24T12:58:19.000Z</time>
      </trkpt>
      <trkpt lat="48.70619" lon="1.75736">
        <ele>172</ele>
        <time>2015-05-24T12:58:27.000Z</time>
      </trkpt>
      <trkpt lat="48.7062" lon="1.75732">
        <ele>172</ele>
        <time>2015-05-24T12:58:29.000Z</time>
      </trkpt>
      <trkpt lat="48.7062" lon="1.75727">
        <ele>172</ele>
        <time>2015-05-24T12:58:32.000Z</time>
      </trkpt>
      <trkpt lat="48.70624" lon="1.75721">
        <ele>172</ele>
        <time>2015-05-24T12:58:36.000Z</time>
      </trkpt>
      <trkpt lat="48.7063" lon="1.75714">
        <ele>172</ele>
        <time>2015-05-24T12:58:41.000Z</time>
      </trkpt>
      <trkpt lat="48.7063" lon="1.7571">
        <ele>172</ele>
        <time>2015-05-24T12:58:43.000Z</time>
      </trkpt>
      <trkpt lat="48.70638" lon="1.75709">
        <ele>172</ele>
        <time>2015-05-24T12:58:49.000Z</time>
      </trkpt>
      <trkpt lat="48.7064" lon="1.75703">
        <ele>172</ele>
        <time>2015-05-24T12:58:52.000Z</time>
      </trkpt>
      <trkpt lat="48.7064" lon="1.75695">
        <ele>172</ele>
        <time>2015-05-24T12:58:59.000Z</time>
      </trkpt>
      <trkpt lat="48.70642" lon="1.75697">
        <ele>172</ele>
        <time>2015-05-24T12:59:08.000Z</time>
      </trkpt>
      <trkpt lat="48.70642" lon="1.75695">
        <ele>172</ele>
        <time>2015-05-24T12:59:09.000Z</time>
      </trkpt>
      <trkpt lat="48.70643" lon="1.75687">
        <ele>172.2</ele>
        <time>2015-05-24T12:59:12.000Z</time>
      </trkpt>
      <trkpt lat="48.70643" lon="1.75677">
        <ele>172.5</ele>
        <time>2015-05-24T12:59:16.000Z</time>
      </trkpt>
      <trkpt lat="48.70638" lon="1.75663">
        <ele>173</ele>
        <time>2015-05-24T12:59:24.000Z</time>
      </trkpt>
      <trkpt lat="48.70637" lon="1.75659">
        <ele>173</ele>
        <time>2015-05-24T12:59:26.000Z</time>
      </trkpt>
      <trkpt lat="48.70637" lon="1.75655">
        <ele>173</ele>
        <time>2015-05-24T12:59:28.000Z</time>
      </trkpt>
      <trkpt lat="48.7064" lon="1.75641">
        <ele>173</ele>
        <time>2015-05-24T12:59:34.000Z</time>
      </trkpt>
      <trkpt lat="48.7064" lon="1.75634">
        <ele>172.8</ele>
        <time>2015-05-24T12:59:37.000Z</time>
      </trkpt>
      <trkpt lat="48.70644" lon="1.75621">
        <ele>172.4</ele>
        <time>2015-05-24T12:59:44.000Z</time>
      </trkpt>
      <trkpt lat="48.70645" lon="1.75618">
        <ele>172.4</ele>
        <time>2015-05-24T12:59:48.000Z</time>
      </trkpt>
      <trkpt lat="48.7065" lon="1.75604">
        <ele>172.4</ele>
        <time>2015-05-24T12:59:55.000Z</time>
      </trkpt>
      <trkpt lat="48.70654" lon="1.75596">
        <ele>172.5</ele>
        <time>2015-05-24T12:59:59.000Z</time>
      </trkpt>
      <trkpt lat="48.70658" lon="1.75585">
        <ele>172.7</ele>
        <time>2015-05-24T13:00:06.000Z</time>
      </trkpt>
      <trkpt lat="48.70663" lon="1.75577">
        <ele>172.9</ele>
        <time>2015-05-24T13:00:12.000Z</time>
      </trkpt>
      <trkpt lat="48.70664" lon="1.75576">
        <ele>172.9</ele>
        <time>2015-05-24T13:00:13.000Z</time>
      </trkpt>
      <trkpt lat="48.70672" lon="1.75565">
        <ele>172.9</ele>
        <time>2015-05-24T13:00:21.000Z</time>
      </trkpt>
      <trkpt lat="48.70674" lon="1.75564">
        <ele>172.9</ele>
        <time>2015-05-24T13:00:22.000Z</time>
      </trkpt>
      <trkpt lat="48.70676" lon="1.75556">
        <ele>173</ele>
        <time>2015-05-24T13:00:26.000Z</time>
      </trkpt>
      <trkpt lat="48.70681" lon="1.75541">
        <ele>173</ele>
        <time>2015-05-24T13:00:33.000Z</time>
      </trkpt>
      <trkpt lat="48.70688" lon="1.75531">
        <ele>173</ele>
        <time>2015-05-24T13:00:37.000Z</time>
      </trkpt>
      <trkpt lat="48.70689" lon="1.75528">
        <ele>173</ele>
        <time>2015-05-24T13:00:38.000Z</time>
      </trkpt>
      <trkpt lat="48.70695" lon="1.75519">
        <ele>173</ele>
        <time>2015-05-24T13:00:42.000Z</time>
      </trkpt>
      <trkpt lat="48.70697" lon="1.75513">
        <ele>173</ele>
        <time>2015-05-24T13:00:45.000Z</time>
      </trkpt>
      <trkpt lat="48.70701" lon="1.75504">
        <ele>173</ele>
        <time>2015-05-24T13:00:50.000Z</time>
      </trkpt>
      <trkpt lat="48.70704" lon="1.75493">
        <ele>173</ele>
        <time>2015-05-24T13:00:57.000Z</time>
      </trkpt>
      <trkpt lat="48.70704" lon="1.75483">
        <ele>173</ele>
        <time>2015-05-24T13:01:03.000Z</time>
      </trkpt>
      <trkpt lat="48.70703" lon="1.75482">
        <ele>173</ele>
        <time>2015-05-24T13:01:08.000Z</time>
      </trkpt>
      <trkpt lat="48.70702" lon="1.75488">
        <ele>173</ele>
        <time>2015-05-24T13:01:39.000Z</time>
      </trkpt>
      <trkpt lat="48.70702" lon="1.75492">
        <ele>173</ele>
        <time>2015-05-24T13:01:42.000Z</time>
      </trkpt>
      <trkpt lat="48.70702" lon="1.75492">
        <ele>173</ele>
        <time>2015-05-24T13:01:43.000Z</time>
      </trkpt>
      <trkpt lat="48.70696" lon="1.75492">
        <ele>173</ele>
        <time>2015-05-24T13:02:20.000Z</time>
      </trkpt>
      <trkpt lat="48.70697" lon="1.7549">
        <ele>173</ele>
        <time>2015-05-24T13:02:21.000Z</time>
      </trkpt>
      <trkpt lat="48.70699" lon="1.7549">
        <ele>173</ele>
        <time>2015-05-24T13:02:25.000Z</time>
      </trkpt>
      <trkpt lat="48.70699" lon="1.75491">
        <ele>173</ele>
        <time>2015-05-24T13:02:29.000Z</time>
      </trkpt>
      <trkpt lat="48.707" lon="1.75472">
        <ele>173</ele>
        <time>2015-05-24T13:10:54.000Z</time>
      </trkpt>
      <trkpt lat="48.707" lon="1.75471">
        <ele>173</ele>
        <time>2015-05-24T13:10:55.000Z</time>
      </trkpt>
    </trkseg>
  </trk>
</gpx>